<?xml version="1.0" encoding="UTF-8" standalone="no" ?>
<gpx xmlns="http://www.topografix.com/GPX/1/1" xmlns:xsi="http://www.w3.org/2001/XMLSchema-instance" xsi:schemaLocation="http://www.topografix.com/GPX/1/1 http://www.topografix.com/GPX/1/1/gpx.xsd" version="1.1" creator="VisuGPX - https://www.visugpx.com">
  <metadata>
    <name>St Julien Molin Molette</name>
    <desc><![CDATA[St Julien Molin Molette autour du lac du Ternay (Pilat/Ardèche)]]></desc>
  </metadata>
  <trk>
    <name><![CDATA[10-SEP-11 16:59:09]]></name>
    <trkseg>
      <trkpt lat="45.31984" lon="4.61683">
        <ele>557.7</ele>
        <time>2011-09-10T10:02:00Z</time>
      </trkpt>
      <trkpt lat="45.31984" lon="4.61683">
        <ele>556.74</ele>
        <time>2011-09-10T10:02:01Z</time>
      </trkpt>
      <trkpt lat="45.31984" lon="4.61683">
        <ele>552.9</ele>
        <time>2011-09-10T10:02:15Z</time>
      </trkpt>
      <trkpt lat="45.31984" lon="4.61683">
        <ele>559.62</ele>
        <time>2011-09-10T10:02:16Z</time>
      </trkpt>
      <trkpt lat="45.31983" lon="4.61686">
        <ele>561.07</ele>
        <time>2011-09-10T10:02:23Z</time>
      </trkpt>
      <trkpt lat="45.31982" lon="4.61689">
        <ele>564.43</ele>
        <time>2011-09-10T10:02:29Z</time>
      </trkpt>
      <trkpt lat="45.31982" lon="4.6169">
        <ele>565.39</ele>
        <time>2011-09-10T10:02:31Z</time>
      </trkpt>
      <trkpt lat="45.31981" lon="4.61691">
        <ele>567.32</ele>
        <time>2011-09-10T10:02:35Z</time>
      </trkpt>
      <trkpt lat="45.31983" lon="4.61691">
        <ele>570.2</ele>
        <time>2011-09-10T10:02:40Z</time>
      </trkpt>
      <trkpt lat="45.31983" lon="4.61691">
        <ele>573.08</ele>
        <time>2011-09-10T10:02:47Z</time>
      </trkpt>
      <trkpt lat="45.31982" lon="4.61691">
        <ele>574.04</ele>
        <time>2011-09-10T10:02:49Z</time>
      </trkpt>
      <trkpt lat="45.31981" lon="4.61689">
        <ele>576.93</ele>
        <time>2011-09-10T10:02:59Z</time>
      </trkpt>
      <trkpt lat="45.31982" lon="4.61689">
        <ele>573.08</ele>
        <time>2011-09-10T10:03:04Z</time>
      </trkpt>
      <trkpt lat="45.31982" lon="4.61689">
        <ele>577.89</ele>
        <time>2011-09-10T10:03:06Z</time>
      </trkpt>
      <trkpt lat="45.31982" lon="4.61689">
        <ele>576.45</ele>
        <time>2011-09-10T10:03:07Z</time>
      </trkpt>
      <trkpt lat="45.31982" lon="4.61689">
        <ele>580.77</ele>
        <time>2011-09-10T10:03:13Z</time>
      </trkpt>
      <trkpt lat="45.31982" lon="4.61689">
        <ele>578.85</ele>
        <time>2011-09-10T10:03:16Z</time>
      </trkpt>
      <trkpt lat="45.31982" lon="4.61688">
        <ele>578.85</ele>
        <time>2011-09-10T10:03:43Z</time>
      </trkpt>
      <trkpt lat="45.31982" lon="4.61688">
        <ele>578.37</ele>
        <time>2011-09-10T10:04:16Z</time>
      </trkpt>
      <trkpt lat="45.31982" lon="4.61688">
        <ele>577.89</ele>
        <time>2011-09-10T10:04:43Z</time>
      </trkpt>
      <trkpt lat="45.31982" lon="4.61689">
        <ele>581.25</ele>
        <time>2011-09-10T10:05:01Z</time>
      </trkpt>
      <trkpt lat="45.31982" lon="4.61689">
        <ele>577.41</ele>
        <time>2011-09-10T10:05:02Z</time>
      </trkpt>
      <trkpt lat="45.31982" lon="4.61689">
        <ele>578.85</ele>
        <time>2011-09-10T10:05:32Z</time>
      </trkpt>
      <trkpt lat="45.31982" lon="4.61689">
        <ele>579.33</ele>
        <time>2011-09-10T10:06:08Z</time>
      </trkpt>
      <trkpt lat="45.31982" lon="4.6169">
        <ele>578.85</ele>
        <time>2011-09-10T10:06:40Z</time>
      </trkpt>
      <trkpt lat="45.31982" lon="4.61689">
        <ele>578.85</ele>
        <time>2011-09-10T10:07:12Z</time>
      </trkpt>
      <trkpt lat="45.31982" lon="4.6169">
        <ele>579.81</ele>
        <time>2011-09-10T10:07:39Z</time>
      </trkpt>
      <trkpt lat="45.31982" lon="4.6169">
        <ele>579.81</ele>
        <time>2011-09-10T10:08:05Z</time>
      </trkpt>
      <trkpt lat="45.31982" lon="4.6169">
        <ele>579.81</ele>
        <time>2011-09-10T10:08:43Z</time>
      </trkpt>
      <trkpt lat="45.31982" lon="4.6169">
        <ele>575.97</ele>
        <time>2011-09-10T10:08:49Z</time>
      </trkpt>
      <trkpt lat="45.31982" lon="4.6169">
        <ele>579.81</ele>
        <time>2011-09-10T10:08:50Z</time>
      </trkpt>
      <trkpt lat="45.31982" lon="4.6169">
        <ele>580.29</ele>
        <time>2011-09-10T10:09:00Z</time>
      </trkpt>
      <trkpt lat="45.31982" lon="4.6169">
        <ele>580.77</ele>
        <time>2011-09-10T10:09:15Z</time>
      </trkpt>
      <trkpt lat="45.31982" lon="4.6169">
        <ele>579.33</ele>
        <time>2011-09-10T10:09:17Z</time>
      </trkpt>
      <trkpt lat="45.31982" lon="4.6169">
        <ele>575.97</ele>
        <time>2011-09-10T10:09:33Z</time>
      </trkpt>
      <trkpt lat="45.31982" lon="4.6169">
        <ele>581.25</ele>
        <time>2011-09-10T10:09:34Z</time>
      </trkpt>
      <trkpt lat="45.31982" lon="4.6169">
        <ele>577.89</ele>
        <time>2011-09-10T10:09:37Z</time>
      </trkpt>
      <trkpt lat="45.31982" lon="4.61689">
        <ele>579.33</ele>
        <time>2011-09-10T10:09:40Z</time>
      </trkpt>
      <trkpt lat="45.31978" lon="4.6169">
        <ele>579.81</ele>
        <time>2011-09-10T10:09:45Z</time>
      </trkpt>
      <trkpt lat="45.3196" lon="4.61713">
        <ele>579.33</ele>
        <time>2011-09-10T10:10:00Z</time>
      </trkpt>
      <trkpt lat="45.3196" lon="4.61713">
        <ele>579.33</ele>
        <time>2011-09-10T10:10:29Z</time>
      </trkpt>
      <trkpt lat="45.3196" lon="4.61713">
        <ele>579.81</ele>
        <time>2011-09-10T10:11:00Z</time>
      </trkpt>
      <trkpt lat="45.3196" lon="4.61713">
        <ele>579.33</ele>
        <time>2011-09-10T10:11:29Z</time>
      </trkpt>
      <trkpt lat="45.3196" lon="4.61713">
        <ele>580.29</ele>
        <time>2011-09-10T10:11:57Z</time>
      </trkpt>
      <trkpt lat="45.3196" lon="4.61713">
        <ele>579.81</ele>
        <time>2011-09-10T10:11:59Z</time>
      </trkpt>
      <trkpt lat="45.31948" lon="4.61738">
        <ele>579.81</ele>
        <time>2011-09-10T10:12:07Z</time>
      </trkpt>
      <trkpt lat="45.31942" lon="4.61755">
        <ele>578.85</ele>
        <time>2011-09-10T10:12:10Z</time>
      </trkpt>
      <trkpt lat="45.31917" lon="4.61794">
        <ele>578.37</ele>
        <time>2011-09-10T10:12:18Z</time>
      </trkpt>
      <trkpt lat="45.31913" lon="4.61797">
        <ele>578.37</ele>
        <time>2011-09-10T10:12:19Z</time>
      </trkpt>
      <trkpt lat="45.31909" lon="4.61801">
        <ele>577.89</ele>
        <time>2011-09-10T10:12:20Z</time>
      </trkpt>
      <trkpt lat="45.31893" lon="4.61818">
        <ele>577.89</ele>
        <time>2011-09-10T10:12:25Z</time>
      </trkpt>
      <trkpt lat="45.3189" lon="4.61821">
        <ele>576.45</ele>
        <time>2011-09-10T10:12:26Z</time>
      </trkpt>
      <trkpt lat="45.31874" lon="4.61835">
        <ele>576.45</ele>
        <time>2011-09-10T10:12:32Z</time>
      </trkpt>
      <trkpt lat="45.31873" lon="4.61836">
        <ele>573.08</ele>
        <time>2011-09-10T10:12:38Z</time>
      </trkpt>
      <trkpt lat="45.31873" lon="4.61836">
        <ele>577.41</ele>
        <time>2011-09-10T10:12:39Z</time>
      </trkpt>
      <trkpt lat="45.31873" lon="4.61837">
        <ele>576.45</ele>
        <time>2011-09-10T10:12:45Z</time>
      </trkpt>
      <trkpt lat="45.31872" lon="4.61839">
        <ele>576.45</ele>
        <time>2011-09-10T10:12:46Z</time>
      </trkpt>
      <trkpt lat="45.31871" lon="4.61842">
        <ele>576.45</ele>
        <time>2011-09-10T10:12:47Z</time>
      </trkpt>
      <trkpt lat="45.3187" lon="4.61846">
        <ele>576.45</ele>
        <time>2011-09-10T10:12:48Z</time>
      </trkpt>
      <trkpt lat="45.31869" lon="4.61851">
        <ele>576.45</ele>
        <time>2011-09-10T10:12:49Z</time>
      </trkpt>
      <trkpt lat="45.31868" lon="4.61856">
        <ele>575.01</ele>
        <time>2011-09-10T10:12:50Z</time>
      </trkpt>
      <trkpt lat="45.31867" lon="4.61862">
        <ele>574.53</ele>
        <time>2011-09-10T10:12:51Z</time>
      </trkpt>
      <trkpt lat="45.31864" lon="4.61868">
        <ele>574.04</ele>
        <time>2011-09-10T10:12:52Z</time>
      </trkpt>
      <trkpt lat="45.31862" lon="4.61875">
        <ele>574.04</ele>
        <time>2011-09-10T10:12:53Z</time>
      </trkpt>
      <trkpt lat="45.31859" lon="4.61882">
        <ele>573.56</ele>
        <time>2011-09-10T10:12:54Z</time>
      </trkpt>
      <trkpt lat="45.31848" lon="4.61913">
        <ele>572.6</ele>
        <time>2011-09-10T10:12:58Z</time>
      </trkpt>
      <trkpt lat="45.31823" lon="4.6197">
        <ele>569.72</ele>
        <time>2011-09-10T10:13:04Z</time>
      </trkpt>
      <trkpt lat="45.31771" lon="4.62083">
        <ele>567.8</ele>
        <time>2011-09-10T10:13:17Z</time>
      </trkpt>
      <trkpt lat="45.31749" lon="4.62114">
        <ele>568.28</ele>
        <time>2011-09-10T10:13:26Z</time>
      </trkpt>
      <trkpt lat="45.31717" lon="4.62161">
        <ele>568.76</ele>
        <time>2011-09-10T10:13:37Z</time>
      </trkpt>
      <trkpt lat="45.31715" lon="4.62167">
        <ele>568.76</ele>
        <time>2011-09-10T10:13:38Z</time>
      </trkpt>
      <trkpt lat="45.31713" lon="4.62173">
        <ele>568.28</ele>
        <time>2011-09-10T10:13:39Z</time>
      </trkpt>
      <trkpt lat="45.31689" lon="4.62246">
        <ele>567.8</ele>
        <time>2011-09-10T10:13:52Z</time>
      </trkpt>
      <trkpt lat="45.31675" lon="4.62304">
        <ele>566.83</ele>
        <time>2011-09-10T10:14:01Z</time>
      </trkpt>
      <trkpt lat="45.31671" lon="4.62319">
        <ele>566.83</ele>
        <time>2011-09-10T10:14:03Z</time>
      </trkpt>
      <trkpt lat="45.31668" lon="4.62325">
        <ele>566.83</ele>
        <time>2011-09-10T10:14:04Z</time>
      </trkpt>
      <trkpt lat="45.31665" lon="4.62331">
        <ele>566.83</ele>
        <time>2011-09-10T10:14:05Z</time>
      </trkpt>
      <trkpt lat="45.31656" lon="4.62349">
        <ele>565.87</ele>
        <time>2011-09-10T10:14:08Z</time>
      </trkpt>
      <trkpt lat="45.31654" lon="4.62355">
        <ele>566.35</ele>
        <time>2011-09-10T10:14:09Z</time>
      </trkpt>
      <trkpt lat="45.31653" lon="4.62361">
        <ele>566.35</ele>
        <time>2011-09-10T10:14:10Z</time>
      </trkpt>
      <trkpt lat="45.31652" lon="4.62367">
        <ele>565.87</ele>
        <time>2011-09-10T10:14:11Z</time>
      </trkpt>
      <trkpt lat="45.31651" lon="4.62374">
        <ele>565.87</ele>
        <time>2011-09-10T10:14:12Z</time>
      </trkpt>
      <trkpt lat="45.31651" lon="4.6238">
        <ele>565.87</ele>
        <time>2011-09-10T10:14:13Z</time>
      </trkpt>
      <trkpt lat="45.31637" lon="4.62493">
        <ele>567.32</ele>
        <time>2011-09-10T10:14:31Z</time>
      </trkpt>
      <trkpt lat="45.31624" lon="4.6255">
        <ele>568.76</ele>
        <time>2011-09-10T10:14:41Z</time>
      </trkpt>
      <trkpt lat="45.31623" lon="4.62558">
        <ele>568.76</ele>
        <time>2011-09-10T10:14:42Z</time>
      </trkpt>
      <trkpt lat="45.31623" lon="4.62578">
        <ele>568.76</ele>
        <time>2011-09-10T10:14:45Z</time>
      </trkpt>
      <trkpt lat="45.31621" lon="4.62604">
        <ele>568.76</ele>
        <time>2011-09-10T10:14:49Z</time>
      </trkpt>
      <trkpt lat="45.31608" lon="4.62708">
        <ele>570.2</ele>
        <time>2011-09-10T10:15:05Z</time>
      </trkpt>
      <trkpt lat="45.316" lon="4.62737">
        <ele>571.64</ele>
        <time>2011-09-10T10:15:10Z</time>
      </trkpt>
      <trkpt lat="45.31592" lon="4.62755">
        <ele>570.2</ele>
        <time>2011-09-10T10:15:13Z</time>
      </trkpt>
      <trkpt lat="45.3159" lon="4.62763">
        <ele>570.68</ele>
        <time>2011-09-10T10:15:14Z</time>
      </trkpt>
      <trkpt lat="45.31589" lon="4.6277">
        <ele>569.72</ele>
        <time>2011-09-10T10:15:15Z</time>
      </trkpt>
      <trkpt lat="45.31589" lon="4.62777">
        <ele>569.24</ele>
        <time>2011-09-10T10:15:16Z</time>
      </trkpt>
      <trkpt lat="45.3159" lon="4.62783">
        <ele>569.72</ele>
        <time>2011-09-10T10:15:17Z</time>
      </trkpt>
      <trkpt lat="45.31589" lon="4.62809">
        <ele>569.72</ele>
        <time>2011-09-10T10:15:21Z</time>
      </trkpt>
      <trkpt lat="45.31583" lon="4.62859">
        <ele>574.04</ele>
        <time>2011-09-10T10:15:29Z</time>
      </trkpt>
      <trkpt lat="45.31582" lon="4.62865">
        <ele>570.2</ele>
        <time>2011-09-10T10:15:30Z</time>
      </trkpt>
      <trkpt lat="45.31571" lon="4.62942">
        <ele>569.72</ele>
        <time>2011-09-10T10:15:42Z</time>
      </trkpt>
      <trkpt lat="45.31571" lon="4.62949">
        <ele>569.24</ele>
        <time>2011-09-10T10:15:43Z</time>
      </trkpt>
      <trkpt lat="45.31571" lon="4.62964">
        <ele>568.76</ele>
        <time>2011-09-10T10:15:45Z</time>
      </trkpt>
      <trkpt lat="45.31571" lon="4.62971">
        <ele>568.76</ele>
        <time>2011-09-10T10:15:46Z</time>
      </trkpt>
      <trkpt lat="45.31571" lon="4.62978">
        <ele>571.64</ele>
        <time>2011-09-10T10:15:47Z</time>
      </trkpt>
      <trkpt lat="45.31571" lon="4.62994">
        <ele>568.28</ele>
        <time>2011-09-10T10:15:49Z</time>
      </trkpt>
      <trkpt lat="45.31569" lon="4.63018">
        <ele>565.87</ele>
        <time>2011-09-10T10:15:52Z</time>
      </trkpt>
      <trkpt lat="45.31569" lon="4.63027">
        <ele>568.76</ele>
        <time>2011-09-10T10:15:53Z</time>
      </trkpt>
      <trkpt lat="45.31564" lon="4.63076">
        <ele>566.35</ele>
        <time>2011-09-10T10:15:59Z</time>
      </trkpt>
      <trkpt lat="45.31562" lon="4.63082">
        <ele>565.87</ele>
        <time>2011-09-10T10:16:00Z</time>
      </trkpt>
      <trkpt lat="45.3156" lon="4.63089">
        <ele>562.03</ele>
        <time>2011-09-10T10:16:01Z</time>
      </trkpt>
      <trkpt lat="45.31559" lon="4.63095">
        <ele>565.87</ele>
        <time>2011-09-10T10:16:02Z</time>
      </trkpt>
      <trkpt lat="45.31555" lon="4.63107">
        <ele>564.91</ele>
        <time>2011-09-10T10:16:04Z</time>
      </trkpt>
      <trkpt lat="45.31553" lon="4.63114">
        <ele>565.39</ele>
        <time>2011-09-10T10:16:05Z</time>
      </trkpt>
      <trkpt lat="45.31549" lon="4.63128">
        <ele>563.95</ele>
        <time>2011-09-10T10:16:07Z</time>
      </trkpt>
      <trkpt lat="45.31548" lon="4.63135">
        <ele>564.43</ele>
        <time>2011-09-10T10:16:08Z</time>
      </trkpt>
      <trkpt lat="45.31547" lon="4.63142">
        <ele>563.47</ele>
        <time>2011-09-10T10:16:09Z</time>
      </trkpt>
      <trkpt lat="45.31545" lon="4.63177">
        <ele>562.51</ele>
        <time>2011-09-10T10:16:14Z</time>
      </trkpt>
      <trkpt lat="45.31543" lon="4.63185">
        <ele>562.03</ele>
        <time>2011-09-10T10:16:15Z</time>
      </trkpt>
      <trkpt lat="45.31534" lon="4.63209">
        <ele>561.55</ele>
        <time>2011-09-10T10:16:18Z</time>
      </trkpt>
      <trkpt lat="45.31517" lon="4.63242">
        <ele>559.62</ele>
        <time>2011-09-10T10:16:22Z</time>
      </trkpt>
      <trkpt lat="45.31512" lon="4.63248">
        <ele>559.62</ele>
        <time>2011-09-10T10:16:23Z</time>
      </trkpt>
      <trkpt lat="45.31506" lon="4.63253">
        <ele>559.14</ele>
        <time>2011-09-10T10:16:24Z</time>
      </trkpt>
      <trkpt lat="45.31499" lon="4.63258">
        <ele>558.66</ele>
        <time>2011-09-10T10:16:25Z</time>
      </trkpt>
      <trkpt lat="45.31492" lon="4.63261">
        <ele>557.7</ele>
        <time>2011-09-10T10:16:26Z</time>
      </trkpt>
      <trkpt lat="45.31484" lon="4.63264">
        <ele>557.22</ele>
        <time>2011-09-10T10:16:27Z</time>
      </trkpt>
      <trkpt lat="45.31476" lon="4.63267">
        <ele>556.74</ele>
        <time>2011-09-10T10:16:28Z</time>
      </trkpt>
      <trkpt lat="45.31451" lon="4.63272">
        <ele>553.86</ele>
        <time>2011-09-10T10:16:31Z</time>
      </trkpt>
      <trkpt lat="45.31437" lon="4.63275">
        <ele>552.41</ele>
        <time>2011-09-10T10:16:33Z</time>
      </trkpt>
      <trkpt lat="45.31407" lon="4.63274">
        <ele>550.49</ele>
        <time>2011-09-10T10:16:39Z</time>
      </trkpt>
      <trkpt lat="45.31355" lon="4.63282">
        <ele>551.45</ele>
        <time>2011-09-10T10:16:53Z</time>
      </trkpt>
      <trkpt lat="45.31353" lon="4.63282">
        <ele>550.97</ele>
        <time>2011-09-10T10:16:54Z</time>
      </trkpt>
      <trkpt lat="45.31352" lon="4.63283">
        <ele>551.45</ele>
        <time>2011-09-10T10:16:55Z</time>
      </trkpt>
      <trkpt lat="45.31354" lon="4.63285">
        <ele>550.97</ele>
        <time>2011-09-10T10:16:58Z</time>
      </trkpt>
      <trkpt lat="45.31356" lon="4.63285">
        <ele>550.97</ele>
        <time>2011-09-10T10:16:59Z</time>
      </trkpt>
      <trkpt lat="45.31358" lon="4.63284">
        <ele>550.97</ele>
        <time>2011-09-10T10:17:00Z</time>
      </trkpt>
      <trkpt lat="45.31361" lon="4.63284">
        <ele>550.97</ele>
        <time>2011-09-10T10:17:01Z</time>
      </trkpt>
      <trkpt lat="45.31364" lon="4.63283">
        <ele>550.97</ele>
        <time>2011-09-10T10:17:02Z</time>
      </trkpt>
      <trkpt lat="45.3142" lon="4.63274">
        <ele>550.49</ele>
        <time>2011-09-10T10:17:18Z</time>
      </trkpt>
      <trkpt lat="45.31464" lon="4.63267">
        <ele>553.38</ele>
        <time>2011-09-10T10:17:33Z</time>
      </trkpt>
      <trkpt lat="45.31493" lon="4.63258">
        <ele>556.26</ele>
        <time>2011-09-10T10:17:46Z</time>
      </trkpt>
      <trkpt lat="45.31524" lon="4.6323">
        <ele>559.62</ele>
        <time>2011-09-10T10:18:00Z</time>
      </trkpt>
      <trkpt lat="45.31545" lon="4.63182">
        <ele>562.03</ele>
        <time>2011-09-10T10:18:15Z</time>
      </trkpt>
      <trkpt lat="45.31546" lon="4.63174">
        <ele>562.99</ele>
        <time>2011-09-10T10:18:18Z</time>
      </trkpt>
      <trkpt lat="45.31546" lon="4.63171">
        <ele>562.99</ele>
        <time>2011-09-10T10:18:19Z</time>
      </trkpt>
      <trkpt lat="45.31546" lon="4.63168">
        <ele>563.47</ele>
        <time>2011-09-10T10:18:20Z</time>
      </trkpt>
      <trkpt lat="45.31546" lon="4.63165">
        <ele>562.99</ele>
        <time>2011-09-10T10:18:21Z</time>
      </trkpt>
      <trkpt lat="45.31547" lon="4.63162">
        <ele>562.99</ele>
        <time>2011-09-10T10:18:22Z</time>
      </trkpt>
      <trkpt lat="45.3155" lon="4.63147">
        <ele>563.47</ele>
        <time>2011-09-10T10:18:35Z</time>
      </trkpt>
      <trkpt lat="45.3155" lon="4.63147">
        <ele>564.91</ele>
        <time>2011-09-10T10:18:39Z</time>
      </trkpt>
      <trkpt lat="45.31548" lon="4.63146">
        <ele>563.47</ele>
        <time>2011-09-10T10:18:48Z</time>
      </trkpt>
      <trkpt lat="45.31547" lon="4.63149">
        <ele>562.99</ele>
        <time>2011-09-10T10:18:53Z</time>
      </trkpt>
      <trkpt lat="45.31547" lon="4.63152">
        <ele>562.99</ele>
        <time>2011-09-10T10:18:54Z</time>
      </trkpt>
      <trkpt lat="45.31546" lon="4.63155">
        <ele>562.99</ele>
        <time>2011-09-10T10:18:55Z</time>
      </trkpt>
      <trkpt lat="45.31545" lon="4.63158">
        <ele>562.99</ele>
        <time>2011-09-10T10:18:56Z</time>
      </trkpt>
      <trkpt lat="45.31545" lon="4.63163">
        <ele>563.47</ele>
        <time>2011-09-10T10:18:57Z</time>
      </trkpt>
      <trkpt lat="45.31545" lon="4.63167">
        <ele>562.99</ele>
        <time>2011-09-10T10:18:58Z</time>
      </trkpt>
      <trkpt lat="45.31546" lon="4.63171">
        <ele>562.99</ele>
        <time>2011-09-10T10:18:59Z</time>
      </trkpt>
      <trkpt lat="45.3154" lon="4.63197">
        <ele>561.55</ele>
        <time>2011-09-10T10:19:05Z</time>
      </trkpt>
      <trkpt lat="45.31538" lon="4.63202">
        <ele>561.07</ele>
        <time>2011-09-10T10:19:06Z</time>
      </trkpt>
      <trkpt lat="45.31525" lon="4.6323">
        <ele>560.11</ele>
        <time>2011-09-10T10:19:11Z</time>
      </trkpt>
      <trkpt lat="45.31522" lon="4.63235">
        <ele>560.11</ele>
        <time>2011-09-10T10:19:12Z</time>
      </trkpt>
      <trkpt lat="45.31519" lon="4.63239">
        <ele>560.11</ele>
        <time>2011-09-10T10:19:13Z</time>
      </trkpt>
      <trkpt lat="45.31516" lon="4.63242">
        <ele>560.11</ele>
        <time>2011-09-10T10:19:14Z</time>
      </trkpt>
      <trkpt lat="45.31512" lon="4.63245">
        <ele>559.62</ele>
        <time>2011-09-10T10:19:15Z</time>
      </trkpt>
      <trkpt lat="45.31508" lon="4.63248">
        <ele>558.66</ele>
        <time>2011-09-10T10:19:16Z</time>
      </trkpt>
      <trkpt lat="45.31504" lon="4.63251">
        <ele>558.18</ele>
        <time>2011-09-10T10:19:17Z</time>
      </trkpt>
      <trkpt lat="45.31485" lon="4.63261">
        <ele>554.34</ele>
        <time>2011-09-10T10:19:21Z</time>
      </trkpt>
      <trkpt lat="45.3145" lon="4.63268">
        <ele>552.9</ele>
        <time>2011-09-10T10:19:28Z</time>
      </trkpt>
      <trkpt lat="45.31416" lon="4.6327">
        <ele>550.49</ele>
        <time>2011-09-10T10:19:36Z</time>
      </trkpt>
      <trkpt lat="45.31404" lon="4.63272">
        <ele>550.49</ele>
        <time>2011-09-10T10:19:40Z</time>
      </trkpt>
      <trkpt lat="45.31403" lon="4.63275">
        <ele>550.49</ele>
        <time>2011-09-10T10:19:41Z</time>
      </trkpt>
      <trkpt lat="45.31403" lon="4.63278">
        <ele>550.01</ele>
        <time>2011-09-10T10:19:42Z</time>
      </trkpt>
      <trkpt lat="45.31404" lon="4.6328">
        <ele>549.53</ele>
        <time>2011-09-10T10:19:43Z</time>
      </trkpt>
      <trkpt lat="45.31405" lon="4.63283">
        <ele>548.57</ele>
        <time>2011-09-10T10:19:44Z</time>
      </trkpt>
      <trkpt lat="45.31406" lon="4.63284">
        <ele>549.05</ele>
        <time>2011-09-10T10:19:45Z</time>
      </trkpt>
      <trkpt lat="45.3141" lon="4.63291">
        <ele>547.13</ele>
        <time>2011-09-10T10:19:54Z</time>
      </trkpt>
      <trkpt lat="45.31412" lon="4.63292">
        <ele>547.61</ele>
        <time>2011-09-10T10:19:55Z</time>
      </trkpt>
      <trkpt lat="45.31415" lon="4.63295">
        <ele>546.65</ele>
        <time>2011-09-10T10:19:56Z</time>
      </trkpt>
      <trkpt lat="45.31417" lon="4.63296">
        <ele>546.65</ele>
        <time>2011-09-10T10:19:57Z</time>
      </trkpt>
      <trkpt lat="45.31419" lon="4.63298">
        <ele>546.65</ele>
        <time>2011-09-10T10:19:58Z</time>
      </trkpt>
      <trkpt lat="45.31421" lon="4.63301">
        <ele>546.17</ele>
        <time>2011-09-10T10:19:59Z</time>
      </trkpt>
      <trkpt lat="45.31424" lon="4.63305">
        <ele>546.65</ele>
        <time>2011-09-10T10:20:00Z</time>
      </trkpt>
      <trkpt lat="45.31426" lon="4.63308">
        <ele>545.69</ele>
        <time>2011-09-10T10:20:01Z</time>
      </trkpt>
      <trkpt lat="45.31451" lon="4.63338">
        <ele>542.32</ele>
        <time>2011-09-10T10:20:08Z</time>
      </trkpt>
      <trkpt lat="45.3146" lon="4.63345">
        <ele>539.92</ele>
        <time>2011-09-10T10:20:10Z</time>
      </trkpt>
      <trkpt lat="45.31464" lon="4.63347">
        <ele>539.92</ele>
        <time>2011-09-10T10:20:11Z</time>
      </trkpt>
      <trkpt lat="45.31476" lon="4.63355">
        <ele>537.51</ele>
        <time>2011-09-10T10:20:14Z</time>
      </trkpt>
      <trkpt lat="45.3148" lon="4.63358">
        <ele>537.03</ele>
        <time>2011-09-10T10:20:15Z</time>
      </trkpt>
      <trkpt lat="45.31495" lon="4.63379">
        <ele>533.67</ele>
        <time>2011-09-10T10:20:23Z</time>
      </trkpt>
      <trkpt lat="45.31496" lon="4.63384">
        <ele>533.67</ele>
        <time>2011-09-10T10:20:32Z</time>
      </trkpt>
      <trkpt lat="45.31496" lon="4.63393">
        <ele>532.71</ele>
        <time>2011-09-10T10:20:37Z</time>
      </trkpt>
      <trkpt lat="45.315" lon="4.63426">
        <ele>534.15</ele>
        <time>2011-09-10T10:20:49Z</time>
      </trkpt>
      <trkpt lat="45.3151" lon="4.63463">
        <ele>538.48</ele>
        <time>2011-09-10T10:21:01Z</time>
      </trkpt>
      <trkpt lat="45.31516" lon="4.63479">
        <ele>537.03</ele>
        <time>2011-09-10T10:21:09Z</time>
      </trkpt>
      <trkpt lat="45.3152" lon="4.63498">
        <ele>539.44</ele>
        <time>2011-09-10T10:21:19Z</time>
      </trkpt>
      <trkpt lat="45.3152" lon="4.635">
        <ele>539.44</ele>
        <time>2011-09-10T10:21:20Z</time>
      </trkpt>
      <trkpt lat="45.31518" lon="4.63507">
        <ele>539.92</ele>
        <time>2011-09-10T10:21:24Z</time>
      </trkpt>
      <trkpt lat="45.31517" lon="4.63509">
        <ele>540.4</ele>
        <time>2011-09-10T10:21:26Z</time>
      </trkpt>
      <trkpt lat="45.31499" lon="4.63529">
        <ele>541.84</ele>
        <time>2011-09-10T10:21:41Z</time>
      </trkpt>
      <trkpt lat="45.31485" lon="4.63549">
        <ele>544.24</ele>
        <time>2011-09-10T10:21:56Z</time>
      </trkpt>
      <trkpt lat="45.31485" lon="4.6355">
        <ele>544.24</ele>
        <time>2011-09-10T10:21:57Z</time>
      </trkpt>
      <trkpt lat="45.31479" lon="4.63556">
        <ele>544.72</ele>
        <time>2011-09-10T10:22:04Z</time>
      </trkpt>
      <trkpt lat="45.31478" lon="4.63557">
        <ele>544.72</ele>
        <time>2011-09-10T10:22:05Z</time>
      </trkpt>
      <trkpt lat="45.31465" lon="4.63572">
        <ele>547.61</ele>
        <time>2011-09-10T10:22:18Z</time>
      </trkpt>
      <trkpt lat="45.3146" lon="4.63577">
        <ele>548.09</ele>
        <time>2011-09-10T10:22:23Z</time>
      </trkpt>
      <trkpt lat="45.31443" lon="4.63589">
        <ele>550.97</ele>
        <time>2011-09-10T10:22:35Z</time>
      </trkpt>
      <trkpt lat="45.31428" lon="4.63598">
        <ele>550.97</ele>
        <time>2011-09-10T10:22:47Z</time>
      </trkpt>
      <trkpt lat="45.31426" lon="4.63599">
        <ele>550.97</ele>
        <time>2011-09-10T10:22:48Z</time>
      </trkpt>
      <trkpt lat="45.31424" lon="4.63599">
        <ele>550.49</ele>
        <time>2011-09-10T10:22:49Z</time>
      </trkpt>
      <trkpt lat="45.31422" lon="4.636">
        <ele>550.97</ele>
        <time>2011-09-10T10:22:50Z</time>
      </trkpt>
      <trkpt lat="45.3142" lon="4.63601">
        <ele>550.49</ele>
        <time>2011-09-10T10:22:51Z</time>
      </trkpt>
      <trkpt lat="45.31418" lon="4.63602">
        <ele>550.49</ele>
        <time>2011-09-10T10:22:52Z</time>
      </trkpt>
      <trkpt lat="45.31416" lon="4.63602">
        <ele>550.97</ele>
        <time>2011-09-10T10:22:53Z</time>
      </trkpt>
      <trkpt lat="45.31414" lon="4.63602">
        <ele>550.01</ele>
        <time>2011-09-10T10:22:54Z</time>
      </trkpt>
      <trkpt lat="45.31371" lon="4.63616">
        <ele>549.05</ele>
        <time>2011-09-10T10:23:08Z</time>
      </trkpt>
      <trkpt lat="45.31309" lon="4.63651">
        <ele>547.61</ele>
        <time>2011-09-10T10:23:24Z</time>
      </trkpt>
      <trkpt lat="45.31284" lon="4.6367">
        <ele>546.65</ele>
        <time>2011-09-10T10:23:30Z</time>
      </trkpt>
      <trkpt lat="45.3128" lon="4.63675">
        <ele>546.65</ele>
        <time>2011-09-10T10:23:31Z</time>
      </trkpt>
      <trkpt lat="45.31277" lon="4.63681">
        <ele>546.65</ele>
        <time>2011-09-10T10:23:32Z</time>
      </trkpt>
      <trkpt lat="45.31275" lon="4.63688">
        <ele>546.17</ele>
        <time>2011-09-10T10:23:33Z</time>
      </trkpt>
      <trkpt lat="45.31274" lon="4.63694">
        <ele>545.2</ele>
        <time>2011-09-10T10:23:34Z</time>
      </trkpt>
      <trkpt lat="45.31273" lon="4.63701">
        <ele>545.2</ele>
        <time>2011-09-10T10:23:35Z</time>
      </trkpt>
      <trkpt lat="45.31273" lon="4.63709">
        <ele>544.72</ele>
        <time>2011-09-10T10:23:36Z</time>
      </trkpt>
      <trkpt lat="45.31271" lon="4.63722">
        <ele>544.24</ele>
        <time>2011-09-10T10:23:38Z</time>
      </trkpt>
      <trkpt lat="45.3127" lon="4.63728">
        <ele>544.72</ele>
        <time>2011-09-10T10:23:39Z</time>
      </trkpt>
      <trkpt lat="45.31269" lon="4.63733">
        <ele>544.72</ele>
        <time>2011-09-10T10:23:40Z</time>
      </trkpt>
      <trkpt lat="45.31267" lon="4.63737">
        <ele>544.24</ele>
        <time>2011-09-10T10:23:41Z</time>
      </trkpt>
      <trkpt lat="45.31265" lon="4.63741">
        <ele>544.72</ele>
        <time>2011-09-10T10:23:42Z</time>
      </trkpt>
      <trkpt lat="45.31264" lon="4.63745">
        <ele>544.72</ele>
        <time>2011-09-10T10:23:43Z</time>
      </trkpt>
      <trkpt lat="45.31264" lon="4.63748">
        <ele>544.24</ele>
        <time>2011-09-10T10:23:44Z</time>
      </trkpt>
      <trkpt lat="45.31264" lon="4.63751">
        <ele>545.2</ele>
        <time>2011-09-10T10:23:45Z</time>
      </trkpt>
      <trkpt lat="45.31264" lon="4.63753">
        <ele>545.69</ele>
        <time>2011-09-10T10:23:46Z</time>
      </trkpt>
      <trkpt lat="45.31264" lon="4.63761">
        <ele>546.65</ele>
        <time>2011-09-10T10:23:50Z</time>
      </trkpt>
      <trkpt lat="45.31263" lon="4.63786">
        <ele>550.01</ele>
        <time>2011-09-10T10:24:04Z</time>
      </trkpt>
      <trkpt lat="45.31263" lon="4.6379">
        <ele>550.01</ele>
        <time>2011-09-10T10:24:06Z</time>
      </trkpt>
      <trkpt lat="45.31263" lon="4.63792">
        <ele>550.49</ele>
        <time>2011-09-10T10:24:07Z</time>
      </trkpt>
      <trkpt lat="45.31265" lon="4.63817">
        <ele>553.38</ele>
        <time>2011-09-10T10:24:22Z</time>
      </trkpt>
      <trkpt lat="45.31266" lon="4.6382">
        <ele>554.34</ele>
        <time>2011-09-10T10:24:24Z</time>
      </trkpt>
      <trkpt lat="45.31267" lon="4.63829">
        <ele>555.3</ele>
        <time>2011-09-10T10:24:29Z</time>
      </trkpt>
      <trkpt lat="45.31267" lon="4.63843">
        <ele>555.78</ele>
        <time>2011-09-10T10:24:38Z</time>
      </trkpt>
      <trkpt lat="45.31267" lon="4.63845">
        <ele>555.78</ele>
        <time>2011-09-10T10:24:39Z</time>
      </trkpt>
      <trkpt lat="45.31265" lon="4.63877">
        <ele>557.22</ele>
        <time>2011-09-10T10:24:54Z</time>
      </trkpt>
      <trkpt lat="45.31268" lon="4.63906">
        <ele>560.11</ele>
        <time>2011-09-10T10:25:10Z</time>
      </trkpt>
      <trkpt lat="45.31272" lon="4.63924">
        <ele>561.55</ele>
        <time>2011-09-10T10:25:20Z</time>
      </trkpt>
      <trkpt lat="45.31272" lon="4.63926">
        <ele>561.07</ele>
        <time>2011-09-10T10:25:21Z</time>
      </trkpt>
      <trkpt lat="45.31272" lon="4.63928">
        <ele>561.55</ele>
        <time>2011-09-10T10:25:22Z</time>
      </trkpt>
      <trkpt lat="45.31272" lon="4.63929">
        <ele>562.03</ele>
        <time>2011-09-10T10:25:23Z</time>
      </trkpt>
      <trkpt lat="45.31273" lon="4.63931">
        <ele>562.51</ele>
        <time>2011-09-10T10:25:24Z</time>
      </trkpt>
      <trkpt lat="45.31273" lon="4.63933">
        <ele>562.51</ele>
        <time>2011-09-10T10:25:25Z</time>
      </trkpt>
      <trkpt lat="45.31273" lon="4.63935">
        <ele>562.51</ele>
        <time>2011-09-10T10:25:26Z</time>
      </trkpt>
      <trkpt lat="45.31279" lon="4.6396">
        <ele>564.91</ele>
        <time>2011-09-10T10:25:41Z</time>
      </trkpt>
      <trkpt lat="45.31281" lon="4.6398">
        <ele>565.87</ele>
        <time>2011-09-10T10:25:52Z</time>
      </trkpt>
      <trkpt lat="45.31281" lon="4.63982">
        <ele>565.39</ele>
        <time>2011-09-10T10:25:53Z</time>
      </trkpt>
      <trkpt lat="45.31281" lon="4.63983">
        <ele>565.87</ele>
        <time>2011-09-10T10:25:54Z</time>
      </trkpt>
      <trkpt lat="45.31282" lon="4.63985">
        <ele>566.35</ele>
        <time>2011-09-10T10:25:55Z</time>
      </trkpt>
      <trkpt lat="45.31282" lon="4.63987">
        <ele>565.87</ele>
        <time>2011-09-10T10:25:56Z</time>
      </trkpt>
      <trkpt lat="45.31282" lon="4.63988">
        <ele>565.87</ele>
        <time>2011-09-10T10:25:57Z</time>
      </trkpt>
      <trkpt lat="45.31284" lon="4.64003">
        <ele>567.32</ele>
        <time>2011-09-10T10:26:05Z</time>
      </trkpt>
      <trkpt lat="45.31285" lon="4.64004">
        <ele>567.8</ele>
        <time>2011-09-10T10:26:06Z</time>
      </trkpt>
      <trkpt lat="45.31285" lon="4.64006">
        <ele>568.28</ele>
        <time>2011-09-10T10:26:07Z</time>
      </trkpt>
      <trkpt lat="45.31286" lon="4.64008">
        <ele>567.8</ele>
        <time>2011-09-10T10:26:08Z</time>
      </trkpt>
      <trkpt lat="45.31286" lon="4.64009">
        <ele>568.28</ele>
        <time>2011-09-10T10:26:09Z</time>
      </trkpt>
      <trkpt lat="45.31286" lon="4.64011">
        <ele>568.28</ele>
        <time>2011-09-10T10:26:10Z</time>
      </trkpt>
      <trkpt lat="45.31287" lon="4.64013">
        <ele>568.76</ele>
        <time>2011-09-10T10:26:11Z</time>
      </trkpt>
      <trkpt lat="45.3129" lon="4.64031">
        <ele>570.68</ele>
        <time>2011-09-10T10:26:22Z</time>
      </trkpt>
      <trkpt lat="45.3129" lon="4.64032">
        <ele>570.68</ele>
        <time>2011-09-10T10:26:23Z</time>
      </trkpt>
      <trkpt lat="45.3129" lon="4.64034">
        <ele>570.68</ele>
        <time>2011-09-10T10:26:24Z</time>
      </trkpt>
      <trkpt lat="45.3129" lon="4.64036">
        <ele>570.2</ele>
        <time>2011-09-10T10:26:25Z</time>
      </trkpt>
      <trkpt lat="45.3129" lon="4.64038">
        <ele>570.68</ele>
        <time>2011-09-10T10:26:26Z</time>
      </trkpt>
      <trkpt lat="45.3129" lon="4.64039">
        <ele>571.16</ele>
        <time>2011-09-10T10:26:27Z</time>
      </trkpt>
      <trkpt lat="45.31297" lon="4.64069">
        <ele>573.08</ele>
        <time>2011-09-10T10:26:43Z</time>
      </trkpt>
      <trkpt lat="45.31299" lon="4.6408">
        <ele>573.56</ele>
        <time>2011-09-10T10:26:49Z</time>
      </trkpt>
      <trkpt lat="45.31306" lon="4.64105">
        <ele>575.01</ele>
        <time>2011-09-10T10:27:03Z</time>
      </trkpt>
      <trkpt lat="45.3131" lon="4.6412">
        <ele>575.97</ele>
        <time>2011-09-10T10:27:11Z</time>
      </trkpt>
      <trkpt lat="45.3131" lon="4.64123">
        <ele>576.45</ele>
        <time>2011-09-10T10:27:12Z</time>
      </trkpt>
      <trkpt lat="45.3131" lon="4.64125">
        <ele>576.93</ele>
        <time>2011-09-10T10:27:13Z</time>
      </trkpt>
      <trkpt lat="45.3131" lon="4.64127">
        <ele>576.93</ele>
        <time>2011-09-10T10:27:14Z</time>
      </trkpt>
      <trkpt lat="45.3131" lon="4.64129">
        <ele>577.41</ele>
        <time>2011-09-10T10:27:15Z</time>
      </trkpt>
      <trkpt lat="45.31311" lon="4.64131">
        <ele>577.41</ele>
        <time>2011-09-10T10:27:16Z</time>
      </trkpt>
      <trkpt lat="45.31311" lon="4.64133">
        <ele>577.41</ele>
        <time>2011-09-10T10:27:17Z</time>
      </trkpt>
      <trkpt lat="45.31312" lon="4.64135">
        <ele>576.93</ele>
        <time>2011-09-10T10:27:18Z</time>
      </trkpt>
      <trkpt lat="45.31317" lon="4.6415">
        <ele>578.85</ele>
        <time>2011-09-10T10:27:25Z</time>
      </trkpt>
      <trkpt lat="45.31322" lon="4.64169">
        <ele>580.29</ele>
        <time>2011-09-10T10:27:34Z</time>
      </trkpt>
      <trkpt lat="45.31334" lon="4.64209">
        <ele>581.73</ele>
        <time>2011-09-10T10:27:51Z</time>
      </trkpt>
      <trkpt lat="45.3134" lon="4.64223">
        <ele>581.73</ele>
        <time>2011-09-10T10:28:02Z</time>
      </trkpt>
      <trkpt lat="45.3134" lon="4.64223">
        <ele>581.25</ele>
        <time>2011-09-10T10:28:37Z</time>
      </trkpt>
      <trkpt lat="45.3134" lon="4.64227">
        <ele>583.18</ele>
        <time>2011-09-10T10:29:02Z</time>
      </trkpt>
      <trkpt lat="45.31356" lon="4.64274">
        <ele>583.66</ele>
        <time>2011-09-10T10:29:19Z</time>
      </trkpt>
      <trkpt lat="45.31367" lon="4.64312">
        <ele>585.58</ele>
        <time>2011-09-10T10:29:33Z</time>
      </trkpt>
      <trkpt lat="45.31374" lon="4.64337">
        <ele>586.54</ele>
        <time>2011-09-10T10:29:44Z</time>
      </trkpt>
      <trkpt lat="45.31375" lon="4.64339">
        <ele>586.54</ele>
        <time>2011-09-10T10:30:05Z</time>
      </trkpt>
      <trkpt lat="45.31375" lon="4.64342">
        <ele>586.06</ele>
        <time>2011-09-10T10:30:06Z</time>
      </trkpt>
      <trkpt lat="45.31376" lon="4.64344">
        <ele>586.06</ele>
        <time>2011-09-10T10:30:07Z</time>
      </trkpt>
      <trkpt lat="45.31376" lon="4.64347">
        <ele>585.58</ele>
        <time>2011-09-10T10:30:08Z</time>
      </trkpt>
      <trkpt lat="45.31377" lon="4.6435">
        <ele>586.54</ele>
        <time>2011-09-10T10:30:09Z</time>
      </trkpt>
      <trkpt lat="45.31378" lon="4.64353">
        <ele>586.06</ele>
        <time>2011-09-10T10:30:10Z</time>
      </trkpt>
      <trkpt lat="45.31379" lon="4.64356">
        <ele>586.54</ele>
        <time>2011-09-10T10:30:11Z</time>
      </trkpt>
      <trkpt lat="45.31379" lon="4.64359">
        <ele>587.02</ele>
        <time>2011-09-10T10:30:12Z</time>
      </trkpt>
      <trkpt lat="45.3138" lon="4.64362">
        <ele>587.02</ele>
        <time>2011-09-10T10:30:13Z</time>
      </trkpt>
      <trkpt lat="45.31391" lon="4.64404">
        <ele>590.39</ele>
        <time>2011-09-10T10:30:29Z</time>
      </trkpt>
      <trkpt lat="45.31392" lon="4.64409">
        <ele>591.35</ele>
        <time>2011-09-10T10:30:31Z</time>
      </trkpt>
      <trkpt lat="45.31405" lon="4.64446">
        <ele>593.27</ele>
        <time>2011-09-10T10:30:44Z</time>
      </trkpt>
      <trkpt lat="45.31421" lon="4.64498">
        <ele>592.31</ele>
        <time>2011-09-10T10:30:58Z</time>
      </trkpt>
      <trkpt lat="45.31441" lon="4.64562">
        <ele>593.27</ele>
        <time>2011-09-10T10:31:13Z</time>
      </trkpt>
      <trkpt lat="45.31466" lon="4.64601">
        <ele>593.75</ele>
        <time>2011-09-10T10:31:26Z</time>
      </trkpt>
      <trkpt lat="45.3147" lon="4.64617">
        <ele>594.71</ele>
        <time>2011-09-10T10:31:30Z</time>
      </trkpt>
      <trkpt lat="45.31468" lon="4.6462">
        <ele>595.19</ele>
        <time>2011-09-10T10:31:31Z</time>
      </trkpt>
      <trkpt lat="45.31431" lon="4.6467">
        <ele>592.79</ele>
        <time>2011-09-10T10:31:44Z</time>
      </trkpt>
      <trkpt lat="45.31399" lon="4.64746">
        <ele>593.75</ele>
        <time>2011-09-10T10:32:00Z</time>
      </trkpt>
      <trkpt lat="45.31375" lon="4.64818">
        <ele>594.23</ele>
        <time>2011-09-10T10:32:16Z</time>
      </trkpt>
      <trkpt lat="45.31344" lon="4.64887">
        <ele>595.19</ele>
        <time>2011-09-10T10:32:31Z</time>
      </trkpt>
      <trkpt lat="45.31331" lon="4.64917">
        <ele>596.15</ele>
        <time>2011-09-10T10:32:37Z</time>
      </trkpt>
      <trkpt lat="45.31291" lon="4.64982">
        <ele>597.12</ele>
        <time>2011-09-10T10:32:53Z</time>
      </trkpt>
      <trkpt lat="45.31259" lon="4.6506">
        <ele>598.08</ele>
        <time>2011-09-10T10:33:11Z</time>
      </trkpt>
      <trkpt lat="45.31244" lon="4.65117">
        <ele>601.44</ele>
        <time>2011-09-10T10:33:23Z</time>
      </trkpt>
      <trkpt lat="45.31233" lon="4.65182">
        <ele>599.52</ele>
        <time>2011-09-10T10:33:35Z</time>
      </trkpt>
      <trkpt lat="45.31222" lon="4.65287">
        <ele>598.08</ele>
        <time>2011-09-10T10:33:51Z</time>
      </trkpt>
      <trkpt lat="45.31223" lon="4.653">
        <ele>597.6</ele>
        <time>2011-09-10T10:33:53Z</time>
      </trkpt>
      <trkpt lat="45.31224" lon="4.65306">
        <ele>596.64</ele>
        <time>2011-09-10T10:33:54Z</time>
      </trkpt>
      <trkpt lat="45.31226" lon="4.65312">
        <ele>599.04</ele>
        <time>2011-09-10T10:33:55Z</time>
      </trkpt>
      <trkpt lat="45.31227" lon="4.65318">
        <ele>597.12</ele>
        <time>2011-09-10T10:33:56Z</time>
      </trkpt>
      <trkpt lat="45.31228" lon="4.65324">
        <ele>597.12</ele>
        <time>2011-09-10T10:33:57Z</time>
      </trkpt>
      <trkpt lat="45.31233" lon="4.65351">
        <ele>598.56</ele>
        <time>2011-09-10T10:34:02Z</time>
      </trkpt>
      <trkpt lat="45.31234" lon="4.65362">
        <ele>596.64</ele>
        <time>2011-09-10T10:34:04Z</time>
      </trkpt>
      <trkpt lat="45.31225" lon="4.65436">
        <ele>597.6</ele>
        <time>2011-09-10T10:34:18Z</time>
      </trkpt>
      <trkpt lat="45.31209" lon="4.65485">
        <ele>601.44</ele>
        <time>2011-09-10T10:34:32Z</time>
      </trkpt>
      <trkpt lat="45.31207" lon="4.65489">
        <ele>601.44</ele>
        <time>2011-09-10T10:34:33Z</time>
      </trkpt>
      <trkpt lat="45.31189" lon="4.65531">
        <ele>603.36</ele>
        <time>2011-09-10T10:34:48Z</time>
      </trkpt>
      <trkpt lat="45.31181" lon="4.65553">
        <ele>605.29</ele>
        <time>2011-09-10T10:34:56Z</time>
      </trkpt>
      <trkpt lat="45.31172" lon="4.65583">
        <ele>607.69</ele>
        <time>2011-09-10T10:35:09Z</time>
      </trkpt>
      <trkpt lat="45.31171" lon="4.65585">
        <ele>607.69</ele>
        <time>2011-09-10T10:35:10Z</time>
      </trkpt>
      <trkpt lat="45.31167" lon="4.65607">
        <ele>608.65</ele>
        <time>2011-09-10T10:35:20Z</time>
      </trkpt>
      <trkpt lat="45.31168" lon="4.6561">
        <ele>608.65</ele>
        <time>2011-09-10T10:35:22Z</time>
      </trkpt>
      <trkpt lat="45.31169" lon="4.65612">
        <ele>608.65</ele>
        <time>2011-09-10T10:35:23Z</time>
      </trkpt>
      <trkpt lat="45.31171" lon="4.65613">
        <ele>608.17</ele>
        <time>2011-09-10T10:35:24Z</time>
      </trkpt>
      <trkpt lat="45.31173" lon="4.65614">
        <ele>609.61</ele>
        <time>2011-09-10T10:35:25Z</time>
      </trkpt>
      <trkpt lat="45.31175" lon="4.65614">
        <ele>609.13</ele>
        <time>2011-09-10T10:35:26Z</time>
      </trkpt>
      <trkpt lat="45.31177" lon="4.65615">
        <ele>609.61</ele>
        <time>2011-09-10T10:35:27Z</time>
      </trkpt>
      <trkpt lat="45.31198" lon="4.65616">
        <ele>613.46</ele>
        <time>2011-09-10T10:35:40Z</time>
      </trkpt>
      <trkpt lat="45.3121" lon="4.65624">
        <ele>613.94</ele>
        <time>2011-09-10T10:35:48Z</time>
      </trkpt>
      <trkpt lat="45.31215" lon="4.65629">
        <ele>614.42</ele>
        <time>2011-09-10T10:35:54Z</time>
      </trkpt>
      <trkpt lat="45.31216" lon="4.65631">
        <ele>614.9</ele>
        <time>2011-09-10T10:35:55Z</time>
      </trkpt>
      <trkpt lat="45.31218" lon="4.65632">
        <ele>614.9</ele>
        <time>2011-09-10T10:35:56Z</time>
      </trkpt>
      <trkpt lat="45.31229" lon="4.65662">
        <ele>617.78</ele>
        <time>2011-09-10T10:36:13Z</time>
      </trkpt>
      <trkpt lat="45.31241" lon="4.65674">
        <ele>620.19</ele>
        <time>2011-09-10T10:36:28Z</time>
      </trkpt>
      <trkpt lat="45.31243" lon="4.65675">
        <ele>620.19</ele>
        <time>2011-09-10T10:36:29Z</time>
      </trkpt>
      <trkpt lat="45.31247" lon="4.65675">
        <ele>621.63</ele>
        <time>2011-09-10T10:36:32Z</time>
      </trkpt>
      <trkpt lat="45.3127" lon="4.65679">
        <ele>621.63</ele>
        <time>2011-09-10T10:36:46Z</time>
      </trkpt>
      <trkpt lat="45.31302" lon="4.65676">
        <ele>622.59</ele>
        <time>2011-09-10T10:37:00Z</time>
      </trkpt>
      <trkpt lat="45.31323" lon="4.65664">
        <ele>621.15</ele>
        <time>2011-09-10T10:37:11Z</time>
      </trkpt>
      <trkpt lat="45.31323" lon="4.65664">
        <ele>622.11</ele>
        <time>2011-09-10T10:37:27Z</time>
      </trkpt>
      <trkpt lat="45.31325" lon="4.65663">
        <ele>621.15</ele>
        <time>2011-09-10T10:37:49Z</time>
      </trkpt>
      <trkpt lat="45.31354" lon="4.65657">
        <ele>623.07</ele>
        <time>2011-09-10T10:38:02Z</time>
      </trkpt>
      <trkpt lat="45.31375" lon="4.6566">
        <ele>626.44</ele>
        <time>2011-09-10T10:38:14Z</time>
      </trkpt>
      <trkpt lat="45.31402" lon="4.6567">
        <ele>629.32</ele>
        <time>2011-09-10T10:38:28Z</time>
      </trkpt>
      <trkpt lat="45.31419" lon="4.65681">
        <ele>629.8</ele>
        <time>2011-09-10T10:38:38Z</time>
      </trkpt>
      <trkpt lat="45.31438" lon="4.657">
        <ele>633.17</ele>
        <time>2011-09-10T10:38:51Z</time>
      </trkpt>
      <trkpt lat="45.31463" lon="4.65724">
        <ele>636.05</ele>
        <time>2011-09-10T10:39:08Z</time>
      </trkpt>
      <trkpt lat="45.31493" lon="4.65742">
        <ele>638.93</ele>
        <time>2011-09-10T10:39:25Z</time>
      </trkpt>
      <trkpt lat="45.31516" lon="4.65751">
        <ele>640.38</ele>
        <time>2011-09-10T10:39:38Z</time>
      </trkpt>
      <trkpt lat="45.31517" lon="4.65752">
        <ele>641.34</ele>
        <time>2011-09-10T10:39:39Z</time>
      </trkpt>
      <trkpt lat="45.31517" lon="4.65754">
        <ele>640.86</ele>
        <time>2011-09-10T10:39:40Z</time>
      </trkpt>
      <trkpt lat="45.31518" lon="4.65755">
        <ele>640.86</ele>
        <time>2011-09-10T10:39:41Z</time>
      </trkpt>
      <trkpt lat="45.31519" lon="4.65757">
        <ele>640.86</ele>
        <time>2011-09-10T10:39:42Z</time>
      </trkpt>
      <trkpt lat="45.3152" lon="4.65759">
        <ele>641.34</ele>
        <time>2011-09-10T10:39:43Z</time>
      </trkpt>
      <trkpt lat="45.3152" lon="4.65761">
        <ele>641.34</ele>
        <time>2011-09-10T10:39:44Z</time>
      </trkpt>
      <trkpt lat="45.31519" lon="4.65764">
        <ele>641.34</ele>
        <time>2011-09-10T10:39:45Z</time>
      </trkpt>
      <trkpt lat="45.31519" lon="4.65765">
        <ele>641.34</ele>
        <time>2011-09-10T10:39:46Z</time>
      </trkpt>
      <trkpt lat="45.31518" lon="4.65767">
        <ele>641.82</ele>
        <time>2011-09-10T10:39:47Z</time>
      </trkpt>
      <trkpt lat="45.31516" lon="4.65768">
        <ele>641.82</ele>
        <time>2011-09-10T10:39:48Z</time>
      </trkpt>
      <trkpt lat="45.31515" lon="4.65769">
        <ele>642.78</ele>
        <time>2011-09-10T10:39:49Z</time>
      </trkpt>
      <trkpt lat="45.31514" lon="4.6577">
        <ele>642.78</ele>
        <time>2011-09-10T10:39:50Z</time>
      </trkpt>
      <trkpt lat="45.31513" lon="4.65771">
        <ele>642.3</ele>
        <time>2011-09-10T10:40:07Z</time>
      </trkpt>
      <trkpt lat="45.31512" lon="4.65772">
        <ele>642.78</ele>
        <time>2011-09-10T10:40:14Z</time>
      </trkpt>
      <trkpt lat="45.31512" lon="4.65772">
        <ele>642.78</ele>
        <time>2011-09-10T10:40:27Z</time>
      </trkpt>
      <trkpt lat="45.31512" lon="4.65772">
        <ele>643.26</ele>
        <time>2011-09-10T10:41:08Z</time>
      </trkpt>
      <trkpt lat="45.31512" lon="4.65772">
        <ele>643.26</ele>
        <time>2011-09-10T10:41:10Z</time>
      </trkpt>
      <trkpt lat="45.31508" lon="4.65773">
        <ele>643.26</ele>
        <time>2011-09-10T10:41:26Z</time>
      </trkpt>
      <trkpt lat="45.31508" lon="4.65773">
        <ele>643.26</ele>
        <time>2011-09-10T10:41:30Z</time>
      </trkpt>
      <trkpt lat="45.31507" lon="4.65773">
        <ele>643.74</ele>
        <time>2011-09-10T10:41:31Z</time>
      </trkpt>
      <trkpt lat="45.31505" lon="4.65773">
        <ele>643.74</ele>
        <time>2011-09-10T10:41:32Z</time>
      </trkpt>
      <trkpt lat="45.31503" lon="4.65773">
        <ele>644.22</ele>
        <time>2011-09-10T10:41:33Z</time>
      </trkpt>
      <trkpt lat="45.31502" lon="4.65773">
        <ele>644.22</ele>
        <time>2011-09-10T10:41:34Z</time>
      </trkpt>
      <trkpt lat="45.31501" lon="4.65774">
        <ele>644.7</ele>
        <time>2011-09-10T10:41:35Z</time>
      </trkpt>
      <trkpt lat="45.31499" lon="4.65776">
        <ele>644.22</ele>
        <time>2011-09-10T10:41:36Z</time>
      </trkpt>
      <trkpt lat="45.31498" lon="4.65777">
        <ele>643.74</ele>
        <time>2011-09-10T10:41:37Z</time>
      </trkpt>
      <trkpt lat="45.31496" lon="4.65779">
        <ele>644.22</ele>
        <time>2011-09-10T10:41:38Z</time>
      </trkpt>
      <trkpt lat="45.31495" lon="4.65779">
        <ele>644.22</ele>
        <time>2011-09-10T10:41:39Z</time>
      </trkpt>
      <trkpt lat="45.31472" lon="4.65791">
        <ele>646.14</ele>
        <time>2011-09-10T10:41:54Z</time>
      </trkpt>
      <trkpt lat="45.31449" lon="4.65801">
        <ele>648.07</ele>
        <time>2011-09-10T10:42:10Z</time>
      </trkpt>
      <trkpt lat="45.31446" lon="4.65802">
        <ele>648.55</ele>
        <time>2011-09-10T10:42:12Z</time>
      </trkpt>
      <trkpt lat="45.31445" lon="4.65802">
        <ele>649.51</ele>
        <time>2011-09-10T10:42:13Z</time>
      </trkpt>
      <trkpt lat="45.31444" lon="4.65803">
        <ele>649.99</ele>
        <time>2011-09-10T10:42:14Z</time>
      </trkpt>
      <trkpt lat="45.31442" lon="4.65804">
        <ele>649.51</ele>
        <time>2011-09-10T10:42:15Z</time>
      </trkpt>
      <trkpt lat="45.31441" lon="4.65805">
        <ele>649.99</ele>
        <time>2011-09-10T10:42:16Z</time>
      </trkpt>
      <trkpt lat="45.3144" lon="4.65805">
        <ele>649.99</ele>
        <time>2011-09-10T10:42:17Z</time>
      </trkpt>
      <trkpt lat="45.31435" lon="4.65809">
        <ele>649.99</ele>
        <time>2011-09-10T10:42:21Z</time>
      </trkpt>
      <trkpt lat="45.31434" lon="4.6581">
        <ele>649.03</ele>
        <time>2011-09-10T10:42:22Z</time>
      </trkpt>
      <trkpt lat="45.31429" lon="4.6581">
        <ele>650.95</ele>
        <time>2011-09-10T10:42:25Z</time>
      </trkpt>
      <trkpt lat="45.31428" lon="4.65811">
        <ele>650.95</ele>
        <time>2011-09-10T10:42:26Z</time>
      </trkpt>
      <trkpt lat="45.31426" lon="4.65812">
        <ele>650.95</ele>
        <time>2011-09-10T10:42:27Z</time>
      </trkpt>
      <trkpt lat="45.31425" lon="4.65813">
        <ele>650.95</ele>
        <time>2011-09-10T10:42:28Z</time>
      </trkpt>
      <trkpt lat="45.31423" lon="4.65814">
        <ele>650.47</ele>
        <time>2011-09-10T10:42:29Z</time>
      </trkpt>
      <trkpt lat="45.31422" lon="4.65814">
        <ele>651.43</ele>
        <time>2011-09-10T10:42:30Z</time>
      </trkpt>
      <trkpt lat="45.31421" lon="4.65815">
        <ele>650.95</ele>
        <time>2011-09-10T10:42:31Z</time>
      </trkpt>
      <trkpt lat="45.31419" lon="4.65816">
        <ele>651.91</ele>
        <time>2011-09-10T10:42:32Z</time>
      </trkpt>
      <trkpt lat="45.31399" lon="4.6583">
        <ele>654.8</ele>
        <time>2011-09-10T10:42:48Z</time>
      </trkpt>
      <trkpt lat="45.31389" lon="4.65843">
        <ele>656.24</ele>
        <time>2011-09-10T10:42:58Z</time>
      </trkpt>
      <trkpt lat="45.31385" lon="4.65851">
        <ele>657.68</ele>
        <time>2011-09-10T10:43:03Z</time>
      </trkpt>
      <trkpt lat="45.31384" lon="4.65853">
        <ele>656.72</ele>
        <time>2011-09-10T10:43:04Z</time>
      </trkpt>
      <trkpt lat="45.3138" lon="4.65862">
        <ele>657.68</ele>
        <time>2011-09-10T10:43:09Z</time>
      </trkpt>
      <trkpt lat="45.31387" lon="4.65893">
        <ele>659.6</ele>
        <time>2011-09-10T10:43:23Z</time>
      </trkpt>
      <trkpt lat="45.3139" lon="4.65915">
        <ele>661.52</ele>
        <time>2011-09-10T10:43:32Z</time>
      </trkpt>
      <trkpt lat="45.31389" lon="4.65918">
        <ele>661.52</ele>
        <time>2011-09-10T10:43:33Z</time>
      </trkpt>
      <trkpt lat="45.31388" lon="4.6592">
        <ele>660.56</ele>
        <time>2011-09-10T10:43:34Z</time>
      </trkpt>
      <trkpt lat="45.31388" lon="4.65923">
        <ele>661.52</ele>
        <time>2011-09-10T10:43:35Z</time>
      </trkpt>
      <trkpt lat="45.31388" lon="4.65926">
        <ele>661.52</ele>
        <time>2011-09-10T10:43:36Z</time>
      </trkpt>
      <trkpt lat="45.31388" lon="4.65928">
        <ele>661.04</ele>
        <time>2011-09-10T10:43:37Z</time>
      </trkpt>
      <trkpt lat="45.31388" lon="4.65967">
        <ele>663.45</ele>
        <time>2011-09-10T10:43:52Z</time>
      </trkpt>
      <trkpt lat="45.31388" lon="4.65996">
        <ele>664.41</ele>
        <time>2011-09-10T10:44:04Z</time>
      </trkpt>
      <trkpt lat="45.31395" lon="4.66019">
        <ele>665.85</ele>
        <time>2011-09-10T10:44:17Z</time>
      </trkpt>
      <trkpt lat="45.31408" lon="4.66046">
        <ele>667.29</ele>
        <time>2011-09-10T10:44:29Z</time>
      </trkpt>
      <trkpt lat="45.31421" lon="4.66085">
        <ele>667.29</ele>
        <time>2011-09-10T10:44:42Z</time>
      </trkpt>
      <trkpt lat="45.31418" lon="4.6616">
        <ele>669.22</ele>
        <time>2011-09-10T10:45:00Z</time>
      </trkpt>
      <trkpt lat="45.31406" lon="4.66196">
        <ele>671.14</ele>
        <time>2011-09-10T10:45:12Z</time>
      </trkpt>
      <trkpt lat="45.31382" lon="4.66224">
        <ele>673.06</ele>
        <time>2011-09-10T10:45:25Z</time>
      </trkpt>
      <trkpt lat="45.31361" lon="4.6623">
        <ele>674.98</ele>
        <time>2011-09-10T10:45:36Z</time>
      </trkpt>
      <trkpt lat="45.31361" lon="4.6623">
        <ele>674.5</ele>
        <time>2011-09-10T10:45:59Z</time>
      </trkpt>
      <trkpt lat="45.31361" lon="4.6623">
        <ele>675.46</ele>
        <time>2011-09-10T10:46:12Z</time>
      </trkpt>
      <trkpt lat="45.31359" lon="4.66229">
        <ele>674.5</ele>
        <time>2011-09-10T10:46:38Z</time>
      </trkpt>
      <trkpt lat="45.31328" lon="4.66227">
        <ele>675.94</ele>
        <time>2011-09-10T10:46:50Z</time>
      </trkpt>
      <trkpt lat="45.313" lon="4.66225">
        <ele>675.94</ele>
        <time>2011-09-10T10:47:02Z</time>
      </trkpt>
      <trkpt lat="45.31298" lon="4.66225">
        <ele>676.42</ele>
        <time>2011-09-10T10:47:03Z</time>
      </trkpt>
      <trkpt lat="45.31296" lon="4.66224">
        <ele>676.42</ele>
        <time>2011-09-10T10:47:04Z</time>
      </trkpt>
      <trkpt lat="45.31294" lon="4.66223">
        <ele>676.42</ele>
        <time>2011-09-10T10:47:05Z</time>
      </trkpt>
      <trkpt lat="45.31292" lon="4.66223">
        <ele>676.91</ele>
        <time>2011-09-10T10:47:06Z</time>
      </trkpt>
      <trkpt lat="45.3129" lon="4.66223">
        <ele>676.42</ele>
        <time>2011-09-10T10:47:07Z</time>
      </trkpt>
      <trkpt lat="45.31288" lon="4.66223">
        <ele>676.91</ele>
        <time>2011-09-10T10:47:08Z</time>
      </trkpt>
      <trkpt lat="45.31265" lon="4.66228">
        <ele>678.35</ele>
        <time>2011-09-10T10:47:19Z</time>
      </trkpt>
      <trkpt lat="45.31246" lon="4.66231">
        <ele>681.23</ele>
        <time>2011-09-10T10:47:31Z</time>
      </trkpt>
      <trkpt lat="45.3123" lon="4.6624">
        <ele>682.67</ele>
        <time>2011-09-10T10:47:42Z</time>
      </trkpt>
      <trkpt lat="45.31213" lon="4.66243">
        <ele>685.08</ele>
        <time>2011-09-10T10:47:54Z</time>
      </trkpt>
      <trkpt lat="45.3121" lon="4.66243">
        <ele>685.08</ele>
        <time>2011-09-10T10:47:56Z</time>
      </trkpt>
      <trkpt lat="45.31209" lon="4.66243">
        <ele>685.56</ele>
        <time>2011-09-10T10:47:57Z</time>
      </trkpt>
      <trkpt lat="45.31208" lon="4.66243">
        <ele>685.56</ele>
        <time>2011-09-10T10:47:58Z</time>
      </trkpt>
      <trkpt lat="45.31201" lon="4.66242">
        <ele>686.04</ele>
        <time>2011-09-10T10:48:03Z</time>
      </trkpt>
      <trkpt lat="45.312" lon="4.66242">
        <ele>686.04</ele>
        <time>2011-09-10T10:48:04Z</time>
      </trkpt>
      <trkpt lat="45.31198" lon="4.66241">
        <ele>686.04</ele>
        <time>2011-09-10T10:48:05Z</time>
      </trkpt>
      <trkpt lat="45.31197" lon="4.6624">
        <ele>686.04</ele>
        <time>2011-09-10T10:48:06Z</time>
      </trkpt>
      <trkpt lat="45.31196" lon="4.66239">
        <ele>686.04</ele>
        <time>2011-09-10T10:48:07Z</time>
      </trkpt>
      <trkpt lat="45.31195" lon="4.66238">
        <ele>686.04</ele>
        <time>2011-09-10T10:48:08Z</time>
      </trkpt>
      <trkpt lat="45.31193" lon="4.66238">
        <ele>686.52</ele>
        <time>2011-09-10T10:48:09Z</time>
      </trkpt>
      <trkpt lat="45.31183" lon="4.66235">
        <ele>687.96</ele>
        <time>2011-09-10T10:48:16Z</time>
      </trkpt>
      <trkpt lat="45.31168" lon="4.66229">
        <ele>689.4</ele>
        <time>2011-09-10T10:48:27Z</time>
      </trkpt>
      <trkpt lat="45.31167" lon="4.66229">
        <ele>689.4</ele>
        <time>2011-09-10T10:48:28Z</time>
      </trkpt>
      <trkpt lat="45.31165" lon="4.66228">
        <ele>689.88</ele>
        <time>2011-09-10T10:48:29Z</time>
      </trkpt>
      <trkpt lat="45.31158" lon="4.66226">
        <ele>690.36</ele>
        <time>2011-09-10T10:48:34Z</time>
      </trkpt>
      <trkpt lat="45.31154" lon="4.66224">
        <ele>690.84</ele>
        <time>2011-09-10T10:48:37Z</time>
      </trkpt>
      <trkpt lat="45.31151" lon="4.66222">
        <ele>691.33</ele>
        <time>2011-09-10T10:48:39Z</time>
      </trkpt>
      <trkpt lat="45.3115" lon="4.66222">
        <ele>692.29</ele>
        <time>2011-09-10T10:48:40Z</time>
      </trkpt>
      <trkpt lat="45.31148" lon="4.66221">
        <ele>692.29</ele>
        <time>2011-09-10T10:48:41Z</time>
      </trkpt>
      <trkpt lat="45.31146" lon="4.6622">
        <ele>692.77</ele>
        <time>2011-09-10T10:48:42Z</time>
      </trkpt>
      <trkpt lat="45.31145" lon="4.66219">
        <ele>692.77</ele>
        <time>2011-09-10T10:48:43Z</time>
      </trkpt>
      <trkpt lat="45.31143" lon="4.66218">
        <ele>692.77</ele>
        <time>2011-09-10T10:48:44Z</time>
      </trkpt>
      <trkpt lat="45.31142" lon="4.66217">
        <ele>692.77</ele>
        <time>2011-09-10T10:48:45Z</time>
      </trkpt>
      <trkpt lat="45.3114" lon="4.66217">
        <ele>692.77</ele>
        <time>2011-09-10T10:48:46Z</time>
      </trkpt>
      <trkpt lat="45.31114" lon="4.66207">
        <ele>693.73</ele>
        <time>2011-09-10T10:48:59Z</time>
      </trkpt>
      <trkpt lat="45.31104" lon="4.66196">
        <ele>694.21</ele>
        <time>2011-09-10T10:49:05Z</time>
      </trkpt>
      <trkpt lat="45.31101" lon="4.66195">
        <ele>694.21</ele>
        <time>2011-09-10T10:49:06Z</time>
      </trkpt>
      <trkpt lat="45.31099" lon="4.66193">
        <ele>694.21</ele>
        <time>2011-09-10T10:49:07Z</time>
      </trkpt>
      <trkpt lat="45.31098" lon="4.66191">
        <ele>694.69</ele>
        <time>2011-09-10T10:49:08Z</time>
      </trkpt>
      <trkpt lat="45.31096" lon="4.66189">
        <ele>694.69</ele>
        <time>2011-09-10T10:49:09Z</time>
      </trkpt>
      <trkpt lat="45.31094" lon="4.66186">
        <ele>694.69</ele>
        <time>2011-09-10T10:49:10Z</time>
      </trkpt>
      <trkpt lat="45.31092" lon="4.66184">
        <ele>694.69</ele>
        <time>2011-09-10T10:49:11Z</time>
      </trkpt>
      <trkpt lat="45.3109" lon="4.66182">
        <ele>694.69</ele>
        <time>2011-09-10T10:49:12Z</time>
      </trkpt>
      <trkpt lat="45.31088" lon="4.66179">
        <ele>695.65</ele>
        <time>2011-09-10T10:49:13Z</time>
      </trkpt>
      <trkpt lat="45.31078" lon="4.66167">
        <ele>696.13</ele>
        <time>2011-09-10T10:49:18Z</time>
      </trkpt>
      <trkpt lat="45.31049" lon="4.66132">
        <ele>696.61</ele>
        <time>2011-09-10T10:49:32Z</time>
      </trkpt>
      <trkpt lat="45.31024" lon="4.6611">
        <ele>696.61</ele>
        <time>2011-09-10T10:49:45Z</time>
      </trkpt>
      <trkpt lat="45.31021" lon="4.66106">
        <ele>696.61</ele>
        <time>2011-09-10T10:49:47Z</time>
      </trkpt>
      <trkpt lat="45.31019" lon="4.66104">
        <ele>695.65</ele>
        <time>2011-09-10T10:49:48Z</time>
      </trkpt>
      <trkpt lat="45.31018" lon="4.66101">
        <ele>696.13</ele>
        <time>2011-09-10T10:49:49Z</time>
      </trkpt>
      <trkpt lat="45.31015" lon="4.66096">
        <ele>697.57</ele>
        <time>2011-09-10T10:49:51Z</time>
      </trkpt>
      <trkpt lat="45.31007" lon="4.66074">
        <ele>697.09</ele>
        <time>2011-09-10T10:50:00Z</time>
      </trkpt>
      <trkpt lat="45.31004" lon="4.66069">
        <ele>697.57</ele>
        <time>2011-09-10T10:50:06Z</time>
      </trkpt>
      <trkpt lat="45.30998" lon="4.66059">
        <ele>697.09</ele>
        <time>2011-09-10T10:50:20Z</time>
      </trkpt>
      <trkpt lat="45.30989" lon="4.66045">
        <ele>695.65</ele>
        <time>2011-09-10T10:50:23Z</time>
      </trkpt>
      <trkpt lat="45.30962" lon="4.66006">
        <ele>691.81</ele>
        <time>2011-09-10T10:50:29Z</time>
      </trkpt>
      <trkpt lat="45.30945" lon="4.65984">
        <ele>689.88</ele>
        <time>2011-09-10T10:50:32Z</time>
      </trkpt>
      <trkpt lat="45.30921" lon="4.65951">
        <ele>687.96</ele>
        <time>2011-09-10T10:50:36Z</time>
      </trkpt>
      <trkpt lat="45.30895" lon="4.65925">
        <ele>687</ele>
        <time>2011-09-10T10:50:40Z</time>
      </trkpt>
      <trkpt lat="45.30888" lon="4.65921">
        <ele>687</ele>
        <time>2011-09-10T10:50:41Z</time>
      </trkpt>
      <trkpt lat="45.30878" lon="4.65912">
        <ele>685.08</ele>
        <time>2011-09-10T10:50:43Z</time>
      </trkpt>
      <trkpt lat="45.30875" lon="4.65908">
        <ele>684.12</ele>
        <time>2011-09-10T10:50:44Z</time>
      </trkpt>
      <trkpt lat="45.30874" lon="4.65904">
        <ele>683.63</ele>
        <time>2011-09-10T10:50:45Z</time>
      </trkpt>
      <trkpt lat="45.30872" lon="4.659">
        <ele>682.67</ele>
        <time>2011-09-10T10:50:46Z</time>
      </trkpt>
      <trkpt lat="45.3087" lon="4.65897">
        <ele>681.71</ele>
        <time>2011-09-10T10:50:47Z</time>
      </trkpt>
      <trkpt lat="45.30869" lon="4.65894">
        <ele>681.23</ele>
        <time>2011-09-10T10:50:48Z</time>
      </trkpt>
      <trkpt lat="45.30866" lon="4.6589">
        <ele>680.75</ele>
        <time>2011-09-10T10:50:49Z</time>
      </trkpt>
      <trkpt lat="45.30856" lon="4.65868">
        <ele>677.39</ele>
        <time>2011-09-10T10:50:54Z</time>
      </trkpt>
      <trkpt lat="45.30846" lon="4.65858">
        <ele>675.94</ele>
        <time>2011-09-10T10:50:58Z</time>
      </trkpt>
      <trkpt lat="45.30842" lon="4.6586">
        <ele>675.46</ele>
        <time>2011-09-10T10:50:59Z</time>
      </trkpt>
      <trkpt lat="45.30838" lon="4.65865">
        <ele>674.98</ele>
        <time>2011-09-10T10:51:00Z</time>
      </trkpt>
      <trkpt lat="45.30834" lon="4.65871">
        <ele>674.98</ele>
        <time>2011-09-10T10:51:01Z</time>
      </trkpt>
      <trkpt lat="45.30831" lon="4.65879">
        <ele>674.02</ele>
        <time>2011-09-10T10:51:02Z</time>
      </trkpt>
      <trkpt lat="45.30828" lon="4.65887">
        <ele>673.54</ele>
        <time>2011-09-10T10:51:03Z</time>
      </trkpt>
      <trkpt lat="45.30825" lon="4.65895">
        <ele>673.06</ele>
        <time>2011-09-10T10:51:04Z</time>
      </trkpt>
      <trkpt lat="45.30819" lon="4.65921">
        <ele>669.7</ele>
        <time>2011-09-10T10:51:07Z</time>
      </trkpt>
      <trkpt lat="45.30818" lon="4.65929">
        <ele>669.22</ele>
        <time>2011-09-10T10:51:08Z</time>
      </trkpt>
      <trkpt lat="45.30817" lon="4.65972">
        <ele>665.85</ele>
        <time>2011-09-10T10:51:14Z</time>
      </trkpt>
      <trkpt lat="45.30817" lon="4.65997">
        <ele>663.93</ele>
        <time>2011-09-10T10:51:17Z</time>
      </trkpt>
      <trkpt lat="45.30819" lon="4.66022">
        <ele>660.56</ele>
        <time>2011-09-10T10:51:20Z</time>
      </trkpt>
      <trkpt lat="45.3082" lon="4.6603">
        <ele>661.04</ele>
        <time>2011-09-10T10:51:21Z</time>
      </trkpt>
      <trkpt lat="45.30823" lon="4.66043">
        <ele>661.04</ele>
        <time>2011-09-10T10:51:23Z</time>
      </trkpt>
      <trkpt lat="45.30829" lon="4.6606">
        <ele>659.12</ele>
        <time>2011-09-10T10:51:26Z</time>
      </trkpt>
      <trkpt lat="45.30832" lon="4.66065">
        <ele>658.64</ele>
        <time>2011-09-10T10:51:27Z</time>
      </trkpt>
      <trkpt lat="45.30841" lon="4.66081">
        <ele>657.2</ele>
        <time>2011-09-10T10:51:30Z</time>
      </trkpt>
      <trkpt lat="45.30844" lon="4.66085">
        <ele>657.2</ele>
        <time>2011-09-10T10:51:31Z</time>
      </trkpt>
      <trkpt lat="45.30854" lon="4.66096">
        <ele>656.72</ele>
        <time>2011-09-10T10:51:34Z</time>
      </trkpt>
      <trkpt lat="45.30858" lon="4.66101">
        <ele>656.72</ele>
        <time>2011-09-10T10:51:35Z</time>
      </trkpt>
      <trkpt lat="45.3087" lon="4.66126">
        <ele>654.31</ele>
        <time>2011-09-10T10:51:38Z</time>
      </trkpt>
      <trkpt lat="45.30874" lon="4.66137">
        <ele>653.83</ele>
        <time>2011-09-10T10:51:39Z</time>
      </trkpt>
      <trkpt lat="45.30875" lon="4.66147">
        <ele>652.87</ele>
        <time>2011-09-10T10:51:40Z</time>
      </trkpt>
      <trkpt lat="45.30878" lon="4.66177">
        <ele>650.95</ele>
        <time>2011-09-10T10:51:43Z</time>
      </trkpt>
      <trkpt lat="45.30877" lon="4.6621">
        <ele>648.07</ele>
        <time>2011-09-10T10:51:47Z</time>
      </trkpt>
      <trkpt lat="45.30873" lon="4.66226">
        <ele>646.62</ele>
        <time>2011-09-10T10:51:50Z</time>
      </trkpt>
      <trkpt lat="45.30877" lon="4.66232">
        <ele>646.62</ele>
        <time>2011-09-10T10:52:00Z</time>
      </trkpt>
      <trkpt lat="45.30878" lon="4.66231">
        <ele>645.18</ele>
        <time>2011-09-10T10:52:14Z</time>
      </trkpt>
      <trkpt lat="45.30877" lon="4.66231">
        <ele>645.18</ele>
        <time>2011-09-10T10:52:15Z</time>
      </trkpt>
      <trkpt lat="45.30875" lon="4.66232">
        <ele>645.18</ele>
        <time>2011-09-10T10:52:16Z</time>
      </trkpt>
      <trkpt lat="45.30873" lon="4.66232">
        <ele>645.66</ele>
        <time>2011-09-10T10:52:17Z</time>
      </trkpt>
      <trkpt lat="45.30871" lon="4.66231">
        <ele>645.18</ele>
        <time>2011-09-10T10:52:18Z</time>
      </trkpt>
      <trkpt lat="45.30868" lon="4.66229">
        <ele>644.7</ele>
        <time>2011-09-10T10:52:19Z</time>
      </trkpt>
      <trkpt lat="45.30867" lon="4.66226">
        <ele>644.22</ele>
        <time>2011-09-10T10:52:20Z</time>
      </trkpt>
      <trkpt lat="45.30866" lon="4.66222">
        <ele>643.26</ele>
        <time>2011-09-10T10:52:21Z</time>
      </trkpt>
      <trkpt lat="45.30866" lon="4.66218">
        <ele>642.78</ele>
        <time>2011-09-10T10:52:22Z</time>
      </trkpt>
      <trkpt lat="45.30865" lon="4.66213">
        <ele>642.78</ele>
        <time>2011-09-10T10:52:23Z</time>
      </trkpt>
      <trkpt lat="45.30864" lon="4.66207">
        <ele>642.3</ele>
        <time>2011-09-10T10:52:24Z</time>
      </trkpt>
      <trkpt lat="45.30862" lon="4.662">
        <ele>642.3</ele>
        <time>2011-09-10T10:52:25Z</time>
      </trkpt>
      <trkpt lat="45.3085" lon="4.66173">
        <ele>638.93</ele>
        <time>2011-09-10T10:52:28Z</time>
      </trkpt>
      <trkpt lat="45.30835" lon="4.66154">
        <ele>636.53</ele>
        <time>2011-09-10T10:52:31Z</time>
      </trkpt>
      <trkpt lat="45.30831" lon="4.66151">
        <ele>636.05</ele>
        <time>2011-09-10T10:52:32Z</time>
      </trkpt>
      <trkpt lat="45.30827" lon="4.6615">
        <ele>635.09</ele>
        <time>2011-09-10T10:52:33Z</time>
      </trkpt>
      <trkpt lat="45.30811" lon="4.6615">
        <ele>631.24</ele>
        <time>2011-09-10T10:52:36Z</time>
      </trkpt>
      <trkpt lat="45.30784" lon="4.66156">
        <ele>628.84</ele>
        <time>2011-09-10T10:52:39Z</time>
      </trkpt>
      <trkpt lat="45.30753" lon="4.66161">
        <ele>624.99</ele>
        <time>2011-09-10T10:52:42Z</time>
      </trkpt>
      <trkpt lat="45.30734" lon="4.66165">
        <ele>623.55</ele>
        <time>2011-09-10T10:52:44Z</time>
      </trkpt>
      <trkpt lat="45.30726" lon="4.66169">
        <ele>622.59</ele>
        <time>2011-09-10T10:52:45Z</time>
      </trkpt>
      <trkpt lat="45.30704" lon="4.66179">
        <ele>621.63</ele>
        <time>2011-09-10T10:52:48Z</time>
      </trkpt>
      <trkpt lat="45.30696" lon="4.6618">
        <ele>621.15</ele>
        <time>2011-09-10T10:52:49Z</time>
      </trkpt>
      <trkpt lat="45.30688" lon="4.66179">
        <ele>620.67</ele>
        <time>2011-09-10T10:52:50Z</time>
      </trkpt>
      <trkpt lat="45.30681" lon="4.66177">
        <ele>620.19</ele>
        <time>2011-09-10T10:52:51Z</time>
      </trkpt>
      <trkpt lat="45.30673" lon="4.66174">
        <ele>618.75</ele>
        <time>2011-09-10T10:52:52Z</time>
      </trkpt>
      <trkpt lat="45.30661" lon="4.66169">
        <ele>617.3</ele>
        <time>2011-09-10T10:52:54Z</time>
      </trkpt>
      <trkpt lat="45.30658" lon="4.66169">
        <ele>616.82</ele>
        <time>2011-09-10T10:52:55Z</time>
      </trkpt>
      <trkpt lat="45.30656" lon="4.6617">
        <ele>617.3</ele>
        <time>2011-09-10T10:52:56Z</time>
      </trkpt>
      <trkpt lat="45.30654" lon="4.66173">
        <ele>616.82</ele>
        <time>2011-09-10T10:52:57Z</time>
      </trkpt>
      <trkpt lat="45.30652" lon="4.66176">
        <ele>616.82</ele>
        <time>2011-09-10T10:52:58Z</time>
      </trkpt>
      <trkpt lat="45.30652" lon="4.66179">
        <ele>616.82</ele>
        <time>2011-09-10T10:52:59Z</time>
      </trkpt>
      <trkpt lat="45.30652" lon="4.66182">
        <ele>616.34</ele>
        <time>2011-09-10T10:53:00Z</time>
      </trkpt>
      <trkpt lat="45.30654" lon="4.66186">
        <ele>616.34</ele>
        <time>2011-09-10T10:53:01Z</time>
      </trkpt>
      <trkpt lat="45.30656" lon="4.66188">
        <ele>615.86</ele>
        <time>2011-09-10T10:53:02Z</time>
      </trkpt>
      <trkpt lat="45.30657" lon="4.6619">
        <ele>615.38</ele>
        <time>2011-09-10T10:53:03Z</time>
      </trkpt>
      <trkpt lat="45.3066" lon="4.66191">
        <ele>615.38</ele>
        <time>2011-09-10T10:53:16Z</time>
      </trkpt>
      <trkpt lat="45.30675" lon="4.66213">
        <ele>613.46</ele>
        <time>2011-09-10T10:53:25Z</time>
      </trkpt>
      <trkpt lat="45.30679" lon="4.66219">
        <ele>612.98</ele>
        <time>2011-09-10T10:53:26Z</time>
      </trkpt>
      <trkpt lat="45.30683" lon="4.66225">
        <ele>612.5</ele>
        <time>2011-09-10T10:53:27Z</time>
      </trkpt>
      <trkpt lat="45.30692" lon="4.66239">
        <ele>610.57</ele>
        <time>2011-09-10T10:53:29Z</time>
      </trkpt>
      <trkpt lat="45.30695" lon="4.66246">
        <ele>609.13</ele>
        <time>2011-09-10T10:53:30Z</time>
      </trkpt>
      <trkpt lat="45.30697" lon="4.66252">
        <ele>608.65</ele>
        <time>2011-09-10T10:53:31Z</time>
      </trkpt>
      <trkpt lat="45.30698" lon="4.66257">
        <ele>608.65</ele>
        <time>2011-09-10T10:53:32Z</time>
      </trkpt>
      <trkpt lat="45.30697" lon="4.66261">
        <ele>608.17</ele>
        <time>2011-09-10T10:53:33Z</time>
      </trkpt>
      <trkpt lat="45.30697" lon="4.66264">
        <ele>608.17</ele>
        <time>2011-09-10T10:53:34Z</time>
      </trkpt>
      <trkpt lat="45.30695" lon="4.66267">
        <ele>606.73</ele>
        <time>2011-09-10T10:53:35Z</time>
      </trkpt>
      <trkpt lat="45.30692" lon="4.66268">
        <ele>606.73</ele>
        <time>2011-09-10T10:53:36Z</time>
      </trkpt>
      <trkpt lat="45.30689" lon="4.66267">
        <ele>606.25</ele>
        <time>2011-09-10T10:53:37Z</time>
      </trkpt>
      <trkpt lat="45.30686" lon="4.66265">
        <ele>606.25</ele>
        <time>2011-09-10T10:53:38Z</time>
      </trkpt>
      <trkpt lat="45.30684" lon="4.66261">
        <ele>605.77</ele>
        <time>2011-09-10T10:53:39Z</time>
      </trkpt>
      <trkpt lat="45.30676" lon="4.66251">
        <ele>605.77</ele>
        <time>2011-09-10T10:53:43Z</time>
      </trkpt>
      <trkpt lat="45.30674" lon="4.66251">
        <ele>606.25</ele>
        <time>2011-09-10T10:53:44Z</time>
      </trkpt>
      <trkpt lat="45.30675" lon="4.66258">
        <ele>606.25</ele>
        <time>2011-09-10T10:53:47Z</time>
      </trkpt>
      <trkpt lat="45.30702" lon="4.66296">
        <ele>606.25</ele>
        <time>2011-09-10T10:53:58Z</time>
      </trkpt>
      <trkpt lat="45.30693" lon="4.66336">
        <ele>607.69</ele>
        <time>2011-09-10T10:54:08Z</time>
      </trkpt>
      <trkpt lat="45.30657" lon="4.66331">
        <ele>610.57</ele>
        <time>2011-09-10T10:54:19Z</time>
      </trkpt>
      <trkpt lat="45.30612" lon="4.66319">
        <ele>612.5</ele>
        <time>2011-09-10T10:54:33Z</time>
      </trkpt>
      <trkpt lat="45.30565" lon="4.66331">
        <ele>614.9</ele>
        <time>2011-09-10T10:54:48Z</time>
      </trkpt>
      <trkpt lat="45.30531" lon="4.66377">
        <ele>616.82</ele>
        <time>2011-09-10T10:55:04Z</time>
      </trkpt>
      <trkpt lat="45.30501" lon="4.66428">
        <ele>618.75</ele>
        <time>2011-09-10T10:55:20Z</time>
      </trkpt>
      <trkpt lat="45.30493" lon="4.66479">
        <ele>620.67</ele>
        <time>2011-09-10T10:55:33Z</time>
      </trkpt>
      <trkpt lat="45.30511" lon="4.66537">
        <ele>620.67</ele>
        <time>2011-09-10T10:55:48Z</time>
      </trkpt>
      <trkpt lat="45.30518" lon="4.66557">
        <ele>621.15</ele>
        <time>2011-09-10T10:55:55Z</time>
      </trkpt>
      <trkpt lat="45.30518" lon="4.66547">
        <ele>621.15</ele>
        <time>2011-09-10T10:56:00Z</time>
      </trkpt>
      <trkpt lat="45.30496" lon="4.66485">
        <ele>620.67</ele>
        <time>2011-09-10T10:56:15Z</time>
      </trkpt>
      <trkpt lat="45.30478" lon="4.665">
        <ele>618.26</ele>
        <time>2011-09-10T10:56:24Z</time>
      </trkpt>
      <trkpt lat="45.30477" lon="4.66507">
        <ele>618.26</ele>
        <time>2011-09-10T10:56:25Z</time>
      </trkpt>
      <trkpt lat="45.30476" lon="4.66515">
        <ele>617.3</ele>
        <time>2011-09-10T10:56:26Z</time>
      </trkpt>
      <trkpt lat="45.30477" lon="4.66522">
        <ele>616.82</ele>
        <time>2011-09-10T10:56:27Z</time>
      </trkpt>
      <trkpt lat="45.30478" lon="4.66527">
        <ele>615.38</ele>
        <time>2011-09-10T10:56:28Z</time>
      </trkpt>
      <trkpt lat="45.30479" lon="4.66531">
        <ele>614.9</ele>
        <time>2011-09-10T10:56:29Z</time>
      </trkpt>
      <trkpt lat="45.3048" lon="4.66533">
        <ele>614.9</ele>
        <time>2011-09-10T10:56:30Z</time>
      </trkpt>
      <trkpt lat="45.30482" lon="4.66538">
        <ele>614.42</ele>
        <time>2011-09-10T10:56:42Z</time>
      </trkpt>
      <trkpt lat="45.30483" lon="4.6654">
        <ele>614.9</ele>
        <time>2011-09-10T10:56:43Z</time>
      </trkpt>
      <trkpt lat="45.30484" lon="4.66544">
        <ele>614.42</ele>
        <time>2011-09-10T10:56:44Z</time>
      </trkpt>
      <trkpt lat="45.30485" lon="4.66549">
        <ele>613.94</ele>
        <time>2011-09-10T10:56:45Z</time>
      </trkpt>
      <trkpt lat="45.30486" lon="4.66556">
        <ele>613.46</ele>
        <time>2011-09-10T10:56:46Z</time>
      </trkpt>
      <trkpt lat="45.3049" lon="4.66588">
        <ele>610.09</ele>
        <time>2011-09-10T10:56:50Z</time>
      </trkpt>
      <trkpt lat="45.30492" lon="4.66595">
        <ele>609.61</ele>
        <time>2011-09-10T10:56:51Z</time>
      </trkpt>
      <trkpt lat="45.30495" lon="4.66604">
        <ele>609.61</ele>
        <time>2011-09-10T10:56:52Z</time>
      </trkpt>
      <trkpt lat="45.30503" lon="4.66641">
        <ele>608.17</ele>
        <time>2011-09-10T10:56:56Z</time>
      </trkpt>
      <trkpt lat="45.30512" lon="4.66666">
        <ele>608.65</ele>
        <time>2011-09-10T10:56:59Z</time>
      </trkpt>
      <trkpt lat="45.30515" lon="4.66675">
        <ele>608.17</ele>
        <time>2011-09-10T10:57:00Z</time>
      </trkpt>
      <trkpt lat="45.30516" lon="4.66683">
        <ele>607.69</ele>
        <time>2011-09-10T10:57:01Z</time>
      </trkpt>
      <trkpt lat="45.30521" lon="4.66712">
        <ele>607.69</ele>
        <time>2011-09-10T10:57:04Z</time>
      </trkpt>
      <trkpt lat="45.30522" lon="4.66721">
        <ele>607.21</ele>
        <time>2011-09-10T10:57:05Z</time>
      </trkpt>
      <trkpt lat="45.3053" lon="4.66794">
        <ele>607.21</ele>
        <time>2011-09-10T10:57:14Z</time>
      </trkpt>
      <trkpt lat="45.3053" lon="4.668">
        <ele>606.73</ele>
        <time>2011-09-10T10:57:15Z</time>
      </trkpt>
      <trkpt lat="45.30527" lon="4.66839">
        <ele>604.81</ele>
        <time>2011-09-10T10:57:20Z</time>
      </trkpt>
      <trkpt lat="45.30527" lon="4.66845">
        <ele>604.33</ele>
        <time>2011-09-10T10:57:21Z</time>
      </trkpt>
      <trkpt lat="45.30528" lon="4.66849">
        <ele>603.36</ele>
        <time>2011-09-10T10:57:22Z</time>
      </trkpt>
      <trkpt lat="45.30529" lon="4.66852">
        <ele>604.33</ele>
        <time>2011-09-10T10:57:23Z</time>
      </trkpt>
      <trkpt lat="45.3053" lon="4.66855">
        <ele>603.36</ele>
        <time>2011-09-10T10:57:24Z</time>
      </trkpt>
      <trkpt lat="45.30531" lon="4.66859">
        <ele>603.36</ele>
        <time>2011-09-10T10:57:25Z</time>
      </trkpt>
      <trkpt lat="45.30532" lon="4.66863">
        <ele>603.85</ele>
        <time>2011-09-10T10:57:26Z</time>
      </trkpt>
      <trkpt lat="45.30533" lon="4.66867">
        <ele>602.88</ele>
        <time>2011-09-10T10:57:27Z</time>
      </trkpt>
      <trkpt lat="45.30535" lon="4.66872">
        <ele>603.36</ele>
        <time>2011-09-10T10:57:28Z</time>
      </trkpt>
      <trkpt lat="45.30536" lon="4.66877">
        <ele>602.4</ele>
        <time>2011-09-10T10:57:29Z</time>
      </trkpt>
      <trkpt lat="45.30537" lon="4.66882">
        <ele>602.88</ele>
        <time>2011-09-10T10:57:30Z</time>
      </trkpt>
      <trkpt lat="45.30538" lon="4.66888">
        <ele>602.4</ele>
        <time>2011-09-10T10:57:31Z</time>
      </trkpt>
      <trkpt lat="45.30539" lon="4.66894">
        <ele>601.92</ele>
        <time>2011-09-10T10:57:32Z</time>
      </trkpt>
      <trkpt lat="45.30541" lon="4.669">
        <ele>601.92</ele>
        <time>2011-09-10T10:57:33Z</time>
      </trkpt>
      <trkpt lat="45.30543" lon="4.66907">
        <ele>601.44</ele>
        <time>2011-09-10T10:57:34Z</time>
      </trkpt>
      <trkpt lat="45.30545" lon="4.66915">
        <ele>601.44</ele>
        <time>2011-09-10T10:57:35Z</time>
      </trkpt>
      <trkpt lat="45.30546" lon="4.66923">
        <ele>600.96</ele>
        <time>2011-09-10T10:57:36Z</time>
      </trkpt>
      <trkpt lat="45.30547" lon="4.66931">
        <ele>600.96</ele>
        <time>2011-09-10T10:57:37Z</time>
      </trkpt>
      <trkpt lat="45.30548" lon="4.66939">
        <ele>600.96</ele>
        <time>2011-09-10T10:57:38Z</time>
      </trkpt>
      <trkpt lat="45.3055" lon="4.66946">
        <ele>600.48</ele>
        <time>2011-09-10T10:57:39Z</time>
      </trkpt>
      <trkpt lat="45.30553" lon="4.66953">
        <ele>599.04</ele>
        <time>2011-09-10T10:57:40Z</time>
      </trkpt>
      <trkpt lat="45.3057" lon="4.66997">
        <ele>595.67</ele>
        <time>2011-09-10T10:57:46Z</time>
      </trkpt>
      <trkpt lat="45.30572" lon="4.67005">
        <ele>595.67</ele>
        <time>2011-09-10T10:57:47Z</time>
      </trkpt>
      <trkpt lat="45.30596" lon="4.67066">
        <ele>595.19</ele>
        <time>2011-09-10T10:57:54Z</time>
      </trkpt>
      <trkpt lat="45.30597" lon="4.67074">
        <ele>595.19</ele>
        <time>2011-09-10T10:57:55Z</time>
      </trkpt>
      <trkpt lat="45.30596" lon="4.67081">
        <ele>595.19</ele>
        <time>2011-09-10T10:57:56Z</time>
      </trkpt>
      <trkpt lat="45.30595" lon="4.67088">
        <ele>594.71</ele>
        <time>2011-09-10T10:57:57Z</time>
      </trkpt>
      <trkpt lat="45.30592" lon="4.67094">
        <ele>594.23</ele>
        <time>2011-09-10T10:57:58Z</time>
      </trkpt>
      <trkpt lat="45.30589" lon="4.67098">
        <ele>593.75</ele>
        <time>2011-09-10T10:57:59Z</time>
      </trkpt>
      <trkpt lat="45.30586" lon="4.67103">
        <ele>593.27</ele>
        <time>2011-09-10T10:58:00Z</time>
      </trkpt>
      <trkpt lat="45.30574" lon="4.67124">
        <ele>592.31</ele>
        <time>2011-09-10T10:58:04Z</time>
      </trkpt>
      <trkpt lat="45.30559" lon="4.6717">
        <ele>592.31</ele>
        <time>2011-09-10T10:58:11Z</time>
      </trkpt>
      <trkpt lat="45.30554" lon="4.67187">
        <ele>592.79</ele>
        <time>2011-09-10T10:58:14Z</time>
      </trkpt>
      <trkpt lat="45.30553" lon="4.67194">
        <ele>592.79</ele>
        <time>2011-09-10T10:58:15Z</time>
      </trkpt>
      <trkpt lat="45.30551" lon="4.67213">
        <ele>593.75</ele>
        <time>2011-09-10T10:58:18Z</time>
      </trkpt>
      <trkpt lat="45.30551" lon="4.67219">
        <ele>594.23</ele>
        <time>2011-09-10T10:58:19Z</time>
      </trkpt>
      <trkpt lat="45.30555" lon="4.67243">
        <ele>594.71</ele>
        <time>2011-09-10T10:58:23Z</time>
      </trkpt>
      <trkpt lat="45.30555" lon="4.67249">
        <ele>594.71</ele>
        <time>2011-09-10T10:58:24Z</time>
      </trkpt>
      <trkpt lat="45.30556" lon="4.67255">
        <ele>594.71</ele>
        <time>2011-09-10T10:58:25Z</time>
      </trkpt>
      <trkpt lat="45.30557" lon="4.6726">
        <ele>594.23</ele>
        <time>2011-09-10T10:58:26Z</time>
      </trkpt>
      <trkpt lat="45.30559" lon="4.67266">
        <ele>594.71</ele>
        <time>2011-09-10T10:58:27Z</time>
      </trkpt>
      <trkpt lat="45.30585" lon="4.67348">
        <ele>593.27</ele>
        <time>2011-09-10T10:58:40Z</time>
      </trkpt>
      <trkpt lat="45.30603" lon="4.67406">
        <ele>592.79</ele>
        <time>2011-09-10T10:58:49Z</time>
      </trkpt>
      <trkpt lat="45.30609" lon="4.67423">
        <ele>591.83</ele>
        <time>2011-09-10T10:58:52Z</time>
      </trkpt>
      <trkpt lat="45.30614" lon="4.67434">
        <ele>592.79</ele>
        <time>2011-09-10T10:58:54Z</time>
      </trkpt>
      <trkpt lat="45.30618" lon="4.67439">
        <ele>592.31</ele>
        <time>2011-09-10T10:58:55Z</time>
      </trkpt>
      <trkpt lat="45.3062" lon="4.67444">
        <ele>592.79</ele>
        <time>2011-09-10T10:58:56Z</time>
      </trkpt>
      <trkpt lat="45.30626" lon="4.67454">
        <ele>593.27</ele>
        <time>2011-09-10T10:58:58Z</time>
      </trkpt>
      <trkpt lat="45.30629" lon="4.67457">
        <ele>593.27</ele>
        <time>2011-09-10T10:58:59Z</time>
      </trkpt>
      <trkpt lat="45.30633" lon="4.6746">
        <ele>593.75</ele>
        <time>2011-09-10T10:59:00Z</time>
      </trkpt>
      <trkpt lat="45.30675" lon="4.67519">
        <ele>594.23</ele>
        <time>2011-09-10T10:59:15Z</time>
      </trkpt>
      <trkpt lat="45.30692" lon="4.67554">
        <ele>596.15</ele>
        <time>2011-09-10T10:59:23Z</time>
      </trkpt>
      <trkpt lat="45.30705" lon="4.67576">
        <ele>595.67</ele>
        <time>2011-09-10T10:59:28Z</time>
      </trkpt>
      <trkpt lat="45.30742" lon="4.67619">
        <ele>595.19</ele>
        <time>2011-09-10T10:59:38Z</time>
      </trkpt>
      <trkpt lat="45.30749" lon="4.67628">
        <ele>595.19</ele>
        <time>2011-09-10T10:59:40Z</time>
      </trkpt>
      <trkpt lat="45.30751" lon="4.67633">
        <ele>595.19</ele>
        <time>2011-09-10T10:59:41Z</time>
      </trkpt>
      <trkpt lat="45.30753" lon="4.67639">
        <ele>594.71</ele>
        <time>2011-09-10T10:59:42Z</time>
      </trkpt>
      <trkpt lat="45.30755" lon="4.67645">
        <ele>593.75</ele>
        <time>2011-09-10T10:59:43Z</time>
      </trkpt>
      <trkpt lat="45.30757" lon="4.6765">
        <ele>593.27</ele>
        <time>2011-09-10T10:59:44Z</time>
      </trkpt>
      <trkpt lat="45.30759" lon="4.67655">
        <ele>592.79</ele>
        <time>2011-09-10T10:59:45Z</time>
      </trkpt>
      <trkpt lat="45.30761" lon="4.6766">
        <ele>593.27</ele>
        <time>2011-09-10T10:59:46Z</time>
      </trkpt>
      <trkpt lat="45.30769" lon="4.67674">
        <ele>596.64</ele>
        <time>2011-09-10T10:59:49Z</time>
      </trkpt>
      <trkpt lat="45.30772" lon="4.67678">
        <ele>596.64</ele>
        <time>2011-09-10T10:59:50Z</time>
      </trkpt>
      <trkpt lat="45.30775" lon="4.67681">
        <ele>596.64</ele>
        <time>2011-09-10T10:59:51Z</time>
      </trkpt>
      <trkpt lat="45.30778" lon="4.67684">
        <ele>597.12</ele>
        <time>2011-09-10T10:59:52Z</time>
      </trkpt>
      <trkpt lat="45.30781" lon="4.67686">
        <ele>596.64</ele>
        <time>2011-09-10T10:59:53Z</time>
      </trkpt>
      <trkpt lat="45.30812" lon="4.67706">
        <ele>597.6</ele>
        <time>2011-09-10T11:00:03Z</time>
      </trkpt>
      <trkpt lat="45.30816" lon="4.67709">
        <ele>598.08</ele>
        <time>2011-09-10T11:00:05Z</time>
      </trkpt>
      <trkpt lat="45.30817" lon="4.67709">
        <ele>598.56</ele>
        <time>2011-09-10T11:00:08Z</time>
      </trkpt>
      <trkpt lat="45.30818" lon="4.67717">
        <ele>598.56</ele>
        <time>2011-09-10T11:00:11Z</time>
      </trkpt>
      <trkpt lat="45.30818" lon="4.67721">
        <ele>598.56</ele>
        <time>2011-09-10T11:00:12Z</time>
      </trkpt>
      <trkpt lat="45.30818" lon="4.67724">
        <ele>598.56</ele>
        <time>2011-09-10T11:00:13Z</time>
      </trkpt>
      <trkpt lat="45.30818" lon="4.67728">
        <ele>599.04</ele>
        <time>2011-09-10T11:00:14Z</time>
      </trkpt>
      <trkpt lat="45.30818" lon="4.67731">
        <ele>599.04</ele>
        <time>2011-09-10T11:00:15Z</time>
      </trkpt>
      <trkpt lat="45.30817" lon="4.67734">
        <ele>598.56</ele>
        <time>2011-09-10T11:00:16Z</time>
      </trkpt>
      <trkpt lat="45.30817" lon="4.67737">
        <ele>599.52</ele>
        <time>2011-09-10T11:00:17Z</time>
      </trkpt>
      <trkpt lat="45.30816" lon="4.6774">
        <ele>599.52</ele>
        <time>2011-09-10T11:00:18Z</time>
      </trkpt>
      <trkpt lat="45.30815" lon="4.67743">
        <ele>599.52</ele>
        <time>2011-09-10T11:00:19Z</time>
      </trkpt>
      <trkpt lat="45.30814" lon="4.67775">
        <ele>600.96</ele>
        <time>2011-09-10T11:00:29Z</time>
      </trkpt>
      <trkpt lat="45.30801" lon="4.67803">
        <ele>602.4</ele>
        <time>2011-09-10T11:00:40Z</time>
      </trkpt>
      <trkpt lat="45.30791" lon="4.67815">
        <ele>602.88</ele>
        <time>2011-09-10T11:00:46Z</time>
      </trkpt>
      <trkpt lat="45.30778" lon="4.67844">
        <ele>603.85</ele>
        <time>2011-09-10T11:00:57Z</time>
      </trkpt>
      <trkpt lat="45.30767" lon="4.67871">
        <ele>605.29</ele>
        <time>2011-09-10T11:01:09Z</time>
      </trkpt>
      <trkpt lat="45.30766" lon="4.67873">
        <ele>604.81</ele>
        <time>2011-09-10T11:01:10Z</time>
      </trkpt>
      <trkpt lat="45.30766" lon="4.67875">
        <ele>605.29</ele>
        <time>2011-09-10T11:01:11Z</time>
      </trkpt>
      <trkpt lat="45.30766" lon="4.67878">
        <ele>605.29</ele>
        <time>2011-09-10T11:01:12Z</time>
      </trkpt>
      <trkpt lat="45.30766" lon="4.6788">
        <ele>605.29</ele>
        <time>2011-09-10T11:01:13Z</time>
      </trkpt>
      <trkpt lat="45.30767" lon="4.67882">
        <ele>605.29</ele>
        <time>2011-09-10T11:01:14Z</time>
      </trkpt>
      <trkpt lat="45.30768" lon="4.67883">
        <ele>605.29</ele>
        <time>2011-09-10T11:01:15Z</time>
      </trkpt>
      <trkpt lat="45.30769" lon="4.67885">
        <ele>605.77</ele>
        <time>2011-09-10T11:01:16Z</time>
      </trkpt>
      <trkpt lat="45.30771" lon="4.67888">
        <ele>605.77</ele>
        <time>2011-09-10T11:01:17Z</time>
      </trkpt>
      <trkpt lat="45.30772" lon="4.6789">
        <ele>606.25</ele>
        <time>2011-09-10T11:01:18Z</time>
      </trkpt>
      <trkpt lat="45.30773" lon="4.67892">
        <ele>606.25</ele>
        <time>2011-09-10T11:01:19Z</time>
      </trkpt>
      <trkpt lat="45.30775" lon="4.67893">
        <ele>606.25</ele>
        <time>2011-09-10T11:01:20Z</time>
      </trkpt>
      <trkpt lat="45.30776" lon="4.67896">
        <ele>606.73</ele>
        <time>2011-09-10T11:01:21Z</time>
      </trkpt>
      <trkpt lat="45.30777" lon="4.67898">
        <ele>606.73</ele>
        <time>2011-09-10T11:01:22Z</time>
      </trkpt>
      <trkpt lat="45.30778" lon="4.679">
        <ele>606.25</ele>
        <time>2011-09-10T11:01:23Z</time>
      </trkpt>
      <trkpt lat="45.30793" lon="4.67928">
        <ele>609.61</ele>
        <time>2011-09-10T11:01:36Z</time>
      </trkpt>
      <trkpt lat="45.30814" lon="4.67962">
        <ele>612.5</ele>
        <time>2011-09-10T11:01:52Z</time>
      </trkpt>
      <trkpt lat="45.30823" lon="4.67993">
        <ele>612.02</ele>
        <time>2011-09-10T11:02:05Z</time>
      </trkpt>
      <trkpt lat="45.30823" lon="4.67994">
        <ele>612.5</ele>
        <time>2011-09-10T11:02:18Z</time>
      </trkpt>
      <trkpt lat="45.30823" lon="4.67994">
        <ele>612.02</ele>
        <time>2011-09-10T11:02:40Z</time>
      </trkpt>
      <trkpt lat="45.30823" lon="4.67994">
        <ele>612.02</ele>
        <time>2011-09-10T11:02:59Z</time>
      </trkpt>
      <trkpt lat="45.30824" lon="4.68">
        <ele>612.02</ele>
        <time>2011-09-10T11:03:20Z</time>
      </trkpt>
      <trkpt lat="45.30824" lon="4.68004">
        <ele>612.02</ele>
        <time>2011-09-10T11:03:21Z</time>
      </trkpt>
      <trkpt lat="45.30822" lon="4.68054">
        <ele>612.98</ele>
        <time>2011-09-10T11:03:36Z</time>
      </trkpt>
      <trkpt lat="45.30828" lon="4.68081">
        <ele>613.94</ele>
        <time>2011-09-10T11:03:46Z</time>
      </trkpt>
      <trkpt lat="45.30829" lon="4.68084">
        <ele>613.94</ele>
        <time>2011-09-10T11:03:47Z</time>
      </trkpt>
      <trkpt lat="45.30835" lon="4.681">
        <ele>614.9</ele>
        <time>2011-09-10T11:03:53Z</time>
      </trkpt>
      <trkpt lat="45.30835" lon="4.68103">
        <ele>614.9</ele>
        <time>2011-09-10T11:03:54Z</time>
      </trkpt>
      <trkpt lat="45.30835" lon="4.68106">
        <ele>615.38</ele>
        <time>2011-09-10T11:03:55Z</time>
      </trkpt>
      <trkpt lat="45.30835" lon="4.68109">
        <ele>615.38</ele>
        <time>2011-09-10T11:03:56Z</time>
      </trkpt>
      <trkpt lat="45.30835" lon="4.68112">
        <ele>615.38</ele>
        <time>2011-09-10T11:03:57Z</time>
      </trkpt>
      <trkpt lat="45.30836" lon="4.68115">
        <ele>615.38</ele>
        <time>2011-09-10T11:03:58Z</time>
      </trkpt>
      <trkpt lat="45.30836" lon="4.68118">
        <ele>615.86</ele>
        <time>2011-09-10T11:03:59Z</time>
      </trkpt>
      <trkpt lat="45.30836" lon="4.6812">
        <ele>615.86</ele>
        <time>2011-09-10T11:04:00Z</time>
      </trkpt>
      <trkpt lat="45.30836" lon="4.68123">
        <ele>616.34</ele>
        <time>2011-09-10T11:04:01Z</time>
      </trkpt>
      <trkpt lat="45.30836" lon="4.68126">
        <ele>616.34</ele>
        <time>2011-09-10T11:04:02Z</time>
      </trkpt>
      <trkpt lat="45.30836" lon="4.68129">
        <ele>616.34</ele>
        <time>2011-09-10T11:04:03Z</time>
      </trkpt>
      <trkpt lat="45.30836" lon="4.68132">
        <ele>616.34</ele>
        <time>2011-09-10T11:04:04Z</time>
      </trkpt>
      <trkpt lat="45.30835" lon="4.68135">
        <ele>616.82</ele>
        <time>2011-09-10T11:04:05Z</time>
      </trkpt>
      <trkpt lat="45.30835" lon="4.68139">
        <ele>616.34</ele>
        <time>2011-09-10T11:04:06Z</time>
      </trkpt>
      <trkpt lat="45.30834" lon="4.68143">
        <ele>616.82</ele>
        <time>2011-09-10T11:04:07Z</time>
      </trkpt>
      <trkpt lat="45.30834" lon="4.68146">
        <ele>616.82</ele>
        <time>2011-09-10T11:04:08Z</time>
      </trkpt>
      <trkpt lat="45.30835" lon="4.68149">
        <ele>616.82</ele>
        <time>2011-09-10T11:04:09Z</time>
      </trkpt>
      <trkpt lat="45.30835" lon="4.68153">
        <ele>617.3</ele>
        <time>2011-09-10T11:04:10Z</time>
      </trkpt>
      <trkpt lat="45.30835" lon="4.68156">
        <ele>617.3</ele>
        <time>2011-09-10T11:04:11Z</time>
      </trkpt>
      <trkpt lat="45.30834" lon="4.6816">
        <ele>616.34</ele>
        <time>2011-09-10T11:04:12Z</time>
      </trkpt>
      <trkpt lat="45.30831" lon="4.68202">
        <ele>619.23</ele>
        <time>2011-09-10T11:04:24Z</time>
      </trkpt>
      <trkpt lat="45.30839" lon="4.68258">
        <ele>620.67</ele>
        <time>2011-09-10T11:04:38Z</time>
      </trkpt>
      <trkpt lat="45.30864" lon="4.68335">
        <ele>620.67</ele>
        <time>2011-09-10T11:04:54Z</time>
      </trkpt>
      <trkpt lat="45.30866" lon="4.6838">
        <ele>620.67</ele>
        <time>2011-09-10T11:05:01Z</time>
      </trkpt>
      <trkpt lat="45.30864" lon="4.68403">
        <ele>620.19</ele>
        <time>2011-09-10T11:05:04Z</time>
      </trkpt>
      <trkpt lat="45.3083" lon="4.68511">
        <ele>616.34</ele>
        <time>2011-09-10T11:05:18Z</time>
      </trkpt>
      <trkpt lat="45.30824" lon="4.68525">
        <ele>616.34</ele>
        <time>2011-09-10T11:05:20Z</time>
      </trkpt>
      <trkpt lat="45.30823" lon="4.6853">
        <ele>616.34</ele>
        <time>2011-09-10T11:05:21Z</time>
      </trkpt>
      <trkpt lat="45.30814" lon="4.6856">
        <ele>615.86</ele>
        <time>2011-09-10T11:05:32Z</time>
      </trkpt>
      <trkpt lat="45.30814" lon="4.6856">
        <ele>616.34</ele>
        <time>2011-09-10T11:05:34Z</time>
      </trkpt>
      <trkpt lat="45.30815" lon="4.68558">
        <ele>616.82</ele>
        <time>2011-09-10T11:05:47Z</time>
      </trkpt>
      <trkpt lat="45.30815" lon="4.68559">
        <ele>616.82</ele>
        <time>2011-09-10T11:06:16Z</time>
      </trkpt>
      <trkpt lat="45.30815" lon="4.68559">
        <ele>617.3</ele>
        <time>2011-09-10T11:06:41Z</time>
      </trkpt>
      <trkpt lat="45.30815" lon="4.6856">
        <ele>616.82</ele>
        <time>2011-09-10T11:07:05Z</time>
      </trkpt>
      <trkpt lat="45.30815" lon="4.6856">
        <ele>616.82</ele>
        <time>2011-09-10T11:07:30Z</time>
      </trkpt>
      <trkpt lat="45.30815" lon="4.68561">
        <ele>616.82</ele>
        <time>2011-09-10T11:07:56Z</time>
      </trkpt>
      <trkpt lat="45.30815" lon="4.68562">
        <ele>616.82</ele>
        <time>2011-09-10T11:08:23Z</time>
      </trkpt>
      <trkpt lat="45.30815" lon="4.68562">
        <ele>616.82</ele>
        <time>2011-09-10T11:08:50Z</time>
      </trkpt>
      <trkpt lat="45.30815" lon="4.68561">
        <ele>615.86</ele>
        <time>2011-09-10T11:09:19Z</time>
      </trkpt>
      <trkpt lat="45.30816" lon="4.68561">
        <ele>616.34</ele>
        <time>2011-09-10T11:09:47Z</time>
      </trkpt>
      <trkpt lat="45.30815" lon="4.68566">
        <ele>615.86</ele>
        <time>2011-09-10T11:10:07Z</time>
      </trkpt>
      <trkpt lat="45.30813" lon="4.68576">
        <ele>615.38</ele>
        <time>2011-09-10T11:10:11Z</time>
      </trkpt>
      <trkpt lat="45.30812" lon="4.68578">
        <ele>615.38</ele>
        <time>2011-09-10T11:10:12Z</time>
      </trkpt>
      <trkpt lat="45.30811" lon="4.68582">
        <ele>614.9</ele>
        <time>2011-09-10T11:10:13Z</time>
      </trkpt>
      <trkpt lat="45.3081" lon="4.68585">
        <ele>614.9</ele>
        <time>2011-09-10T11:10:14Z</time>
      </trkpt>
      <trkpt lat="45.30809" lon="4.68589">
        <ele>614.42</ele>
        <time>2011-09-10T11:10:15Z</time>
      </trkpt>
      <trkpt lat="45.30808" lon="4.68635">
        <ele>615.86</ele>
        <time>2011-09-10T11:10:26Z</time>
      </trkpt>
      <trkpt lat="45.30812" lon="4.6868">
        <ele>617.78</ele>
        <time>2011-09-10T11:10:38Z</time>
      </trkpt>
      <trkpt lat="45.30814" lon="4.68688">
        <ele>618.26</ele>
        <time>2011-09-10T11:10:41Z</time>
      </trkpt>
      <trkpt lat="45.30814" lon="4.6869">
        <ele>619.23</ele>
        <time>2011-09-10T11:10:42Z</time>
      </trkpt>
      <trkpt lat="45.30814" lon="4.68693">
        <ele>619.23</ele>
        <time>2011-09-10T11:10:43Z</time>
      </trkpt>
      <trkpt lat="45.30813" lon="4.68696">
        <ele>619.23</ele>
        <time>2011-09-10T11:10:44Z</time>
      </trkpt>
      <trkpt lat="45.30812" lon="4.68698">
        <ele>619.71</ele>
        <time>2011-09-10T11:10:45Z</time>
      </trkpt>
      <trkpt lat="45.30812" lon="4.687">
        <ele>619.71</ele>
        <time>2011-09-10T11:10:46Z</time>
      </trkpt>
      <trkpt lat="45.30811" lon="4.68702">
        <ele>619.71</ele>
        <time>2011-09-10T11:10:47Z</time>
      </trkpt>
      <trkpt lat="45.3081" lon="4.68704">
        <ele>620.19</ele>
        <time>2011-09-10T11:10:48Z</time>
      </trkpt>
      <trkpt lat="45.30808" lon="4.68705">
        <ele>620.19</ele>
        <time>2011-09-10T11:10:49Z</time>
      </trkpt>
      <trkpt lat="45.30807" lon="4.68707">
        <ele>620.67</ele>
        <time>2011-09-10T11:10:50Z</time>
      </trkpt>
      <trkpt lat="45.30806" lon="4.68708">
        <ele>620.19</ele>
        <time>2011-09-10T11:10:51Z</time>
      </trkpt>
      <trkpt lat="45.30805" lon="4.68709">
        <ele>620.67</ele>
        <time>2011-09-10T11:10:52Z</time>
      </trkpt>
      <trkpt lat="45.30804" lon="4.68711">
        <ele>620.67</ele>
        <time>2011-09-10T11:10:53Z</time>
      </trkpt>
      <trkpt lat="45.30803" lon="4.68712">
        <ele>620.67</ele>
        <time>2011-09-10T11:10:54Z</time>
      </trkpt>
      <trkpt lat="45.30802" lon="4.68713">
        <ele>621.63</ele>
        <time>2011-09-10T11:10:55Z</time>
      </trkpt>
      <trkpt lat="45.30801" lon="4.68715">
        <ele>621.15</ele>
        <time>2011-09-10T11:10:56Z</time>
      </trkpt>
      <trkpt lat="45.30799" lon="4.68716">
        <ele>621.63</ele>
        <time>2011-09-10T11:10:57Z</time>
      </trkpt>
      <trkpt lat="45.30794" lon="4.68723">
        <ele>621.63</ele>
        <time>2011-09-10T11:11:02Z</time>
      </trkpt>
      <trkpt lat="45.30792" lon="4.68724">
        <ele>622.11</ele>
        <time>2011-09-10T11:11:03Z</time>
      </trkpt>
      <trkpt lat="45.30791" lon="4.68725">
        <ele>622.11</ele>
        <time>2011-09-10T11:11:04Z</time>
      </trkpt>
      <trkpt lat="45.30789" lon="4.68727">
        <ele>622.11</ele>
        <time>2011-09-10T11:11:05Z</time>
      </trkpt>
      <trkpt lat="45.30788" lon="4.68728">
        <ele>622.11</ele>
        <time>2011-09-10T11:11:06Z</time>
      </trkpt>
      <trkpt lat="45.30787" lon="4.6873">
        <ele>622.11</ele>
        <time>2011-09-10T11:11:07Z</time>
      </trkpt>
      <trkpt lat="45.30786" lon="4.68732">
        <ele>622.11</ele>
        <time>2011-09-10T11:11:08Z</time>
      </trkpt>
      <trkpt lat="45.30784" lon="4.68733">
        <ele>622.11</ele>
        <time>2011-09-10T11:11:09Z</time>
      </trkpt>
      <trkpt lat="45.30783" lon="4.68734">
        <ele>622.59</ele>
        <time>2011-09-10T11:11:10Z</time>
      </trkpt>
      <trkpt lat="45.30778" lon="4.68742">
        <ele>623.07</ele>
        <time>2011-09-10T11:11:15Z</time>
      </trkpt>
      <trkpt lat="45.30778" lon="4.68744">
        <ele>623.07</ele>
        <time>2011-09-10T11:11:16Z</time>
      </trkpt>
      <trkpt lat="45.30776" lon="4.68745">
        <ele>624.03</ele>
        <time>2011-09-10T11:11:17Z</time>
      </trkpt>
      <trkpt lat="45.30775" lon="4.68747">
        <ele>623.55</ele>
        <time>2011-09-10T11:11:18Z</time>
      </trkpt>
      <trkpt lat="45.30774" lon="4.68748">
        <ele>623.55</ele>
        <time>2011-09-10T11:11:19Z</time>
      </trkpt>
      <trkpt lat="45.30773" lon="4.6875">
        <ele>624.03</ele>
        <time>2011-09-10T11:11:20Z</time>
      </trkpt>
      <trkpt lat="45.30772" lon="4.68751">
        <ele>624.03</ele>
        <time>2011-09-10T11:11:21Z</time>
      </trkpt>
      <trkpt lat="45.30766" lon="4.68766">
        <ele>624.99</ele>
        <time>2011-09-10T11:11:29Z</time>
      </trkpt>
      <trkpt lat="45.3076" lon="4.68797">
        <ele>625.96</ele>
        <time>2011-09-10T11:11:43Z</time>
      </trkpt>
      <trkpt lat="45.30757" lon="4.68828">
        <ele>629.32</ele>
        <time>2011-09-10T11:11:55Z</time>
      </trkpt>
      <trkpt lat="45.3076" lon="4.6886">
        <ele>631.72</ele>
        <time>2011-09-10T11:12:08Z</time>
      </trkpt>
      <trkpt lat="45.30771" lon="4.68909">
        <ele>631.24</ele>
        <time>2011-09-10T11:12:25Z</time>
      </trkpt>
      <trkpt lat="45.30771" lon="4.68934">
        <ele>630.28</ele>
        <time>2011-09-10T11:12:30Z</time>
      </trkpt>
      <trkpt lat="45.30768" lon="4.68957">
        <ele>628.84</ele>
        <time>2011-09-10T11:12:33Z</time>
      </trkpt>
      <trkpt lat="45.30762" lon="4.68983">
        <ele>627.88</ele>
        <time>2011-09-10T11:12:36Z</time>
      </trkpt>
      <trkpt lat="45.30756" lon="4.69">
        <ele>624.99</ele>
        <time>2011-09-10T11:12:38Z</time>
      </trkpt>
      <trkpt lat="45.30752" lon="4.69008">
        <ele>624.51</ele>
        <time>2011-09-10T11:12:39Z</time>
      </trkpt>
      <trkpt lat="45.30749" lon="4.69016">
        <ele>623.55</ele>
        <time>2011-09-10T11:12:40Z</time>
      </trkpt>
      <trkpt lat="45.30745" lon="4.69025">
        <ele>623.55</ele>
        <time>2011-09-10T11:12:41Z</time>
      </trkpt>
      <trkpt lat="45.30742" lon="4.69035">
        <ele>622.59</ele>
        <time>2011-09-10T11:12:42Z</time>
      </trkpt>
      <trkpt lat="45.3074" lon="4.69045">
        <ele>622.59</ele>
        <time>2011-09-10T11:12:43Z</time>
      </trkpt>
      <trkpt lat="45.30723" lon="4.69149">
        <ele>620.19</ele>
        <time>2011-09-10T11:12:54Z</time>
      </trkpt>
      <trkpt lat="45.30723" lon="4.69156">
        <ele>619.71</ele>
        <time>2011-09-10T11:12:55Z</time>
      </trkpt>
      <trkpt lat="45.30722" lon="4.69163">
        <ele>622.11</ele>
        <time>2011-09-10T11:12:56Z</time>
      </trkpt>
      <trkpt lat="45.30721" lon="4.69169">
        <ele>620.67</ele>
        <time>2011-09-10T11:12:57Z</time>
      </trkpt>
      <trkpt lat="45.3072" lon="4.69174">
        <ele>620.19</ele>
        <time>2011-09-10T11:12:58Z</time>
      </trkpt>
      <trkpt lat="45.30716" lon="4.69225">
        <ele>621.15</ele>
        <time>2011-09-10T11:13:07Z</time>
      </trkpt>
      <trkpt lat="45.30717" lon="4.69231">
        <ele>621.63</ele>
        <time>2011-09-10T11:13:08Z</time>
      </trkpt>
      <trkpt lat="45.30732" lon="4.69271">
        <ele>621.63</ele>
        <time>2011-09-10T11:13:18Z</time>
      </trkpt>
      <trkpt lat="45.30771" lon="4.69314">
        <ele>617.78</ele>
        <time>2011-09-10T11:13:29Z</time>
      </trkpt>
      <trkpt lat="45.3078" lon="4.69326">
        <ele>619.23</ele>
        <time>2011-09-10T11:13:32Z</time>
      </trkpt>
      <trkpt lat="45.30789" lon="4.6934">
        <ele>619.23</ele>
        <time>2011-09-10T11:13:35Z</time>
      </trkpt>
      <trkpt lat="45.30793" lon="4.69344">
        <ele>619.23</ele>
        <time>2011-09-10T11:13:36Z</time>
      </trkpt>
      <trkpt lat="45.30797" lon="4.69348">
        <ele>618.75</ele>
        <time>2011-09-10T11:13:37Z</time>
      </trkpt>
      <trkpt lat="45.30805" lon="4.69357">
        <ele>617.78</ele>
        <time>2011-09-10T11:13:39Z</time>
      </trkpt>
      <trkpt lat="45.30813" lon="4.69365">
        <ele>616.82</ele>
        <time>2011-09-10T11:13:41Z</time>
      </trkpt>
      <trkpt lat="45.30817" lon="4.69369">
        <ele>616.34</ele>
        <time>2011-09-10T11:13:42Z</time>
      </trkpt>
      <trkpt lat="45.30822" lon="4.69372">
        <ele>615.38</ele>
        <time>2011-09-10T11:13:43Z</time>
      </trkpt>
      <trkpt lat="45.30826" lon="4.69377">
        <ele>615.38</ele>
        <time>2011-09-10T11:13:44Z</time>
      </trkpt>
      <trkpt lat="45.3083" lon="4.69384">
        <ele>614.9</ele>
        <time>2011-09-10T11:13:45Z</time>
      </trkpt>
      <trkpt lat="45.30834" lon="4.69391">
        <ele>614.42</ele>
        <time>2011-09-10T11:13:46Z</time>
      </trkpt>
      <trkpt lat="45.30839" lon="4.69399">
        <ele>614.9</ele>
        <time>2011-09-10T11:13:47Z</time>
      </trkpt>
      <trkpt lat="45.30844" lon="4.69405">
        <ele>614.42</ele>
        <time>2011-09-10T11:13:48Z</time>
      </trkpt>
      <trkpt lat="45.3085" lon="4.69412">
        <ele>613.46</ele>
        <time>2011-09-10T11:13:49Z</time>
      </trkpt>
      <trkpt lat="45.30855" lon="4.6942">
        <ele>612.5</ele>
        <time>2011-09-10T11:13:50Z</time>
      </trkpt>
      <trkpt lat="45.30859" lon="4.69429">
        <ele>612.5</ele>
        <time>2011-09-10T11:13:51Z</time>
      </trkpt>
      <trkpt lat="45.30863" lon="4.69438">
        <ele>611.06</ele>
        <time>2011-09-10T11:13:52Z</time>
      </trkpt>
      <trkpt lat="45.30867" lon="4.69447">
        <ele>611.06</ele>
        <time>2011-09-10T11:13:53Z</time>
      </trkpt>
      <trkpt lat="45.30869" lon="4.69456">
        <ele>611.06</ele>
        <time>2011-09-10T11:13:54Z</time>
      </trkpt>
      <trkpt lat="45.30876" lon="4.69483">
        <ele>609.13</ele>
        <time>2011-09-10T11:13:57Z</time>
      </trkpt>
      <trkpt lat="45.30876" lon="4.69491">
        <ele>609.13</ele>
        <time>2011-09-10T11:13:58Z</time>
      </trkpt>
      <trkpt lat="45.30875" lon="4.69498">
        <ele>608.65</ele>
        <time>2011-09-10T11:13:59Z</time>
      </trkpt>
      <trkpt lat="45.30874" lon="4.69514">
        <ele>608.17</ele>
        <time>2011-09-10T11:14:01Z</time>
      </trkpt>
      <trkpt lat="45.30873" lon="4.69536">
        <ele>607.69</ele>
        <time>2011-09-10T11:14:04Z</time>
      </trkpt>
      <trkpt lat="45.30874" lon="4.69543">
        <ele>607.21</ele>
        <time>2011-09-10T11:14:05Z</time>
      </trkpt>
      <trkpt lat="45.30875" lon="4.69558">
        <ele>607.21</ele>
        <time>2011-09-10T11:14:07Z</time>
      </trkpt>
      <trkpt lat="45.30876" lon="4.69565">
        <ele>607.21</ele>
        <time>2011-09-10T11:14:08Z</time>
      </trkpt>
      <trkpt lat="45.30878" lon="4.69571">
        <ele>607.21</ele>
        <time>2011-09-10T11:14:09Z</time>
      </trkpt>
      <trkpt lat="45.30882" lon="4.69612">
        <ele>606.73</ele>
        <time>2011-09-10T11:14:16Z</time>
      </trkpt>
      <trkpt lat="45.30882" lon="4.69619">
        <ele>606.73</ele>
        <time>2011-09-10T11:14:17Z</time>
      </trkpt>
      <trkpt lat="45.30882" lon="4.69632">
        <ele>606.25</ele>
        <time>2011-09-10T11:14:19Z</time>
      </trkpt>
      <trkpt lat="45.30883" lon="4.69639">
        <ele>605.29</ele>
        <time>2011-09-10T11:14:20Z</time>
      </trkpt>
      <trkpt lat="45.30886" lon="4.69652">
        <ele>605.29</ele>
        <time>2011-09-10T11:14:22Z</time>
      </trkpt>
      <trkpt lat="45.30888" lon="4.69659">
        <ele>604.81</ele>
        <time>2011-09-10T11:14:23Z</time>
      </trkpt>
      <trkpt lat="45.3089" lon="4.69666">
        <ele>604.33</ele>
        <time>2011-09-10T11:14:24Z</time>
      </trkpt>
      <trkpt lat="45.30893" lon="4.69673">
        <ele>603.85</ele>
        <time>2011-09-10T11:14:25Z</time>
      </trkpt>
      <trkpt lat="45.30896" lon="4.6968">
        <ele>603.36</ele>
        <time>2011-09-10T11:14:26Z</time>
      </trkpt>
      <trkpt lat="45.30899" lon="4.69687">
        <ele>603.36</ele>
        <time>2011-09-10T11:14:27Z</time>
      </trkpt>
      <trkpt lat="45.30909" lon="4.69712">
        <ele>601.44</ele>
        <time>2011-09-10T11:14:30Z</time>
      </trkpt>
      <trkpt lat="45.30921" lon="4.69743">
        <ele>600.48</ele>
        <time>2011-09-10T11:14:33Z</time>
      </trkpt>
      <trkpt lat="45.30937" lon="4.6977">
        <ele>600</ele>
        <time>2011-09-10T11:14:36Z</time>
      </trkpt>
      <trkpt lat="45.30943" lon="4.69781">
        <ele>599.52</ele>
        <time>2011-09-10T11:14:37Z</time>
      </trkpt>
      <trkpt lat="45.30947" lon="4.69791">
        <ele>599.52</ele>
        <time>2011-09-10T11:14:38Z</time>
      </trkpt>
      <trkpt lat="45.3095" lon="4.69801">
        <ele>599.04</ele>
        <time>2011-09-10T11:14:39Z</time>
      </trkpt>
      <trkpt lat="45.30953" lon="4.69811">
        <ele>599.04</ele>
        <time>2011-09-10T11:14:40Z</time>
      </trkpt>
      <trkpt lat="45.30957" lon="4.6982">
        <ele>599.04</ele>
        <time>2011-09-10T11:14:41Z</time>
      </trkpt>
      <trkpt lat="45.30975" lon="4.69873">
        <ele>596.64</ele>
        <time>2011-09-10T11:14:46Z</time>
      </trkpt>
      <trkpt lat="45.31016" lon="4.69973">
        <ele>594.23</ele>
        <time>2011-09-10T11:14:57Z</time>
      </trkpt>
      <trkpt lat="45.31018" lon="4.69979">
        <ele>594.23</ele>
        <time>2011-09-10T11:14:58Z</time>
      </trkpt>
      <trkpt lat="45.31041" lon="4.70027">
        <ele>594.71</ele>
        <time>2011-09-10T11:15:08Z</time>
      </trkpt>
      <trkpt lat="45.31044" lon="4.70039">
        <ele>594.71</ele>
        <time>2011-09-10T11:15:10Z</time>
      </trkpt>
      <trkpt lat="45.31046" lon="4.70046">
        <ele>594.71</ele>
        <time>2011-09-10T11:15:11Z</time>
      </trkpt>
      <trkpt lat="45.31056" lon="4.70074">
        <ele>592.79</ele>
        <time>2011-09-10T11:15:15Z</time>
      </trkpt>
      <trkpt lat="45.31067" lon="4.7012">
        <ele>592.31</ele>
        <time>2011-09-10T11:15:21Z</time>
      </trkpt>
      <trkpt lat="45.31078" lon="4.7017">
        <ele>592.79</ele>
        <time>2011-09-10T11:15:28Z</time>
      </trkpt>
      <trkpt lat="45.3108" lon="4.70176">
        <ele>592.79</ele>
        <time>2011-09-10T11:15:29Z</time>
      </trkpt>
      <trkpt lat="45.311" lon="4.70227">
        <ele>592.79</ele>
        <time>2011-09-10T11:15:40Z</time>
      </trkpt>
      <trkpt lat="45.31108" lon="4.70259">
        <ele>590.39</ele>
        <time>2011-09-10T11:15:48Z</time>
      </trkpt>
      <trkpt lat="45.31107" lon="4.70262">
        <ele>590.87</ele>
        <time>2011-09-10T11:15:49Z</time>
      </trkpt>
      <trkpt lat="45.31106" lon="4.70265">
        <ele>590.39</ele>
        <time>2011-09-10T11:15:50Z</time>
      </trkpt>
      <trkpt lat="45.31105" lon="4.70266">
        <ele>590.39</ele>
        <time>2011-09-10T11:15:51Z</time>
      </trkpt>
      <trkpt lat="45.31103" lon="4.70267">
        <ele>590.39</ele>
        <time>2011-09-10T11:15:52Z</time>
      </trkpt>
      <trkpt lat="45.31101" lon="4.70267">
        <ele>590.39</ele>
        <time>2011-09-10T11:15:53Z</time>
      </trkpt>
      <trkpt lat="45.311" lon="4.70265">
        <ele>590.39</ele>
        <time>2011-09-10T11:15:54Z</time>
      </trkpt>
      <trkpt lat="45.31098" lon="4.70264">
        <ele>590.39</ele>
        <time>2011-09-10T11:15:55Z</time>
      </trkpt>
      <trkpt lat="45.31097" lon="4.70262">
        <ele>590.87</ele>
        <time>2011-09-10T11:15:56Z</time>
      </trkpt>
      <trkpt lat="45.31096" lon="4.70262">
        <ele>590.87</ele>
        <time>2011-09-10T11:15:57Z</time>
      </trkpt>
      <trkpt lat="45.31095" lon="4.70262">
        <ele>591.35</ele>
        <time>2011-09-10T11:15:58Z</time>
      </trkpt>
      <trkpt lat="45.31093" lon="4.70262">
        <ele>591.35</ele>
        <time>2011-09-10T11:15:59Z</time>
      </trkpt>
      <trkpt lat="45.31092" lon="4.70263">
        <ele>591.35</ele>
        <time>2011-09-10T11:16:00Z</time>
      </trkpt>
      <trkpt lat="45.3109" lon="4.70263">
        <ele>590.39</ele>
        <time>2011-09-10T11:16:01Z</time>
      </trkpt>
      <trkpt lat="45.31089" lon="4.70262">
        <ele>590.87</ele>
        <time>2011-09-10T11:16:02Z</time>
      </trkpt>
      <trkpt lat="45.31088" lon="4.70261">
        <ele>591.35</ele>
        <time>2011-09-10T11:16:03Z</time>
      </trkpt>
      <trkpt lat="45.31086" lon="4.7026">
        <ele>591.83</ele>
        <time>2011-09-10T11:16:04Z</time>
      </trkpt>
      <trkpt lat="45.31085" lon="4.70259">
        <ele>591.83</ele>
        <time>2011-09-10T11:16:05Z</time>
      </trkpt>
      <trkpt lat="45.31084" lon="4.70258">
        <ele>592.31</ele>
        <time>2011-09-10T11:16:06Z</time>
      </trkpt>
      <trkpt lat="45.31083" lon="4.70257">
        <ele>591.83</ele>
        <time>2011-09-10T11:16:07Z</time>
      </trkpt>
      <trkpt lat="45.31081" lon="4.70255">
        <ele>592.79</ele>
        <time>2011-09-10T11:16:08Z</time>
      </trkpt>
      <trkpt lat="45.3108" lon="4.70253">
        <ele>593.75</ele>
        <time>2011-09-10T11:16:09Z</time>
      </trkpt>
      <trkpt lat="45.31078" lon="4.70251">
        <ele>593.75</ele>
        <time>2011-09-10T11:16:10Z</time>
      </trkpt>
      <trkpt lat="45.31076" lon="4.70247">
        <ele>595.19</ele>
        <time>2011-09-10T11:16:13Z</time>
      </trkpt>
      <trkpt lat="45.31074" lon="4.70239">
        <ele>596.15</ele>
        <time>2011-09-10T11:16:17Z</time>
      </trkpt>
      <trkpt lat="45.31074" lon="4.70237">
        <ele>595.19</ele>
        <time>2011-09-10T11:16:18Z</time>
      </trkpt>
      <trkpt lat="45.31074" lon="4.70235">
        <ele>595.67</ele>
        <time>2011-09-10T11:16:19Z</time>
      </trkpt>
      <trkpt lat="45.31073" lon="4.70233">
        <ele>594.71</ele>
        <time>2011-09-10T11:16:20Z</time>
      </trkpt>
      <trkpt lat="45.31073" lon="4.70231">
        <ele>595.19</ele>
        <time>2011-09-10T11:16:21Z</time>
      </trkpt>
      <trkpt lat="45.31072" lon="4.70229">
        <ele>595.19</ele>
        <time>2011-09-10T11:16:22Z</time>
      </trkpt>
      <trkpt lat="45.31072" lon="4.70227">
        <ele>595.67</ele>
        <time>2011-09-10T11:16:23Z</time>
      </trkpt>
      <trkpt lat="45.31071" lon="4.70225">
        <ele>595.19</ele>
        <time>2011-09-10T11:16:24Z</time>
      </trkpt>
      <trkpt lat="45.3107" lon="4.70223">
        <ele>595.67</ele>
        <time>2011-09-10T11:16:25Z</time>
      </trkpt>
      <trkpt lat="45.31069" lon="4.70221">
        <ele>595.19</ele>
        <time>2011-09-10T11:16:26Z</time>
      </trkpt>
      <trkpt lat="45.31068" lon="4.70219">
        <ele>595.19</ele>
        <time>2011-09-10T11:16:27Z</time>
      </trkpt>
      <trkpt lat="45.31056" lon="4.70197">
        <ele>596.64</ele>
        <time>2011-09-10T11:16:40Z</time>
      </trkpt>
      <trkpt lat="45.31055" lon="4.70196">
        <ele>597.12</ele>
        <time>2011-09-10T11:16:41Z</time>
      </trkpt>
      <trkpt lat="45.31054" lon="4.70194">
        <ele>597.12</ele>
        <time>2011-09-10T11:16:42Z</time>
      </trkpt>
      <trkpt lat="45.31054" lon="4.70193">
        <ele>596.64</ele>
        <time>2011-09-10T11:16:43Z</time>
      </trkpt>
      <trkpt lat="45.31045" lon="4.70183">
        <ele>597.6</ele>
        <time>2011-09-10T11:16:51Z</time>
      </trkpt>
      <trkpt lat="45.31044" lon="4.70182">
        <ele>598.08</ele>
        <time>2011-09-10T11:16:52Z</time>
      </trkpt>
      <trkpt lat="45.31043" lon="4.7018">
        <ele>598.08</ele>
        <time>2011-09-10T11:16:53Z</time>
      </trkpt>
      <trkpt lat="45.31042" lon="4.70179">
        <ele>599.04</ele>
        <time>2011-09-10T11:16:54Z</time>
      </trkpt>
      <trkpt lat="45.31035" lon="4.70171">
        <ele>600.96</ele>
        <time>2011-09-10T11:17:00Z</time>
      </trkpt>
      <trkpt lat="45.31034" lon="4.70169">
        <ele>601.44</ele>
        <time>2011-09-10T11:17:01Z</time>
      </trkpt>
      <trkpt lat="45.31033" lon="4.70168">
        <ele>601.44</ele>
        <time>2011-09-10T11:17:02Z</time>
      </trkpt>
      <trkpt lat="45.31033" lon="4.70167">
        <ele>601.44</ele>
        <time>2011-09-10T11:17:03Z</time>
      </trkpt>
      <trkpt lat="45.31029" lon="4.70163">
        <ele>602.88</ele>
        <time>2011-09-10T11:17:17Z</time>
      </trkpt>
      <trkpt lat="45.31025" lon="4.70148">
        <ele>605.77</ele>
        <time>2011-09-10T11:17:31Z</time>
      </trkpt>
      <trkpt lat="45.31023" lon="4.70141">
        <ele>606.73</ele>
        <time>2011-09-10T11:17:42Z</time>
      </trkpt>
      <trkpt lat="45.31021" lon="4.70136">
        <ele>607.21</ele>
        <time>2011-09-10T11:17:52Z</time>
      </trkpt>
      <trkpt lat="45.31017" lon="4.70125">
        <ele>609.61</ele>
        <time>2011-09-10T11:18:03Z</time>
      </trkpt>
      <trkpt lat="45.31015" lon="4.70118">
        <ele>610.57</ele>
        <time>2011-09-10T11:18:13Z</time>
      </trkpt>
      <trkpt lat="45.31012" lon="4.70115">
        <ele>611.06</ele>
        <time>2011-09-10T11:18:16Z</time>
      </trkpt>
      <trkpt lat="45.31002" lon="4.70109">
        <ele>612.98</ele>
        <time>2011-09-10T11:18:28Z</time>
      </trkpt>
      <trkpt lat="45.30995" lon="4.70106">
        <ele>614.42</ele>
        <time>2011-09-10T11:18:36Z</time>
      </trkpt>
      <trkpt lat="45.30986" lon="4.70105">
        <ele>616.34</ele>
        <time>2011-09-10T11:18:48Z</time>
      </trkpt>
      <trkpt lat="45.30984" lon="4.70108">
        <ele>616.82</ele>
        <time>2011-09-10T11:19:00Z</time>
      </trkpt>
      <trkpt lat="45.30983" lon="4.70108">
        <ele>616.82</ele>
        <time>2011-09-10T11:19:14Z</time>
      </trkpt>
      <trkpt lat="45.30982" lon="4.70109">
        <ele>616.82</ele>
        <time>2011-09-10T11:19:19Z</time>
      </trkpt>
      <trkpt lat="45.30978" lon="4.70112">
        <ele>617.3</ele>
        <time>2011-09-10T11:19:24Z</time>
      </trkpt>
      <trkpt lat="45.30975" lon="4.70114">
        <ele>619.23</ele>
        <time>2011-09-10T11:19:27Z</time>
      </trkpt>
      <trkpt lat="45.30973" lon="4.70116">
        <ele>619.71</ele>
        <time>2011-09-10T11:19:29Z</time>
      </trkpt>
      <trkpt lat="45.30973" lon="4.70118">
        <ele>620.19</ele>
        <time>2011-09-10T11:19:30Z</time>
      </trkpt>
      <trkpt lat="45.3097" lon="4.70121">
        <ele>621.15</ele>
        <time>2011-09-10T11:19:34Z</time>
      </trkpt>
      <trkpt lat="45.30968" lon="4.70121">
        <ele>620.67</ele>
        <time>2011-09-10T11:19:35Z</time>
      </trkpt>
      <trkpt lat="45.30967" lon="4.70121">
        <ele>621.15</ele>
        <time>2011-09-10T11:19:36Z</time>
      </trkpt>
      <trkpt lat="45.30965" lon="4.70122">
        <ele>621.15</ele>
        <time>2011-09-10T11:19:37Z</time>
      </trkpt>
      <trkpt lat="45.30963" lon="4.70123">
        <ele>624.03</ele>
        <time>2011-09-10T11:19:38Z</time>
      </trkpt>
      <trkpt lat="45.30962" lon="4.70123">
        <ele>622.11</ele>
        <time>2011-09-10T11:19:39Z</time>
      </trkpt>
      <trkpt lat="45.30961" lon="4.70124">
        <ele>621.15</ele>
        <time>2011-09-10T11:19:40Z</time>
      </trkpt>
      <trkpt lat="45.3096" lon="4.70125">
        <ele>621.63</ele>
        <time>2011-09-10T11:19:41Z</time>
      </trkpt>
      <trkpt lat="45.30958" lon="4.70126">
        <ele>621.15</ele>
        <time>2011-09-10T11:19:42Z</time>
      </trkpt>
      <trkpt lat="45.30951" lon="4.70131">
        <ele>622.11</ele>
        <time>2011-09-10T11:19:47Z</time>
      </trkpt>
      <trkpt lat="45.3095" lon="4.70131">
        <ele>622.11</ele>
        <time>2011-09-10T11:19:48Z</time>
      </trkpt>
      <trkpt lat="45.30949" lon="4.70132">
        <ele>622.11</ele>
        <time>2011-09-10T11:19:49Z</time>
      </trkpt>
      <trkpt lat="45.30947" lon="4.70132">
        <ele>622.11</ele>
        <time>2011-09-10T11:19:50Z</time>
      </trkpt>
      <trkpt lat="45.30945" lon="4.70133">
        <ele>622.59</ele>
        <time>2011-09-10T11:19:52Z</time>
      </trkpt>
      <trkpt lat="45.30932" lon="4.70137">
        <ele>624.51</ele>
        <time>2011-09-10T11:20:01Z</time>
      </trkpt>
      <trkpt lat="45.30926" lon="4.70141">
        <ele>624.51</ele>
        <time>2011-09-10T11:20:06Z</time>
      </trkpt>
      <trkpt lat="45.30925" lon="4.70141">
        <ele>624.51</ele>
        <time>2011-09-10T11:20:07Z</time>
      </trkpt>
      <trkpt lat="45.30923" lon="4.70142">
        <ele>624.99</ele>
        <time>2011-09-10T11:20:08Z</time>
      </trkpt>
      <trkpt lat="45.30914" lon="4.70146">
        <ele>629.32</ele>
        <time>2011-09-10T11:20:15Z</time>
      </trkpt>
      <trkpt lat="45.30913" lon="4.70147">
        <ele>625.47</ele>
        <time>2011-09-10T11:20:16Z</time>
      </trkpt>
      <trkpt lat="45.309" lon="4.7015">
        <ele>625.96</ele>
        <time>2011-09-10T11:20:25Z</time>
      </trkpt>
      <trkpt lat="45.30898" lon="4.7015">
        <ele>626.92</ele>
        <time>2011-09-10T11:20:26Z</time>
      </trkpt>
      <trkpt lat="45.30897" lon="4.7015">
        <ele>626.92</ele>
        <time>2011-09-10T11:20:27Z</time>
      </trkpt>
      <trkpt lat="45.30895" lon="4.7015">
        <ele>625.96</ele>
        <time>2011-09-10T11:20:28Z</time>
      </trkpt>
      <trkpt lat="45.30894" lon="4.7015">
        <ele>626.92</ele>
        <time>2011-09-10T11:20:29Z</time>
      </trkpt>
      <trkpt lat="45.30892" lon="4.7015">
        <ele>626.44</ele>
        <time>2011-09-10T11:20:30Z</time>
      </trkpt>
      <trkpt lat="45.30891" lon="4.7015">
        <ele>626.92</ele>
        <time>2011-09-10T11:20:31Z</time>
      </trkpt>
      <trkpt lat="45.3088" lon="4.70148">
        <ele>628.84</ele>
        <time>2011-09-10T11:20:39Z</time>
      </trkpt>
      <trkpt lat="45.30872" lon="4.70142">
        <ele>630.28</ele>
        <time>2011-09-10T11:20:50Z</time>
      </trkpt>
      <trkpt lat="45.30857" lon="4.70141">
        <ele>633.17</ele>
        <time>2011-09-10T11:21:03Z</time>
      </trkpt>
      <trkpt lat="45.30848" lon="4.7014">
        <ele>634.13</ele>
        <time>2011-09-10T11:21:13Z</time>
      </trkpt>
      <trkpt lat="45.30839" lon="4.70136">
        <ele>636.05</ele>
        <time>2011-09-10T11:21:23Z</time>
      </trkpt>
      <trkpt lat="45.30838" lon="4.70136">
        <ele>631.24</ele>
        <time>2011-09-10T11:21:24Z</time>
      </trkpt>
      <trkpt lat="45.30837" lon="4.70136">
        <ele>636.53</ele>
        <time>2011-09-10T11:21:25Z</time>
      </trkpt>
      <trkpt lat="45.30817" lon="4.70137">
        <ele>635.09</ele>
        <time>2011-09-10T11:21:35Z</time>
      </trkpt>
      <trkpt lat="45.30792" lon="4.70142">
        <ele>634.61</ele>
        <time>2011-09-10T11:21:45Z</time>
      </trkpt>
      <trkpt lat="45.30786" lon="4.70141">
        <ele>633.65</ele>
        <time>2011-09-10T11:21:48Z</time>
      </trkpt>
      <trkpt lat="45.30781" lon="4.70139">
        <ele>635.09</ele>
        <time>2011-09-10T11:21:57Z</time>
      </trkpt>
      <trkpt lat="45.30779" lon="4.70136">
        <ele>633.65</ele>
        <time>2011-09-10T11:22:11Z</time>
      </trkpt>
      <trkpt lat="45.30753" lon="4.70126">
        <ele>632.68</ele>
        <time>2011-09-10T11:22:21Z</time>
      </trkpt>
      <trkpt lat="45.30726" lon="4.70143">
        <ele>629.32</ele>
        <time>2011-09-10T11:22:30Z</time>
      </trkpt>
      <trkpt lat="45.30692" lon="4.70147">
        <ele>628.84</ele>
        <time>2011-09-10T11:22:41Z</time>
      </trkpt>
      <trkpt lat="45.30682" lon="4.70144">
        <ele>627.88</ele>
        <time>2011-09-10T11:22:45Z</time>
      </trkpt>
      <trkpt lat="45.30653" lon="4.70142">
        <ele>630.28</ele>
        <time>2011-09-10T11:22:57Z</time>
      </trkpt>
      <trkpt lat="45.30651" lon="4.70142">
        <ele>630.28</ele>
        <time>2011-09-10T11:22:59Z</time>
      </trkpt>
      <trkpt lat="45.30643" lon="4.70144">
        <ele>631.72</ele>
        <time>2011-09-10T11:23:03Z</time>
      </trkpt>
      <trkpt lat="45.30635" lon="4.70145">
        <ele>633.65</ele>
        <time>2011-09-10T11:23:07Z</time>
      </trkpt>
      <trkpt lat="45.30619" lon="4.70151">
        <ele>634.61</ele>
        <time>2011-09-10T11:23:23Z</time>
      </trkpt>
      <trkpt lat="45.30618" lon="4.70151">
        <ele>637.97</ele>
        <time>2011-09-10T11:23:34Z</time>
      </trkpt>
      <trkpt lat="45.30616" lon="4.70151">
        <ele>638.45</ele>
        <time>2011-09-10T11:23:36Z</time>
      </trkpt>
      <trkpt lat="45.30607" lon="4.70151">
        <ele>642.3</ele>
        <time>2011-09-10T11:23:46Z</time>
      </trkpt>
      <trkpt lat="45.30607" lon="4.70151">
        <ele>645.18</ele>
        <time>2011-09-10T11:23:57Z</time>
      </trkpt>
      <trkpt lat="45.30607" lon="4.70151">
        <ele>644.22</ele>
        <time>2011-09-10T11:24:18Z</time>
      </trkpt>
      <trkpt lat="45.30607" lon="4.70152">
        <ele>644.22</ele>
        <time>2011-09-10T11:24:22Z</time>
      </trkpt>
      <trkpt lat="45.30578" lon="4.7019">
        <ele>641.82</ele>
        <time>2011-09-10T11:24:33Z</time>
      </trkpt>
      <trkpt lat="45.30544" lon="4.7023">
        <ele>642.78</ele>
        <time>2011-09-10T11:24:44Z</time>
      </trkpt>
      <trkpt lat="45.3051" lon="4.70239">
        <ele>645.66</ele>
        <time>2011-09-10T11:24:59Z</time>
      </trkpt>
      <trkpt lat="45.30491" lon="4.70232">
        <ele>648.07</ele>
        <time>2011-09-10T11:25:15Z</time>
      </trkpt>
      <trkpt lat="45.30471" lon="4.70231">
        <ele>649.99</ele>
        <time>2011-09-10T11:25:30Z</time>
      </trkpt>
      <trkpt lat="45.30469" lon="4.70229">
        <ele>650.95</ele>
        <time>2011-09-10T11:25:33Z</time>
      </trkpt>
      <trkpt lat="45.30464" lon="4.70227">
        <ele>651.43</ele>
        <time>2011-09-10T11:25:37Z</time>
      </trkpt>
      <trkpt lat="45.30457" lon="4.70225">
        <ele>651.91</ele>
        <time>2011-09-10T11:25:42Z</time>
      </trkpt>
      <trkpt lat="45.30438" lon="4.70216">
        <ele>652.87</ele>
        <time>2011-09-10T11:25:54Z</time>
      </trkpt>
      <trkpt lat="45.30431" lon="4.70212">
        <ele>653.83</ele>
        <time>2011-09-10T11:25:59Z</time>
      </trkpt>
      <trkpt lat="45.30424" lon="4.70208">
        <ele>653.83</ele>
        <time>2011-09-10T11:26:03Z</time>
      </trkpt>
      <trkpt lat="45.3042" lon="4.70205">
        <ele>655.28</ele>
        <time>2011-09-10T11:26:05Z</time>
      </trkpt>
      <trkpt lat="45.30417" lon="4.70204">
        <ele>654.8</ele>
        <time>2011-09-10T11:26:14Z</time>
      </trkpt>
      <trkpt lat="45.30413" lon="4.70199">
        <ele>655.28</ele>
        <time>2011-09-10T11:26:21Z</time>
      </trkpt>
      <trkpt lat="45.30407" lon="4.70194">
        <ele>655.28</ele>
        <time>2011-09-10T11:26:25Z</time>
      </trkpt>
      <trkpt lat="45.30398" lon="4.70188">
        <ele>656.24</ele>
        <time>2011-09-10T11:26:31Z</time>
      </trkpt>
      <trkpt lat="45.3038" lon="4.70177">
        <ele>656.72</ele>
        <time>2011-09-10T11:26:44Z</time>
      </trkpt>
      <trkpt lat="45.30376" lon="4.70171">
        <ele>656.72</ele>
        <time>2011-09-10T11:26:48Z</time>
      </trkpt>
      <trkpt lat="45.30366" lon="4.70161">
        <ele>658.16</ele>
        <time>2011-09-10T11:26:58Z</time>
      </trkpt>
      <trkpt lat="45.30355" lon="4.70156">
        <ele>658.64</ele>
        <time>2011-09-10T11:27:08Z</time>
      </trkpt>
      <trkpt lat="45.30355" lon="4.70158">
        <ele>658.16</ele>
        <time>2011-09-10T11:27:18Z</time>
      </trkpt>
      <trkpt lat="45.30354" lon="4.70172">
        <ele>655.76</ele>
        <time>2011-09-10T11:27:24Z</time>
      </trkpt>
      <trkpt lat="45.30351" lon="4.70182">
        <ele>654.8</ele>
        <time>2011-09-10T11:27:33Z</time>
      </trkpt>
      <trkpt lat="45.30351" lon="4.70182">
        <ele>654.8</ele>
        <time>2011-09-10T11:27:42Z</time>
      </trkpt>
      <trkpt lat="45.30355" lon="4.70202">
        <ele>652.87</ele>
        <time>2011-09-10T11:27:47Z</time>
      </trkpt>
      <trkpt lat="45.30355" lon="4.70245">
        <ele>649.51</ele>
        <time>2011-09-10T11:27:55Z</time>
      </trkpt>
      <trkpt lat="45.30353" lon="4.70247">
        <ele>651.43</ele>
        <time>2011-09-10T11:27:56Z</time>
      </trkpt>
      <trkpt lat="45.3034" lon="4.70254">
        <ele>648.07</ele>
        <time>2011-09-10T11:28:05Z</time>
      </trkpt>
      <trkpt lat="45.30324" lon="4.70263">
        <ele>644.7</ele>
        <time>2011-09-10T11:28:12Z</time>
      </trkpt>
      <trkpt lat="45.30314" lon="4.70267">
        <ele>642.3</ele>
        <time>2011-09-10T11:28:15Z</time>
      </trkpt>
      <trkpt lat="45.30307" lon="4.70269">
        <ele>641.34</ele>
        <time>2011-09-10T11:28:16Z</time>
      </trkpt>
      <trkpt lat="45.30265" lon="4.70271">
        <ele>637.97</ele>
        <time>2011-09-10T11:28:21Z</time>
      </trkpt>
      <trkpt lat="45.30256" lon="4.70269">
        <ele>637.97</ele>
        <time>2011-09-10T11:28:22Z</time>
      </trkpt>
      <trkpt lat="45.3024" lon="4.70264">
        <ele>636.53</ele>
        <time>2011-09-10T11:28:24Z</time>
      </trkpt>
      <trkpt lat="45.30216" lon="4.70259">
        <ele>635.09</ele>
        <time>2011-09-10T11:28:27Z</time>
      </trkpt>
      <trkpt lat="45.30206" lon="4.70259">
        <ele>634.61</ele>
        <time>2011-09-10T11:28:28Z</time>
      </trkpt>
      <trkpt lat="45.3017" lon="4.70242">
        <ele>631.24</ele>
        <time>2011-09-10T11:28:33Z</time>
      </trkpt>
      <trkpt lat="45.30148" lon="4.70239">
        <ele>631.24</ele>
        <time>2011-09-10T11:28:36Z</time>
      </trkpt>
      <trkpt lat="45.30142" lon="4.7024">
        <ele>631.24</ele>
        <time>2011-09-10T11:28:37Z</time>
      </trkpt>
      <trkpt lat="45.30092" lon="4.70264">
        <ele>632.68</ele>
        <time>2011-09-10T11:28:47Z</time>
      </trkpt>
      <trkpt lat="45.30061" lon="4.70273">
        <ele>635.57</ele>
        <time>2011-09-10T11:28:58Z</time>
      </trkpt>
      <trkpt lat="45.30034" lon="4.70261">
        <ele>637.97</ele>
        <time>2011-09-10T11:29:09Z</time>
      </trkpt>
      <trkpt lat="45.30018" lon="4.70257">
        <ele>642.78</ele>
        <time>2011-09-10T11:29:17Z</time>
      </trkpt>
      <trkpt lat="45.30016" lon="4.70257">
        <ele>638.93</ele>
        <time>2011-09-10T11:29:18Z</time>
      </trkpt>
      <trkpt lat="45.29982" lon="4.70252">
        <ele>640.86</ele>
        <time>2011-09-10T11:29:36Z</time>
      </trkpt>
      <trkpt lat="45.29947" lon="4.70254">
        <ele>641.82</ele>
        <time>2011-09-10T11:29:48Z</time>
      </trkpt>
      <trkpt lat="45.29931" lon="4.70256">
        <ele>641.34</ele>
        <time>2011-09-10T11:29:55Z</time>
      </trkpt>
      <trkpt lat="45.29928" lon="4.70256">
        <ele>640.86</ele>
        <time>2011-09-10T11:30:05Z</time>
      </trkpt>
      <trkpt lat="45.29896" lon="4.70245">
        <ele>640.86</ele>
        <time>2011-09-10T11:30:16Z</time>
      </trkpt>
      <trkpt lat="45.29862" lon="4.70231">
        <ele>640.38</ele>
        <time>2011-09-10T11:30:25Z</time>
      </trkpt>
      <trkpt lat="45.29858" lon="4.7023">
        <ele>640.38</ele>
        <time>2011-09-10T11:30:26Z</time>
      </trkpt>
      <trkpt lat="45.29835" lon="4.70224">
        <ele>640.38</ele>
        <time>2011-09-10T11:30:32Z</time>
      </trkpt>
      <trkpt lat="45.29826" lon="4.70224">
        <ele>641.34</ele>
        <time>2011-09-10T11:30:34Z</time>
      </trkpt>
      <trkpt lat="45.29821" lon="4.70224">
        <ele>640.86</ele>
        <time>2011-09-10T11:30:35Z</time>
      </trkpt>
      <trkpt lat="45.29817" lon="4.70224">
        <ele>640.38</ele>
        <time>2011-09-10T11:30:36Z</time>
      </trkpt>
      <trkpt lat="45.29809" lon="4.70224">
        <ele>640.38</ele>
        <time>2011-09-10T11:30:38Z</time>
      </trkpt>
      <trkpt lat="45.29805" lon="4.70223">
        <ele>640.38</ele>
        <time>2011-09-10T11:30:39Z</time>
      </trkpt>
      <trkpt lat="45.29801" lon="4.70222">
        <ele>640.86</ele>
        <time>2011-09-10T11:30:40Z</time>
      </trkpt>
      <trkpt lat="45.29784" lon="4.70221">
        <ele>640.86</ele>
        <time>2011-09-10T11:30:44Z</time>
      </trkpt>
      <trkpt lat="45.29776" lon="4.70219">
        <ele>641.34</ele>
        <time>2011-09-10T11:30:46Z</time>
      </trkpt>
      <trkpt lat="45.29771" lon="4.70218">
        <ele>640.86</ele>
        <time>2011-09-10T11:30:47Z</time>
      </trkpt>
      <trkpt lat="45.29767" lon="4.70218">
        <ele>640.86</ele>
        <time>2011-09-10T11:30:48Z</time>
      </trkpt>
      <trkpt lat="45.29757" lon="4.70218">
        <ele>640.86</ele>
        <time>2011-09-10T11:30:50Z</time>
      </trkpt>
      <trkpt lat="45.29724" lon="4.70216">
        <ele>640.38</ele>
        <time>2011-09-10T11:30:58Z</time>
      </trkpt>
      <trkpt lat="45.29719" lon="4.70216">
        <ele>639.41</ele>
        <time>2011-09-10T11:30:59Z</time>
      </trkpt>
      <trkpt lat="45.29715" lon="4.70216">
        <ele>639.41</ele>
        <time>2011-09-10T11:31:00Z</time>
      </trkpt>
      <trkpt lat="45.29711" lon="4.70215">
        <ele>639.41</ele>
        <time>2011-09-10T11:31:01Z</time>
      </trkpt>
      <trkpt lat="45.29702" lon="4.70214">
        <ele>640.38</ele>
        <time>2011-09-10T11:31:03Z</time>
      </trkpt>
      <trkpt lat="45.29697" lon="4.70213">
        <ele>640.86</ele>
        <time>2011-09-10T11:31:04Z</time>
      </trkpt>
      <trkpt lat="45.29693" lon="4.70212">
        <ele>640.86</ele>
        <time>2011-09-10T11:31:05Z</time>
      </trkpt>
      <trkpt lat="45.29688" lon="4.70212">
        <ele>640.38</ele>
        <time>2011-09-10T11:31:06Z</time>
      </trkpt>
      <trkpt lat="45.29674" lon="4.70213">
        <ele>639.41</ele>
        <time>2011-09-10T11:31:09Z</time>
      </trkpt>
      <trkpt lat="45.29666" lon="4.70211">
        <ele>639.41</ele>
        <time>2011-09-10T11:31:11Z</time>
      </trkpt>
      <trkpt lat="45.29658" lon="4.70209">
        <ele>639.89</ele>
        <time>2011-09-10T11:31:13Z</time>
      </trkpt>
      <trkpt lat="45.29649" lon="4.70208">
        <ele>639.41</ele>
        <time>2011-09-10T11:31:15Z</time>
      </trkpt>
      <trkpt lat="45.29645" lon="4.70207">
        <ele>639.41</ele>
        <time>2011-09-10T11:31:16Z</time>
      </trkpt>
      <trkpt lat="45.29641" lon="4.70206">
        <ele>639.41</ele>
        <time>2011-09-10T11:31:17Z</time>
      </trkpt>
      <trkpt lat="45.29597" lon="4.70202">
        <ele>639.89</ele>
        <time>2011-09-10T11:31:30Z</time>
      </trkpt>
      <trkpt lat="45.29577" lon="4.70203">
        <ele>638.45</ele>
        <time>2011-09-10T11:31:35Z</time>
      </trkpt>
      <trkpt lat="45.29549" lon="4.70201">
        <ele>637.49</ele>
        <time>2011-09-10T11:31:40Z</time>
      </trkpt>
      <trkpt lat="45.29543" lon="4.70202">
        <ele>637.01</ele>
        <time>2011-09-10T11:31:41Z</time>
      </trkpt>
      <trkpt lat="45.2954" lon="4.70202">
        <ele>636.05</ele>
        <time>2011-09-10T11:31:42Z</time>
      </trkpt>
      <trkpt lat="45.29536" lon="4.70202">
        <ele>637.01</ele>
        <time>2011-09-10T11:31:43Z</time>
      </trkpt>
      <trkpt lat="45.29533" lon="4.70203">
        <ele>636.53</ele>
        <time>2011-09-10T11:31:44Z</time>
      </trkpt>
      <trkpt lat="45.29531" lon="4.70204">
        <ele>637.01</ele>
        <time>2011-09-10T11:31:45Z</time>
      </trkpt>
      <trkpt lat="45.29528" lon="4.70205">
        <ele>636.53</ele>
        <time>2011-09-10T11:31:46Z</time>
      </trkpt>
      <trkpt lat="45.29526" lon="4.70207">
        <ele>636.05</ele>
        <time>2011-09-10T11:31:47Z</time>
      </trkpt>
      <trkpt lat="45.29524" lon="4.7021">
        <ele>635.57</ele>
        <time>2011-09-10T11:31:48Z</time>
      </trkpt>
      <trkpt lat="45.29522" lon="4.70213">
        <ele>635.57</ele>
        <time>2011-09-10T11:31:49Z</time>
      </trkpt>
      <trkpt lat="45.29521" lon="4.70216">
        <ele>635.09</ele>
        <time>2011-09-10T11:31:50Z</time>
      </trkpt>
      <trkpt lat="45.2952" lon="4.70221">
        <ele>635.09</ele>
        <time>2011-09-10T11:31:51Z</time>
      </trkpt>
      <trkpt lat="45.29519" lon="4.70226">
        <ele>634.61</ele>
        <time>2011-09-10T11:31:52Z</time>
      </trkpt>
      <trkpt lat="45.29519" lon="4.70232">
        <ele>634.13</ele>
        <time>2011-09-10T11:31:53Z</time>
      </trkpt>
      <trkpt lat="45.29518" lon="4.70238">
        <ele>634.61</ele>
        <time>2011-09-10T11:31:54Z</time>
      </trkpt>
      <trkpt lat="45.29519" lon="4.70244">
        <ele>634.61</ele>
        <time>2011-09-10T11:31:55Z</time>
      </trkpt>
      <trkpt lat="45.29519" lon="4.70251">
        <ele>634.13</ele>
        <time>2011-09-10T11:31:56Z</time>
      </trkpt>
      <trkpt lat="45.2952" lon="4.70258">
        <ele>633.17</ele>
        <time>2011-09-10T11:31:57Z</time>
      </trkpt>
      <trkpt lat="45.2952" lon="4.70263">
        <ele>633.17</ele>
        <time>2011-09-10T11:31:58Z</time>
      </trkpt>
      <trkpt lat="45.29518" lon="4.70282">
        <ele>632.68</ele>
        <time>2011-09-10T11:32:01Z</time>
      </trkpt>
      <trkpt lat="45.29517" lon="4.70313">
        <ele>630.76</ele>
        <time>2011-09-10T11:32:05Z</time>
      </trkpt>
      <trkpt lat="45.29516" lon="4.70321">
        <ele>630.76</ele>
        <time>2011-09-10T11:32:06Z</time>
      </trkpt>
      <trkpt lat="45.29513" lon="4.70329">
        <ele>630.28</ele>
        <time>2011-09-10T11:32:07Z</time>
      </trkpt>
      <trkpt lat="45.2951" lon="4.70337">
        <ele>629.8</ele>
        <time>2011-09-10T11:32:08Z</time>
      </trkpt>
      <trkpt lat="45.29506" lon="4.70344">
        <ele>629.8</ele>
        <time>2011-09-10T11:32:09Z</time>
      </trkpt>
      <trkpt lat="45.29503" lon="4.70353">
        <ele>630.76</ele>
        <time>2011-09-10T11:32:10Z</time>
      </trkpt>
      <trkpt lat="45.2949" lon="4.70397">
        <ele>628.84</ele>
        <time>2011-09-10T11:32:15Z</time>
      </trkpt>
      <trkpt lat="45.29488" lon="4.7044">
        <ele>627.4</ele>
        <time>2011-09-10T11:32:20Z</time>
      </trkpt>
      <trkpt lat="45.29485" lon="4.70479">
        <ele>626.44</ele>
        <time>2011-09-10T11:32:29Z</time>
      </trkpt>
      <trkpt lat="45.29481" lon="4.70492">
        <ele>625.47</ele>
        <time>2011-09-10T11:32:37Z</time>
      </trkpt>
      <trkpt lat="45.29478" lon="4.70494">
        <ele>624.51</ele>
        <time>2011-09-10T11:32:51Z</time>
      </trkpt>
      <trkpt lat="45.29476" lon="4.70495">
        <ele>624.51</ele>
        <time>2011-09-10T11:33:05Z</time>
      </trkpt>
      <trkpt lat="45.29476" lon="4.70495">
        <ele>625.47</ele>
        <time>2011-09-10T11:33:32Z</time>
      </trkpt>
      <trkpt lat="45.29476" lon="4.70495">
        <ele>624.51</ele>
        <time>2011-09-10T11:33:58Z</time>
      </trkpt>
      <trkpt lat="45.29476" lon="4.70496">
        <ele>624.51</ele>
        <time>2011-09-10T11:34:24Z</time>
      </trkpt>
      <trkpt lat="45.29476" lon="4.70496">
        <ele>624.03</ele>
        <time>2011-09-10T11:34:48Z</time>
      </trkpt>
      <trkpt lat="45.29477" lon="4.70495">
        <ele>624.03</ele>
        <time>2011-09-10T11:35:06Z</time>
      </trkpt>
      <trkpt lat="45.29477" lon="4.70495">
        <ele>624.51</ele>
        <time>2011-09-10T11:35:38Z</time>
      </trkpt>
      <trkpt lat="45.29477" lon="4.70496">
        <ele>624.03</ele>
        <time>2011-09-10T11:36:03Z</time>
      </trkpt>
      <trkpt lat="45.29477" lon="4.70502">
        <ele>623.55</ele>
        <time>2011-09-10T11:36:19Z</time>
      </trkpt>
      <trkpt lat="45.29476" lon="4.70505">
        <ele>623.07</ele>
        <time>2011-09-10T11:36:20Z</time>
      </trkpt>
      <trkpt lat="45.29476" lon="4.70508">
        <ele>622.59</ele>
        <time>2011-09-10T11:36:21Z</time>
      </trkpt>
      <trkpt lat="45.29475" lon="4.70511">
        <ele>622.11</ele>
        <time>2011-09-10T11:36:22Z</time>
      </trkpt>
      <trkpt lat="45.29474" lon="4.70513">
        <ele>622.59</ele>
        <time>2011-09-10T11:36:23Z</time>
      </trkpt>
      <trkpt lat="45.29474" lon="4.70516">
        <ele>622.11</ele>
        <time>2011-09-10T11:36:24Z</time>
      </trkpt>
      <trkpt lat="45.29468" lon="4.70527">
        <ele>619.23</ele>
        <time>2011-09-10T11:36:27Z</time>
      </trkpt>
      <trkpt lat="45.29464" lon="4.70531">
        <ele>618.75</ele>
        <time>2011-09-10T11:36:28Z</time>
      </trkpt>
      <trkpt lat="45.29459" lon="4.70533">
        <ele>617.78</ele>
        <time>2011-09-10T11:36:29Z</time>
      </trkpt>
      <trkpt lat="45.29454" lon="4.70534">
        <ele>616.82</ele>
        <time>2011-09-10T11:36:30Z</time>
      </trkpt>
      <trkpt lat="45.2945" lon="4.70535">
        <ele>615.86</ele>
        <time>2011-09-10T11:36:31Z</time>
      </trkpt>
      <trkpt lat="45.29446" lon="4.70537">
        <ele>616.34</ele>
        <time>2011-09-10T11:36:32Z</time>
      </trkpt>
      <trkpt lat="45.29442" lon="4.70539">
        <ele>617.3</ele>
        <time>2011-09-10T11:36:33Z</time>
      </trkpt>
      <trkpt lat="45.29438" lon="4.7054">
        <ele>617.3</ele>
        <time>2011-09-10T11:36:34Z</time>
      </trkpt>
      <trkpt lat="45.29422" lon="4.70536">
        <ele>614.42</ele>
        <time>2011-09-10T11:36:38Z</time>
      </trkpt>
      <trkpt lat="45.29418" lon="4.70535">
        <ele>613.46</ele>
        <time>2011-09-10T11:36:39Z</time>
      </trkpt>
      <trkpt lat="45.29413" lon="4.70532">
        <ele>612.98</ele>
        <time>2011-09-10T11:36:40Z</time>
      </trkpt>
      <trkpt lat="45.29398" lon="4.70524">
        <ele>609.61</ele>
        <time>2011-09-10T11:36:43Z</time>
      </trkpt>
      <trkpt lat="45.29394" lon="4.70524">
        <ele>608.65</ele>
        <time>2011-09-10T11:36:44Z</time>
      </trkpt>
      <trkpt lat="45.2939" lon="4.70524">
        <ele>609.13</ele>
        <time>2011-09-10T11:36:45Z</time>
      </trkpt>
      <trkpt lat="45.29388" lon="4.70524">
        <ele>608.17</ele>
        <time>2011-09-10T11:36:46Z</time>
      </trkpt>
      <trkpt lat="45.29384" lon="4.70532">
        <ele>608.65</ele>
        <time>2011-09-10T11:36:52Z</time>
      </trkpt>
      <trkpt lat="45.29383" lon="4.70539">
        <ele>609.61</ele>
        <time>2011-09-10T11:37:07Z</time>
      </trkpt>
      <trkpt lat="45.29383" lon="4.70539">
        <ele>607.69</ele>
        <time>2011-09-10T11:37:33Z</time>
      </trkpt>
      <trkpt lat="45.29383" lon="4.70539">
        <ele>609.13</ele>
        <time>2011-09-10T11:38:10Z</time>
      </trkpt>
      <trkpt lat="45.29382" lon="4.7054">
        <ele>609.13</ele>
        <time>2011-09-10T11:38:40Z</time>
      </trkpt>
      <trkpt lat="45.29382" lon="4.7054">
        <ele>608.17</ele>
        <time>2011-09-10T11:39:08Z</time>
      </trkpt>
      <trkpt lat="45.29382" lon="4.70539">
        <ele>609.13</ele>
        <time>2011-09-10T11:39:39Z</time>
      </trkpt>
      <trkpt lat="45.29382" lon="4.70539">
        <ele>609.61</ele>
        <time>2011-09-10T11:40:12Z</time>
      </trkpt>
      <trkpt lat="45.29382" lon="4.7054">
        <ele>609.13</ele>
        <time>2011-09-10T11:40:43Z</time>
      </trkpt>
      <trkpt lat="45.29382" lon="4.7054">
        <ele>609.13</ele>
        <time>2011-09-10T11:41:16Z</time>
      </trkpt>
      <trkpt lat="45.29382" lon="4.70539">
        <ele>608.17</ele>
        <time>2011-09-10T11:41:53Z</time>
      </trkpt>
      <trkpt lat="45.29382" lon="4.70539">
        <ele>608.65</ele>
        <time>2011-09-10T11:42:25Z</time>
      </trkpt>
      <trkpt lat="45.29382" lon="4.7054">
        <ele>609.13</ele>
        <time>2011-09-10T11:43:01Z</time>
      </trkpt>
      <trkpt lat="45.29382" lon="4.7054">
        <ele>609.13</ele>
        <time>2011-09-10T11:43:30Z</time>
      </trkpt>
      <trkpt lat="45.29382" lon="4.7054">
        <ele>608.65</ele>
        <time>2011-09-10T11:44:01Z</time>
      </trkpt>
      <trkpt lat="45.29382" lon="4.70539">
        <ele>608.65</ele>
        <time>2011-09-10T11:44:29Z</time>
      </trkpt>
      <trkpt lat="45.29382" lon="4.70539">
        <ele>608.65</ele>
        <time>2011-09-10T11:45:04Z</time>
      </trkpt>
      <trkpt lat="45.29382" lon="4.70539">
        <ele>609.13</ele>
        <time>2011-09-10T11:45:30Z</time>
      </trkpt>
      <trkpt lat="45.29382" lon="4.7054">
        <ele>608.17</ele>
        <time>2011-09-10T11:46:03Z</time>
      </trkpt>
      <trkpt lat="45.29382" lon="4.7054">
        <ele>609.61</ele>
        <time>2011-09-10T11:46:32Z</time>
      </trkpt>
      <trkpt lat="45.29382" lon="4.7054">
        <ele>609.13</ele>
        <time>2011-09-10T11:47:09Z</time>
      </trkpt>
      <trkpt lat="45.29383" lon="4.70541">
        <ele>609.13</ele>
        <time>2011-09-10T11:47:42Z</time>
      </trkpt>
      <trkpt lat="45.29383" lon="4.70541">
        <ele>608.65</ele>
        <time>2011-09-10T11:48:09Z</time>
      </trkpt>
      <trkpt lat="45.29382" lon="4.7054">
        <ele>609.61</ele>
        <time>2011-09-10T11:48:42Z</time>
      </trkpt>
      <trkpt lat="45.29382" lon="4.7054">
        <ele>609.13</ele>
        <time>2011-09-10T11:49:15Z</time>
      </trkpt>
      <trkpt lat="45.29382" lon="4.70541">
        <ele>609.61</ele>
        <time>2011-09-10T11:49:37Z</time>
      </trkpt>
      <trkpt lat="45.29382" lon="4.70541">
        <ele>609.61</ele>
        <time>2011-09-10T11:49:58Z</time>
      </trkpt>
      <trkpt lat="45.29382" lon="4.70541">
        <ele>609.13</ele>
        <time>2011-09-10T11:50:15Z</time>
      </trkpt>
      <trkpt lat="45.29382" lon="4.70541">
        <ele>610.57</ele>
        <time>2011-09-10T11:50:35Z</time>
      </trkpt>
      <trkpt lat="45.29382" lon="4.70541">
        <ele>610.09</ele>
        <time>2011-09-10T11:50:50Z</time>
      </trkpt>
      <trkpt lat="45.29383" lon="4.70542">
        <ele>609.13</ele>
        <time>2011-09-10T11:51:23Z</time>
      </trkpt>
      <trkpt lat="45.29382" lon="4.70541">
        <ele>609.61</ele>
        <time>2011-09-10T11:51:56Z</time>
      </trkpt>
      <trkpt lat="45.29382" lon="4.70541">
        <ele>609.61</ele>
        <time>2011-09-10T11:52:31Z</time>
      </trkpt>
      <trkpt lat="45.29382" lon="4.70541">
        <ele>609.61</ele>
        <time>2011-09-10T11:52:38Z</time>
      </trkpt>
      <trkpt lat="45.29382" lon="4.7054">
        <ele>610.09</ele>
        <time>2011-09-10T11:52:52Z</time>
      </trkpt>
      <trkpt lat="45.29382" lon="4.7054">
        <ele>609.61</ele>
        <time>2011-09-10T11:52:53Z</time>
      </trkpt>
      <trkpt lat="45.29381" lon="4.70539">
        <ele>610.09</ele>
        <time>2011-09-10T11:52:54Z</time>
      </trkpt>
      <trkpt lat="45.2938" lon="4.70537">
        <ele>609.61</ele>
        <time>2011-09-10T11:52:55Z</time>
      </trkpt>
      <trkpt lat="45.29379" lon="4.70536">
        <ele>609.13</ele>
        <time>2011-09-10T11:52:56Z</time>
      </trkpt>
      <trkpt lat="45.29378" lon="4.70534">
        <ele>609.61</ele>
        <time>2011-09-10T11:52:57Z</time>
      </trkpt>
      <trkpt lat="45.29376" lon="4.70534">
        <ele>609.61</ele>
        <time>2011-09-10T11:52:58Z</time>
      </trkpt>
      <trkpt lat="45.29375" lon="4.70533">
        <ele>609.13</ele>
        <time>2011-09-10T11:52:59Z</time>
      </trkpt>
      <trkpt lat="45.29374" lon="4.70533">
        <ele>609.13</ele>
        <time>2011-09-10T11:53:12Z</time>
      </trkpt>
      <trkpt lat="45.29374" lon="4.70533">
        <ele>608.65</ele>
        <time>2011-09-10T11:53:39Z</time>
      </trkpt>
      <trkpt lat="45.29372" lon="4.70532">
        <ele>609.13</ele>
        <time>2011-09-10T11:53:47Z</time>
      </trkpt>
      <trkpt lat="45.2937" lon="4.70532">
        <ele>609.61</ele>
        <time>2011-09-10T11:53:48Z</time>
      </trkpt>
      <trkpt lat="45.29368" lon="4.70533">
        <ele>608.65</ele>
        <time>2011-09-10T11:53:49Z</time>
      </trkpt>
      <trkpt lat="45.29336" lon="4.70539">
        <ele>607.69</ele>
        <time>2011-09-10T11:53:59Z</time>
      </trkpt>
      <trkpt lat="45.29331" lon="4.70547">
        <ele>608.17</ele>
        <time>2011-09-10T11:54:01Z</time>
      </trkpt>
      <trkpt lat="45.29329" lon="4.70552">
        <ele>607.69</ele>
        <time>2011-09-10T11:54:02Z</time>
      </trkpt>
      <trkpt lat="45.29319" lon="4.70603">
        <ele>607.21</ele>
        <time>2011-09-10T11:54:12Z</time>
      </trkpt>
      <trkpt lat="45.29317" lon="4.7065">
        <ele>605.77</ele>
        <time>2011-09-10T11:54:23Z</time>
      </trkpt>
      <trkpt lat="45.29317" lon="4.7065">
        <ele>606.73</ele>
        <time>2011-09-10T11:54:28Z</time>
      </trkpt>
      <trkpt lat="45.29316" lon="4.70653">
        <ele>605.77</ele>
        <time>2011-09-10T11:54:29Z</time>
      </trkpt>
      <trkpt lat="45.29316" lon="4.70658">
        <ele>605.77</ele>
        <time>2011-09-10T11:54:30Z</time>
      </trkpt>
      <trkpt lat="45.29315" lon="4.70662">
        <ele>605.29</ele>
        <time>2011-09-10T11:54:31Z</time>
      </trkpt>
      <trkpt lat="45.29315" lon="4.70666">
        <ele>604.81</ele>
        <time>2011-09-10T11:54:32Z</time>
      </trkpt>
      <trkpt lat="45.29315" lon="4.70668">
        <ele>604.33</ele>
        <time>2011-09-10T11:54:33Z</time>
      </trkpt>
      <trkpt lat="45.29314" lon="4.70669">
        <ele>604.33</ele>
        <time>2011-09-10T11:54:36Z</time>
      </trkpt>
      <trkpt lat="45.29313" lon="4.70681">
        <ele>604.81</ele>
        <time>2011-09-10T11:54:39Z</time>
      </trkpt>
      <trkpt lat="45.2931" lon="4.70713">
        <ele>601.92</ele>
        <time>2011-09-10T11:54:46Z</time>
      </trkpt>
      <trkpt lat="45.2931" lon="4.70715">
        <ele>601.92</ele>
        <time>2011-09-10T11:54:47Z</time>
      </trkpt>
      <trkpt lat="45.29309" lon="4.70718">
        <ele>600.96</ele>
        <time>2011-09-10T11:54:48Z</time>
      </trkpt>
      <trkpt lat="45.29308" lon="4.70722">
        <ele>600.48</ele>
        <time>2011-09-10T11:54:49Z</time>
      </trkpt>
      <trkpt lat="45.29307" lon="4.70726">
        <ele>600.48</ele>
        <time>2011-09-10T11:54:50Z</time>
      </trkpt>
      <trkpt lat="45.29306" lon="4.7073">
        <ele>600</ele>
        <time>2011-09-10T11:54:51Z</time>
      </trkpt>
      <trkpt lat="45.29305" lon="4.70732">
        <ele>599.52</ele>
        <time>2011-09-10T11:54:52Z</time>
      </trkpt>
      <trkpt lat="45.29304" lon="4.70735">
        <ele>599.52</ele>
        <time>2011-09-10T11:54:53Z</time>
      </trkpt>
      <trkpt lat="45.29302" lon="4.70739">
        <ele>599.04</ele>
        <time>2011-09-10T11:54:54Z</time>
      </trkpt>
      <trkpt lat="45.29298" lon="4.70745">
        <ele>598.08</ele>
        <time>2011-09-10T11:54:56Z</time>
      </trkpt>
      <trkpt lat="45.29288" lon="4.70757">
        <ele>595.19</ele>
        <time>2011-09-10T11:55:00Z</time>
      </trkpt>
      <trkpt lat="45.29285" lon="4.70759">
        <ele>594.71</ele>
        <time>2011-09-10T11:55:01Z</time>
      </trkpt>
      <trkpt lat="45.2928" lon="4.70763">
        <ele>593.75</ele>
        <time>2011-09-10T11:55:04Z</time>
      </trkpt>
      <trkpt lat="45.29279" lon="4.70763">
        <ele>593.75</ele>
        <time>2011-09-10T11:55:05Z</time>
      </trkpt>
      <trkpt lat="45.29278" lon="4.70762">
        <ele>593.27</ele>
        <time>2011-09-10T11:55:06Z</time>
      </trkpt>
      <trkpt lat="45.29276" lon="4.70762">
        <ele>592.79</ele>
        <time>2011-09-10T11:55:07Z</time>
      </trkpt>
      <trkpt lat="45.29274" lon="4.7076">
        <ele>593.27</ele>
        <time>2011-09-10T11:55:08Z</time>
      </trkpt>
      <trkpt lat="45.29273" lon="4.70758">
        <ele>592.31</ele>
        <time>2011-09-10T11:55:09Z</time>
      </trkpt>
      <trkpt lat="45.29271" lon="4.70755">
        <ele>591.35</ele>
        <time>2011-09-10T11:55:10Z</time>
      </trkpt>
      <trkpt lat="45.29269" lon="4.70753">
        <ele>590.87</ele>
        <time>2011-09-10T11:55:11Z</time>
      </trkpt>
      <trkpt lat="45.29268" lon="4.70751">
        <ele>590.87</ele>
        <time>2011-09-10T11:55:12Z</time>
      </trkpt>
      <trkpt lat="45.29266" lon="4.70748">
        <ele>589.91</ele>
        <time>2011-09-10T11:55:14Z</time>
      </trkpt>
      <trkpt lat="45.29265" lon="4.70748">
        <ele>589.91</ele>
        <time>2011-09-10T11:55:17Z</time>
      </trkpt>
      <trkpt lat="45.29264" lon="4.70746">
        <ele>589.91</ele>
        <time>2011-09-10T11:55:18Z</time>
      </trkpt>
      <trkpt lat="45.29262" lon="4.70744">
        <ele>589.43</ele>
        <time>2011-09-10T11:55:19Z</time>
      </trkpt>
      <trkpt lat="45.2926" lon="4.70742">
        <ele>588.95</ele>
        <time>2011-09-10T11:55:20Z</time>
      </trkpt>
      <trkpt lat="45.29258" lon="4.70739">
        <ele>588.46</ele>
        <time>2011-09-10T11:55:21Z</time>
      </trkpt>
      <trkpt lat="45.29257" lon="4.70738">
        <ele>588.46</ele>
        <time>2011-09-10T11:55:22Z</time>
      </trkpt>
      <trkpt lat="45.29256" lon="4.70736">
        <ele>587.5</ele>
        <time>2011-09-10T11:55:23Z</time>
      </trkpt>
      <trkpt lat="45.29256" lon="4.70734">
        <ele>587.5</ele>
        <time>2011-09-10T11:55:24Z</time>
      </trkpt>
      <trkpt lat="45.29255" lon="4.70731">
        <ele>587.5</ele>
        <time>2011-09-10T11:55:25Z</time>
      </trkpt>
      <trkpt lat="45.29254" lon="4.70728">
        <ele>587.5</ele>
        <time>2011-09-10T11:55:26Z</time>
      </trkpt>
      <trkpt lat="45.29234" lon="4.70686">
        <ele>584.14</ele>
        <time>2011-09-10T11:55:36Z</time>
      </trkpt>
      <trkpt lat="45.29224" lon="4.70665">
        <ele>580.77</ele>
        <time>2011-09-10T11:55:41Z</time>
      </trkpt>
      <trkpt lat="45.292" lon="4.70614">
        <ele>576.93</ele>
        <time>2011-09-10T11:55:53Z</time>
      </trkpt>
      <trkpt lat="45.29199" lon="4.70608">
        <ele>576.45</ele>
        <time>2011-09-10T11:55:54Z</time>
      </trkpt>
      <trkpt lat="45.29197" lon="4.70596">
        <ele>575.97</ele>
        <time>2011-09-10T11:55:56Z</time>
      </trkpt>
      <trkpt lat="45.29195" lon="4.7059">
        <ele>575.01</ele>
        <time>2011-09-10T11:55:57Z</time>
      </trkpt>
      <trkpt lat="45.29194" lon="4.70583">
        <ele>574.04</ele>
        <time>2011-09-10T11:55:58Z</time>
      </trkpt>
      <trkpt lat="45.29193" lon="4.70577">
        <ele>573.56</ele>
        <time>2011-09-10T11:55:59Z</time>
      </trkpt>
      <trkpt lat="45.29191" lon="4.70572">
        <ele>572.12</ele>
        <time>2011-09-10T11:56:00Z</time>
      </trkpt>
      <trkpt lat="45.2919" lon="4.70567">
        <ele>572.6</ele>
        <time>2011-09-10T11:56:01Z</time>
      </trkpt>
      <trkpt lat="45.29183" lon="4.70551">
        <ele>571.16</ele>
        <time>2011-09-10T11:56:04Z</time>
      </trkpt>
      <trkpt lat="45.29173" lon="4.70531">
        <ele>569.24</ele>
        <time>2011-09-10T11:56:07Z</time>
      </trkpt>
      <trkpt lat="45.29163" lon="4.70513">
        <ele>567.8</ele>
        <time>2011-09-10T11:56:10Z</time>
      </trkpt>
      <trkpt lat="45.29159" lon="4.70508">
        <ele>567.32</ele>
        <time>2011-09-10T11:56:11Z</time>
      </trkpt>
      <trkpt lat="45.29156" lon="4.70503">
        <ele>566.35</ele>
        <time>2011-09-10T11:56:12Z</time>
      </trkpt>
      <trkpt lat="45.29144" lon="4.70484">
        <ele>564.91</ele>
        <time>2011-09-10T11:56:16Z</time>
      </trkpt>
      <trkpt lat="45.29132" lon="4.70463">
        <ele>562.99</ele>
        <time>2011-09-10T11:56:21Z</time>
      </trkpt>
      <trkpt lat="45.2913" lon="4.70458">
        <ele>562.51</ele>
        <time>2011-09-10T11:56:22Z</time>
      </trkpt>
      <trkpt lat="45.29128" lon="4.70454">
        <ele>562.03</ele>
        <time>2011-09-10T11:56:23Z</time>
      </trkpt>
      <trkpt lat="45.29126" lon="4.70449">
        <ele>561.07</ele>
        <time>2011-09-10T11:56:24Z</time>
      </trkpt>
      <trkpt lat="45.29125" lon="4.70445">
        <ele>560.59</ele>
        <time>2011-09-10T11:56:25Z</time>
      </trkpt>
      <trkpt lat="45.29123" lon="4.70442">
        <ele>560.59</ele>
        <time>2011-09-10T11:56:26Z</time>
      </trkpt>
      <trkpt lat="45.29121" lon="4.70438">
        <ele>560.11</ele>
        <time>2011-09-10T11:56:27Z</time>
      </trkpt>
      <trkpt lat="45.29118" lon="4.70433">
        <ele>559.62</ele>
        <time>2011-09-10T11:56:28Z</time>
      </trkpt>
      <trkpt lat="45.29095" lon="4.70387">
        <ele>556.26</ele>
        <time>2011-09-10T11:56:37Z</time>
      </trkpt>
      <trkpt lat="45.29073" lon="4.70356">
        <ele>554.34</ele>
        <time>2011-09-10T11:56:44Z</time>
      </trkpt>
      <trkpt lat="45.2907" lon="4.70349">
        <ele>553.38</ele>
        <time>2011-09-10T11:56:45Z</time>
      </trkpt>
      <trkpt lat="45.29067" lon="4.70341">
        <ele>552.41</ele>
        <time>2011-09-10T11:56:46Z</time>
      </trkpt>
      <trkpt lat="45.2906" lon="4.70319">
        <ele>550.97</ele>
        <time>2011-09-10T11:56:49Z</time>
      </trkpt>
      <trkpt lat="45.2906" lon="4.70311">
        <ele>550.49</ele>
        <time>2011-09-10T11:56:50Z</time>
      </trkpt>
      <trkpt lat="45.2906" lon="4.70304">
        <ele>550.01</ele>
        <time>2011-09-10T11:56:51Z</time>
      </trkpt>
      <trkpt lat="45.29063" lon="4.70264">
        <ele>547.61</ele>
        <time>2011-09-10T11:56:57Z</time>
      </trkpt>
      <trkpt lat="45.29064" lon="4.70257">
        <ele>547.61</ele>
        <time>2011-09-10T11:56:58Z</time>
      </trkpt>
      <trkpt lat="45.29067" lon="4.70242">
        <ele>546.65</ele>
        <time>2011-09-10T11:57:00Z</time>
      </trkpt>
      <trkpt lat="45.29068" lon="4.70235">
        <ele>546.17</ele>
        <time>2011-09-10T11:57:01Z</time>
      </trkpt>
      <trkpt lat="45.29071" lon="4.70221">
        <ele>546.17</ele>
        <time>2011-09-10T11:57:05Z</time>
      </trkpt>
      <trkpt lat="45.29069" lon="4.70219">
        <ele>545.2</ele>
        <time>2011-09-10T11:57:20Z</time>
      </trkpt>
      <trkpt lat="45.29068" lon="4.70217">
        <ele>544.24</ele>
        <time>2011-09-10T11:57:31Z</time>
      </trkpt>
      <trkpt lat="45.29068" lon="4.70217">
        <ele>545.2</ele>
        <time>2011-09-10T11:57:59Z</time>
      </trkpt>
      <trkpt lat="45.29067" lon="4.70215">
        <ele>544.24</ele>
        <time>2011-09-10T11:58:10Z</time>
      </trkpt>
      <trkpt lat="45.29067" lon="4.70215">
        <ele>542.8</ele>
        <time>2011-09-10T11:58:40Z</time>
      </trkpt>
      <trkpt lat="45.29067" lon="4.70215">
        <ele>544.24</ele>
        <time>2011-09-10T11:59:14Z</time>
      </trkpt>
      <trkpt lat="45.29066" lon="4.70215">
        <ele>545.2</ele>
        <time>2011-09-10T11:59:47Z</time>
      </trkpt>
      <trkpt lat="45.29065" lon="4.70214">
        <ele>544.24</ele>
        <time>2011-09-10T12:00:17Z</time>
      </trkpt>
      <trkpt lat="45.29066" lon="4.70214">
        <ele>541.36</ele>
        <time>2011-09-10T12:00:44Z</time>
      </trkpt>
      <trkpt lat="45.29066" lon="4.70213">
        <ele>543.76</ele>
        <time>2011-09-10T12:01:08Z</time>
      </trkpt>
      <trkpt lat="45.29068" lon="4.70174">
        <ele>543.76</ele>
        <time>2011-09-10T12:01:18Z</time>
      </trkpt>
      <trkpt lat="45.29068" lon="4.70172">
        <ele>542.8</ele>
        <time>2011-09-10T12:01:19Z</time>
      </trkpt>
      <trkpt lat="45.29069" lon="4.70171">
        <ele>543.76</ele>
        <time>2011-09-10T12:01:20Z</time>
      </trkpt>
      <trkpt lat="45.2907" lon="4.70169">
        <ele>543.76</ele>
        <time>2011-09-10T12:01:21Z</time>
      </trkpt>
      <trkpt lat="45.29072" lon="4.70167">
        <ele>544.24</ele>
        <time>2011-09-10T12:01:22Z</time>
      </trkpt>
      <trkpt lat="45.29073" lon="4.70165">
        <ele>543.76</ele>
        <time>2011-09-10T12:01:23Z</time>
      </trkpt>
      <trkpt lat="45.29073" lon="4.70164">
        <ele>543.76</ele>
        <time>2011-09-10T12:01:24Z</time>
      </trkpt>
      <trkpt lat="45.29074" lon="4.70164">
        <ele>544.24</ele>
        <time>2011-09-10T12:01:25Z</time>
      </trkpt>
      <trkpt lat="45.29075" lon="4.70164">
        <ele>544.72</ele>
        <time>2011-09-10T12:01:26Z</time>
      </trkpt>
      <trkpt lat="45.29077" lon="4.70164">
        <ele>544.72</ele>
        <time>2011-09-10T12:01:27Z</time>
      </trkpt>
      <trkpt lat="45.29078" lon="4.70164">
        <ele>544.72</ele>
        <time>2011-09-10T12:01:28Z</time>
      </trkpt>
      <trkpt lat="45.29079" lon="4.70165">
        <ele>545.69</ele>
        <time>2011-09-10T12:01:29Z</time>
      </trkpt>
      <trkpt lat="45.2908" lon="4.70164">
        <ele>545.69</ele>
        <time>2011-09-10T12:01:30Z</time>
      </trkpt>
      <trkpt lat="45.29082" lon="4.70164">
        <ele>546.17</ele>
        <time>2011-09-10T12:01:31Z</time>
      </trkpt>
      <trkpt lat="45.29086" lon="4.70158">
        <ele>546.65</ele>
        <time>2011-09-10T12:01:36Z</time>
      </trkpt>
      <trkpt lat="45.29087" lon="4.70156">
        <ele>548.09</ele>
        <time>2011-09-10T12:01:37Z</time>
      </trkpt>
      <trkpt lat="45.29092" lon="4.70148">
        <ele>546.17</ele>
        <time>2011-09-10T12:01:49Z</time>
      </trkpt>
      <trkpt lat="45.29095" lon="4.70141">
        <ele>545.69</ele>
        <time>2011-09-10T12:02:01Z</time>
      </trkpt>
      <trkpt lat="45.29097" lon="4.70138">
        <ele>545.69</ele>
        <time>2011-09-10T12:02:02Z</time>
      </trkpt>
      <trkpt lat="45.29098" lon="4.70136">
        <ele>545.69</ele>
        <time>2011-09-10T12:02:03Z</time>
      </trkpt>
      <trkpt lat="45.291" lon="4.70132">
        <ele>545.69</ele>
        <time>2011-09-10T12:02:04Z</time>
      </trkpt>
      <trkpt lat="45.29101" lon="4.70128">
        <ele>546.17</ele>
        <time>2011-09-10T12:02:05Z</time>
      </trkpt>
      <trkpt lat="45.29101" lon="4.70124">
        <ele>545.69</ele>
        <time>2011-09-10T12:02:06Z</time>
      </trkpt>
      <trkpt lat="45.29102" lon="4.70119">
        <ele>546.17</ele>
        <time>2011-09-10T12:02:07Z</time>
      </trkpt>
      <trkpt lat="45.29102" lon="4.70115">
        <ele>546.17</ele>
        <time>2011-09-10T12:02:08Z</time>
      </trkpt>
      <trkpt lat="45.29104" lon="4.70077">
        <ele>549.05</ele>
        <time>2011-09-10T12:02:19Z</time>
      </trkpt>
      <trkpt lat="45.29103" lon="4.70042">
        <ele>550.97</ele>
        <time>2011-09-10T12:02:33Z</time>
      </trkpt>
      <trkpt lat="45.29106" lon="4.70029">
        <ele>551.93</ele>
        <time>2011-09-10T12:02:38Z</time>
      </trkpt>
      <trkpt lat="45.2911" lon="4.70019">
        <ele>552.41</ele>
        <time>2011-09-10T12:02:43Z</time>
      </trkpt>
      <trkpt lat="45.29118" lon="4.7">
        <ele>553.86</ele>
        <time>2011-09-10T12:02:56Z</time>
      </trkpt>
      <trkpt lat="45.29119" lon="4.69997">
        <ele>554.82</ele>
        <time>2011-09-10T12:02:58Z</time>
      </trkpt>
      <trkpt lat="45.29127" lon="4.69978">
        <ele>558.18</ele>
        <time>2011-09-10T12:03:10Z</time>
      </trkpt>
      <trkpt lat="45.29135" lon="4.69959">
        <ele>560.11</ele>
        <time>2011-09-10T12:03:23Z</time>
      </trkpt>
      <trkpt lat="45.29136" lon="4.69957">
        <ele>560.11</ele>
        <time>2011-09-10T12:03:25Z</time>
      </trkpt>
      <trkpt lat="45.29139" lon="4.69951">
        <ele>561.07</ele>
        <time>2011-09-10T12:03:29Z</time>
      </trkpt>
      <trkpt lat="45.29143" lon="4.69945">
        <ele>562.51</ele>
        <time>2011-09-10T12:03:34Z</time>
      </trkpt>
      <trkpt lat="45.29144" lon="4.69943">
        <ele>562.51</ele>
        <time>2011-09-10T12:03:36Z</time>
      </trkpt>
      <trkpt lat="45.29145" lon="4.69941">
        <ele>563.47</ele>
        <time>2011-09-10T12:03:37Z</time>
      </trkpt>
      <trkpt lat="45.29146" lon="4.69939">
        <ele>563.47</ele>
        <time>2011-09-10T12:03:38Z</time>
      </trkpt>
      <trkpt lat="45.29147" lon="4.69938">
        <ele>563.47</ele>
        <time>2011-09-10T12:03:39Z</time>
      </trkpt>
      <trkpt lat="45.29147" lon="4.69936">
        <ele>563.95</ele>
        <time>2011-09-10T12:03:40Z</time>
      </trkpt>
      <trkpt lat="45.29148" lon="4.69935">
        <ele>563.95</ele>
        <time>2011-09-10T12:03:41Z</time>
      </trkpt>
      <trkpt lat="45.29148" lon="4.69933">
        <ele>563.95</ele>
        <time>2011-09-10T12:03:42Z</time>
      </trkpt>
      <trkpt lat="45.29155" lon="4.69917">
        <ele>566.35</ele>
        <time>2011-09-10T12:03:54Z</time>
      </trkpt>
      <trkpt lat="45.29156" lon="4.69915">
        <ele>566.83</ele>
        <time>2011-09-10T12:03:55Z</time>
      </trkpt>
      <trkpt lat="45.29157" lon="4.69914">
        <ele>566.83</ele>
        <time>2011-09-10T12:03:56Z</time>
      </trkpt>
      <trkpt lat="45.29157" lon="4.69913">
        <ele>566.83</ele>
        <time>2011-09-10T12:03:57Z</time>
      </trkpt>
      <trkpt lat="45.29158" lon="4.69911">
        <ele>567.32</ele>
        <time>2011-09-10T12:03:58Z</time>
      </trkpt>
      <trkpt lat="45.29158" lon="4.69909">
        <ele>566.83</ele>
        <time>2011-09-10T12:03:59Z</time>
      </trkpt>
      <trkpt lat="45.29159" lon="4.69907">
        <ele>567.32</ele>
        <time>2011-09-10T12:04:00Z</time>
      </trkpt>
      <trkpt lat="45.29166" lon="4.6987">
        <ele>568.28</ele>
        <time>2011-09-10T12:04:14Z</time>
      </trkpt>
      <trkpt lat="45.29184" lon="4.69847">
        <ele>569.24</ele>
        <time>2011-09-10T12:04:27Z</time>
      </trkpt>
      <trkpt lat="45.29225" lon="4.69825">
        <ele>569.72</ele>
        <time>2011-09-10T12:04:41Z</time>
      </trkpt>
      <trkpt lat="45.29236" lon="4.69818">
        <ele>569.24</ele>
        <time>2011-09-10T12:04:45Z</time>
      </trkpt>
      <trkpt lat="45.29262" lon="4.69806">
        <ele>568.28</ele>
        <time>2011-09-10T12:04:51Z</time>
      </trkpt>
      <trkpt lat="45.2929" lon="4.69781">
        <ele>566.35</ele>
        <time>2011-09-10T12:04:58Z</time>
      </trkpt>
      <trkpt lat="45.29306" lon="4.69762">
        <ele>564.43</ele>
        <time>2011-09-10T12:05:01Z</time>
      </trkpt>
      <trkpt lat="45.2934" lon="4.69723">
        <ele>560.59</ele>
        <time>2011-09-10T12:05:06Z</time>
      </trkpt>
      <trkpt lat="45.29347" lon="4.69716">
        <ele>560.11</ele>
        <time>2011-09-10T12:05:07Z</time>
      </trkpt>
      <trkpt lat="45.29353" lon="4.69708">
        <ele>558.66</ele>
        <time>2011-09-10T12:05:08Z</time>
      </trkpt>
      <trkpt lat="45.29359" lon="4.697">
        <ele>558.66</ele>
        <time>2011-09-10T12:05:09Z</time>
      </trkpt>
      <trkpt lat="45.29376" lon="4.6968">
        <ele>553.86</ele>
        <time>2011-09-10T12:05:12Z</time>
      </trkpt>
      <trkpt lat="45.29381" lon="4.69673">
        <ele>552.41</ele>
        <time>2011-09-10T12:05:13Z</time>
      </trkpt>
      <trkpt lat="45.29385" lon="4.69665">
        <ele>551.93</ele>
        <time>2011-09-10T12:05:14Z</time>
      </trkpt>
      <trkpt lat="45.29386" lon="4.69657">
        <ele>550.97</ele>
        <time>2011-09-10T12:05:15Z</time>
      </trkpt>
      <trkpt lat="45.29387" lon="4.6965">
        <ele>550.01</ele>
        <time>2011-09-10T12:05:16Z</time>
      </trkpt>
      <trkpt lat="45.29386" lon="4.69643">
        <ele>548.57</ele>
        <time>2011-09-10T12:05:17Z</time>
      </trkpt>
      <trkpt lat="45.29386" lon="4.69637">
        <ele>549.05</ele>
        <time>2011-09-10T12:05:18Z</time>
      </trkpt>
      <trkpt lat="45.29385" lon="4.69631">
        <ele>548.57</ele>
        <time>2011-09-10T12:05:19Z</time>
      </trkpt>
      <trkpt lat="45.29385" lon="4.69625">
        <ele>548.57</ele>
        <time>2011-09-10T12:05:20Z</time>
      </trkpt>
      <trkpt lat="45.29386" lon="4.69619">
        <ele>547.61</ele>
        <time>2011-09-10T12:05:21Z</time>
      </trkpt>
      <trkpt lat="45.29387" lon="4.69612">
        <ele>547.61</ele>
        <time>2011-09-10T12:05:22Z</time>
      </trkpt>
      <trkpt lat="45.29389" lon="4.69607">
        <ele>547.61</ele>
        <time>2011-09-10T12:05:23Z</time>
      </trkpt>
      <trkpt lat="45.29391" lon="4.69601">
        <ele>547.13</ele>
        <time>2011-09-10T12:05:24Z</time>
      </trkpt>
      <trkpt lat="45.29394" lon="4.69596">
        <ele>547.13</ele>
        <time>2011-09-10T12:05:25Z</time>
      </trkpt>
      <trkpt lat="45.29397" lon="4.6959">
        <ele>546.65</ele>
        <time>2011-09-10T12:05:26Z</time>
      </trkpt>
      <trkpt lat="45.29402" lon="4.69585">
        <ele>546.17</ele>
        <time>2011-09-10T12:05:27Z</time>
      </trkpt>
      <trkpt lat="45.29414" lon="4.69569">
        <ele>546.17</ele>
        <time>2011-09-10T12:05:30Z</time>
      </trkpt>
      <trkpt lat="45.29416" lon="4.69564">
        <ele>546.65</ele>
        <time>2011-09-10T12:05:31Z</time>
      </trkpt>
      <trkpt lat="45.29434" lon="4.69537">
        <ele>549.53</ele>
        <time>2011-09-10T12:05:39Z</time>
      </trkpt>
      <trkpt lat="45.29453" lon="4.69496">
        <ele>552.9</ele>
        <time>2011-09-10T12:05:50Z</time>
      </trkpt>
      <trkpt lat="45.29474" lon="4.69449">
        <ele>549.53</ele>
        <time>2011-09-10T12:05:58Z</time>
      </trkpt>
      <trkpt lat="45.29519" lon="4.69367">
        <ele>548.57</ele>
        <time>2011-09-10T12:06:13Z</time>
      </trkpt>
      <trkpt lat="45.29526" lon="4.69359">
        <ele>549.05</ele>
        <time>2011-09-10T12:06:15Z</time>
      </trkpt>
      <trkpt lat="45.29561" lon="4.69326">
        <ele>548.09</ele>
        <time>2011-09-10T12:06:27Z</time>
      </trkpt>
      <trkpt lat="45.29593" lon="4.69317">
        <ele>550.97</ele>
        <time>2011-09-10T12:06:38Z</time>
      </trkpt>
      <trkpt lat="45.29617" lon="4.69308">
        <ele>553.86</ele>
        <time>2011-09-10T12:06:47Z</time>
      </trkpt>
      <trkpt lat="45.29626" lon="4.69302">
        <ele>553.86</ele>
        <time>2011-09-10T12:06:52Z</time>
      </trkpt>
      <trkpt lat="45.29629" lon="4.69292">
        <ele>553.86</ele>
        <time>2011-09-10T12:06:58Z</time>
      </trkpt>
      <trkpt lat="45.29628" lon="4.6929">
        <ele>553.86</ele>
        <time>2011-09-10T12:06:59Z</time>
      </trkpt>
      <trkpt lat="45.29628" lon="4.69287">
        <ele>553.86</ele>
        <time>2011-09-10T12:07:00Z</time>
      </trkpt>
      <trkpt lat="45.29627" lon="4.69284">
        <ele>552.41</ele>
        <time>2011-09-10T12:07:01Z</time>
      </trkpt>
      <trkpt lat="45.29626" lon="4.6928">
        <ele>552.9</ele>
        <time>2011-09-10T12:07:02Z</time>
      </trkpt>
      <trkpt lat="45.29625" lon="4.69275">
        <ele>551.93</ele>
        <time>2011-09-10T12:07:03Z</time>
      </trkpt>
      <trkpt lat="45.29625" lon="4.69271">
        <ele>551.93</ele>
        <time>2011-09-10T12:07:04Z</time>
      </trkpt>
      <trkpt lat="45.29623" lon="4.69253">
        <ele>550.97</ele>
        <time>2011-09-10T12:07:09Z</time>
      </trkpt>
      <trkpt lat="45.29624" lon="4.69247">
        <ele>550.49</ele>
        <time>2011-09-10T12:07:12Z</time>
      </trkpt>
      <trkpt lat="45.29628" lon="4.69228">
        <ele>550.49</ele>
        <time>2011-09-10T12:07:23Z</time>
      </trkpt>
      <trkpt lat="45.29629" lon="4.69228">
        <ele>550.49</ele>
        <time>2011-09-10T12:07:30Z</time>
      </trkpt>
      <trkpt lat="45.29629" lon="4.69226">
        <ele>550.01</ele>
        <time>2011-09-10T12:07:31Z</time>
      </trkpt>
      <trkpt lat="45.2963" lon="4.69224">
        <ele>550.97</ele>
        <time>2011-09-10T12:07:33Z</time>
      </trkpt>
      <trkpt lat="45.29634" lon="4.69212">
        <ele>550.49</ele>
        <time>2011-09-10T12:07:39Z</time>
      </trkpt>
      <trkpt lat="45.2964" lon="4.69208">
        <ele>550.97</ele>
        <time>2011-09-10T12:07:41Z</time>
      </trkpt>
      <trkpt lat="45.29642" lon="4.69205">
        <ele>550.49</ele>
        <time>2011-09-10T12:07:42Z</time>
      </trkpt>
      <trkpt lat="45.2964" lon="4.69143">
        <ele>550.97</ele>
        <time>2011-09-10T12:08:02Z</time>
      </trkpt>
      <trkpt lat="45.29639" lon="4.69141">
        <ele>550.97</ele>
        <time>2011-09-10T12:08:03Z</time>
      </trkpt>
      <trkpt lat="45.29638" lon="4.69139">
        <ele>551.93</ele>
        <time>2011-09-10T12:08:04Z</time>
      </trkpt>
      <trkpt lat="45.29636" lon="4.69138">
        <ele>552.41</ele>
        <time>2011-09-10T12:08:05Z</time>
      </trkpt>
      <trkpt lat="45.29635" lon="4.69138">
        <ele>552.41</ele>
        <time>2011-09-10T12:08:06Z</time>
      </trkpt>
      <trkpt lat="45.29634" lon="4.69137">
        <ele>552.9</ele>
        <time>2011-09-10T12:08:07Z</time>
      </trkpt>
      <trkpt lat="45.29632" lon="4.6914">
        <ele>553.86</ele>
        <time>2011-09-10T12:08:18Z</time>
      </trkpt>
      <trkpt lat="45.29633" lon="4.6914">
        <ele>553.38</ele>
        <time>2011-09-10T12:08:19Z</time>
      </trkpt>
      <trkpt lat="45.29637" lon="4.6914">
        <ele>552.41</ele>
        <time>2011-09-10T12:08:24Z</time>
      </trkpt>
      <trkpt lat="45.2964" lon="4.69139">
        <ele>550.97</ele>
        <time>2011-09-10T12:08:27Z</time>
      </trkpt>
      <trkpt lat="45.29643" lon="4.69135">
        <ele>551.45</ele>
        <time>2011-09-10T12:08:31Z</time>
      </trkpt>
      <trkpt lat="45.29643" lon="4.69133">
        <ele>550.97</ele>
        <time>2011-09-10T12:08:32Z</time>
      </trkpt>
      <trkpt lat="45.29642" lon="4.69131">
        <ele>550.49</ele>
        <time>2011-09-10T12:08:48Z</time>
      </trkpt>
      <trkpt lat="45.29642" lon="4.69131">
        <ele>550.49</ele>
        <time>2011-09-10T12:09:15Z</time>
      </trkpt>
      <trkpt lat="45.29642" lon="4.69131">
        <ele>550.49</ele>
        <time>2011-09-10T12:09:39Z</time>
      </trkpt>
      <trkpt lat="45.29642" lon="4.69133">
        <ele>550.97</ele>
        <time>2011-09-10T12:09:49Z</time>
      </trkpt>
      <trkpt lat="45.29644" lon="4.69143">
        <ele>551.45</ele>
        <time>2011-09-10T12:09:55Z</time>
      </trkpt>
      <trkpt lat="45.29646" lon="4.69145">
        <ele>550.97</ele>
        <time>2011-09-10T12:09:56Z</time>
      </trkpt>
      <trkpt lat="45.29648" lon="4.69144">
        <ele>550.49</ele>
        <time>2011-09-10T12:09:58Z</time>
      </trkpt>
      <trkpt lat="45.29649" lon="4.69143">
        <ele>550.49</ele>
        <time>2011-09-10T12:09:59Z</time>
      </trkpt>
      <trkpt lat="45.2965" lon="4.6914">
        <ele>549.53</ele>
        <time>2011-09-10T12:10:00Z</time>
      </trkpt>
      <trkpt lat="45.29651" lon="4.69138">
        <ele>550.01</ele>
        <time>2011-09-10T12:10:01Z</time>
      </trkpt>
      <trkpt lat="45.29652" lon="4.69135">
        <ele>549.53</ele>
        <time>2011-09-10T12:10:02Z</time>
      </trkpt>
      <trkpt lat="45.29652" lon="4.69131">
        <ele>550.49</ele>
        <time>2011-09-10T12:10:03Z</time>
      </trkpt>
      <trkpt lat="45.29653" lon="4.69127">
        <ele>549.53</ele>
        <time>2011-09-10T12:10:04Z</time>
      </trkpt>
      <trkpt lat="45.29653" lon="4.69121">
        <ele>549.53</ele>
        <time>2011-09-10T12:10:05Z</time>
      </trkpt>
      <trkpt lat="45.29653" lon="4.69114">
        <ele>548.09</ele>
        <time>2011-09-10T12:10:06Z</time>
      </trkpt>
      <trkpt lat="45.29649" lon="4.6908">
        <ele>545.2</ele>
        <time>2011-09-10T12:10:10Z</time>
      </trkpt>
      <trkpt lat="45.29646" lon="4.69072">
        <ele>544.72</ele>
        <time>2011-09-10T12:10:11Z</time>
      </trkpt>
      <trkpt lat="45.29643" lon="4.69065">
        <ele>544.72</ele>
        <time>2011-09-10T12:10:12Z</time>
      </trkpt>
      <trkpt lat="45.29639" lon="4.69053">
        <ele>543.28</ele>
        <time>2011-09-10T12:10:14Z</time>
      </trkpt>
      <trkpt lat="45.29633" lon="4.69036">
        <ele>541.84</ele>
        <time>2011-09-10T12:10:18Z</time>
      </trkpt>
      <trkpt lat="45.29628" lon="4.69025">
        <ele>540.88</ele>
        <time>2011-09-10T12:10:20Z</time>
      </trkpt>
      <trkpt lat="45.29601" lon="4.68981">
        <ele>535.59</ele>
        <time>2011-09-10T12:10:27Z</time>
      </trkpt>
      <trkpt lat="45.29597" lon="4.68973">
        <ele>537.99</ele>
        <time>2011-09-10T12:10:28Z</time>
      </trkpt>
      <trkpt lat="45.29591" lon="4.68956">
        <ele>536.07</ele>
        <time>2011-09-10T12:10:30Z</time>
      </trkpt>
      <trkpt lat="45.29589" lon="4.68948">
        <ele>535.11</ele>
        <time>2011-09-10T12:10:31Z</time>
      </trkpt>
      <trkpt lat="45.29588" lon="4.6894">
        <ele>535.11</ele>
        <time>2011-09-10T12:10:32Z</time>
      </trkpt>
      <trkpt lat="45.29588" lon="4.68934">
        <ele>534.63</ele>
        <time>2011-09-10T12:10:33Z</time>
      </trkpt>
      <trkpt lat="45.29589" lon="4.6893">
        <ele>533.67</ele>
        <time>2011-09-10T12:10:34Z</time>
      </trkpt>
      <trkpt lat="45.29591" lon="4.68927">
        <ele>533.19</ele>
        <time>2011-09-10T12:10:35Z</time>
      </trkpt>
      <trkpt lat="45.29594" lon="4.68926">
        <ele>532.71</ele>
        <time>2011-09-10T12:10:36Z</time>
      </trkpt>
      <trkpt lat="45.29597" lon="4.68924">
        <ele>532.71</ele>
        <time>2011-09-10T12:10:37Z</time>
      </trkpt>
      <trkpt lat="45.29631" lon="4.68895">
        <ele>533.19</ele>
        <time>2011-09-10T12:10:48Z</time>
      </trkpt>
      <trkpt lat="45.29673" lon="4.68849">
        <ele>533.67</ele>
        <time>2011-09-10T12:11:02Z</time>
      </trkpt>
      <trkpt lat="45.29685" lon="4.68843">
        <ele>533.67</ele>
        <time>2011-09-10T12:11:05Z</time>
      </trkpt>
      <trkpt lat="45.29724" lon="4.68828">
        <ele>533.67</ele>
        <time>2011-09-10T12:11:17Z</time>
      </trkpt>
      <trkpt lat="45.29746" lon="4.68784">
        <ele>533.19</ele>
        <time>2011-09-10T12:11:29Z</time>
      </trkpt>
      <trkpt lat="45.2976" lon="4.68748">
        <ele>534.15</ele>
        <time>2011-09-10T12:11:39Z</time>
      </trkpt>
      <trkpt lat="45.29782" lon="4.68703">
        <ele>535.59</ele>
        <time>2011-09-10T12:11:52Z</time>
      </trkpt>
      <trkpt lat="45.29794" lon="4.68675">
        <ele>537.99</ele>
        <time>2011-09-10T12:12:04Z</time>
      </trkpt>
      <trkpt lat="45.29797" lon="4.68669">
        <ele>538.96</ele>
        <time>2011-09-10T12:12:06Z</time>
      </trkpt>
      <trkpt lat="45.29807" lon="4.68643">
        <ele>541.84</ele>
        <time>2011-09-10T12:12:18Z</time>
      </trkpt>
      <trkpt lat="45.29808" lon="4.68641">
        <ele>541.84</ele>
        <time>2011-09-10T12:12:19Z</time>
      </trkpt>
      <trkpt lat="45.2982" lon="4.68614">
        <ele>543.76</ele>
        <time>2011-09-10T12:12:33Z</time>
      </trkpt>
      <trkpt lat="45.29833" lon="4.68582">
        <ele>544.72</ele>
        <time>2011-09-10T12:12:48Z</time>
      </trkpt>
      <trkpt lat="45.2984" lon="4.68555">
        <ele>546.65</ele>
        <time>2011-09-10T12:13:01Z</time>
      </trkpt>
      <trkpt lat="45.29849" lon="4.68528">
        <ele>549.05</ele>
        <time>2011-09-10T12:13:17Z</time>
      </trkpt>
      <trkpt lat="45.29851" lon="4.68521">
        <ele>549.53</ele>
        <time>2011-09-10T12:13:22Z</time>
      </trkpt>
      <trkpt lat="45.29853" lon="4.68513">
        <ele>550.97</ele>
        <time>2011-09-10T12:13:28Z</time>
      </trkpt>
      <trkpt lat="45.29859" lon="4.68495">
        <ele>554.34</ele>
        <time>2011-09-10T12:13:41Z</time>
      </trkpt>
      <trkpt lat="45.2986" lon="4.68494">
        <ele>554.34</ele>
        <time>2011-09-10T12:13:57Z</time>
      </trkpt>
      <trkpt lat="45.29863" lon="4.68491">
        <ele>555.3</ele>
        <time>2011-09-10T12:14:02Z</time>
      </trkpt>
      <trkpt lat="45.2987" lon="4.68483">
        <ele>556.26</ele>
        <time>2011-09-10T12:14:07Z</time>
      </trkpt>
      <trkpt lat="45.29882" lon="4.68473">
        <ele>559.62</ele>
        <time>2011-09-10T12:14:17Z</time>
      </trkpt>
      <trkpt lat="45.29892" lon="4.6846">
        <ele>561.55</ele>
        <time>2011-09-10T12:14:30Z</time>
      </trkpt>
      <trkpt lat="45.29894" lon="4.68453">
        <ele>561.55</ele>
        <time>2011-09-10T12:14:34Z</time>
      </trkpt>
      <trkpt lat="45.29906" lon="4.68424">
        <ele>563.95</ele>
        <time>2011-09-10T12:14:51Z</time>
      </trkpt>
      <trkpt lat="45.29903" lon="4.68399">
        <ele>565.39</ele>
        <time>2011-09-10T12:15:06Z</time>
      </trkpt>
      <trkpt lat="45.299" lon="4.6839">
        <ele>567.32</ele>
        <time>2011-09-10T12:15:11Z</time>
      </trkpt>
      <trkpt lat="45.29899" lon="4.6838">
        <ele>567.32</ele>
        <time>2011-09-10T12:15:16Z</time>
      </trkpt>
      <trkpt lat="45.29894" lon="4.68372">
        <ele>567.32</ele>
        <time>2011-09-10T12:15:22Z</time>
      </trkpt>
      <trkpt lat="45.29875" lon="4.68354">
        <ele>567.32</ele>
        <time>2011-09-10T12:15:31Z</time>
      </trkpt>
      <trkpt lat="45.2987" lon="4.68344">
        <ele>567.32</ele>
        <time>2011-09-10T12:15:35Z</time>
      </trkpt>
      <trkpt lat="45.29853" lon="4.68327">
        <ele>566.83</ele>
        <time>2011-09-10T12:15:50Z</time>
      </trkpt>
      <trkpt lat="45.29853" lon="4.68327">
        <ele>567.32</ele>
        <time>2011-09-10T12:16:05Z</time>
      </trkpt>
      <trkpt lat="45.29851" lon="4.68325">
        <ele>567.32</ele>
        <time>2011-09-10T12:16:16Z</time>
      </trkpt>
      <trkpt lat="45.29843" lon="4.68315">
        <ele>567.8</ele>
        <time>2011-09-10T12:16:23Z</time>
      </trkpt>
      <trkpt lat="45.29838" lon="4.68306">
        <ele>567.32</ele>
        <time>2011-09-10T12:16:28Z</time>
      </trkpt>
      <trkpt lat="45.29815" lon="4.68287">
        <ele>568.76</ele>
        <time>2011-09-10T12:16:42Z</time>
      </trkpt>
      <trkpt lat="45.29779" lon="4.68271">
        <ele>565.39</ele>
        <time>2011-09-10T12:16:53Z</time>
      </trkpt>
      <trkpt lat="45.29748" lon="4.68257">
        <ele>565.39</ele>
        <time>2011-09-10T12:17:02Z</time>
      </trkpt>
      <trkpt lat="45.29732" lon="4.6825">
        <ele>565.87</ele>
        <time>2011-09-10T12:17:12Z</time>
      </trkpt>
      <trkpt lat="45.29729" lon="4.68248">
        <ele>564.43</ele>
        <time>2011-09-10T12:17:17Z</time>
      </trkpt>
      <trkpt lat="45.29729" lon="4.68246">
        <ele>564.43</ele>
        <time>2011-09-10T12:17:18Z</time>
      </trkpt>
      <trkpt lat="45.29728" lon="4.68243">
        <ele>563.47</ele>
        <time>2011-09-10T12:17:19Z</time>
      </trkpt>
      <trkpt lat="45.29728" lon="4.68241">
        <ele>563.95</ele>
        <time>2011-09-10T12:17:20Z</time>
      </trkpt>
      <trkpt lat="45.29729" lon="4.68239">
        <ele>563.95</ele>
        <time>2011-09-10T12:17:21Z</time>
      </trkpt>
      <trkpt lat="45.2973" lon="4.68237">
        <ele>564.43</ele>
        <time>2011-09-10T12:17:22Z</time>
      </trkpt>
      <trkpt lat="45.29731" lon="4.68235">
        <ele>564.43</ele>
        <time>2011-09-10T12:17:23Z</time>
      </trkpt>
      <trkpt lat="45.29732" lon="4.68233">
        <ele>564.91</ele>
        <time>2011-09-10T12:17:24Z</time>
      </trkpt>
      <trkpt lat="45.29733" lon="4.68231">
        <ele>564.91</ele>
        <time>2011-09-10T12:17:25Z</time>
      </trkpt>
      <trkpt lat="45.29735" lon="4.68221">
        <ele>566.83</ele>
        <time>2011-09-10T12:17:30Z</time>
      </trkpt>
      <trkpt lat="45.29743" lon="4.68199">
        <ele>570.2</ele>
        <time>2011-09-10T12:17:44Z</time>
      </trkpt>
      <trkpt lat="45.29741" lon="4.6817">
        <ele>571.64</ele>
        <time>2011-09-10T12:17:58Z</time>
      </trkpt>
      <trkpt lat="45.29739" lon="4.6816">
        <ele>572.12</ele>
        <time>2011-09-10T12:18:02Z</time>
      </trkpt>
      <trkpt lat="45.29731" lon="4.68134">
        <ele>573.56</ele>
        <time>2011-09-10T12:18:13Z</time>
      </trkpt>
      <trkpt lat="45.29731" lon="4.68131">
        <ele>573.56</ele>
        <time>2011-09-10T12:18:14Z</time>
      </trkpt>
      <trkpt lat="45.2973" lon="4.68129">
        <ele>574.04</ele>
        <time>2011-09-10T12:18:15Z</time>
      </trkpt>
      <trkpt lat="45.2973" lon="4.68126">
        <ele>574.04</ele>
        <time>2011-09-10T12:18:16Z</time>
      </trkpt>
      <trkpt lat="45.29729" lon="4.68124">
        <ele>574.04</ele>
        <time>2011-09-10T12:18:17Z</time>
      </trkpt>
      <trkpt lat="45.29728" lon="4.68121">
        <ele>574.53</ele>
        <time>2011-09-10T12:18:18Z</time>
      </trkpt>
      <trkpt lat="45.29713" lon="4.68088">
        <ele>576.45</ele>
        <time>2011-09-10T12:18:34Z</time>
      </trkpt>
      <trkpt lat="45.29699" lon="4.68066">
        <ele>578.37</ele>
        <time>2011-09-10T12:18:46Z</time>
      </trkpt>
      <trkpt lat="45.29674" lon="4.68045">
        <ele>579.33</ele>
        <time>2011-09-10T12:19:01Z</time>
      </trkpt>
      <trkpt lat="45.29656" lon="4.68022">
        <ele>581.73</ele>
        <time>2011-09-10T12:19:14Z</time>
      </trkpt>
      <trkpt lat="45.29636" lon="4.67989">
        <ele>583.66</ele>
        <time>2011-09-10T12:19:30Z</time>
      </trkpt>
      <trkpt lat="45.29616" lon="4.67946">
        <ele>584.62</ele>
        <time>2011-09-10T12:19:45Z</time>
      </trkpt>
      <trkpt lat="45.29609" lon="4.67912">
        <ele>584.14</ele>
        <time>2011-09-10T12:19:52Z</time>
      </trkpt>
      <trkpt lat="45.29609" lon="4.67899">
        <ele>584.14</ele>
        <time>2011-09-10T12:19:54Z</time>
      </trkpt>
      <trkpt lat="45.29582" lon="4.67846">
        <ele>586.06</ele>
        <time>2011-09-10T12:20:06Z</time>
      </trkpt>
      <trkpt lat="45.29571" lon="4.67802">
        <ele>586.54</ele>
        <time>2011-09-10T12:20:14Z</time>
      </trkpt>
      <trkpt lat="45.2957" lon="4.67797">
        <ele>586.54</ele>
        <time>2011-09-10T12:20:15Z</time>
      </trkpt>
      <trkpt lat="45.29567" lon="4.67793">
        <ele>586.54</ele>
        <time>2011-09-10T12:20:16Z</time>
      </trkpt>
      <trkpt lat="45.29563" lon="4.67791">
        <ele>587.02</ele>
        <time>2011-09-10T12:20:17Z</time>
      </trkpt>
      <trkpt lat="45.2956" lon="4.67791">
        <ele>587.02</ele>
        <time>2011-09-10T12:20:18Z</time>
      </trkpt>
      <trkpt lat="45.29556" lon="4.67791">
        <ele>587.5</ele>
        <time>2011-09-10T12:20:19Z</time>
      </trkpt>
      <trkpt lat="45.29552" lon="4.67792">
        <ele>587.5</ele>
        <time>2011-09-10T12:20:20Z</time>
      </trkpt>
      <trkpt lat="45.29549" lon="4.67792">
        <ele>587.02</ele>
        <time>2011-09-10T12:20:21Z</time>
      </trkpt>
      <trkpt lat="45.29546" lon="4.67792">
        <ele>587.98</ele>
        <time>2011-09-10T12:20:22Z</time>
      </trkpt>
      <trkpt lat="45.29542" lon="4.67791">
        <ele>587.98</ele>
        <time>2011-09-10T12:20:23Z</time>
      </trkpt>
      <trkpt lat="45.29527" lon="4.67785">
        <ele>587.98</ele>
        <time>2011-09-10T12:20:29Z</time>
      </trkpt>
      <trkpt lat="45.29524" lon="4.67782">
        <ele>587.5</ele>
        <time>2011-09-10T12:20:30Z</time>
      </trkpt>
      <trkpt lat="45.29513" lon="4.6777">
        <ele>586.54</ele>
        <time>2011-09-10T12:20:37Z</time>
      </trkpt>
      <trkpt lat="45.29508" lon="4.67766">
        <ele>586.54</ele>
        <time>2011-09-10T12:20:41Z</time>
      </trkpt>
      <trkpt lat="45.29507" lon="4.67765">
        <ele>586.54</ele>
        <time>2011-09-10T12:20:42Z</time>
      </trkpt>
      <trkpt lat="45.29505" lon="4.67763">
        <ele>587.02</ele>
        <time>2011-09-10T12:20:43Z</time>
      </trkpt>
      <trkpt lat="45.29504" lon="4.67762">
        <ele>587.5</ele>
        <time>2011-09-10T12:20:44Z</time>
      </trkpt>
      <trkpt lat="45.29502" lon="4.67761">
        <ele>587.02</ele>
        <time>2011-09-10T12:20:45Z</time>
      </trkpt>
      <trkpt lat="45.295" lon="4.67761">
        <ele>587.02</ele>
        <time>2011-09-10T12:20:46Z</time>
      </trkpt>
      <trkpt lat="45.29498" lon="4.6776">
        <ele>587.02</ele>
        <time>2011-09-10T12:20:47Z</time>
      </trkpt>
      <trkpt lat="45.29496" lon="4.6776">
        <ele>587.5</ele>
        <time>2011-09-10T12:20:48Z</time>
      </trkpt>
      <trkpt lat="45.29494" lon="4.6776">
        <ele>587.5</ele>
        <time>2011-09-10T12:20:49Z</time>
      </trkpt>
      <trkpt lat="45.29493" lon="4.67759">
        <ele>587.5</ele>
        <time>2011-09-10T12:20:50Z</time>
      </trkpt>
      <trkpt lat="45.29491" lon="4.6776">
        <ele>587.98</ele>
        <time>2011-09-10T12:20:51Z</time>
      </trkpt>
      <trkpt lat="45.2949" lon="4.67761">
        <ele>587.98</ele>
        <time>2011-09-10T12:20:52Z</time>
      </trkpt>
      <trkpt lat="45.29488" lon="4.67762">
        <ele>587.98</ele>
        <time>2011-09-10T12:20:53Z</time>
      </trkpt>
      <trkpt lat="45.29486" lon="4.67763">
        <ele>588.95</ele>
        <time>2011-09-10T12:20:54Z</time>
      </trkpt>
      <trkpt lat="45.29484" lon="4.67763">
        <ele>588.46</ele>
        <time>2011-09-10T12:20:55Z</time>
      </trkpt>
      <trkpt lat="45.29482" lon="4.67764">
        <ele>588.95</ele>
        <time>2011-09-10T12:20:56Z</time>
      </trkpt>
      <trkpt lat="45.2948" lon="4.67764">
        <ele>588.95</ele>
        <time>2011-09-10T12:20:57Z</time>
      </trkpt>
      <trkpt lat="45.29479" lon="4.67765">
        <ele>589.43</ele>
        <time>2011-09-10T12:20:58Z</time>
      </trkpt>
      <trkpt lat="45.29464" lon="4.67762">
        <ele>591.83</ele>
        <time>2011-09-10T12:21:10Z</time>
      </trkpt>
      <trkpt lat="45.29462" lon="4.67761">
        <ele>591.83</ele>
        <time>2011-09-10T12:21:11Z</time>
      </trkpt>
      <trkpt lat="45.29451" lon="4.67756">
        <ele>593.27</ele>
        <time>2011-09-10T12:21:24Z</time>
      </trkpt>
      <trkpt lat="45.29451" lon="4.67756">
        <ele>594.23</ele>
        <time>2011-09-10T12:21:36Z</time>
      </trkpt>
      <trkpt lat="45.29451" lon="4.67756">
        <ele>594.23</ele>
        <time>2011-09-10T12:22:03Z</time>
      </trkpt>
      <trkpt lat="45.29447" lon="4.67748">
        <ele>596.15</ele>
        <time>2011-09-10T12:22:18Z</time>
      </trkpt>
      <trkpt lat="45.29442" lon="4.67737">
        <ele>598.08</ele>
        <time>2011-09-10T12:22:31Z</time>
      </trkpt>
      <trkpt lat="45.29436" lon="4.67724">
        <ele>600.48</ele>
        <time>2011-09-10T12:22:46Z</time>
      </trkpt>
      <trkpt lat="45.29432" lon="4.67714">
        <ele>602.88</ele>
        <time>2011-09-10T12:22:58Z</time>
      </trkpt>
      <trkpt lat="45.2943" lon="4.67709">
        <ele>602.88</ele>
        <time>2011-09-10T12:23:02Z</time>
      </trkpt>
      <trkpt lat="45.29427" lon="4.67697">
        <ele>605.29</ele>
        <time>2011-09-10T12:23:16Z</time>
      </trkpt>
      <trkpt lat="45.29424" lon="4.67683">
        <ele>607.69</ele>
        <time>2011-09-10T12:23:29Z</time>
      </trkpt>
      <trkpt lat="45.29424" lon="4.67674">
        <ele>609.13</ele>
        <time>2011-09-10T12:23:42Z</time>
      </trkpt>
      <trkpt lat="45.29424" lon="4.67663">
        <ele>612.5</ele>
        <time>2011-09-10T12:23:54Z</time>
      </trkpt>
      <trkpt lat="45.29423" lon="4.67661">
        <ele>611.54</ele>
        <time>2011-09-10T12:24:09Z</time>
      </trkpt>
      <trkpt lat="45.2942" lon="4.67656">
        <ele>612.02</ele>
        <time>2011-09-10T12:24:20Z</time>
      </trkpt>
      <trkpt lat="45.2942" lon="4.67656">
        <ele>611.54</ele>
        <time>2011-09-10T12:24:50Z</time>
      </trkpt>
      <trkpt lat="45.2942" lon="4.67656">
        <ele>611.06</ele>
        <time>2011-09-10T12:25:19Z</time>
      </trkpt>
      <trkpt lat="45.2942" lon="4.67656">
        <ele>612.02</ele>
        <time>2011-09-10T12:25:49Z</time>
      </trkpt>
      <trkpt lat="45.29418" lon="4.67649">
        <ele>612.98</ele>
        <time>2011-09-10T12:26:12Z</time>
      </trkpt>
      <trkpt lat="45.29418" lon="4.67646">
        <ele>613.46</ele>
        <time>2011-09-10T12:26:14Z</time>
      </trkpt>
      <trkpt lat="45.29417" lon="4.67632">
        <ele>616.34</ele>
        <time>2011-09-10T12:26:26Z</time>
      </trkpt>
      <trkpt lat="45.29417" lon="4.67621">
        <ele>617.3</ele>
        <time>2011-09-10T12:26:38Z</time>
      </trkpt>
      <trkpt lat="45.29415" lon="4.67608">
        <ele>619.71</ele>
        <time>2011-09-10T12:26:51Z</time>
      </trkpt>
      <trkpt lat="45.29413" lon="4.67597">
        <ele>621.15</ele>
        <time>2011-09-10T12:27:05Z</time>
      </trkpt>
      <trkpt lat="45.29411" lon="4.6759">
        <ele>621.63</ele>
        <time>2011-09-10T12:27:10Z</time>
      </trkpt>
      <trkpt lat="45.29409" lon="4.67579">
        <ele>622.11</ele>
        <time>2011-09-10T12:27:21Z</time>
      </trkpt>
      <trkpt lat="45.29408" lon="4.67577">
        <ele>622.59</ele>
        <time>2011-09-10T12:27:22Z</time>
      </trkpt>
      <trkpt lat="45.29408" lon="4.67575">
        <ele>622.59</ele>
        <time>2011-09-10T12:27:23Z</time>
      </trkpt>
      <trkpt lat="45.29408" lon="4.67573">
        <ele>623.07</ele>
        <time>2011-09-10T12:27:24Z</time>
      </trkpt>
      <trkpt lat="45.29409" lon="4.67571">
        <ele>623.07</ele>
        <time>2011-09-10T12:27:25Z</time>
      </trkpt>
      <trkpt lat="45.29409" lon="4.67564">
        <ele>624.51</ele>
        <time>2011-09-10T12:27:29Z</time>
      </trkpt>
      <trkpt lat="45.29409" lon="4.67562">
        <ele>623.55</ele>
        <time>2011-09-10T12:27:30Z</time>
      </trkpt>
      <trkpt lat="45.29405" lon="4.67537">
        <ele>626.44</ele>
        <time>2011-09-10T12:27:44Z</time>
      </trkpt>
      <trkpt lat="45.29404" lon="4.67535">
        <ele>626.44</ele>
        <time>2011-09-10T12:27:45Z</time>
      </trkpt>
      <trkpt lat="45.29404" lon="4.67533">
        <ele>626.44</ele>
        <time>2011-09-10T12:27:46Z</time>
      </trkpt>
      <trkpt lat="45.29393" lon="4.67509">
        <ele>627.4</ele>
        <time>2011-09-10T12:28:00Z</time>
      </trkpt>
      <trkpt lat="45.29378" lon="4.67473">
        <ele>628.84</ele>
        <time>2011-09-10T12:28:17Z</time>
      </trkpt>
      <trkpt lat="45.29366" lon="4.6742">
        <ele>629.32</ele>
        <time>2011-09-10T12:28:30Z</time>
      </trkpt>
      <trkpt lat="45.29356" lon="4.67377">
        <ele>629.8</ele>
        <time>2011-09-10T12:28:44Z</time>
      </trkpt>
      <trkpt lat="45.29352" lon="4.67366">
        <ele>630.28</ele>
        <time>2011-09-10T12:28:57Z</time>
      </trkpt>
      <trkpt lat="45.29352" lon="4.67367">
        <ele>630.76</ele>
        <time>2011-09-10T12:29:32Z</time>
      </trkpt>
      <trkpt lat="45.29352" lon="4.67367">
        <ele>630.28</ele>
        <time>2011-09-10T12:29:56Z</time>
      </trkpt>
      <trkpt lat="45.29346" lon="4.67327">
        <ele>629.8</ele>
        <time>2011-09-10T12:30:06Z</time>
      </trkpt>
      <trkpt lat="45.29344" lon="4.67316">
        <ele>628.84</ele>
        <time>2011-09-10T12:30:08Z</time>
      </trkpt>
      <trkpt lat="45.29343" lon="4.6731">
        <ele>628.36</ele>
        <time>2011-09-10T12:30:09Z</time>
      </trkpt>
      <trkpt lat="45.29339" lon="4.67296">
        <ele>627.4</ele>
        <time>2011-09-10T12:30:11Z</time>
      </trkpt>
      <trkpt lat="45.29338" lon="4.67289">
        <ele>627.4</ele>
        <time>2011-09-10T12:30:12Z</time>
      </trkpt>
      <trkpt lat="45.29337" lon="4.67281">
        <ele>626.92</ele>
        <time>2011-09-10T12:30:13Z</time>
      </trkpt>
      <trkpt lat="45.29336" lon="4.67266">
        <ele>626.44</ele>
        <time>2011-09-10T12:30:15Z</time>
      </trkpt>
      <trkpt lat="45.29328" lon="4.67229">
        <ele>624.03</ele>
        <time>2011-09-10T12:30:20Z</time>
      </trkpt>
      <trkpt lat="45.29321" lon="4.67203">
        <ele>622.11</ele>
        <time>2011-09-10T12:30:24Z</time>
      </trkpt>
      <trkpt lat="45.2932" lon="4.67196">
        <ele>621.15</ele>
        <time>2011-09-10T12:30:25Z</time>
      </trkpt>
      <trkpt lat="45.2932" lon="4.67189">
        <ele>621.15</ele>
        <time>2011-09-10T12:30:26Z</time>
      </trkpt>
      <trkpt lat="45.2932" lon="4.67181">
        <ele>619.71</ele>
        <time>2011-09-10T12:30:27Z</time>
      </trkpt>
      <trkpt lat="45.2932" lon="4.67173">
        <ele>619.23</ele>
        <time>2011-09-10T12:30:28Z</time>
      </trkpt>
      <trkpt lat="45.2932" lon="4.67133">
        <ele>615.38</ele>
        <time>2011-09-10T12:30:34Z</time>
      </trkpt>
      <trkpt lat="45.29322" lon="4.67127">
        <ele>614.42</ele>
        <time>2011-09-10T12:30:35Z</time>
      </trkpt>
      <trkpt lat="45.29326" lon="4.67122">
        <ele>613.46</ele>
        <time>2011-09-10T12:30:36Z</time>
      </trkpt>
      <trkpt lat="45.29331" lon="4.67117">
        <ele>612.98</ele>
        <time>2011-09-10T12:30:37Z</time>
      </trkpt>
      <trkpt lat="45.29336" lon="4.67113">
        <ele>612.5</ele>
        <time>2011-09-10T12:30:38Z</time>
      </trkpt>
      <trkpt lat="45.29341" lon="4.67109">
        <ele>612.5</ele>
        <time>2011-09-10T12:30:39Z</time>
      </trkpt>
      <trkpt lat="45.29352" lon="4.67102">
        <ele>612.02</ele>
        <time>2011-09-10T12:30:41Z</time>
      </trkpt>
      <trkpt lat="45.29359" lon="4.671">
        <ele>611.06</ele>
        <time>2011-09-10T12:30:42Z</time>
      </trkpt>
      <trkpt lat="45.29365" lon="4.67099">
        <ele>610.57</ele>
        <time>2011-09-10T12:30:43Z</time>
      </trkpt>
      <trkpt lat="45.2938" lon="4.67096">
        <ele>609.61</ele>
        <time>2011-09-10T12:30:45Z</time>
      </trkpt>
      <trkpt lat="45.29387" lon="4.67093">
        <ele>609.61</ele>
        <time>2011-09-10T12:30:46Z</time>
      </trkpt>
      <trkpt lat="45.29395" lon="4.67089">
        <ele>607.69</ele>
        <time>2011-09-10T12:30:47Z</time>
      </trkpt>
      <trkpt lat="45.29402" lon="4.67083">
        <ele>607.69</ele>
        <time>2011-09-10T12:30:48Z</time>
      </trkpt>
      <trkpt lat="45.29409" lon="4.67075">
        <ele>606.73</ele>
        <time>2011-09-10T12:30:49Z</time>
      </trkpt>
      <trkpt lat="45.29415" lon="4.67066">
        <ele>605.77</ele>
        <time>2011-09-10T12:30:50Z</time>
      </trkpt>
      <trkpt lat="45.29421" lon="4.67057">
        <ele>604.33</ele>
        <time>2011-09-10T12:30:51Z</time>
      </trkpt>
      <trkpt lat="45.29425" lon="4.67047">
        <ele>604.33</ele>
        <time>2011-09-10T12:30:52Z</time>
      </trkpt>
      <trkpt lat="45.29428" lon="4.67039">
        <ele>604.33</ele>
        <time>2011-09-10T12:30:53Z</time>
      </trkpt>
      <trkpt lat="45.29431" lon="4.67031">
        <ele>603.85</ele>
        <time>2011-09-10T12:30:54Z</time>
      </trkpt>
      <trkpt lat="45.29432" lon="4.67027">
        <ele>603.85</ele>
        <time>2011-09-10T12:30:55Z</time>
      </trkpt>
      <trkpt lat="45.29432" lon="4.67024">
        <ele>603.36</ele>
        <time>2011-09-10T12:31:04Z</time>
      </trkpt>
      <trkpt lat="45.29432" lon="4.67015">
        <ele>602.88</ele>
        <time>2011-09-10T12:31:10Z</time>
      </trkpt>
      <trkpt lat="45.29431" lon="4.67011">
        <ele>602.88</ele>
        <time>2011-09-10T12:31:11Z</time>
      </trkpt>
      <trkpt lat="45.29429" lon="4.67007">
        <ele>602.4</ele>
        <time>2011-09-10T12:31:12Z</time>
      </trkpt>
      <trkpt lat="45.29404" lon="4.66966">
        <ele>599.04</ele>
        <time>2011-09-10T12:31:18Z</time>
      </trkpt>
      <trkpt lat="45.29395" lon="4.66951">
        <ele>598.08</ele>
        <time>2011-09-10T12:31:20Z</time>
      </trkpt>
      <trkpt lat="45.29363" lon="4.66895">
        <ele>594.71</ele>
        <time>2011-09-10T12:31:27Z</time>
      </trkpt>
      <trkpt lat="45.2934" lon="4.66864">
        <ele>590.39</ele>
        <time>2011-09-10T12:31:31Z</time>
      </trkpt>
      <trkpt lat="45.2933" lon="4.66853">
        <ele>589.43</ele>
        <time>2011-09-10T12:31:33Z</time>
      </trkpt>
      <trkpt lat="45.29319" lon="4.66839">
        <ele>587.98</ele>
        <time>2011-09-10T12:31:36Z</time>
      </trkpt>
      <trkpt lat="45.29309" lon="4.66805">
        <ele>584.14</ele>
        <time>2011-09-10T12:31:43Z</time>
      </trkpt>
      <trkpt lat="45.29308" lon="4.66793">
        <ele>582.7</ele>
        <time>2011-09-10T12:31:45Z</time>
      </trkpt>
      <trkpt lat="45.29316" lon="4.66752">
        <ele>579.33</ele>
        <time>2011-09-10T12:31:54Z</time>
      </trkpt>
      <trkpt lat="45.29323" lon="4.66719">
        <ele>576.45</ele>
        <time>2011-09-10T12:32:03Z</time>
      </trkpt>
      <trkpt lat="45.29324" lon="4.66711">
        <ele>575.97</ele>
        <time>2011-09-10T12:32:05Z</time>
      </trkpt>
      <trkpt lat="45.2933" lon="4.66681">
        <ele>572.6</ele>
        <time>2011-09-10T12:32:09Z</time>
      </trkpt>
      <trkpt lat="45.29331" lon="4.66667">
        <ele>570.68</ele>
        <time>2011-09-10T12:32:12Z</time>
      </trkpt>
      <trkpt lat="45.29311" lon="4.66645">
        <ele>570.2</ele>
        <time>2011-09-10T12:32:21Z</time>
      </trkpt>
      <trkpt lat="45.2928" lon="4.66633">
        <ele>566.83</ele>
        <time>2011-09-10T12:32:31Z</time>
      </trkpt>
      <trkpt lat="45.29276" lon="4.66628">
        <ele>565.39</ele>
        <time>2011-09-10T12:32:33Z</time>
      </trkpt>
      <trkpt lat="45.29268" lon="4.66606">
        <ele>563.47</ele>
        <time>2011-09-10T12:32:38Z</time>
      </trkpt>
      <trkpt lat="45.29265" lon="4.66597">
        <ele>562.51</ele>
        <time>2011-09-10T12:32:40Z</time>
      </trkpt>
      <trkpt lat="45.29261" lon="4.66584">
        <ele>561.07</ele>
        <time>2011-09-10T12:32:42Z</time>
      </trkpt>
      <trkpt lat="45.29259" lon="4.66578">
        <ele>560.59</ele>
        <time>2011-09-10T12:32:43Z</time>
      </trkpt>
      <trkpt lat="45.29256" lon="4.66572">
        <ele>560.11</ele>
        <time>2011-09-10T12:32:44Z</time>
      </trkpt>
      <trkpt lat="45.29253" lon="4.66567">
        <ele>559.62</ele>
        <time>2011-09-10T12:32:45Z</time>
      </trkpt>
      <trkpt lat="45.2925" lon="4.6656">
        <ele>558.66</ele>
        <time>2011-09-10T12:32:46Z</time>
      </trkpt>
      <trkpt lat="45.29237" lon="4.6653">
        <ele>555.3</ele>
        <time>2011-09-10T12:32:54Z</time>
      </trkpt>
      <trkpt lat="45.29235" lon="4.66528">
        <ele>554.82</ele>
        <time>2011-09-10T12:32:55Z</time>
      </trkpt>
      <trkpt lat="45.29213" lon="4.66503">
        <ele>552.41</ele>
        <time>2011-09-10T12:33:06Z</time>
      </trkpt>
      <trkpt lat="45.29207" lon="4.66485">
        <ele>550.01</ele>
        <time>2011-09-10T12:33:09Z</time>
      </trkpt>
      <trkpt lat="45.29206" lon="4.66477">
        <ele>549.05</ele>
        <time>2011-09-10T12:33:10Z</time>
      </trkpt>
      <trkpt lat="45.29208" lon="4.66452">
        <ele>546.17</ele>
        <time>2011-09-10T12:33:15Z</time>
      </trkpt>
      <trkpt lat="45.29209" lon="4.66445">
        <ele>545.69</ele>
        <time>2011-09-10T12:33:25Z</time>
      </trkpt>
      <trkpt lat="45.29209" lon="4.66443">
        <ele>544.72</ele>
        <time>2011-09-10T12:33:29Z</time>
      </trkpt>
      <trkpt lat="45.29208" lon="4.66441">
        <ele>544.72</ele>
        <time>2011-09-10T12:33:30Z</time>
      </trkpt>
      <trkpt lat="45.29198" lon="4.66432">
        <ele>543.76</ele>
        <time>2011-09-10T12:33:33Z</time>
      </trkpt>
      <trkpt lat="45.29194" lon="4.6643">
        <ele>542.8</ele>
        <time>2011-09-10T12:33:34Z</time>
      </trkpt>
      <trkpt lat="45.29183" lon="4.66428">
        <ele>540.88</ele>
        <time>2011-09-10T12:33:37Z</time>
      </trkpt>
      <trkpt lat="45.2917" lon="4.66392">
        <ele>539.44</ele>
        <time>2011-09-10T12:33:45Z</time>
      </trkpt>
      <trkpt lat="45.29169" lon="4.66386">
        <ele>539.44</ele>
        <time>2011-09-10T12:33:46Z</time>
      </trkpt>
      <trkpt lat="45.29167" lon="4.6638">
        <ele>538.96</ele>
        <time>2011-09-10T12:33:47Z</time>
      </trkpt>
      <trkpt lat="45.29165" lon="4.66373">
        <ele>537.99</ele>
        <time>2011-09-10T12:33:48Z</time>
      </trkpt>
      <trkpt lat="45.29162" lon="4.66366">
        <ele>537.99</ele>
        <time>2011-09-10T12:33:49Z</time>
      </trkpt>
      <trkpt lat="45.29158" lon="4.66359">
        <ele>537.51</ele>
        <time>2011-09-10T12:33:50Z</time>
      </trkpt>
      <trkpt lat="45.2915" lon="4.66344">
        <ele>536.55</ele>
        <time>2011-09-10T12:33:52Z</time>
      </trkpt>
      <trkpt lat="45.29144" lon="4.66337">
        <ele>536.07</ele>
        <time>2011-09-10T12:33:53Z</time>
      </trkpt>
      <trkpt lat="45.29138" lon="4.66331">
        <ele>535.59</ele>
        <time>2011-09-10T12:33:54Z</time>
      </trkpt>
      <trkpt lat="45.29117" lon="4.66308">
        <ele>533.67</ele>
        <time>2011-09-10T12:33:58Z</time>
      </trkpt>
      <trkpt lat="45.29115" lon="4.66301">
        <ele>533.19</ele>
        <time>2011-09-10T12:33:59Z</time>
      </trkpt>
      <trkpt lat="45.29115" lon="4.66293">
        <ele>532.23</ele>
        <time>2011-09-10T12:34:00Z</time>
      </trkpt>
      <trkpt lat="45.29117" lon="4.66286">
        <ele>531.75</ele>
        <time>2011-09-10T12:34:01Z</time>
      </trkpt>
      <trkpt lat="45.29118" lon="4.6628">
        <ele>529.82</ele>
        <time>2011-09-10T12:34:02Z</time>
      </trkpt>
      <trkpt lat="45.2912" lon="4.66274">
        <ele>529.82</ele>
        <time>2011-09-10T12:34:03Z</time>
      </trkpt>
      <trkpt lat="45.29126" lon="4.66253">
        <ele>528.38</ele>
        <time>2011-09-10T12:34:08Z</time>
      </trkpt>
      <trkpt lat="45.2913" lon="4.66231">
        <ele>525.98</ele>
        <time>2011-09-10T12:34:12Z</time>
      </trkpt>
      <trkpt lat="45.2913" lon="4.66223">
        <ele>525.02</ele>
        <time>2011-09-10T12:34:13Z</time>
      </trkpt>
      <trkpt lat="45.2913" lon="4.66215">
        <ele>524.54</ele>
        <time>2011-09-10T12:34:14Z</time>
      </trkpt>
      <trkpt lat="45.29129" lon="4.66198">
        <ele>523.58</ele>
        <time>2011-09-10T12:34:16Z</time>
      </trkpt>
      <trkpt lat="45.29132" lon="4.66163">
        <ele>520.21</ele>
        <time>2011-09-10T12:34:20Z</time>
      </trkpt>
      <trkpt lat="45.29134" lon="4.66142">
        <ele>517.81</ele>
        <time>2011-09-10T12:34:22Z</time>
      </trkpt>
      <trkpt lat="45.29136" lon="4.66134">
        <ele>516.85</ele>
        <time>2011-09-10T12:34:23Z</time>
      </trkpt>
      <trkpt lat="45.29137" lon="4.66128">
        <ele>515.88</ele>
        <time>2011-09-10T12:34:24Z</time>
      </trkpt>
      <trkpt lat="45.29139" lon="4.66123">
        <ele>515.4</ele>
        <time>2011-09-10T12:34:25Z</time>
      </trkpt>
      <trkpt lat="45.29142" lon="4.66117">
        <ele>514.44</ele>
        <time>2011-09-10T12:34:26Z</time>
      </trkpt>
      <trkpt lat="45.29149" lon="4.66095">
        <ele>511.08</ele>
        <time>2011-09-10T12:34:30Z</time>
      </trkpt>
      <trkpt lat="45.29151" lon="4.66086">
        <ele>510.12</ele>
        <time>2011-09-10T12:34:32Z</time>
      </trkpt>
      <trkpt lat="45.29152" lon="4.66066">
        <ele>506.75</ele>
        <time>2011-09-10T12:34:38Z</time>
      </trkpt>
      <trkpt lat="45.29151" lon="4.66063">
        <ele>505.79</ele>
        <time>2011-09-10T12:34:39Z</time>
      </trkpt>
      <trkpt lat="45.29149" lon="4.66055">
        <ele>505.31</ele>
        <time>2011-09-10T12:34:41Z</time>
      </trkpt>
      <trkpt lat="45.29144" lon="4.66036">
        <ele>502.91</ele>
        <time>2011-09-10T12:34:44Z</time>
      </trkpt>
      <trkpt lat="45.29143" lon="4.66028">
        <ele>501.95</ele>
        <time>2011-09-10T12:34:45Z</time>
      </trkpt>
      <trkpt lat="45.29143" lon="4.6602">
        <ele>500.98</ele>
        <time>2011-09-10T12:34:46Z</time>
      </trkpt>
      <trkpt lat="45.29144" lon="4.66014">
        <ele>500.02</ele>
        <time>2011-09-10T12:34:47Z</time>
      </trkpt>
      <trkpt lat="45.29146" lon="4.66009">
        <ele>499.06</ele>
        <time>2011-09-10T12:34:48Z</time>
      </trkpt>
      <trkpt lat="45.29147" lon="4.66006">
        <ele>498.58</ele>
        <time>2011-09-10T12:34:49Z</time>
      </trkpt>
      <trkpt lat="45.29149" lon="4.66004">
        <ele>498.1</ele>
        <time>2011-09-10T12:35:00Z</time>
      </trkpt>
      <trkpt lat="45.29151" lon="4.66002">
        <ele>497.62</ele>
        <time>2011-09-10T12:35:01Z</time>
      </trkpt>
      <trkpt lat="45.29153" lon="4.66">
        <ele>497.62</ele>
        <time>2011-09-10T12:35:02Z</time>
      </trkpt>
      <trkpt lat="45.29154" lon="4.65998">
        <ele>497.14</ele>
        <time>2011-09-10T12:35:03Z</time>
      </trkpt>
      <trkpt lat="45.29155" lon="4.65996">
        <ele>496.66</ele>
        <time>2011-09-10T12:35:04Z</time>
      </trkpt>
      <trkpt lat="45.29157" lon="4.65995">
        <ele>496.18</ele>
        <time>2011-09-10T12:35:05Z</time>
      </trkpt>
      <trkpt lat="45.29158" lon="4.65993">
        <ele>496.18</ele>
        <time>2011-09-10T12:35:06Z</time>
      </trkpt>
      <trkpt lat="45.29159" lon="4.6599">
        <ele>495.7</ele>
        <time>2011-09-10T12:35:07Z</time>
      </trkpt>
      <trkpt lat="45.2916" lon="4.65988">
        <ele>495.7</ele>
        <time>2011-09-10T12:35:08Z</time>
      </trkpt>
      <trkpt lat="45.29162" lon="4.65984">
        <ele>495.22</ele>
        <time>2011-09-10T12:35:09Z</time>
      </trkpt>
      <trkpt lat="45.29163" lon="4.65979">
        <ele>494.74</ele>
        <time>2011-09-10T12:35:10Z</time>
      </trkpt>
      <trkpt lat="45.29168" lon="4.65962">
        <ele>491.85</ele>
        <time>2011-09-10T12:35:13Z</time>
      </trkpt>
      <trkpt lat="45.29169" lon="4.65956">
        <ele>491.85</ele>
        <time>2011-09-10T12:35:14Z</time>
      </trkpt>
      <trkpt lat="45.29175" lon="4.65937">
        <ele>488.49</ele>
        <time>2011-09-10T12:35:19Z</time>
      </trkpt>
      <trkpt lat="45.29173" lon="4.65903">
        <ele>486.56</ele>
        <time>2011-09-10T12:35:27Z</time>
      </trkpt>
      <trkpt lat="45.29171" lon="4.65882">
        <ele>482.72</ele>
        <time>2011-09-10T12:35:31Z</time>
      </trkpt>
      <trkpt lat="45.29172" lon="4.65878">
        <ele>482.24</ele>
        <time>2011-09-10T12:35:32Z</time>
      </trkpt>
      <trkpt lat="45.29175" lon="4.6587">
        <ele>481.76</ele>
        <time>2011-09-10T12:35:34Z</time>
      </trkpt>
      <trkpt lat="45.29176" lon="4.65863">
        <ele>480.8</ele>
        <time>2011-09-10T12:35:35Z</time>
      </trkpt>
      <trkpt lat="45.29176" lon="4.65857">
        <ele>480.8</ele>
        <time>2011-09-10T12:35:36Z</time>
      </trkpt>
      <trkpt lat="45.29177" lon="4.65851">
        <ele>480.8</ele>
        <time>2011-09-10T12:35:37Z</time>
      </trkpt>
      <trkpt lat="45.29177" lon="4.65844">
        <ele>480.8</ele>
        <time>2011-09-10T12:35:38Z</time>
      </trkpt>
      <trkpt lat="45.29176" lon="4.65838">
        <ele>480.32</ele>
        <time>2011-09-10T12:35:39Z</time>
      </trkpt>
      <trkpt lat="45.29176" lon="4.65831">
        <ele>480.32</ele>
        <time>2011-09-10T12:35:40Z</time>
      </trkpt>
      <trkpt lat="45.29157" lon="4.6579">
        <ele>481.28</ele>
        <time>2011-09-10T12:35:50Z</time>
      </trkpt>
      <trkpt lat="45.29148" lon="4.65777">
        <ele>483.68</ele>
        <time>2011-09-10T12:35:56Z</time>
      </trkpt>
      <trkpt lat="45.29146" lon="4.65775">
        <ele>483.68</ele>
        <time>2011-09-10T12:35:57Z</time>
      </trkpt>
      <trkpt lat="45.29144" lon="4.65773">
        <ele>484.16</ele>
        <time>2011-09-10T12:35:58Z</time>
      </trkpt>
      <trkpt lat="45.29142" lon="4.65772">
        <ele>484.64</ele>
        <time>2011-09-10T12:35:59Z</time>
      </trkpt>
      <trkpt lat="45.29141" lon="4.6577">
        <ele>484.64</ele>
        <time>2011-09-10T12:36:00Z</time>
      </trkpt>
      <trkpt lat="45.29139" lon="4.65768">
        <ele>484.64</ele>
        <time>2011-09-10T12:36:01Z</time>
      </trkpt>
      <trkpt lat="45.29137" lon="4.65766">
        <ele>484.64</ele>
        <time>2011-09-10T12:36:02Z</time>
      </trkpt>
      <trkpt lat="45.29125" lon="4.65756">
        <ele>485.6</ele>
        <time>2011-09-10T12:36:09Z</time>
      </trkpt>
      <trkpt lat="45.29124" lon="4.65755">
        <ele>485.6</ele>
        <time>2011-09-10T12:36:10Z</time>
      </trkpt>
      <trkpt lat="45.29105" lon="4.65731">
        <ele>488.01</ele>
        <time>2011-09-10T12:36:24Z</time>
      </trkpt>
      <trkpt lat="45.29098" lon="4.65721">
        <ele>488.49</ele>
        <time>2011-09-10T12:36:30Z</time>
      </trkpt>
      <trkpt lat="45.29097" lon="4.6572">
        <ele>488.97</ele>
        <time>2011-09-10T12:36:31Z</time>
      </trkpt>
      <trkpt lat="45.29075" lon="4.65697">
        <ele>489.93</ele>
        <time>2011-09-10T12:36:45Z</time>
      </trkpt>
      <trkpt lat="45.29073" lon="4.65695">
        <ele>490.41</ele>
        <time>2011-09-10T12:36:46Z</time>
      </trkpt>
      <trkpt lat="45.29072" lon="4.65692">
        <ele>490.89</ele>
        <time>2011-09-10T12:36:47Z</time>
      </trkpt>
      <trkpt lat="45.2907" lon="4.65691">
        <ele>490.89</ele>
        <time>2011-09-10T12:36:48Z</time>
      </trkpt>
      <trkpt lat="45.29068" lon="4.6569">
        <ele>490.41</ele>
        <time>2011-09-10T12:36:49Z</time>
      </trkpt>
      <trkpt lat="45.29067" lon="4.65688">
        <ele>490.89</ele>
        <time>2011-09-10T12:36:50Z</time>
      </trkpt>
      <trkpt lat="45.29051" lon="4.6567">
        <ele>489.93</ele>
        <time>2011-09-10T12:37:04Z</time>
      </trkpt>
      <trkpt lat="45.29051" lon="4.6567">
        <ele>491.37</ele>
        <time>2011-09-10T12:37:14Z</time>
      </trkpt>
      <trkpt lat="45.2905" lon="4.65669">
        <ele>491.37</ele>
        <time>2011-09-10T12:37:15Z</time>
      </trkpt>
      <trkpt lat="45.29049" lon="4.65667">
        <ele>491.37</ele>
        <time>2011-09-10T12:37:16Z</time>
      </trkpt>
      <trkpt lat="45.29048" lon="4.65665">
        <ele>491.37</ele>
        <time>2011-09-10T12:37:17Z</time>
      </trkpt>
      <trkpt lat="45.29045" lon="4.65663">
        <ele>491.85</ele>
        <time>2011-09-10T12:37:18Z</time>
      </trkpt>
      <trkpt lat="45.29043" lon="4.65662">
        <ele>492.33</ele>
        <time>2011-09-10T12:37:19Z</time>
      </trkpt>
      <trkpt lat="45.2904" lon="4.65662">
        <ele>491.85</ele>
        <time>2011-09-10T12:37:20Z</time>
      </trkpt>
      <trkpt lat="45.29006" lon="4.65652">
        <ele>489.45</ele>
        <time>2011-09-10T12:37:30Z</time>
      </trkpt>
      <trkpt lat="45.28987" lon="4.6563">
        <ele>491.37</ele>
        <time>2011-09-10T12:37:43Z</time>
      </trkpt>
      <trkpt lat="45.28965" lon="4.65599">
        <ele>492.81</ele>
        <time>2011-09-10T12:38:00Z</time>
      </trkpt>
      <trkpt lat="45.28945" lon="4.65577">
        <ele>495.7</ele>
        <time>2011-09-10T12:38:14Z</time>
      </trkpt>
      <trkpt lat="45.28925" lon="4.65552">
        <ele>496.18</ele>
        <time>2011-09-10T12:38:29Z</time>
      </trkpt>
      <trkpt lat="45.28906" lon="4.65522">
        <ele>498.58</ele>
        <time>2011-09-10T12:38:45Z</time>
      </trkpt>
      <trkpt lat="45.28882" lon="4.6549">
        <ele>499.06</ele>
        <time>2011-09-10T12:39:00Z</time>
      </trkpt>
      <trkpt lat="45.28871" lon="4.65468">
        <ele>499.54</ele>
        <time>2011-09-10T12:39:12Z</time>
      </trkpt>
      <trkpt lat="45.28857" lon="4.65443">
        <ele>500.98</ele>
        <time>2011-09-10T12:39:23Z</time>
      </trkpt>
      <trkpt lat="45.28837" lon="4.65406">
        <ele>502.91</ele>
        <time>2011-09-10T12:39:39Z</time>
      </trkpt>
      <trkpt lat="45.2881" lon="4.65355">
        <ele>504.83</ele>
        <time>2011-09-10T12:39:57Z</time>
      </trkpt>
      <trkpt lat="45.28802" lon="4.65304">
        <ele>505.79</ele>
        <time>2011-09-10T12:40:12Z</time>
      </trkpt>
      <trkpt lat="45.28801" lon="4.653">
        <ele>505.79</ele>
        <time>2011-09-10T12:40:13Z</time>
      </trkpt>
      <trkpt lat="45.28798" lon="4.65296">
        <ele>505.79</ele>
        <time>2011-09-10T12:40:14Z</time>
      </trkpt>
      <trkpt lat="45.28795" lon="4.65293">
        <ele>505.79</ele>
        <time>2011-09-10T12:40:15Z</time>
      </trkpt>
      <trkpt lat="45.28792" lon="4.65292">
        <ele>505.79</ele>
        <time>2011-09-10T12:40:16Z</time>
      </trkpt>
      <trkpt lat="45.28788" lon="4.65291">
        <ele>504.83</ele>
        <time>2011-09-10T12:40:17Z</time>
      </trkpt>
      <trkpt lat="45.28785" lon="4.65291">
        <ele>505.31</ele>
        <time>2011-09-10T12:40:18Z</time>
      </trkpt>
      <trkpt lat="45.28782" lon="4.65291">
        <ele>505.31</ele>
        <time>2011-09-10T12:40:19Z</time>
      </trkpt>
      <trkpt lat="45.28778" lon="4.65292">
        <ele>505.31</ele>
        <time>2011-09-10T12:40:20Z</time>
      </trkpt>
      <trkpt lat="45.28774" lon="4.65292">
        <ele>505.79</ele>
        <time>2011-09-10T12:40:21Z</time>
      </trkpt>
      <trkpt lat="45.28732" lon="4.65281">
        <ele>506.75</ele>
        <time>2011-09-10T12:40:33Z</time>
      </trkpt>
      <trkpt lat="45.28691" lon="4.65261">
        <ele>507.71</ele>
        <time>2011-09-10T12:40:44Z</time>
      </trkpt>
      <trkpt lat="45.28629" lon="4.65234">
        <ele>507.71</ele>
        <time>2011-09-10T12:41:00Z</time>
      </trkpt>
      <trkpt lat="45.28581" lon="4.65197">
        <ele>510.6</ele>
        <time>2011-09-10T12:41:15Z</time>
      </trkpt>
      <trkpt lat="45.28559" lon="4.65181">
        <ele>511.08</ele>
        <time>2011-09-10T12:41:24Z</time>
      </trkpt>
      <trkpt lat="45.28558" lon="4.6518">
        <ele>511.56</ele>
        <time>2011-09-10T12:41:25Z</time>
      </trkpt>
      <trkpt lat="45.28557" lon="4.65179">
        <ele>512.04</ele>
        <time>2011-09-10T12:41:26Z</time>
      </trkpt>
      <trkpt lat="45.28556" lon="4.65179">
        <ele>511.56</ele>
        <time>2011-09-10T12:41:27Z</time>
      </trkpt>
      <trkpt lat="45.28556" lon="4.65181">
        <ele>511.56</ele>
        <time>2011-09-10T12:41:30Z</time>
      </trkpt>
      <trkpt lat="45.28558" lon="4.6518">
        <ele>511.56</ele>
        <time>2011-09-10T12:41:31Z</time>
      </trkpt>
      <trkpt lat="45.28559" lon="4.6518">
        <ele>512.04</ele>
        <time>2011-09-10T12:41:32Z</time>
      </trkpt>
      <trkpt lat="45.28579" lon="4.65168">
        <ele>513</ele>
        <time>2011-09-10T12:41:45Z</time>
      </trkpt>
      <trkpt lat="45.28603" lon="4.65152">
        <ele>514.92</ele>
        <time>2011-09-10T12:42:01Z</time>
      </trkpt>
      <trkpt lat="45.2861" lon="4.65149">
        <ele>516.85</ele>
        <time>2011-09-10T12:42:06Z</time>
      </trkpt>
      <trkpt lat="45.28611" lon="4.65148">
        <ele>516.37</ele>
        <time>2011-09-10T12:42:07Z</time>
      </trkpt>
      <trkpt lat="45.28613" lon="4.65147">
        <ele>516.85</ele>
        <time>2011-09-10T12:42:08Z</time>
      </trkpt>
      <trkpt lat="45.28614" lon="4.65146">
        <ele>516.37</ele>
        <time>2011-09-10T12:42:09Z</time>
      </trkpt>
      <trkpt lat="45.28615" lon="4.65146">
        <ele>516.37</ele>
        <time>2011-09-10T12:42:10Z</time>
      </trkpt>
      <trkpt lat="45.28616" lon="4.65145">
        <ele>517.33</ele>
        <time>2011-09-10T12:42:11Z</time>
      </trkpt>
      <trkpt lat="45.28617" lon="4.65144">
        <ele>517.33</ele>
        <time>2011-09-10T12:42:12Z</time>
      </trkpt>
      <trkpt lat="45.28618" lon="4.65143">
        <ele>517.81</ele>
        <time>2011-09-10T12:42:13Z</time>
      </trkpt>
      <trkpt lat="45.2862" lon="4.65143">
        <ele>517.81</ele>
        <time>2011-09-10T12:42:14Z</time>
      </trkpt>
      <trkpt lat="45.28629" lon="4.6514">
        <ele>519.73</ele>
        <time>2011-09-10T12:42:21Z</time>
      </trkpt>
      <trkpt lat="45.28631" lon="4.65138">
        <ele>519.25</ele>
        <time>2011-09-10T12:42:23Z</time>
      </trkpt>
      <trkpt lat="45.28633" lon="4.65138">
        <ele>519.73</ele>
        <time>2011-09-10T12:42:24Z</time>
      </trkpt>
      <trkpt lat="45.28634" lon="4.65137">
        <ele>519.25</ele>
        <time>2011-09-10T12:42:25Z</time>
      </trkpt>
      <trkpt lat="45.28635" lon="4.65137">
        <ele>519.73</ele>
        <time>2011-09-10T12:42:26Z</time>
      </trkpt>
      <trkpt lat="45.28637" lon="4.65136">
        <ele>520.21</ele>
        <time>2011-09-10T12:42:27Z</time>
      </trkpt>
      <trkpt lat="45.28657" lon="4.65127">
        <ele>522.13</ele>
        <time>2011-09-10T12:42:42Z</time>
      </trkpt>
      <trkpt lat="45.2868" lon="4.65114">
        <ele>525.02</ele>
        <time>2011-09-10T12:43:01Z</time>
      </trkpt>
      <trkpt lat="45.28704" lon="4.651">
        <ele>527.42</ele>
        <time>2011-09-10T12:43:19Z</time>
      </trkpt>
      <trkpt lat="45.28705" lon="4.65099">
        <ele>527.9</ele>
        <time>2011-09-10T12:43:20Z</time>
      </trkpt>
      <trkpt lat="45.28706" lon="4.65098">
        <ele>526.94</ele>
        <time>2011-09-10T12:43:21Z</time>
      </trkpt>
      <trkpt lat="45.28708" lon="4.65097">
        <ele>527.42</ele>
        <time>2011-09-10T12:43:22Z</time>
      </trkpt>
      <trkpt lat="45.28709" lon="4.65096">
        <ele>526.94</ele>
        <time>2011-09-10T12:43:23Z</time>
      </trkpt>
      <trkpt lat="45.2871" lon="4.65096">
        <ele>527.9</ele>
        <time>2011-09-10T12:43:24Z</time>
      </trkpt>
      <trkpt lat="45.28712" lon="4.65095">
        <ele>527.9</ele>
        <time>2011-09-10T12:43:25Z</time>
      </trkpt>
      <trkpt lat="45.2872" lon="4.65091">
        <ele>528.38</ele>
        <time>2011-09-10T12:43:31Z</time>
      </trkpt>
      <trkpt lat="45.28736" lon="4.65079">
        <ele>531.27</ele>
        <time>2011-09-10T12:43:46Z</time>
      </trkpt>
      <trkpt lat="45.28751" lon="4.65063">
        <ele>534.15</ele>
        <time>2011-09-10T12:44:03Z</time>
      </trkpt>
      <trkpt lat="45.28758" lon="4.65057">
        <ele>536.55</ele>
        <time>2011-09-10T12:44:11Z</time>
      </trkpt>
      <trkpt lat="45.2876" lon="4.65056">
        <ele>536.55</ele>
        <time>2011-09-10T12:44:12Z</time>
      </trkpt>
      <trkpt lat="45.28776" lon="4.65044">
        <ele>537.99</ele>
        <time>2011-09-10T12:44:27Z</time>
      </trkpt>
      <trkpt lat="45.28782" lon="4.6504">
        <ele>539.92</ele>
        <time>2011-09-10T12:44:33Z</time>
      </trkpt>
      <trkpt lat="45.28789" lon="4.65035">
        <ele>539.92</ele>
        <time>2011-09-10T12:44:39Z</time>
      </trkpt>
      <trkpt lat="45.2879" lon="4.65033">
        <ele>539.92</ele>
        <time>2011-09-10T12:44:40Z</time>
      </trkpt>
      <trkpt lat="45.288" lon="4.65022">
        <ele>542.8</ele>
        <time>2011-09-10T12:44:51Z</time>
      </trkpt>
      <trkpt lat="45.28801" lon="4.65022">
        <ele>543.28</ele>
        <time>2011-09-10T12:44:52Z</time>
      </trkpt>
      <trkpt lat="45.28816" lon="4.65013">
        <ele>545.2</ele>
        <time>2011-09-10T12:45:06Z</time>
      </trkpt>
      <trkpt lat="45.28819" lon="4.65012">
        <ele>545.69</ele>
        <time>2011-09-10T12:45:09Z</time>
      </trkpt>
      <trkpt lat="45.2882" lon="4.6501">
        <ele>546.17</ele>
        <time>2011-09-10T12:45:10Z</time>
      </trkpt>
      <trkpt lat="45.28833" lon="4.64998">
        <ele>548.57</ele>
        <time>2011-09-10T12:45:25Z</time>
      </trkpt>
      <trkpt lat="45.28834" lon="4.64995">
        <ele>550.01</ele>
        <time>2011-09-10T12:45:28Z</time>
      </trkpt>
      <trkpt lat="45.28835" lon="4.64994">
        <ele>550.49</ele>
        <time>2011-09-10T12:45:29Z</time>
      </trkpt>
      <trkpt lat="45.28836" lon="4.64993">
        <ele>550.01</ele>
        <time>2011-09-10T12:45:30Z</time>
      </trkpt>
      <trkpt lat="45.28847" lon="4.64983">
        <ele>553.38</ele>
        <time>2011-09-10T12:45:41Z</time>
      </trkpt>
      <trkpt lat="45.28854" lon="4.64966">
        <ele>555.3</ele>
        <time>2011-09-10T12:45:52Z</time>
      </trkpt>
      <trkpt lat="45.28857" lon="4.64962">
        <ele>557.22</ele>
        <time>2011-09-10T12:46:03Z</time>
      </trkpt>
      <trkpt lat="45.28857" lon="4.64962">
        <ele>557.22</ele>
        <time>2011-09-10T12:46:32Z</time>
      </trkpt>
      <trkpt lat="45.28857" lon="4.64963">
        <ele>556.74</ele>
        <time>2011-09-10T12:47:07Z</time>
      </trkpt>
      <trkpt lat="45.28857" lon="4.64963">
        <ele>557.22</ele>
        <time>2011-09-10T12:47:29Z</time>
      </trkpt>
      <trkpt lat="45.28857" lon="4.64963">
        <ele>553.86</ele>
        <time>2011-09-10T12:47:50Z</time>
      </trkpt>
      <trkpt lat="45.28857" lon="4.64963">
        <ele>557.22</ele>
        <time>2011-09-10T12:47:53Z</time>
      </trkpt>
      <trkpt lat="45.28858" lon="4.64964">
        <ele>542.32</ele>
        <time>2011-09-10T12:48:03Z</time>
      </trkpt>
      <trkpt lat="45.28857" lon="4.64963">
        <ele>559.14</ele>
        <time>2011-09-10T12:48:04Z</time>
      </trkpt>
      <trkpt lat="45.28857" lon="4.64963">
        <ele>555.78</ele>
        <time>2011-09-10T12:48:05Z</time>
      </trkpt>
      <trkpt lat="45.28857" lon="4.64963">
        <ele>556.74</ele>
        <time>2011-09-10T12:48:33Z</time>
      </trkpt>
      <trkpt lat="45.28857" lon="4.64964">
        <ele>556.26</ele>
        <time>2011-09-10T12:49:04Z</time>
      </trkpt>
      <trkpt lat="45.28857" lon="4.64965">
        <ele>556.26</ele>
        <time>2011-09-10T12:49:38Z</time>
      </trkpt>
      <trkpt lat="45.28857" lon="4.64965">
        <ele>556.26</ele>
        <time>2011-09-10T12:50:07Z</time>
      </trkpt>
      <trkpt lat="45.28857" lon="4.64965">
        <ele>556.26</ele>
        <time>2011-09-10T12:50:33Z</time>
      </trkpt>
      <trkpt lat="45.28857" lon="4.64965">
        <ele>557.22</ele>
        <time>2011-09-10T12:51:05Z</time>
      </trkpt>
      <trkpt lat="45.28857" lon="4.64965">
        <ele>556.74</ele>
        <time>2011-09-10T12:51:32Z</time>
      </trkpt>
      <trkpt lat="45.28857" lon="4.64965">
        <ele>557.22</ele>
        <time>2011-09-10T12:52:03Z</time>
      </trkpt>
      <trkpt lat="45.28857" lon="4.64964">
        <ele>556.26</ele>
        <time>2011-09-10T12:52:35Z</time>
      </trkpt>
      <trkpt lat="45.28857" lon="4.64965">
        <ele>556.26</ele>
        <time>2011-09-10T12:53:04Z</time>
      </trkpt>
      <trkpt lat="45.28857" lon="4.64965">
        <ele>556.26</ele>
        <time>2011-09-10T12:53:35Z</time>
      </trkpt>
      <trkpt lat="45.2886" lon="4.64959">
        <ele>558.66</ele>
        <time>2011-09-10T12:54:00Z</time>
      </trkpt>
      <trkpt lat="45.28861" lon="4.64957">
        <ele>558.66</ele>
        <time>2011-09-10T12:54:13Z</time>
      </trkpt>
      <trkpt lat="45.28862" lon="4.64956">
        <ele>558.66</ele>
        <time>2011-09-10T12:54:14Z</time>
      </trkpt>
      <trkpt lat="45.28863" lon="4.64955">
        <ele>558.18</ele>
        <time>2011-09-10T12:54:15Z</time>
      </trkpt>
      <trkpt lat="45.28864" lon="4.64953">
        <ele>559.14</ele>
        <time>2011-09-10T12:54:16Z</time>
      </trkpt>
      <trkpt lat="45.28865" lon="4.64952">
        <ele>559.14</ele>
        <time>2011-09-10T12:54:17Z</time>
      </trkpt>
      <trkpt lat="45.28866" lon="4.6495">
        <ele>559.14</ele>
        <time>2011-09-10T12:54:18Z</time>
      </trkpt>
      <trkpt lat="45.28867" lon="4.64949">
        <ele>559.62</ele>
        <time>2011-09-10T12:54:19Z</time>
      </trkpt>
      <trkpt lat="45.28879" lon="4.64925">
        <ele>561.55</ele>
        <time>2011-09-10T12:54:35Z</time>
      </trkpt>
      <trkpt lat="45.28882" lon="4.64923">
        <ele>562.51</ele>
        <time>2011-09-10T12:54:37Z</time>
      </trkpt>
      <trkpt lat="45.28883" lon="4.64922">
        <ele>562.51</ele>
        <time>2011-09-10T12:54:38Z</time>
      </trkpt>
      <trkpt lat="45.28891" lon="4.64919">
        <ele>562.99</ele>
        <time>2011-09-10T12:54:48Z</time>
      </trkpt>
      <trkpt lat="45.28895" lon="4.64919">
        <ele>564.91</ele>
        <time>2011-09-10T12:54:55Z</time>
      </trkpt>
      <trkpt lat="45.28907" lon="4.64918">
        <ele>567.8</ele>
        <time>2011-09-10T12:55:08Z</time>
      </trkpt>
      <trkpt lat="45.28913" lon="4.64917">
        <ele>567.8</ele>
        <time>2011-09-10T12:55:14Z</time>
      </trkpt>
      <trkpt lat="45.28916" lon="4.64915">
        <ele>568.76</ele>
        <time>2011-09-10T12:55:17Z</time>
      </trkpt>
      <trkpt lat="45.28924" lon="4.64916">
        <ele>571.16</ele>
        <time>2011-09-10T12:55:30Z</time>
      </trkpt>
      <trkpt lat="45.28935" lon="4.64914">
        <ele>572.6</ele>
        <time>2011-09-10T12:55:43Z</time>
      </trkpt>
      <trkpt lat="45.28935" lon="4.64915">
        <ele>572.12</ele>
        <time>2011-09-10T12:55:55Z</time>
      </trkpt>
      <trkpt lat="45.28936" lon="4.64916">
        <ele>572.6</ele>
        <time>2011-09-10T12:55:56Z</time>
      </trkpt>
      <trkpt lat="45.28937" lon="4.64917">
        <ele>572.6</ele>
        <time>2011-09-10T12:55:57Z</time>
      </trkpt>
      <trkpt lat="45.28938" lon="4.64918">
        <ele>572.6</ele>
        <time>2011-09-10T12:55:58Z</time>
      </trkpt>
      <trkpt lat="45.28939" lon="4.64919">
        <ele>572.6</ele>
        <time>2011-09-10T12:55:59Z</time>
      </trkpt>
      <trkpt lat="45.2894" lon="4.64921">
        <ele>573.08</ele>
        <time>2011-09-10T12:56:00Z</time>
      </trkpt>
      <trkpt lat="45.28942" lon="4.64922">
        <ele>573.08</ele>
        <time>2011-09-10T12:56:01Z</time>
      </trkpt>
      <trkpt lat="45.28943" lon="4.64924">
        <ele>574.04</ele>
        <time>2011-09-10T12:56:02Z</time>
      </trkpt>
      <trkpt lat="45.28944" lon="4.64924">
        <ele>574.04</ele>
        <time>2011-09-10T12:56:03Z</time>
      </trkpt>
      <trkpt lat="45.28955" lon="4.64932">
        <ele>575.01</ele>
        <time>2011-09-10T12:56:12Z</time>
      </trkpt>
      <trkpt lat="45.28956" lon="4.64933">
        <ele>575.97</ele>
        <time>2011-09-10T12:56:13Z</time>
      </trkpt>
      <trkpt lat="45.2897" lon="4.64947">
        <ele>578.37</ele>
        <time>2011-09-10T12:56:26Z</time>
      </trkpt>
      <trkpt lat="45.28972" lon="4.64946">
        <ele>578.85</ele>
        <time>2011-09-10T12:56:28Z</time>
      </trkpt>
      <trkpt lat="45.28973" lon="4.64945">
        <ele>578.85</ele>
        <time>2011-09-10T12:56:29Z</time>
      </trkpt>
      <trkpt lat="45.28974" lon="4.64943">
        <ele>579.33</ele>
        <time>2011-09-10T12:56:30Z</time>
      </trkpt>
      <trkpt lat="45.28974" lon="4.64942">
        <ele>579.81</ele>
        <time>2011-09-10T12:56:31Z</time>
      </trkpt>
      <trkpt lat="45.2898" lon="4.64933">
        <ele>580.77</ele>
        <time>2011-09-10T12:56:39Z</time>
      </trkpt>
      <trkpt lat="45.28981" lon="4.64922">
        <ele>581.73</ele>
        <time>2011-09-10T12:56:51Z</time>
      </trkpt>
      <trkpt lat="45.28981" lon="4.64925">
        <ele>581.73</ele>
        <time>2011-09-10T12:56:54Z</time>
      </trkpt>
      <trkpt lat="45.28977" lon="4.64937">
        <ele>580.77</ele>
        <time>2011-09-10T12:56:58Z</time>
      </trkpt>
      <trkpt lat="45.28972" lon="4.64946">
        <ele>579.81</ele>
        <time>2011-09-10T12:57:02Z</time>
      </trkpt>
      <trkpt lat="45.28971" lon="4.64948">
        <ele>579.33</ele>
        <time>2011-09-10T12:57:03Z</time>
      </trkpt>
      <trkpt lat="45.28971" lon="4.64951">
        <ele>578.85</ele>
        <time>2011-09-10T12:57:04Z</time>
      </trkpt>
      <trkpt lat="45.28972" lon="4.64954">
        <ele>578.85</ele>
        <time>2011-09-10T12:57:05Z</time>
      </trkpt>
      <trkpt lat="45.28973" lon="4.64957">
        <ele>578.85</ele>
        <time>2011-09-10T12:57:06Z</time>
      </trkpt>
      <trkpt lat="45.28974" lon="4.64958">
        <ele>578.85</ele>
        <time>2011-09-10T12:57:07Z</time>
      </trkpt>
      <trkpt lat="45.28976" lon="4.6496">
        <ele>575.97</ele>
        <time>2011-09-10T12:57:08Z</time>
      </trkpt>
      <trkpt lat="45.28977" lon="4.64961">
        <ele>578.85</ele>
        <time>2011-09-10T12:57:09Z</time>
      </trkpt>
      <trkpt lat="45.28979" lon="4.64962">
        <ele>578.85</ele>
        <time>2011-09-10T12:57:10Z</time>
      </trkpt>
      <trkpt lat="45.2898" lon="4.64962">
        <ele>578.37</ele>
        <time>2011-09-10T12:57:11Z</time>
      </trkpt>
      <trkpt lat="45.28989" lon="4.64969">
        <ele>578.37</ele>
        <time>2011-09-10T12:57:21Z</time>
      </trkpt>
      <trkpt lat="45.29011" lon="4.64984">
        <ele>579.81</ele>
        <time>2011-09-10T12:57:35Z</time>
      </trkpt>
      <trkpt lat="45.29028" lon="4.65">
        <ele>582.7</ele>
        <time>2011-09-10T12:57:48Z</time>
      </trkpt>
      <trkpt lat="45.29052" lon="4.65018">
        <ele>585.58</ele>
        <time>2011-09-10T12:58:05Z</time>
      </trkpt>
      <trkpt lat="45.29054" lon="4.6502">
        <ele>586.54</ele>
        <time>2011-09-10T12:58:07Z</time>
      </trkpt>
      <trkpt lat="45.29081" lon="4.65026">
        <ele>587.98</ele>
        <time>2011-09-10T12:58:24Z</time>
      </trkpt>
      <trkpt lat="45.29123" lon="4.65012">
        <ele>588.46</ele>
        <time>2011-09-10T12:58:43Z</time>
      </trkpt>
      <trkpt lat="45.29156" lon="4.64992">
        <ele>585.1</ele>
        <time>2011-09-10T12:58:51Z</time>
      </trkpt>
      <trkpt lat="45.2919" lon="4.64971">
        <ele>581.25</ele>
        <time>2011-09-10T12:58:56Z</time>
      </trkpt>
      <trkpt lat="45.29198" lon="4.64969">
        <ele>580.77</ele>
        <time>2011-09-10T12:58:57Z</time>
      </trkpt>
      <trkpt lat="45.29206" lon="4.64967">
        <ele>580.29</ele>
        <time>2011-09-10T12:58:58Z</time>
      </trkpt>
      <trkpt lat="45.29231" lon="4.64964">
        <ele>577.89</ele>
        <time>2011-09-10T12:59:01Z</time>
      </trkpt>
      <trkpt lat="45.29263" lon="4.64957">
        <ele>574.04</ele>
        <time>2011-09-10T12:59:05Z</time>
      </trkpt>
      <trkpt lat="45.2927" lon="4.64956">
        <ele>574.04</ele>
        <time>2011-09-10T12:59:06Z</time>
      </trkpt>
      <trkpt lat="45.29293" lon="4.6495">
        <ele>572.6</ele>
        <time>2011-09-10T12:59:09Z</time>
      </trkpt>
      <trkpt lat="45.29366" lon="4.64935">
        <ele>569.24</ele>
        <time>2011-09-10T12:59:18Z</time>
      </trkpt>
      <trkpt lat="45.2939" lon="4.64923">
        <ele>568.28</ele>
        <time>2011-09-10T12:59:21Z</time>
      </trkpt>
      <trkpt lat="45.29396" lon="4.64917">
        <ele>567.8</ele>
        <time>2011-09-10T12:59:22Z</time>
      </trkpt>
      <trkpt lat="45.29402" lon="4.64909">
        <ele>567.32</ele>
        <time>2011-09-10T12:59:23Z</time>
      </trkpt>
      <trkpt lat="45.29431" lon="4.64875">
        <ele>565.39</ele>
        <time>2011-09-10T12:59:29Z</time>
      </trkpt>
      <trkpt lat="45.29437" lon="4.6487">
        <ele>565.39</ele>
        <time>2011-09-10T12:59:30Z</time>
      </trkpt>
      <trkpt lat="45.29467" lon="4.64843">
        <ele>565.39</ele>
        <time>2011-09-10T12:59:40Z</time>
      </trkpt>
      <trkpt lat="45.29475" lon="4.64831">
        <ele>566.35</ele>
        <time>2011-09-10T12:59:50Z</time>
      </trkpt>
      <trkpt lat="45.29476" lon="4.64831">
        <ele>566.83</ele>
        <time>2011-09-10T12:59:51Z</time>
      </trkpt>
      <trkpt lat="45.29483" lon="4.64824">
        <ele>568.76</ele>
        <time>2011-09-10T12:59:57Z</time>
      </trkpt>
      <trkpt lat="45.295" lon="4.64816">
        <ele>571.64</ele>
        <time>2011-09-10T13:00:10Z</time>
      </trkpt>
      <trkpt lat="45.29526" lon="4.64815">
        <ele>570.68</ele>
        <time>2011-09-10T13:00:23Z</time>
      </trkpt>
      <trkpt lat="45.29527" lon="4.64815">
        <ele>570.68</ele>
        <time>2011-09-10T13:00:34Z</time>
      </trkpt>
      <trkpt lat="45.29529" lon="4.64813">
        <ele>570.68</ele>
        <time>2011-09-10T13:00:35Z</time>
      </trkpt>
      <trkpt lat="45.29531" lon="4.64811">
        <ele>570.68</ele>
        <time>2011-09-10T13:00:36Z</time>
      </trkpt>
      <trkpt lat="45.29556" lon="4.64786">
        <ele>567.8</ele>
        <time>2011-09-10T13:00:43Z</time>
      </trkpt>
      <trkpt lat="45.29561" lon="4.64782">
        <ele>567.32</ele>
        <time>2011-09-10T13:00:44Z</time>
      </trkpt>
      <trkpt lat="45.2957" lon="4.64772">
        <ele>566.35</ele>
        <time>2011-09-10T13:00:46Z</time>
      </trkpt>
      <trkpt lat="45.29586" lon="4.64752">
        <ele>563.47</ele>
        <time>2011-09-10T13:00:50Z</time>
      </trkpt>
      <trkpt lat="45.29596" lon="4.64736">
        <ele>562.03</ele>
        <time>2011-09-10T13:00:53Z</time>
      </trkpt>
      <trkpt lat="45.29601" lon="4.64725">
        <ele>560.59</ele>
        <time>2011-09-10T13:00:55Z</time>
      </trkpt>
      <trkpt lat="45.29619" lon="4.64687">
        <ele>557.22</ele>
        <time>2011-09-10T13:01:01Z</time>
      </trkpt>
      <trkpt lat="45.29633" lon="4.64663">
        <ele>555.78</ele>
        <time>2011-09-10T13:01:05Z</time>
      </trkpt>
      <trkpt lat="45.29648" lon="4.64625">
        <ele>553.38</ele>
        <time>2011-09-10T13:01:10Z</time>
      </trkpt>
      <trkpt lat="45.29668" lon="4.64574">
        <ele>551.93</ele>
        <time>2011-09-10T13:01:16Z</time>
      </trkpt>
      <trkpt lat="45.29669" lon="4.64565">
        <ele>550.97</ele>
        <time>2011-09-10T13:01:17Z</time>
      </trkpt>
      <trkpt lat="45.29669" lon="4.64556">
        <ele>550.49</ele>
        <time>2011-09-10T13:01:18Z</time>
      </trkpt>
      <trkpt lat="45.29669" lon="4.64546">
        <ele>550.97</ele>
        <time>2011-09-10T13:01:19Z</time>
      </trkpt>
      <trkpt lat="45.29669" lon="4.64536">
        <ele>550.01</ele>
        <time>2011-09-10T13:01:20Z</time>
      </trkpt>
      <trkpt lat="45.29668" lon="4.64526">
        <ele>550.01</ele>
        <time>2011-09-10T13:01:21Z</time>
      </trkpt>
      <trkpt lat="45.29667" lon="4.64517">
        <ele>549.53</ele>
        <time>2011-09-10T13:01:22Z</time>
      </trkpt>
      <trkpt lat="45.29664" lon="4.64499">
        <ele>548.57</ele>
        <time>2011-09-10T13:01:24Z</time>
      </trkpt>
      <trkpt lat="45.29661" lon="4.64466">
        <ele>544.24</ele>
        <time>2011-09-10T13:01:28Z</time>
      </trkpt>
      <trkpt lat="45.29658" lon="4.64444">
        <ele>541.36</ele>
        <time>2011-09-10T13:01:31Z</time>
      </trkpt>
      <trkpt lat="45.29651" lon="4.64423">
        <ele>538.96</ele>
        <time>2011-09-10T13:01:39Z</time>
      </trkpt>
      <trkpt lat="45.2965" lon="4.64423">
        <ele>537.51</ele>
        <time>2011-09-10T13:01:55Z</time>
      </trkpt>
      <trkpt lat="45.29647" lon="4.64424">
        <ele>538.96</ele>
        <time>2011-09-10T13:02:21Z</time>
      </trkpt>
      <trkpt lat="45.29646" lon="4.64422">
        <ele>538.48</ele>
        <time>2011-09-10T13:02:31Z</time>
      </trkpt>
      <trkpt lat="45.29645" lon="4.6442">
        <ele>537.99</ele>
        <time>2011-09-10T13:02:32Z</time>
      </trkpt>
      <trkpt lat="45.29645" lon="4.64418">
        <ele>537.99</ele>
        <time>2011-09-10T13:02:33Z</time>
      </trkpt>
      <trkpt lat="45.29645" lon="4.64415">
        <ele>537.51</ele>
        <time>2011-09-10T13:02:34Z</time>
      </trkpt>
      <trkpt lat="45.29645" lon="4.64412">
        <ele>536.55</ele>
        <time>2011-09-10T13:02:35Z</time>
      </trkpt>
      <trkpt lat="45.29644" lon="4.64409">
        <ele>536.07</ele>
        <time>2011-09-10T13:02:36Z</time>
      </trkpt>
      <trkpt lat="45.29644" lon="4.64406">
        <ele>536.07</ele>
        <time>2011-09-10T13:02:37Z</time>
      </trkpt>
      <trkpt lat="45.29643" lon="4.644">
        <ele>534.63</ele>
        <time>2011-09-10T13:02:39Z</time>
      </trkpt>
      <trkpt lat="45.29639" lon="4.64379">
        <ele>532.23</ele>
        <time>2011-09-10T13:02:48Z</time>
      </trkpt>
      <trkpt lat="45.29636" lon="4.64364">
        <ele>529.34</ele>
        <time>2011-09-10T13:02:55Z</time>
      </trkpt>
      <trkpt lat="45.29633" lon="4.64345">
        <ele>526.46</ele>
        <time>2011-09-10T13:03:03Z</time>
      </trkpt>
      <trkpt lat="45.29632" lon="4.64341">
        <ele>525.5</ele>
        <time>2011-09-10T13:03:05Z</time>
      </trkpt>
      <trkpt lat="45.29627" lon="4.6432">
        <ele>521.65</ele>
        <time>2011-09-10T13:03:14Z</time>
      </trkpt>
      <trkpt lat="45.29626" lon="4.64318">
        <ele>521.65</ele>
        <time>2011-09-10T13:03:15Z</time>
      </trkpt>
      <trkpt lat="45.2962" lon="4.64307">
        <ele>519.25</ele>
        <time>2011-09-10T13:03:19Z</time>
      </trkpt>
      <trkpt lat="45.29606" lon="4.64284">
        <ele>515.4</ele>
        <time>2011-09-10T13:03:26Z</time>
      </trkpt>
      <trkpt lat="45.296" lon="4.64279">
        <ele>514.44</ele>
        <time>2011-09-10T13:03:28Z</time>
      </trkpt>
      <trkpt lat="45.29585" lon="4.64272">
        <ele>511.08</ele>
        <time>2011-09-10T13:03:32Z</time>
      </trkpt>
      <trkpt lat="45.29578" lon="4.64273">
        <ele>509.64</ele>
        <time>2011-09-10T13:03:34Z</time>
      </trkpt>
      <trkpt lat="45.29567" lon="4.64277">
        <ele>507.71</ele>
        <time>2011-09-10T13:03:37Z</time>
      </trkpt>
      <trkpt lat="45.29559" lon="4.64284">
        <ele>506.27</ele>
        <time>2011-09-10T13:03:40Z</time>
      </trkpt>
      <trkpt lat="45.2955" lon="4.64292">
        <ele>502.91</ele>
        <time>2011-09-10T13:03:44Z</time>
      </trkpt>
      <trkpt lat="45.29546" lon="4.64293">
        <ele>501.95</ele>
        <time>2011-09-10T13:03:46Z</time>
      </trkpt>
      <trkpt lat="45.29544" lon="4.64292">
        <ele>501.46</ele>
        <time>2011-09-10T13:03:47Z</time>
      </trkpt>
      <trkpt lat="45.29543" lon="4.64289">
        <ele>501.46</ele>
        <time>2011-09-10T13:03:48Z</time>
      </trkpt>
      <trkpt lat="45.29543" lon="4.64285">
        <ele>500.98</ele>
        <time>2011-09-10T13:03:49Z</time>
      </trkpt>
      <trkpt lat="45.29543" lon="4.64281">
        <ele>500.98</ele>
        <time>2011-09-10T13:03:50Z</time>
      </trkpt>
      <trkpt lat="45.29544" lon="4.64278">
        <ele>500.5</ele>
        <time>2011-09-10T13:03:51Z</time>
      </trkpt>
      <trkpt lat="45.2955" lon="4.64263">
        <ele>500.5</ele>
        <time>2011-09-10T13:03:54Z</time>
      </trkpt>
      <trkpt lat="45.29558" lon="4.64245">
        <ele>500.5</ele>
        <time>2011-09-10T13:03:57Z</time>
      </trkpt>
      <trkpt lat="45.29561" lon="4.64238">
        <ele>500.02</ele>
        <time>2011-09-10T13:03:58Z</time>
      </trkpt>
      <trkpt lat="45.29582" lon="4.64213">
        <ele>499.06</ele>
        <time>2011-09-10T13:04:08Z</time>
      </trkpt>
      <trkpt lat="45.29585" lon="4.64211">
        <ele>498.58</ele>
        <time>2011-09-10T13:04:25Z</time>
      </trkpt>
      <trkpt lat="45.29587" lon="4.64209">
        <ele>498.58</ele>
        <time>2011-09-10T13:04:37Z</time>
      </trkpt>
      <trkpt lat="45.29588" lon="4.64207">
        <ele>498.1</ele>
        <time>2011-09-10T13:04:38Z</time>
      </trkpt>
      <trkpt lat="45.2959" lon="4.64206">
        <ele>498.58</ele>
        <time>2011-09-10T13:04:39Z</time>
      </trkpt>
      <trkpt lat="45.29592" lon="4.64206">
        <ele>498.58</ele>
        <time>2011-09-10T13:04:40Z</time>
      </trkpt>
      <trkpt lat="45.29593" lon="4.64206">
        <ele>499.06</ele>
        <time>2011-09-10T13:04:41Z</time>
      </trkpt>
      <trkpt lat="45.29595" lon="4.64207">
        <ele>499.06</ele>
        <time>2011-09-10T13:04:42Z</time>
      </trkpt>
      <trkpt lat="45.29622" lon="4.64228">
        <ele>500.98</ele>
        <time>2011-09-10T13:04:54Z</time>
      </trkpt>
      <trkpt lat="45.29648" lon="4.64265">
        <ele>503.39</ele>
        <time>2011-09-10T13:05:08Z</time>
      </trkpt>
      <trkpt lat="45.29679" lon="4.64297">
        <ele>506.75</ele>
        <time>2011-09-10T13:05:22Z</time>
      </trkpt>
      <trkpt lat="45.29697" lon="4.64338">
        <ele>508.19</ele>
        <time>2011-09-10T13:05:35Z</time>
      </trkpt>
      <trkpt lat="45.29708" lon="4.64378">
        <ele>509.64</ele>
        <time>2011-09-10T13:05:47Z</time>
      </trkpt>
      <trkpt lat="45.29733" lon="4.64421">
        <ele>511.56</ele>
        <time>2011-09-10T13:06:01Z</time>
      </trkpt>
      <trkpt lat="45.29761" lon="4.64447">
        <ele>513</ele>
        <time>2011-09-10T13:06:13Z</time>
      </trkpt>
      <trkpt lat="45.2977" lon="4.64455">
        <ele>513.96</ele>
        <time>2011-09-10T13:06:17Z</time>
      </trkpt>
      <trkpt lat="45.29813" lon="4.64475">
        <ele>516.85</ele>
        <time>2011-09-10T13:06:33Z</time>
      </trkpt>
      <trkpt lat="45.29841" lon="4.64484">
        <ele>518.77</ele>
        <time>2011-09-10T13:06:46Z</time>
      </trkpt>
      <trkpt lat="45.29846" lon="4.64486">
        <ele>517.33</ele>
        <time>2011-09-10T13:06:55Z</time>
      </trkpt>
      <trkpt lat="45.2985" lon="4.64488">
        <ele>520.21</ele>
        <time>2011-09-10T13:07:05Z</time>
      </trkpt>
      <trkpt lat="45.2985" lon="4.64488">
        <ele>517.81</ele>
        <time>2011-09-10T13:07:36Z</time>
      </trkpt>
      <trkpt lat="45.2985" lon="4.64488">
        <ele>518.29</ele>
        <time>2011-09-10T13:08:08Z</time>
      </trkpt>
      <trkpt lat="45.29849" lon="4.64488">
        <ele>518.77</ele>
        <time>2011-09-10T13:08:41Z</time>
      </trkpt>
      <trkpt lat="45.29854" lon="4.64488">
        <ele>517.81</ele>
        <time>2011-09-10T13:08:48Z</time>
      </trkpt>
      <trkpt lat="45.29855" lon="4.64488">
        <ele>518.29</ele>
        <time>2011-09-10T13:08:49Z</time>
      </trkpt>
      <trkpt lat="45.29858" lon="4.64487">
        <ele>518.29</ele>
        <time>2011-09-10T13:08:50Z</time>
      </trkpt>
      <trkpt lat="45.2986" lon="4.64487">
        <ele>518.29</ele>
        <time>2011-09-10T13:08:51Z</time>
      </trkpt>
      <trkpt lat="45.29863" lon="4.64488">
        <ele>518.29</ele>
        <time>2011-09-10T13:08:52Z</time>
      </trkpt>
      <trkpt lat="45.29898" lon="4.64493">
        <ele>517.33</ele>
        <time>2011-09-10T13:09:05Z</time>
      </trkpt>
      <trkpt lat="45.2992" lon="4.64468">
        <ele>517.33</ele>
        <time>2011-09-10T13:09:16Z</time>
      </trkpt>
      <trkpt lat="45.29941" lon="4.64444">
        <ele>517.81</ele>
        <time>2011-09-10T13:09:28Z</time>
      </trkpt>
      <trkpt lat="45.29957" lon="4.64424">
        <ele>518.77</ele>
        <time>2011-09-10T13:09:42Z</time>
      </trkpt>
      <trkpt lat="45.29959" lon="4.64417">
        <ele>518.77</ele>
        <time>2011-09-10T13:09:58Z</time>
      </trkpt>
      <trkpt lat="45.29949" lon="4.64432">
        <ele>518.77</ele>
        <time>2011-09-10T13:10:05Z</time>
      </trkpt>
      <trkpt lat="45.2993" lon="4.64455">
        <ele>518.29</ele>
        <time>2011-09-10T13:10:14Z</time>
      </trkpt>
      <trkpt lat="45.29898" lon="4.6449">
        <ele>517.81</ele>
        <time>2011-09-10T13:10:25Z</time>
      </trkpt>
      <trkpt lat="45.29893" lon="4.64491">
        <ele>518.29</ele>
        <time>2011-09-10T13:10:26Z</time>
      </trkpt>
      <trkpt lat="45.29889" lon="4.64491">
        <ele>518.29</ele>
        <time>2011-09-10T13:10:27Z</time>
      </trkpt>
      <trkpt lat="45.2988" lon="4.64491">
        <ele>518.29</ele>
        <time>2011-09-10T13:10:29Z</time>
      </trkpt>
      <trkpt lat="45.29848" lon="4.64476">
        <ele>518.77</ele>
        <time>2011-09-10T13:10:40Z</time>
      </trkpt>
      <trkpt lat="45.29847" lon="4.64471">
        <ele>518.29</ele>
        <time>2011-09-10T13:10:41Z</time>
      </trkpt>
      <trkpt lat="45.29847" lon="4.64466">
        <ele>519.25</ele>
        <time>2011-09-10T13:10:42Z</time>
      </trkpt>
      <trkpt lat="45.29847" lon="4.64461">
        <ele>519.25</ele>
        <time>2011-09-10T13:10:43Z</time>
      </trkpt>
      <trkpt lat="45.29856" lon="4.64394">
        <ele>519.25</ele>
        <time>2011-09-10T13:11:00Z</time>
      </trkpt>
      <trkpt lat="45.29856" lon="4.64379">
        <ele>518.77</ele>
        <time>2011-09-10T13:11:10Z</time>
      </trkpt>
      <trkpt lat="45.29856" lon="4.64379">
        <ele>519.25</ele>
        <time>2011-09-10T13:11:28Z</time>
      </trkpt>
      <trkpt lat="45.29856" lon="4.64379">
        <ele>521.17</ele>
        <time>2011-09-10T13:11:35Z</time>
      </trkpt>
      <trkpt lat="45.29857" lon="4.64375">
        <ele>518.77</ele>
        <time>2011-09-10T13:11:55Z</time>
      </trkpt>
      <trkpt lat="45.29858" lon="4.64352">
        <ele>520.21</ele>
        <time>2011-09-10T13:12:01Z</time>
      </trkpt>
      <trkpt lat="45.29854" lon="4.64294">
        <ele>521.17</ele>
        <time>2011-09-10T13:12:13Z</time>
      </trkpt>
      <trkpt lat="45.29854" lon="4.6429">
        <ele>520.21</ele>
        <time>2011-09-10T13:12:14Z</time>
      </trkpt>
      <trkpt lat="45.29853" lon="4.64259">
        <ele>518.77</ele>
        <time>2011-09-10T13:12:21Z</time>
      </trkpt>
      <trkpt lat="45.29883" lon="4.64233">
        <ele>519.25</ele>
        <time>2011-09-10T13:12:33Z</time>
      </trkpt>
      <trkpt lat="45.29924" lon="4.64208">
        <ele>518.77</ele>
        <time>2011-09-10T13:12:47Z</time>
      </trkpt>
      <trkpt lat="45.29958" lon="4.64193">
        <ele>517.81</ele>
        <time>2011-09-10T13:12:57Z</time>
      </trkpt>
      <trkpt lat="45.3" lon="4.64172">
        <ele>518.29</ele>
        <time>2011-09-10T13:13:09Z</time>
      </trkpt>
      <trkpt lat="45.30004" lon="4.6416">
        <ele>517.81</ele>
        <time>2011-09-10T13:13:11Z</time>
      </trkpt>
      <trkpt lat="45.30004" lon="4.64155">
        <ele>517.81</ele>
        <time>2011-09-10T13:13:12Z</time>
      </trkpt>
      <trkpt lat="45.30004" lon="4.64151">
        <ele>518.29</ele>
        <time>2011-09-10T13:13:13Z</time>
      </trkpt>
      <trkpt lat="45.30003" lon="4.64146">
        <ele>518.29</ele>
        <time>2011-09-10T13:13:14Z</time>
      </trkpt>
      <trkpt lat="45.30001" lon="4.6414">
        <ele>518.77</ele>
        <time>2011-09-10T13:13:15Z</time>
      </trkpt>
      <trkpt lat="45.3" lon="4.64134">
        <ele>518.29</ele>
        <time>2011-09-10T13:13:16Z</time>
      </trkpt>
      <trkpt lat="45.3" lon="4.64074">
        <ele>517.81</ele>
        <time>2011-09-10T13:13:27Z</time>
      </trkpt>
      <trkpt lat="45.30016" lon="4.64008">
        <ele>517.81</ele>
        <time>2011-09-10T13:13:41Z</time>
      </trkpt>
      <trkpt lat="45.30038" lon="4.63985">
        <ele>520.21</ele>
        <time>2011-09-10T13:13:52Z</time>
      </trkpt>
      <trkpt lat="45.30075" lon="4.63968">
        <ele>522.13</ele>
        <time>2011-09-10T13:14:07Z</time>
      </trkpt>
      <trkpt lat="45.30096" lon="4.63956">
        <ele>524.54</ele>
        <time>2011-09-10T13:14:19Z</time>
      </trkpt>
      <trkpt lat="45.30097" lon="4.63956">
        <ele>525.02</ele>
        <time>2011-09-10T13:14:20Z</time>
      </trkpt>
      <trkpt lat="45.30099" lon="4.63955">
        <ele>525.5</ele>
        <time>2011-09-10T13:14:21Z</time>
      </trkpt>
      <trkpt lat="45.301" lon="4.63954">
        <ele>525.5</ele>
        <time>2011-09-10T13:14:22Z</time>
      </trkpt>
      <trkpt lat="45.30102" lon="4.63954">
        <ele>525.5</ele>
        <time>2011-09-10T13:14:23Z</time>
      </trkpt>
      <trkpt lat="45.30103" lon="4.63954">
        <ele>525.98</ele>
        <time>2011-09-10T13:14:24Z</time>
      </trkpt>
      <trkpt lat="45.30105" lon="4.63954">
        <ele>525.98</ele>
        <time>2011-09-10T13:14:25Z</time>
      </trkpt>
      <trkpt lat="45.30127" lon="4.63956">
        <ele>529.34</ele>
        <time>2011-09-10T13:14:40Z</time>
      </trkpt>
      <trkpt lat="45.30149" lon="4.63957">
        <ele>532.23</ele>
        <time>2011-09-10T13:14:54Z</time>
      </trkpt>
      <trkpt lat="45.30175" lon="4.63949">
        <ele>533.19</ele>
        <time>2011-09-10T13:15:09Z</time>
      </trkpt>
      <trkpt lat="45.302" lon="4.6393">
        <ele>535.59</ele>
        <time>2011-09-10T13:15:25Z</time>
      </trkpt>
      <trkpt lat="45.30207" lon="4.63903">
        <ele>536.07</ele>
        <time>2011-09-10T13:15:38Z</time>
      </trkpt>
      <trkpt lat="45.30206" lon="4.63904">
        <ele>536.55</ele>
        <time>2011-09-10T13:15:48Z</time>
      </trkpt>
      <trkpt lat="45.30205" lon="4.63906">
        <ele>536.55</ele>
        <time>2011-09-10T13:16:02Z</time>
      </trkpt>
      <trkpt lat="45.30205" lon="4.63906">
        <ele>537.03</ele>
        <time>2011-09-10T13:16:17Z</time>
      </trkpt>
      <trkpt lat="45.30205" lon="4.63906">
        <ele>536.55</ele>
        <time>2011-09-10T13:16:46Z</time>
      </trkpt>
      <trkpt lat="45.30205" lon="4.63906">
        <ele>536.55</ele>
        <time>2011-09-10T13:17:16Z</time>
      </trkpt>
      <trkpt lat="45.30205" lon="4.63906">
        <ele>536.55</ele>
        <time>2011-09-10T13:17:45Z</time>
      </trkpt>
      <trkpt lat="45.30205" lon="4.63906">
        <ele>536.07</ele>
        <time>2011-09-10T13:18:15Z</time>
      </trkpt>
      <trkpt lat="45.30207" lon="4.63904">
        <ele>536.55</ele>
        <time>2011-09-10T13:18:36Z</time>
      </trkpt>
      <trkpt lat="45.30207" lon="4.63904">
        <ele>536.55</ele>
        <time>2011-09-10T13:18:38Z</time>
      </trkpt>
      <trkpt lat="45.30206" lon="4.63899">
        <ele>536.55</ele>
        <time>2011-09-10T13:18:40Z</time>
      </trkpt>
      <trkpt lat="45.30205" lon="4.63897">
        <ele>537.51</ele>
        <time>2011-09-10T13:18:41Z</time>
      </trkpt>
      <trkpt lat="45.30204" lon="4.63894">
        <ele>537.03</ele>
        <time>2011-09-10T13:18:42Z</time>
      </trkpt>
      <trkpt lat="45.30203" lon="4.63892">
        <ele>537.03</ele>
        <time>2011-09-10T13:18:43Z</time>
      </trkpt>
      <trkpt lat="45.30201" lon="4.63889">
        <ele>537.03</ele>
        <time>2011-09-10T13:18:44Z</time>
      </trkpt>
      <trkpt lat="45.30187" lon="4.63853">
        <ele>537.99</ele>
        <time>2011-09-10T13:18:59Z</time>
      </trkpt>
      <trkpt lat="45.30163" lon="4.63828">
        <ele>537.99</ele>
        <time>2011-09-10T13:19:15Z</time>
      </trkpt>
      <trkpt lat="45.30137" lon="4.63796">
        <ele>540.4</ele>
        <time>2011-09-10T13:19:33Z</time>
      </trkpt>
      <trkpt lat="45.30131" lon="4.6379">
        <ele>541.36</ele>
        <time>2011-09-10T13:19:37Z</time>
      </trkpt>
      <trkpt lat="45.30129" lon="4.63789">
        <ele>540.88</ele>
        <time>2011-09-10T13:19:38Z</time>
      </trkpt>
      <trkpt lat="45.30092" lon="4.63794">
        <ele>541.36</ele>
        <time>2011-09-10T13:19:51Z</time>
      </trkpt>
      <trkpt lat="45.30047" lon="4.63798">
        <ele>542.32</ele>
        <time>2011-09-10T13:20:06Z</time>
      </trkpt>
      <trkpt lat="45.30002" lon="4.63808">
        <ele>542.8</ele>
        <time>2011-09-10T13:20:21Z</time>
      </trkpt>
      <trkpt lat="45.29967" lon="4.63814">
        <ele>545.2</ele>
        <time>2011-09-10T13:20:33Z</time>
      </trkpt>
      <trkpt lat="45.29946" lon="4.63812">
        <ele>545.2</ele>
        <time>2011-09-10T13:20:41Z</time>
      </trkpt>
      <trkpt lat="45.29896" lon="4.63808">
        <ele>546.17</ele>
        <time>2011-09-10T13:20:58Z</time>
      </trkpt>
      <trkpt lat="45.29843" lon="4.63796">
        <ele>545.2</ele>
        <time>2011-09-10T13:21:14Z</time>
      </trkpt>
      <trkpt lat="45.29829" lon="4.6379">
        <ele>544.24</ele>
        <time>2011-09-10T13:21:18Z</time>
      </trkpt>
      <trkpt lat="45.29776" lon="4.63764">
        <ele>543.76</ele>
        <time>2011-09-10T13:21:33Z</time>
      </trkpt>
      <trkpt lat="45.29728" lon="4.63741">
        <ele>542.8</ele>
        <time>2011-09-10T13:21:46Z</time>
      </trkpt>
      <trkpt lat="45.29686" lon="4.63738">
        <ele>543.28</ele>
        <time>2011-09-10T13:21:59Z</time>
      </trkpt>
      <trkpt lat="45.2967" lon="4.63751">
        <ele>544.72</ele>
        <time>2011-09-10T13:22:07Z</time>
      </trkpt>
      <trkpt lat="45.29642" lon="4.63775">
        <ele>547.13</ele>
        <time>2011-09-10T13:22:20Z</time>
      </trkpt>
      <trkpt lat="45.29619" lon="4.6379">
        <ele>547.61</ele>
        <time>2011-09-10T13:22:33Z</time>
      </trkpt>
      <trkpt lat="45.29595" lon="4.63804">
        <ele>548.57</ele>
        <time>2011-09-10T13:22:46Z</time>
      </trkpt>
      <trkpt lat="45.29571" lon="4.6382">
        <ele>549.53</ele>
        <time>2011-09-10T13:22:58Z</time>
      </trkpt>
      <trkpt lat="45.29544" lon="4.63833">
        <ele>550.97</ele>
        <time>2011-09-10T13:23:11Z</time>
      </trkpt>
      <trkpt lat="45.29523" lon="4.63842">
        <ele>551.93</ele>
        <time>2011-09-10T13:23:22Z</time>
      </trkpt>
      <trkpt lat="45.29502" lon="4.63857">
        <ele>552.9</ele>
        <time>2011-09-10T13:23:33Z</time>
      </trkpt>
      <trkpt lat="45.29472" lon="4.63883">
        <ele>551.93</ele>
        <time>2011-09-10T13:23:45Z</time>
      </trkpt>
      <trkpt lat="45.29436" lon="4.63906">
        <ele>548.57</ele>
        <time>2011-09-10T13:23:58Z</time>
      </trkpt>
      <trkpt lat="45.29423" lon="4.63912">
        <ele>547.61</ele>
        <time>2011-09-10T13:24:02Z</time>
      </trkpt>
      <trkpt lat="45.29394" lon="4.63922">
        <ele>543.76</ele>
        <time>2011-09-10T13:24:11Z</time>
      </trkpt>
      <trkpt lat="45.29373" lon="4.63911">
        <ele>541.84</ele>
        <time>2011-09-10T13:24:18Z</time>
      </trkpt>
      <trkpt lat="45.29371" lon="4.63909">
        <ele>541.36</ele>
        <time>2011-09-10T13:24:19Z</time>
      </trkpt>
      <trkpt lat="45.2935" lon="4.63889">
        <ele>537.99</ele>
        <time>2011-09-10T13:24:27Z</time>
      </trkpt>
      <trkpt lat="45.29339" lon="4.63879">
        <ele>536.55</ele>
        <time>2011-09-10T13:24:30Z</time>
      </trkpt>
      <trkpt lat="45.29335" lon="4.63876">
        <ele>536.07</ele>
        <time>2011-09-10T13:24:31Z</time>
      </trkpt>
      <trkpt lat="45.29323" lon="4.63864">
        <ele>533.67</ele>
        <time>2011-09-10T13:24:35Z</time>
      </trkpt>
      <trkpt lat="45.2932" lon="4.63861">
        <ele>533.19</ele>
        <time>2011-09-10T13:24:36Z</time>
      </trkpt>
      <trkpt lat="45.29304" lon="4.63839">
        <ele>531.27</ele>
        <time>2011-09-10T13:24:42Z</time>
      </trkpt>
      <trkpt lat="45.29284" lon="4.63821">
        <ele>528.38</ele>
        <time>2011-09-10T13:24:49Z</time>
      </trkpt>
      <trkpt lat="45.29275" lon="4.63811">
        <ele>526.94</ele>
        <time>2011-09-10T13:24:53Z</time>
      </trkpt>
      <trkpt lat="45.2926" lon="4.63798">
        <ele>525.98</ele>
        <time>2011-09-10T13:24:58Z</time>
      </trkpt>
      <trkpt lat="45.29252" lon="4.6379">
        <ele>524.54</ele>
        <time>2011-09-10T13:25:01Z</time>
      </trkpt>
      <trkpt lat="45.29234" lon="4.63776">
        <ele>522.13</ele>
        <time>2011-09-10T13:25:07Z</time>
      </trkpt>
      <trkpt lat="45.29214" lon="4.63763">
        <ele>519.73</ele>
        <time>2011-09-10T13:25:13Z</time>
      </trkpt>
      <trkpt lat="45.2919" lon="4.63747">
        <ele>516.37</ele>
        <time>2011-09-10T13:25:20Z</time>
      </trkpt>
      <trkpt lat="45.29181" lon="4.6374">
        <ele>514.92</ele>
        <time>2011-09-10T13:25:23Z</time>
      </trkpt>
      <trkpt lat="45.29157" lon="4.63726">
        <ele>511.56</ele>
        <time>2011-09-10T13:25:31Z</time>
      </trkpt>
      <trkpt lat="45.29153" lon="4.63724">
        <ele>511.56</ele>
        <time>2011-09-10T13:25:32Z</time>
      </trkpt>
      <trkpt lat="45.2913" lon="4.63709">
        <ele>508.67</ele>
        <time>2011-09-10T13:25:38Z</time>
      </trkpt>
      <trkpt lat="45.29106" lon="4.63689">
        <ele>505.31</ele>
        <time>2011-09-10T13:25:45Z</time>
      </trkpt>
      <trkpt lat="45.29104" lon="4.63687">
        <ele>505.79</ele>
        <time>2011-09-10T13:25:46Z</time>
      </trkpt>
      <trkpt lat="45.29103" lon="4.63684">
        <ele>505.31</ele>
        <time>2011-09-10T13:25:47Z</time>
      </trkpt>
      <trkpt lat="45.29101" lon="4.63681">
        <ele>504.83</ele>
        <time>2011-09-10T13:25:48Z</time>
      </trkpt>
      <trkpt lat="45.29099" lon="4.63677">
        <ele>503.87</ele>
        <time>2011-09-10T13:25:49Z</time>
      </trkpt>
      <trkpt lat="45.29096" lon="4.63673">
        <ele>503.87</ele>
        <time>2011-09-10T13:25:50Z</time>
      </trkpt>
      <trkpt lat="45.29094" lon="4.63671">
        <ele>503.87</ele>
        <time>2011-09-10T13:25:51Z</time>
      </trkpt>
      <trkpt lat="45.29092" lon="4.63669">
        <ele>503.87</ele>
        <time>2011-09-10T13:25:52Z</time>
      </trkpt>
      <trkpt lat="45.2909" lon="4.63667">
        <ele>503.87</ele>
        <time>2011-09-10T13:25:53Z</time>
      </trkpt>
      <trkpt lat="45.29082" lon="4.63659">
        <ele>501.95</ele>
        <time>2011-09-10T13:25:56Z</time>
      </trkpt>
      <trkpt lat="45.29056" lon="4.63646">
        <ele>499.54</ele>
        <time>2011-09-10T13:26:04Z</time>
      </trkpt>
      <trkpt lat="45.29029" lon="4.63626">
        <ele>496.18</ele>
        <time>2011-09-10T13:26:14Z</time>
      </trkpt>
      <trkpt lat="45.29017" lon="4.63619">
        <ele>495.22</ele>
        <time>2011-09-10T13:26:17Z</time>
      </trkpt>
      <trkpt lat="45.29012" lon="4.63616">
        <ele>494.74</ele>
        <time>2011-09-10T13:26:18Z</time>
      </trkpt>
      <trkpt lat="45.29004" lon="4.63612">
        <ele>493.29</ele>
        <time>2011-09-10T13:26:20Z</time>
      </trkpt>
      <trkpt lat="45.28994" lon="4.6361">
        <ele>491.85</ele>
        <time>2011-09-10T13:26:30Z</time>
      </trkpt>
      <trkpt lat="45.28995" lon="4.63608">
        <ele>492.33</ele>
        <time>2011-09-10T13:26:32Z</time>
      </trkpt>
      <trkpt lat="45.28995" lon="4.63607">
        <ele>492.33</ele>
        <time>2011-09-10T13:26:33Z</time>
      </trkpt>
      <trkpt lat="45.28992" lon="4.63606">
        <ele>492.33</ele>
        <time>2011-09-10T13:26:36Z</time>
      </trkpt>
      <trkpt lat="45.28989" lon="4.63606">
        <ele>491.85</ele>
        <time>2011-09-10T13:26:37Z</time>
      </trkpt>
      <trkpt lat="45.28982" lon="4.63602">
        <ele>491.37</ele>
        <time>2011-09-10T13:26:39Z</time>
      </trkpt>
      <trkpt lat="45.28975" lon="4.63599">
        <ele>489.93</ele>
        <time>2011-09-10T13:26:41Z</time>
      </trkpt>
      <trkpt lat="45.28968" lon="4.63597">
        <ele>488.97</ele>
        <time>2011-09-10T13:26:43Z</time>
      </trkpt>
      <trkpt lat="45.28964" lon="4.63597">
        <ele>488.97</ele>
        <time>2011-09-10T13:26:44Z</time>
      </trkpt>
      <trkpt lat="45.28947" lon="4.63592">
        <ele>487.05</ele>
        <time>2011-09-10T13:26:48Z</time>
      </trkpt>
      <trkpt lat="45.2894" lon="4.63592">
        <ele>486.56</ele>
        <time>2011-09-10T13:26:50Z</time>
      </trkpt>
      <trkpt lat="45.28936" lon="4.63591">
        <ele>486.56</ele>
        <time>2011-09-10T13:26:51Z</time>
      </trkpt>
      <trkpt lat="45.28932" lon="4.6359">
        <ele>485.6</ele>
        <time>2011-09-10T13:26:52Z</time>
      </trkpt>
      <trkpt lat="45.28907" lon="4.63587">
        <ele>484.64</ele>
        <time>2011-09-10T13:26:57Z</time>
      </trkpt>
      <trkpt lat="45.28841" lon="4.6357">
        <ele>481.76</ele>
        <time>2011-09-10T13:27:08Z</time>
      </trkpt>
      <trkpt lat="45.28831" lon="4.63569">
        <ele>480.32</ele>
        <time>2011-09-10T13:27:10Z</time>
      </trkpt>
      <trkpt lat="45.28826" lon="4.63567">
        <ele>480.32</ele>
        <time>2011-09-10T13:27:11Z</time>
      </trkpt>
      <trkpt lat="45.28821" lon="4.63565">
        <ele>480.32</ele>
        <time>2011-09-10T13:27:12Z</time>
      </trkpt>
      <trkpt lat="45.28781" lon="4.63553">
        <ele>479.35</ele>
        <time>2011-09-10T13:27:23Z</time>
      </trkpt>
      <trkpt lat="45.28735" lon="4.63546">
        <ele>477.43</ele>
        <time>2011-09-10T13:27:36Z</time>
      </trkpt>
      <trkpt lat="45.28713" lon="4.63539">
        <ele>476.47</ele>
        <time>2011-09-10T13:27:42Z</time>
      </trkpt>
      <trkpt lat="45.28688" lon="4.63529">
        <ele>474.55</ele>
        <time>2011-09-10T13:27:51Z</time>
      </trkpt>
      <trkpt lat="45.28679" lon="4.63525">
        <ele>474.07</ele>
        <time>2011-09-10T13:27:53Z</time>
      </trkpt>
      <trkpt lat="45.28674" lon="4.63524">
        <ele>473.59</ele>
        <time>2011-09-10T13:27:54Z</time>
      </trkpt>
      <trkpt lat="45.28669" lon="4.63524">
        <ele>473.11</ele>
        <time>2011-09-10T13:27:55Z</time>
      </trkpt>
      <trkpt lat="45.28664" lon="4.63523">
        <ele>473.59</ele>
        <time>2011-09-10T13:27:56Z</time>
      </trkpt>
      <trkpt lat="45.28658" lon="4.63522">
        <ele>473.11</ele>
        <time>2011-09-10T13:27:57Z</time>
      </trkpt>
      <trkpt lat="45.28653" lon="4.63519">
        <ele>473.11</ele>
        <time>2011-09-10T13:27:58Z</time>
      </trkpt>
      <trkpt lat="45.28648" lon="4.63516">
        <ele>472.63</ele>
        <time>2011-09-10T13:27:59Z</time>
      </trkpt>
      <trkpt lat="45.28642" lon="4.63515">
        <ele>472.14</ele>
        <time>2011-09-10T13:28:00Z</time>
      </trkpt>
      <trkpt lat="45.28635" lon="4.63513">
        <ele>471.66</ele>
        <time>2011-09-10T13:28:01Z</time>
      </trkpt>
      <trkpt lat="45.28629" lon="4.63511">
        <ele>471.66</ele>
        <time>2011-09-10T13:28:02Z</time>
      </trkpt>
      <trkpt lat="45.28587" lon="4.63501">
        <ele>468.3</ele>
        <time>2011-09-10T13:28:08Z</time>
      </trkpt>
      <trkpt lat="45.28541" lon="4.63484">
        <ele>464.45</ele>
        <time>2011-09-10T13:28:14Z</time>
      </trkpt>
      <trkpt lat="45.28505" lon="4.63467">
        <ele>462.05</ele>
        <time>2011-09-10T13:28:18Z</time>
      </trkpt>
      <trkpt lat="45.28489" lon="4.63459">
        <ele>458.69</ele>
        <time>2011-09-10T13:28:20Z</time>
      </trkpt>
      <trkpt lat="45.28464" lon="4.63448">
        <ele>457.24</ele>
        <time>2011-09-10T13:28:23Z</time>
      </trkpt>
      <trkpt lat="45.28432" lon="4.63434">
        <ele>453.88</ele>
        <time>2011-09-10T13:28:27Z</time>
      </trkpt>
      <trkpt lat="45.28411" lon="4.63425">
        <ele>450.03</ele>
        <time>2011-09-10T13:28:30Z</time>
      </trkpt>
      <trkpt lat="45.28393" lon="4.63415">
        <ele>447.15</ele>
        <time>2011-09-10T13:28:35Z</time>
      </trkpt>
      <trkpt lat="45.28388" lon="4.63413">
        <ele>446.67</ele>
        <time>2011-09-10T13:28:37Z</time>
      </trkpt>
      <trkpt lat="45.28384" lon="4.63414">
        <ele>446.67</ele>
        <time>2011-09-10T13:28:38Z</time>
      </trkpt>
      <trkpt lat="45.2838" lon="4.63415">
        <ele>446.67</ele>
        <time>2011-09-10T13:28:39Z</time>
      </trkpt>
      <trkpt lat="45.28371" lon="4.6342">
        <ele>447.15</ele>
        <time>2011-09-10T13:28:41Z</time>
      </trkpt>
      <trkpt lat="45.28366" lon="4.63424">
        <ele>446.19</ele>
        <time>2011-09-10T13:28:42Z</time>
      </trkpt>
      <trkpt lat="45.28361" lon="4.63429">
        <ele>443.31</ele>
        <time>2011-09-10T13:28:43Z</time>
      </trkpt>
      <trkpt lat="45.28357" lon="4.63434">
        <ele>444.27</ele>
        <time>2011-09-10T13:28:44Z</time>
      </trkpt>
      <trkpt lat="45.28352" lon="4.6344">
        <ele>443.79</ele>
        <time>2011-09-10T13:28:45Z</time>
      </trkpt>
      <trkpt lat="45.28347" lon="4.63445">
        <ele>443.31</ele>
        <time>2011-09-10T13:28:46Z</time>
      </trkpt>
      <trkpt lat="45.28342" lon="4.63449">
        <ele>443.31</ele>
        <time>2011-09-10T13:28:47Z</time>
      </trkpt>
      <trkpt lat="45.28337" lon="4.63451">
        <ele>442.34</ele>
        <time>2011-09-10T13:28:48Z</time>
      </trkpt>
      <trkpt lat="45.28332" lon="4.6345">
        <ele>441.86</ele>
        <time>2011-09-10T13:28:49Z</time>
      </trkpt>
      <trkpt lat="45.28327" lon="4.63448">
        <ele>440.42</ele>
        <time>2011-09-10T13:28:50Z</time>
      </trkpt>
      <trkpt lat="45.28324" lon="4.63444">
        <ele>440.42</ele>
        <time>2011-09-10T13:28:51Z</time>
      </trkpt>
      <trkpt lat="45.28321" lon="4.63439">
        <ele>439.94</ele>
        <time>2011-09-10T13:28:52Z</time>
      </trkpt>
      <trkpt lat="45.28318" lon="4.63434">
        <ele>438.98</ele>
        <time>2011-09-10T13:28:53Z</time>
      </trkpt>
      <trkpt lat="45.28316" lon="4.63429">
        <ele>438.5</ele>
        <time>2011-09-10T13:28:54Z</time>
      </trkpt>
      <trkpt lat="45.2831" lon="4.63411">
        <ele>435.61</ele>
        <time>2011-09-10T13:28:59Z</time>
      </trkpt>
      <trkpt lat="45.2831" lon="4.63411">
        <ele>436.1</ele>
        <time>2011-09-10T13:29:17Z</time>
      </trkpt>
      <trkpt lat="45.28309" lon="4.6341">
        <ele>436.58</ele>
        <time>2011-09-10T13:29:18Z</time>
      </trkpt>
      <trkpt lat="45.28309" lon="4.63406">
        <ele>436.1</ele>
        <time>2011-09-10T13:29:19Z</time>
      </trkpt>
      <trkpt lat="45.28311" lon="4.63402">
        <ele>436.58</ele>
        <time>2011-09-10T13:29:20Z</time>
      </trkpt>
      <trkpt lat="45.28313" lon="4.63398">
        <ele>436.58</ele>
        <time>2011-09-10T13:29:21Z</time>
      </trkpt>
      <trkpt lat="45.28315" lon="4.63392">
        <ele>437.06</ele>
        <time>2011-09-10T13:29:22Z</time>
      </trkpt>
      <trkpt lat="45.28329" lon="4.63358">
        <ele>437.06</ele>
        <time>2011-09-10T13:29:27Z</time>
      </trkpt>
      <trkpt lat="45.2837" lon="4.63249">
        <ele>438.02</ele>
        <time>2011-09-10T13:29:42Z</time>
      </trkpt>
      <trkpt lat="45.28372" lon="4.63242">
        <ele>437.54</ele>
        <time>2011-09-10T13:29:43Z</time>
      </trkpt>
      <trkpt lat="45.28376" lon="4.63236">
        <ele>438.02</ele>
        <time>2011-09-10T13:29:44Z</time>
      </trkpt>
      <trkpt lat="45.28379" lon="4.63229">
        <ele>438.02</ele>
        <time>2011-09-10T13:29:45Z</time>
      </trkpt>
      <trkpt lat="45.28383" lon="4.63224">
        <ele>438.02</ele>
        <time>2011-09-10T13:29:46Z</time>
      </trkpt>
      <trkpt lat="45.28387" lon="4.63219">
        <ele>438.02</ele>
        <time>2011-09-10T13:29:47Z</time>
      </trkpt>
      <trkpt lat="45.28391" lon="4.63214">
        <ele>438.02</ele>
        <time>2011-09-10T13:29:48Z</time>
      </trkpt>
      <trkpt lat="45.28396" lon="4.63209">
        <ele>438.02</ele>
        <time>2011-09-10T13:29:49Z</time>
      </trkpt>
      <trkpt lat="45.28409" lon="4.63199">
        <ele>437.54</ele>
        <time>2011-09-10T13:29:52Z</time>
      </trkpt>
      <trkpt lat="45.2844" lon="4.63172">
        <ele>438.5</ele>
        <time>2011-09-10T13:30:02Z</time>
      </trkpt>
      <trkpt lat="45.28436" lon="4.63163">
        <ele>437.06</ele>
        <time>2011-09-10T13:30:11Z</time>
      </trkpt>
      <trkpt lat="45.28436" lon="4.63162">
        <ele>438.02</ele>
        <time>2011-09-10T13:30:28Z</time>
      </trkpt>
      <trkpt lat="45.28436" lon="4.63162">
        <ele>437.54</ele>
        <time>2011-09-10T13:30:53Z</time>
      </trkpt>
      <trkpt lat="45.28436" lon="4.63161">
        <ele>437.54</ele>
        <time>2011-09-10T13:31:19Z</time>
      </trkpt>
      <trkpt lat="45.28436" lon="4.63161">
        <ele>437.54</ele>
        <time>2011-09-10T13:31:44Z</time>
      </trkpt>
      <trkpt lat="45.28436" lon="4.63161">
        <ele>437.06</ele>
        <time>2011-09-10T13:32:14Z</time>
      </trkpt>
      <trkpt lat="45.28436" lon="4.63161">
        <ele>437.06</ele>
        <time>2011-09-10T13:32:41Z</time>
      </trkpt>
      <trkpt lat="45.28443" lon="4.63164">
        <ele>437.06</ele>
        <time>2011-09-10T13:32:48Z</time>
      </trkpt>
      <trkpt lat="45.28481" lon="4.63148">
        <ele>437.06</ele>
        <time>2011-09-10T13:32:59Z</time>
      </trkpt>
      <trkpt lat="45.28528" lon="4.63114">
        <ele>438.02</ele>
        <time>2011-09-10T13:33:12Z</time>
      </trkpt>
      <trkpt lat="45.28527" lon="4.63111">
        <ele>436.1</ele>
        <time>2011-09-10T13:33:13Z</time>
      </trkpt>
      <trkpt lat="45.28526" lon="4.63108">
        <ele>438.5</ele>
        <time>2011-09-10T13:33:14Z</time>
      </trkpt>
      <trkpt lat="45.28525" lon="4.63106">
        <ele>438.5</ele>
        <time>2011-09-10T13:33:15Z</time>
      </trkpt>
      <trkpt lat="45.28524" lon="4.63104">
        <ele>438.02</ele>
        <time>2011-09-10T13:33:16Z</time>
      </trkpt>
      <trkpt lat="45.28522" lon="4.63101">
        <ele>438.5</ele>
        <time>2011-09-10T13:33:17Z</time>
      </trkpt>
      <trkpt lat="45.28521" lon="4.63099">
        <ele>438.02</ele>
        <time>2011-09-10T13:33:18Z</time>
      </trkpt>
      <trkpt lat="45.2852" lon="4.63095">
        <ele>438.5</ele>
        <time>2011-09-10T13:33:19Z</time>
      </trkpt>
      <trkpt lat="45.2852" lon="4.63092">
        <ele>438.02</ele>
        <time>2011-09-10T13:33:20Z</time>
      </trkpt>
      <trkpt lat="45.28519" lon="4.63089">
        <ele>438.98</ele>
        <time>2011-09-10T13:33:21Z</time>
      </trkpt>
      <trkpt lat="45.28519" lon="4.63085">
        <ele>438.5</ele>
        <time>2011-09-10T13:33:22Z</time>
      </trkpt>
      <trkpt lat="45.2851" lon="4.63024">
        <ele>438.02</ele>
        <time>2011-09-10T13:33:33Z</time>
      </trkpt>
      <trkpt lat="45.28509" lon="4.62992">
        <ele>437.54</ele>
        <time>2011-09-10T13:33:38Z</time>
      </trkpt>
      <trkpt lat="45.28509" lon="4.62986">
        <ele>437.54</ele>
        <time>2011-09-10T13:33:39Z</time>
      </trkpt>
      <trkpt lat="45.2851" lon="4.62928">
        <ele>437.54</ele>
        <time>2011-09-10T13:33:49Z</time>
      </trkpt>
      <trkpt lat="45.28511" lon="4.62922">
        <ele>437.54</ele>
        <time>2011-09-10T13:33:50Z</time>
      </trkpt>
      <trkpt lat="45.28512" lon="4.62903">
        <ele>438.02</ele>
        <time>2011-09-10T13:33:53Z</time>
      </trkpt>
      <trkpt lat="45.28515" lon="4.62826">
        <ele>440.9</ele>
        <time>2011-09-10T13:34:08Z</time>
      </trkpt>
      <trkpt lat="45.28516" lon="4.62777">
        <ele>443.31</ele>
        <time>2011-09-10T13:34:21Z</time>
      </trkpt>
      <trkpt lat="45.28519" lon="4.6275">
        <ele>444.75</ele>
        <time>2011-09-10T13:34:30Z</time>
      </trkpt>
      <trkpt lat="45.28521" lon="4.62748">
        <ele>444.75</ele>
        <time>2011-09-10T13:34:31Z</time>
      </trkpt>
      <trkpt lat="45.28523" lon="4.62747">
        <ele>444.75</ele>
        <time>2011-09-10T13:34:32Z</time>
      </trkpt>
      <trkpt lat="45.28524" lon="4.62745">
        <ele>444.75</ele>
        <time>2011-09-10T13:34:33Z</time>
      </trkpt>
      <trkpt lat="45.28525" lon="4.62743">
        <ele>445.23</ele>
        <time>2011-09-10T13:34:34Z</time>
      </trkpt>
      <trkpt lat="45.28525" lon="4.62741">
        <ele>445.23</ele>
        <time>2011-09-10T13:34:35Z</time>
      </trkpt>
      <trkpt lat="45.28545" lon="4.62736">
        <ele>447.63</ele>
        <time>2011-09-10T13:34:49Z</time>
      </trkpt>
      <trkpt lat="45.28549" lon="4.62733">
        <ele>448.11</ele>
        <time>2011-09-10T13:34:52Z</time>
      </trkpt>
      <trkpt lat="45.28549" lon="4.62731">
        <ele>448.59</ele>
        <time>2011-09-10T13:34:53Z</time>
      </trkpt>
      <trkpt lat="45.2855" lon="4.62728">
        <ele>448.59</ele>
        <time>2011-09-10T13:34:54Z</time>
      </trkpt>
      <trkpt lat="45.2855" lon="4.62687">
        <ele>451.48</ele>
        <time>2011-09-10T13:35:11Z</time>
      </trkpt>
      <trkpt lat="45.28551" lon="4.62685">
        <ele>451.48</ele>
        <time>2011-09-10T13:35:12Z</time>
      </trkpt>
      <trkpt lat="45.28549" lon="4.62682">
        <ele>451</ele>
        <time>2011-09-10T13:35:17Z</time>
      </trkpt>
      <trkpt lat="45.28549" lon="4.62684">
        <ele>451</ele>
        <time>2011-09-10T13:35:18Z</time>
      </trkpt>
      <trkpt lat="45.2855" lon="4.62686">
        <ele>450.52</ele>
        <time>2011-09-10T13:35:19Z</time>
      </trkpt>
      <trkpt lat="45.28552" lon="4.62687">
        <ele>451</ele>
        <time>2011-09-10T13:35:20Z</time>
      </trkpt>
      <trkpt lat="45.28553" lon="4.62688">
        <ele>450.52</ele>
        <time>2011-09-10T13:35:21Z</time>
      </trkpt>
      <trkpt lat="45.28555" lon="4.62689">
        <ele>451</ele>
        <time>2011-09-10T13:35:22Z</time>
      </trkpt>
      <trkpt lat="45.28557" lon="4.62689">
        <ele>451</ele>
        <time>2011-09-10T13:35:23Z</time>
      </trkpt>
      <trkpt lat="45.28558" lon="4.62691">
        <ele>451.96</ele>
        <time>2011-09-10T13:35:25Z</time>
      </trkpt>
      <trkpt lat="45.28559" lon="4.62692">
        <ele>451.48</ele>
        <time>2011-09-10T13:35:26Z</time>
      </trkpt>
      <trkpt lat="45.28562" lon="4.627">
        <ele>451</ele>
        <time>2011-09-10T13:35:38Z</time>
      </trkpt>
      <trkpt lat="45.28562" lon="4.627">
        <ele>451.48</ele>
        <time>2011-09-10T13:35:59Z</time>
      </trkpt>
      <trkpt lat="45.28562" lon="4.627">
        <ele>451.48</ele>
        <time>2011-09-10T13:36:28Z</time>
      </trkpt>
      <trkpt lat="45.28563" lon="4.627">
        <ele>451</ele>
        <time>2011-09-10T13:37:01Z</time>
      </trkpt>
      <trkpt lat="45.28562" lon="4.627">
        <ele>450.52</ele>
        <time>2011-09-10T13:37:36Z</time>
      </trkpt>
      <trkpt lat="45.28562" lon="4.627">
        <ele>450.52</ele>
        <time>2011-09-10T13:38:06Z</time>
      </trkpt>
      <trkpt lat="45.28562" lon="4.62699">
        <ele>450.03</ele>
        <time>2011-09-10T13:38:32Z</time>
      </trkpt>
      <trkpt lat="45.28562" lon="4.62699">
        <ele>450.03</ele>
        <time>2011-09-10T13:38:56Z</time>
      </trkpt>
      <trkpt lat="45.28562" lon="4.62699">
        <ele>449.55</ele>
        <time>2011-09-10T13:39:21Z</time>
      </trkpt>
      <trkpt lat="45.28563" lon="4.62699">
        <ele>450.03</ele>
        <time>2011-09-10T13:39:45Z</time>
      </trkpt>
      <trkpt lat="45.28563" lon="4.62699">
        <ele>449.55</ele>
        <time>2011-09-10T13:40:11Z</time>
      </trkpt>
      <trkpt lat="45.28564" lon="4.62699">
        <ele>448.11</ele>
        <time>2011-09-10T13:40:39Z</time>
      </trkpt>
      <trkpt lat="45.28564" lon="4.62697">
        <ele>449.55</ele>
        <time>2011-09-10T13:40:51Z</time>
      </trkpt>
      <trkpt lat="45.28561" lon="4.62685">
        <ele>449.07</ele>
        <time>2011-09-10T13:40:56Z</time>
      </trkpt>
      <trkpt lat="45.28561" lon="4.62681">
        <ele>449.55</ele>
        <time>2011-09-10T13:40:57Z</time>
      </trkpt>
      <trkpt lat="45.28561" lon="4.62678">
        <ele>450.52</ele>
        <time>2011-09-10T13:40:58Z</time>
      </trkpt>
      <trkpt lat="45.28561" lon="4.62675">
        <ele>451.48</ele>
        <time>2011-09-10T13:40:59Z</time>
      </trkpt>
      <trkpt lat="45.28562" lon="4.62673">
        <ele>451.96</ele>
        <time>2011-09-10T13:41:00Z</time>
      </trkpt>
      <trkpt lat="45.28562" lon="4.62672">
        <ele>452.44</ele>
        <time>2011-09-10T13:41:01Z</time>
      </trkpt>
      <trkpt lat="45.28562" lon="4.6267">
        <ele>452.44</ele>
        <time>2011-09-10T13:41:02Z</time>
      </trkpt>
      <trkpt lat="45.28563" lon="4.62669">
        <ele>452.92</ele>
        <time>2011-09-10T13:41:03Z</time>
      </trkpt>
      <trkpt lat="45.28564" lon="4.62667">
        <ele>453.4</ele>
        <time>2011-09-10T13:41:04Z</time>
      </trkpt>
      <trkpt lat="45.28565" lon="4.62666">
        <ele>453.88</ele>
        <time>2011-09-10T13:41:05Z</time>
      </trkpt>
      <trkpt lat="45.28566" lon="4.62666">
        <ele>453.88</ele>
        <time>2011-09-10T13:41:06Z</time>
      </trkpt>
      <trkpt lat="45.28568" lon="4.62665">
        <ele>453.88</ele>
        <time>2011-09-10T13:41:07Z</time>
      </trkpt>
      <trkpt lat="45.28569" lon="4.62665">
        <ele>453.88</ele>
        <time>2011-09-10T13:41:08Z</time>
      </trkpt>
      <trkpt lat="45.2857" lon="4.62664">
        <ele>454.36</ele>
        <time>2011-09-10T13:41:09Z</time>
      </trkpt>
      <trkpt lat="45.28573" lon="4.62665">
        <ele>453.88</ele>
        <time>2011-09-10T13:41:11Z</time>
      </trkpt>
      <trkpt lat="45.28589" lon="4.62663">
        <ele>456.76</ele>
        <time>2011-09-10T13:41:22Z</time>
      </trkpt>
      <trkpt lat="45.28606" lon="4.62663">
        <ele>456.76</ele>
        <time>2011-09-10T13:41:34Z</time>
      </trkpt>
      <trkpt lat="45.28606" lon="4.62663">
        <ele>456.76</ele>
        <time>2011-09-10T13:41:59Z</time>
      </trkpt>
      <trkpt lat="45.28606" lon="4.62662">
        <ele>456.76</ele>
        <time>2011-09-10T13:42:30Z</time>
      </trkpt>
      <trkpt lat="45.28606" lon="4.62662">
        <ele>456.28</ele>
        <time>2011-09-10T13:42:56Z</time>
      </trkpt>
      <trkpt lat="45.28606" lon="4.62662">
        <ele>456.76</ele>
        <time>2011-09-10T13:43:25Z</time>
      </trkpt>
      <trkpt lat="45.28607" lon="4.62662">
        <ele>455.32</ele>
        <time>2011-09-10T13:43:50Z</time>
      </trkpt>
      <trkpt lat="45.28607" lon="4.62661">
        <ele>455.8</ele>
        <time>2011-09-10T13:44:15Z</time>
      </trkpt>
      <trkpt lat="45.28607" lon="4.62661">
        <ele>456.28</ele>
        <time>2011-09-10T13:44:47Z</time>
      </trkpt>
      <trkpt lat="45.28608" lon="4.62661">
        <ele>455.8</ele>
        <time>2011-09-10T13:45:22Z</time>
      </trkpt>
      <trkpt lat="45.28608" lon="4.62661">
        <ele>455.32</ele>
        <time>2011-09-10T13:45:51Z</time>
      </trkpt>
      <trkpt lat="45.28608" lon="4.6266">
        <ele>455.32</ele>
        <time>2011-09-10T13:46:19Z</time>
      </trkpt>
      <trkpt lat="45.28609" lon="4.62659">
        <ele>453.88</ele>
        <time>2011-09-10T13:46:39Z</time>
      </trkpt>
      <trkpt lat="45.28627" lon="4.62646">
        <ele>454.84</ele>
        <time>2011-09-10T13:46:50Z</time>
      </trkpt>
      <trkpt lat="45.28659" lon="4.62626">
        <ele>457.72</ele>
        <time>2011-09-10T13:47:09Z</time>
      </trkpt>
      <trkpt lat="45.28686" lon="4.62603">
        <ele>459.65</ele>
        <time>2011-09-10T13:47:26Z</time>
      </trkpt>
      <trkpt lat="45.28708" lon="4.62582">
        <ele>462.53</ele>
        <time>2011-09-10T13:47:42Z</time>
      </trkpt>
      <trkpt lat="45.28727" lon="4.62558">
        <ele>464.93</ele>
        <time>2011-09-10T13:47:59Z</time>
      </trkpt>
      <trkpt lat="45.28728" lon="4.6255">
        <ele>465.9</ele>
        <time>2011-09-10T13:48:03Z</time>
      </trkpt>
      <trkpt lat="45.28726" lon="4.62549">
        <ele>465.9</ele>
        <time>2011-09-10T13:48:04Z</time>
      </trkpt>
      <trkpt lat="45.28725" lon="4.62548">
        <ele>465.42</ele>
        <time>2011-09-10T13:48:05Z</time>
      </trkpt>
      <trkpt lat="45.28724" lon="4.62547">
        <ele>465.9</ele>
        <time>2011-09-10T13:48:06Z</time>
      </trkpt>
      <trkpt lat="45.28722" lon="4.62546">
        <ele>466.38</ele>
        <time>2011-09-10T13:48:07Z</time>
      </trkpt>
      <trkpt lat="45.28721" lon="4.62546">
        <ele>465.9</ele>
        <time>2011-09-10T13:48:08Z</time>
      </trkpt>
      <trkpt lat="45.28719" lon="4.62545">
        <ele>466.38</ele>
        <time>2011-09-10T13:48:09Z</time>
      </trkpt>
      <trkpt lat="45.28717" lon="4.62544">
        <ele>466.86</ele>
        <time>2011-09-10T13:48:10Z</time>
      </trkpt>
      <trkpt lat="45.28695" lon="4.62534">
        <ele>468.78</ele>
        <time>2011-09-10T13:48:25Z</time>
      </trkpt>
      <trkpt lat="45.28689" lon="4.62532">
        <ele>470.22</ele>
        <time>2011-09-10T13:48:29Z</time>
      </trkpt>
      <trkpt lat="45.2868" lon="4.62529">
        <ele>471.18</ele>
        <time>2011-09-10T13:48:35Z</time>
      </trkpt>
      <trkpt lat="45.28661" lon="4.62517">
        <ele>474.07</ele>
        <time>2011-09-10T13:48:48Z</time>
      </trkpt>
      <trkpt lat="45.28642" lon="4.62502">
        <ele>476.47</ele>
        <time>2011-09-10T13:49:04Z</time>
      </trkpt>
      <trkpt lat="45.28637" lon="4.62498">
        <ele>476.95</ele>
        <time>2011-09-10T13:49:09Z</time>
      </trkpt>
      <trkpt lat="45.28624" lon="4.62487">
        <ele>477.91</ele>
        <time>2011-09-10T13:49:21Z</time>
      </trkpt>
      <trkpt lat="45.28622" lon="4.62485">
        <ele>477.91</ele>
        <time>2011-09-10T13:49:23Z</time>
      </trkpt>
      <trkpt lat="45.28622" lon="4.62483">
        <ele>477.43</ele>
        <time>2011-09-10T13:49:24Z</time>
      </trkpt>
      <trkpt lat="45.28623" lon="4.62482">
        <ele>477.91</ele>
        <time>2011-09-10T13:49:25Z</time>
      </trkpt>
      <trkpt lat="45.28624" lon="4.6248">
        <ele>478.87</ele>
        <time>2011-09-10T13:49:27Z</time>
      </trkpt>
      <trkpt lat="45.28627" lon="4.62475">
        <ele>479.35</ele>
        <time>2011-09-10T13:49:30Z</time>
      </trkpt>
      <trkpt lat="45.2863" lon="4.6247">
        <ele>480.8</ele>
        <time>2011-09-10T13:49:34Z</time>
      </trkpt>
      <trkpt lat="45.2863" lon="4.6247">
        <ele>480.32</ele>
        <time>2011-09-10T13:49:35Z</time>
      </trkpt>
      <trkpt lat="45.28632" lon="4.62469">
        <ele>480.8</ele>
        <time>2011-09-10T13:49:37Z</time>
      </trkpt>
      <trkpt lat="45.28633" lon="4.62468">
        <ele>481.28</ele>
        <time>2011-09-10T13:49:38Z</time>
      </trkpt>
      <trkpt lat="45.28634" lon="4.62467">
        <ele>481.76</ele>
        <time>2011-09-10T13:49:39Z</time>
      </trkpt>
      <trkpt lat="45.28635" lon="4.62467">
        <ele>481.76</ele>
        <time>2011-09-10T13:49:40Z</time>
      </trkpt>
      <trkpt lat="45.28637" lon="4.62467">
        <ele>481.28</ele>
        <time>2011-09-10T13:49:41Z</time>
      </trkpt>
      <trkpt lat="45.28649" lon="4.62464">
        <ele>483.68</ele>
        <time>2011-09-10T13:49:53Z</time>
      </trkpt>
      <trkpt lat="45.28664" lon="4.62452">
        <ele>486.08</ele>
        <time>2011-09-10T13:50:08Z</time>
      </trkpt>
      <trkpt lat="45.28679" lon="4.62439">
        <ele>488.01</ele>
        <time>2011-09-10T13:50:22Z</time>
      </trkpt>
      <trkpt lat="45.28696" lon="4.6243">
        <ele>489.93</ele>
        <time>2011-09-10T13:50:37Z</time>
      </trkpt>
      <trkpt lat="45.28721" lon="4.62422">
        <ele>491.37</ele>
        <time>2011-09-10T13:50:50Z</time>
      </trkpt>
      <trkpt lat="45.28752" lon="4.6242">
        <ele>493.29</ele>
        <time>2011-09-10T13:51:04Z</time>
      </trkpt>
      <trkpt lat="45.28784" lon="4.62417">
        <ele>495.22</ele>
        <time>2011-09-10T13:51:20Z</time>
      </trkpt>
      <trkpt lat="45.28821" lon="4.62412">
        <ele>496.66</ele>
        <time>2011-09-10T13:51:36Z</time>
      </trkpt>
      <trkpt lat="45.28853" lon="4.62384">
        <ele>497.62</ele>
        <time>2011-09-10T13:51:50Z</time>
      </trkpt>
      <trkpt lat="45.2887" lon="4.62352">
        <ele>500.98</ele>
        <time>2011-09-10T13:52:02Z</time>
      </trkpt>
      <trkpt lat="45.28884" lon="4.62321">
        <ele>502.91</ele>
        <time>2011-09-10T13:52:16Z</time>
      </trkpt>
      <trkpt lat="45.28898" lon="4.62283">
        <ele>504.83</ele>
        <time>2011-09-10T13:52:33Z</time>
      </trkpt>
      <trkpt lat="45.28907" lon="4.62259">
        <ele>506.27</ele>
        <time>2011-09-10T13:52:44Z</time>
      </trkpt>
      <trkpt lat="45.28912" lon="4.62236">
        <ele>507.71</ele>
        <time>2011-09-10T13:52:54Z</time>
      </trkpt>
      <trkpt lat="45.28912" lon="4.62234">
        <ele>507.71</ele>
        <time>2011-09-10T13:52:55Z</time>
      </trkpt>
      <trkpt lat="45.28912" lon="4.62231">
        <ele>507.71</ele>
        <time>2011-09-10T13:52:56Z</time>
      </trkpt>
      <trkpt lat="45.28912" lon="4.62229">
        <ele>508.19</ele>
        <time>2011-09-10T13:52:57Z</time>
      </trkpt>
      <trkpt lat="45.28912" lon="4.62227">
        <ele>507.71</ele>
        <time>2011-09-10T13:52:58Z</time>
      </trkpt>
      <trkpt lat="45.28913" lon="4.62224">
        <ele>508.19</ele>
        <time>2011-09-10T13:52:59Z</time>
      </trkpt>
      <trkpt lat="45.28918" lon="4.62179">
        <ele>511.56</ele>
        <time>2011-09-10T13:53:18Z</time>
      </trkpt>
      <trkpt lat="45.28914" lon="4.62138">
        <ele>513.48</ele>
        <time>2011-09-10T13:53:36Z</time>
      </trkpt>
      <trkpt lat="45.28901" lon="4.62101">
        <ele>516.37</ele>
        <time>2011-09-10T13:53:54Z</time>
      </trkpt>
      <trkpt lat="45.28888" lon="4.62064">
        <ele>518.77</ele>
        <time>2011-09-10T13:54:12Z</time>
      </trkpt>
      <trkpt lat="45.28896" lon="4.62037">
        <ele>520.69</ele>
        <time>2011-09-10T13:54:26Z</time>
      </trkpt>
      <trkpt lat="45.28898" lon="4.62027">
        <ele>520.69</ele>
        <time>2011-09-10T13:54:37Z</time>
      </trkpt>
      <trkpt lat="45.289" lon="4.62023">
        <ele>519.73</ele>
        <time>2011-09-10T13:54:52Z</time>
      </trkpt>
      <trkpt lat="45.28901" lon="4.6202">
        <ele>520.21</ele>
        <time>2011-09-10T13:54:53Z</time>
      </trkpt>
      <trkpt lat="45.28915" lon="4.61983">
        <ele>518.29</ele>
        <time>2011-09-10T13:55:02Z</time>
      </trkpt>
      <trkpt lat="45.28919" lon="4.61979">
        <ele>517.81</ele>
        <time>2011-09-10T13:55:03Z</time>
      </trkpt>
      <trkpt lat="45.28923" lon="4.61977">
        <ele>518.29</ele>
        <time>2011-09-10T13:55:04Z</time>
      </trkpt>
      <trkpt lat="45.28928" lon="4.61976">
        <ele>518.29</ele>
        <time>2011-09-10T13:55:05Z</time>
      </trkpt>
      <trkpt lat="45.28932" lon="4.61974">
        <ele>518.29</ele>
        <time>2011-09-10T13:55:06Z</time>
      </trkpt>
      <trkpt lat="45.28936" lon="4.61974">
        <ele>518.29</ele>
        <time>2011-09-10T13:55:07Z</time>
      </trkpt>
      <trkpt lat="45.28969" lon="4.61949">
        <ele>517.33</ele>
        <time>2011-09-10T13:55:18Z</time>
      </trkpt>
      <trkpt lat="45.28972" lon="4.61944">
        <ele>516.85</ele>
        <time>2011-09-10T13:55:19Z</time>
      </trkpt>
      <trkpt lat="45.28975" lon="4.61939">
        <ele>516.85</ele>
        <time>2011-09-10T13:55:20Z</time>
      </trkpt>
      <trkpt lat="45.28978" lon="4.61934">
        <ele>516.85</ele>
        <time>2011-09-10T13:55:21Z</time>
      </trkpt>
      <trkpt lat="45.28986" lon="4.61914">
        <ele>516.85</ele>
        <time>2011-09-10T13:55:25Z</time>
      </trkpt>
      <trkpt lat="45.28988" lon="4.61908">
        <ele>516.37</ele>
        <time>2011-09-10T13:55:26Z</time>
      </trkpt>
      <trkpt lat="45.28989" lon="4.61903">
        <ele>516.85</ele>
        <time>2011-09-10T13:55:27Z</time>
      </trkpt>
      <trkpt lat="45.28997" lon="4.61852">
        <ele>516.85</ele>
        <time>2011-09-10T13:55:36Z</time>
      </trkpt>
      <trkpt lat="45.28997" lon="4.61846">
        <ele>516.37</ele>
        <time>2011-09-10T13:55:37Z</time>
      </trkpt>
      <trkpt lat="45.28996" lon="4.6184">
        <ele>517.33</ele>
        <time>2011-09-10T13:55:38Z</time>
      </trkpt>
      <trkpt lat="45.28994" lon="4.61834">
        <ele>516.85</ele>
        <time>2011-09-10T13:55:39Z</time>
      </trkpt>
      <trkpt lat="45.28992" lon="4.61828">
        <ele>516.37</ele>
        <time>2011-09-10T13:55:40Z</time>
      </trkpt>
      <trkpt lat="45.2899" lon="4.61822">
        <ele>516.37</ele>
        <time>2011-09-10T13:55:41Z</time>
      </trkpt>
      <trkpt lat="45.28969" lon="4.61756">
        <ele>514.92</ele>
        <time>2011-09-10T13:55:50Z</time>
      </trkpt>
      <trkpt lat="45.28965" lon="4.61714">
        <ele>513</ele>
        <time>2011-09-10T13:55:54Z</time>
      </trkpt>
      <trkpt lat="45.28965" lon="4.61703">
        <ele>512.52</ele>
        <time>2011-09-10T13:55:55Z</time>
      </trkpt>
      <trkpt lat="45.28965" lon="4.61691">
        <ele>511.56</ele>
        <time>2011-09-10T13:55:56Z</time>
      </trkpt>
      <trkpt lat="45.28963" lon="4.61655">
        <ele>510.12</ele>
        <time>2011-09-10T13:55:59Z</time>
      </trkpt>
      <trkpt lat="45.28961" lon="4.61643">
        <ele>509.64</ele>
        <time>2011-09-10T13:56:00Z</time>
      </trkpt>
      <trkpt lat="45.28951" lon="4.61611">
        <ele>508.67</ele>
        <time>2011-09-10T13:56:03Z</time>
      </trkpt>
      <trkpt lat="45.2894" lon="4.61595">
        <ele>508.19</ele>
        <time>2011-09-10T13:56:05Z</time>
      </trkpt>
      <trkpt lat="45.28935" lon="4.61587">
        <ele>508.19</ele>
        <time>2011-09-10T13:56:06Z</time>
      </trkpt>
      <trkpt lat="45.28931" lon="4.61579">
        <ele>507.71</ele>
        <time>2011-09-10T13:56:07Z</time>
      </trkpt>
      <trkpt lat="45.28929" lon="4.6157">
        <ele>507.71</ele>
        <time>2011-09-10T13:56:08Z</time>
      </trkpt>
      <trkpt lat="45.28928" lon="4.61561">
        <ele>508.19</ele>
        <time>2011-09-10T13:56:09Z</time>
      </trkpt>
      <trkpt lat="45.28929" lon="4.61552">
        <ele>507.23</ele>
        <time>2011-09-10T13:56:10Z</time>
      </trkpt>
      <trkpt lat="45.2893" lon="4.61545">
        <ele>508.19</ele>
        <time>2011-09-10T13:56:11Z</time>
      </trkpt>
      <trkpt lat="45.28933" lon="4.61538">
        <ele>507.23</ele>
        <time>2011-09-10T13:56:12Z</time>
      </trkpt>
      <trkpt lat="45.28935" lon="4.6153">
        <ele>507.23</ele>
        <time>2011-09-10T13:56:13Z</time>
      </trkpt>
      <trkpt lat="45.28937" lon="4.61522">
        <ele>505.79</ele>
        <time>2011-09-10T13:56:14Z</time>
      </trkpt>
      <trkpt lat="45.28939" lon="4.61514">
        <ele>505.79</ele>
        <time>2011-09-10T13:56:15Z</time>
      </trkpt>
      <trkpt lat="45.28941" lon="4.61506">
        <ele>505.79</ele>
        <time>2011-09-10T13:56:16Z</time>
      </trkpt>
      <trkpt lat="45.28944" lon="4.615">
        <ele>505.31</ele>
        <time>2011-09-10T13:56:17Z</time>
      </trkpt>
      <trkpt lat="45.28947" lon="4.61495">
        <ele>505.31</ele>
        <time>2011-09-10T13:56:18Z</time>
      </trkpt>
      <trkpt lat="45.28951" lon="4.61492">
        <ele>505.31</ele>
        <time>2011-09-10T13:56:19Z</time>
      </trkpt>
      <trkpt lat="45.28955" lon="4.6149">
        <ele>504.35</ele>
        <time>2011-09-10T13:56:20Z</time>
      </trkpt>
      <trkpt lat="45.2896" lon="4.61487">
        <ele>504.35</ele>
        <time>2011-09-10T13:56:21Z</time>
      </trkpt>
      <trkpt lat="45.28966" lon="4.61483">
        <ele>503.39</ele>
        <time>2011-09-10T13:56:22Z</time>
      </trkpt>
      <trkpt lat="45.28971" lon="4.61477">
        <ele>502.43</ele>
        <time>2011-09-10T13:56:23Z</time>
      </trkpt>
      <trkpt lat="45.28977" lon="4.61472">
        <ele>502.91</ele>
        <time>2011-09-10T13:56:24Z</time>
      </trkpt>
      <trkpt lat="45.28983" lon="4.61465">
        <ele>502.91</ele>
        <time>2011-09-10T13:56:25Z</time>
      </trkpt>
      <trkpt lat="45.28987" lon="4.61458">
        <ele>502.43</ele>
        <time>2011-09-10T13:56:26Z</time>
      </trkpt>
      <trkpt lat="45.28991" lon="4.6145">
        <ele>502.91</ele>
        <time>2011-09-10T13:56:27Z</time>
      </trkpt>
      <trkpt lat="45.28994" lon="4.61442">
        <ele>502.43</ele>
        <time>2011-09-10T13:56:28Z</time>
      </trkpt>
      <trkpt lat="45.28996" lon="4.61435">
        <ele>502.43</ele>
        <time>2011-09-10T13:56:29Z</time>
      </trkpt>
      <trkpt lat="45.29002" lon="4.61376">
        <ele>503.87</ele>
        <time>2011-09-10T13:56:38Z</time>
      </trkpt>
      <trkpt lat="45.29" lon="4.61355">
        <ele>501.95</ele>
        <time>2011-09-10T13:56:41Z</time>
      </trkpt>
      <trkpt lat="45.29" lon="4.61348">
        <ele>501.95</ele>
        <time>2011-09-10T13:56:42Z</time>
      </trkpt>
      <trkpt lat="45.29003" lon="4.61341">
        <ele>501.46</ele>
        <time>2011-09-10T13:56:43Z</time>
      </trkpt>
      <trkpt lat="45.29007" lon="4.61335">
        <ele>501.46</ele>
        <time>2011-09-10T13:56:44Z</time>
      </trkpt>
      <trkpt lat="45.29011" lon="4.61331">
        <ele>501.95</ele>
        <time>2011-09-10T13:56:45Z</time>
      </trkpt>
      <trkpt lat="45.29015" lon="4.61328">
        <ele>502.43</ele>
        <time>2011-09-10T13:56:46Z</time>
      </trkpt>
      <trkpt lat="45.29034" lon="4.61305">
        <ele>501.46</ele>
        <time>2011-09-10T13:56:52Z</time>
      </trkpt>
      <trkpt lat="45.29036" lon="4.613">
        <ele>501.95</ele>
        <time>2011-09-10T13:56:53Z</time>
      </trkpt>
      <trkpt lat="45.29039" lon="4.61276">
        <ele>500.98</ele>
        <time>2011-09-10T13:56:57Z</time>
      </trkpt>
      <trkpt lat="45.29038" lon="4.61232">
        <ele>501.95</ele>
        <time>2011-09-10T13:57:04Z</time>
      </trkpt>
      <trkpt lat="45.29037" lon="4.6119">
        <ele>503.39</ele>
        <time>2011-09-10T13:57:13Z</time>
      </trkpt>
      <trkpt lat="45.29036" lon="4.61185">
        <ele>503.87</ele>
        <time>2011-09-10T13:57:14Z</time>
      </trkpt>
      <trkpt lat="45.29036" lon="4.6118">
        <ele>503.39</ele>
        <time>2011-09-10T13:57:15Z</time>
      </trkpt>
      <trkpt lat="45.29036" lon="4.61175">
        <ele>503.87</ele>
        <time>2011-09-10T13:57:16Z</time>
      </trkpt>
      <trkpt lat="45.29036" lon="4.6117">
        <ele>503.39</ele>
        <time>2011-09-10T13:57:17Z</time>
      </trkpt>
      <trkpt lat="45.29047" lon="4.61082">
        <ele>503.39</ele>
        <time>2011-09-10T13:57:31Z</time>
      </trkpt>
      <trkpt lat="45.29048" lon="4.61063">
        <ele>503.87</ele>
        <time>2011-09-10T13:57:34Z</time>
      </trkpt>
      <trkpt lat="45.29047" lon="4.61057">
        <ele>503.39</ele>
        <time>2011-09-10T13:57:35Z</time>
      </trkpt>
      <trkpt lat="45.29045" lon="4.6105">
        <ele>503.87</ele>
        <time>2011-09-10T13:57:36Z</time>
      </trkpt>
      <trkpt lat="45.29018" lon="4.60972">
        <ele>505.31</ele>
        <time>2011-09-10T13:57:51Z</time>
      </trkpt>
      <trkpt lat="45.28997" lon="4.60926">
        <ele>506.75</ele>
        <time>2011-09-10T13:58:05Z</time>
      </trkpt>
      <trkpt lat="45.2897" lon="4.60897">
        <ele>508.67</ele>
        <time>2011-09-10T13:58:17Z</time>
      </trkpt>
      <trkpt lat="45.28949" lon="4.60853">
        <ele>509.16</ele>
        <time>2011-09-10T13:58:30Z</time>
      </trkpt>
      <trkpt lat="45.28943" lon="4.60835">
        <ele>510.12</ele>
        <time>2011-09-10T13:58:35Z</time>
      </trkpt>
      <trkpt lat="45.28934" lon="4.6081">
        <ele>512.04</ele>
        <time>2011-09-10T13:58:44Z</time>
      </trkpt>
      <trkpt lat="45.28929" lon="4.60791">
        <ele>513</ele>
        <time>2011-09-10T13:58:53Z</time>
      </trkpt>
      <trkpt lat="45.28929" lon="4.60789">
        <ele>513</ele>
        <time>2011-09-10T13:58:54Z</time>
      </trkpt>
      <trkpt lat="45.28928" lon="4.60787">
        <ele>512.52</ele>
        <time>2011-09-10T13:58:55Z</time>
      </trkpt>
      <trkpt lat="45.28924" lon="4.60779">
        <ele>513.96</ele>
        <time>2011-09-10T13:59:00Z</time>
      </trkpt>
      <trkpt lat="45.2892" lon="4.60773">
        <ele>514.92</ele>
        <time>2011-09-10T13:59:06Z</time>
      </trkpt>
      <trkpt lat="45.2892" lon="4.60771">
        <ele>514.92</ele>
        <time>2011-09-10T13:59:07Z</time>
      </trkpt>
      <trkpt lat="45.28919" lon="4.60769">
        <ele>514.92</ele>
        <time>2011-09-10T13:59:08Z</time>
      </trkpt>
      <trkpt lat="45.28919" lon="4.60768">
        <ele>514.92</ele>
        <time>2011-09-10T13:59:09Z</time>
      </trkpt>
      <trkpt lat="45.28918" lon="4.60767">
        <ele>515.4</ele>
        <time>2011-09-10T13:59:10Z</time>
      </trkpt>
      <trkpt lat="45.28917" lon="4.60765">
        <ele>515.4</ele>
        <time>2011-09-10T13:59:11Z</time>
      </trkpt>
      <trkpt lat="45.28917" lon="4.60764">
        <ele>515.4</ele>
        <time>2011-09-10T13:59:12Z</time>
      </trkpt>
      <trkpt lat="45.28916" lon="4.60763">
        <ele>516.37</ele>
        <time>2011-09-10T13:59:13Z</time>
      </trkpt>
      <trkpt lat="45.28915" lon="4.60761">
        <ele>515.88</ele>
        <time>2011-09-10T13:59:14Z</time>
      </trkpt>
      <trkpt lat="45.28914" lon="4.6076">
        <ele>515.88</ele>
        <time>2011-09-10T13:59:15Z</time>
      </trkpt>
      <trkpt lat="45.28912" lon="4.60756">
        <ele>516.85</ele>
        <time>2011-09-10T13:59:18Z</time>
      </trkpt>
      <trkpt lat="45.28911" lon="4.60754">
        <ele>516.37</ele>
        <time>2011-09-10T13:59:19Z</time>
      </trkpt>
      <trkpt lat="45.28911" lon="4.60753">
        <ele>516.85</ele>
        <time>2011-09-10T13:59:20Z</time>
      </trkpt>
      <trkpt lat="45.2891" lon="4.60752">
        <ele>517.33</ele>
        <time>2011-09-10T13:59:21Z</time>
      </trkpt>
      <trkpt lat="45.28909" lon="4.6075">
        <ele>516.85</ele>
        <time>2011-09-10T13:59:22Z</time>
      </trkpt>
      <trkpt lat="45.28908" lon="4.60749">
        <ele>517.33</ele>
        <time>2011-09-10T13:59:23Z</time>
      </trkpt>
      <trkpt lat="45.28908" lon="4.60748">
        <ele>516.37</ele>
        <time>2011-09-10T13:59:24Z</time>
      </trkpt>
      <trkpt lat="45.28907" lon="4.60746">
        <ele>517.33</ele>
        <time>2011-09-10T13:59:25Z</time>
      </trkpt>
      <trkpt lat="45.28905" lon="4.60745">
        <ele>516.85</ele>
        <time>2011-09-10T13:59:26Z</time>
      </trkpt>
      <trkpt lat="45.28904" lon="4.60744">
        <ele>517.81</ele>
        <time>2011-09-10T13:59:27Z</time>
      </trkpt>
      <trkpt lat="45.28904" lon="4.60742">
        <ele>517.81</ele>
        <time>2011-09-10T13:59:28Z</time>
      </trkpt>
      <trkpt lat="45.28903" lon="4.60741">
        <ele>517.81</ele>
        <time>2011-09-10T13:59:29Z</time>
      </trkpt>
      <trkpt lat="45.28902" lon="4.60739">
        <ele>517.81</ele>
        <time>2011-09-10T13:59:30Z</time>
      </trkpt>
      <trkpt lat="45.28902" lon="4.60737">
        <ele>518.29</ele>
        <time>2011-09-10T13:59:31Z</time>
      </trkpt>
      <trkpt lat="45.28887" lon="4.6071">
        <ele>518.29</ele>
        <time>2011-09-10T13:59:46Z</time>
      </trkpt>
      <trkpt lat="45.28868" lon="4.60675">
        <ele>519.25</ele>
        <time>2011-09-10T14:00:01Z</time>
      </trkpt>
      <trkpt lat="45.28848" lon="4.60645">
        <ele>521.65</ele>
        <time>2011-09-10T14:00:15Z</time>
      </trkpt>
      <trkpt lat="45.28829" lon="4.60603">
        <ele>521.17</ele>
        <time>2011-09-10T14:00:28Z</time>
      </trkpt>
      <trkpt lat="45.28821" lon="4.60578">
        <ele>520.69</ele>
        <time>2011-09-10T14:00:33Z</time>
      </trkpt>
      <trkpt lat="45.28821" lon="4.60571">
        <ele>520.21</ele>
        <time>2011-09-10T14:00:34Z</time>
      </trkpt>
      <trkpt lat="45.28822" lon="4.60565">
        <ele>520.69</ele>
        <time>2011-09-10T14:00:35Z</time>
      </trkpt>
      <trkpt lat="45.28824" lon="4.60559">
        <ele>519.73</ele>
        <time>2011-09-10T14:00:36Z</time>
      </trkpt>
      <trkpt lat="45.28827" lon="4.60554">
        <ele>519.73</ele>
        <time>2011-09-10T14:00:37Z</time>
      </trkpt>
      <trkpt lat="45.2883" lon="4.60551">
        <ele>519.73</ele>
        <time>2011-09-10T14:00:38Z</time>
      </trkpt>
      <trkpt lat="45.28833" lon="4.60548">
        <ele>519.73</ele>
        <time>2011-09-10T14:00:39Z</time>
      </trkpt>
      <trkpt lat="45.28836" lon="4.60546">
        <ele>519.25</ele>
        <time>2011-09-10T14:00:40Z</time>
      </trkpt>
      <trkpt lat="45.28839" lon="4.60544">
        <ele>519.73</ele>
        <time>2011-09-10T14:00:41Z</time>
      </trkpt>
      <trkpt lat="45.28843" lon="4.60543">
        <ele>519.25</ele>
        <time>2011-09-10T14:00:42Z</time>
      </trkpt>
      <trkpt lat="45.28889" lon="4.60528">
        <ele>520.69</ele>
        <time>2011-09-10T14:00:54Z</time>
      </trkpt>
      <trkpt lat="45.28922" lon="4.60518">
        <ele>523.09</ele>
        <time>2011-09-10T14:01:07Z</time>
      </trkpt>
      <trkpt lat="45.2893" lon="4.60511">
        <ele>524.06</ele>
        <time>2011-09-10T14:01:10Z</time>
      </trkpt>
      <trkpt lat="45.28948" lon="4.60466">
        <ele>525.02</ele>
        <time>2011-09-10T14:01:23Z</time>
      </trkpt>
      <trkpt lat="45.28955" lon="4.60402">
        <ele>525.98</ele>
        <time>2011-09-10T14:01:39Z</time>
      </trkpt>
      <trkpt lat="45.28945" lon="4.60338">
        <ele>526.94</ele>
        <time>2011-09-10T14:01:54Z</time>
      </trkpt>
      <trkpt lat="45.28938" lon="4.60301">
        <ele>527.42</ele>
        <time>2011-09-10T14:02:07Z</time>
      </trkpt>
      <trkpt lat="45.28936" lon="4.60296">
        <ele>527.42</ele>
        <time>2011-09-10T14:02:15Z</time>
      </trkpt>
      <trkpt lat="45.28934" lon="4.60294">
        <ele>526.46</ele>
        <time>2011-09-10T14:02:16Z</time>
      </trkpt>
      <trkpt lat="45.28933" lon="4.60292">
        <ele>527.42</ele>
        <time>2011-09-10T14:02:17Z</time>
      </trkpt>
      <trkpt lat="45.28929" lon="4.60287">
        <ele>526.46</ele>
        <time>2011-09-10T14:02:19Z</time>
      </trkpt>
      <trkpt lat="45.28893" lon="4.60272">
        <ele>523.58</ele>
        <time>2011-09-10T14:02:28Z</time>
      </trkpt>
      <trkpt lat="45.28888" lon="4.60269">
        <ele>523.09</ele>
        <time>2011-09-10T14:02:29Z</time>
      </trkpt>
      <trkpt lat="45.28883" lon="4.60266">
        <ele>522.61</ele>
        <time>2011-09-10T14:02:30Z</time>
      </trkpt>
      <trkpt lat="45.28878" lon="4.60265">
        <ele>521.65</ele>
        <time>2011-09-10T14:02:31Z</time>
      </trkpt>
      <trkpt lat="45.28873" lon="4.60262">
        <ele>521.65</ele>
        <time>2011-09-10T14:02:32Z</time>
      </trkpt>
      <trkpt lat="45.28868" lon="4.60257">
        <ele>520.69</ele>
        <time>2011-09-10T14:02:33Z</time>
      </trkpt>
      <trkpt lat="45.28845" lon="4.60238">
        <ele>518.77</ele>
        <time>2011-09-10T14:02:37Z</time>
      </trkpt>
      <trkpt lat="45.2884" lon="4.60233">
        <ele>517.81</ele>
        <time>2011-09-10T14:02:38Z</time>
      </trkpt>
      <trkpt lat="45.28831" lon="4.60224">
        <ele>514.92</ele>
        <time>2011-09-10T14:02:40Z</time>
      </trkpt>
      <trkpt lat="45.28827" lon="4.6022">
        <ele>514.44</ele>
        <time>2011-09-10T14:02:41Z</time>
      </trkpt>
      <trkpt lat="45.28823" lon="4.60215">
        <ele>513.96</ele>
        <time>2011-09-10T14:02:42Z</time>
      </trkpt>
      <trkpt lat="45.28819" lon="4.6021">
        <ele>513.48</ele>
        <time>2011-09-10T14:02:43Z</time>
      </trkpt>
      <trkpt lat="45.28815" lon="4.60206">
        <ele>512.52</ele>
        <time>2011-09-10T14:02:44Z</time>
      </trkpt>
      <trkpt lat="45.28811" lon="4.60202">
        <ele>513</ele>
        <time>2011-09-10T14:02:45Z</time>
      </trkpt>
      <trkpt lat="45.28807" lon="4.60198">
        <ele>512.04</ele>
        <time>2011-09-10T14:02:46Z</time>
      </trkpt>
      <trkpt lat="45.28803" lon="4.60195">
        <ele>512.04</ele>
        <time>2011-09-10T14:02:47Z</time>
      </trkpt>
      <trkpt lat="45.288" lon="4.60193">
        <ele>511.08</ele>
        <time>2011-09-10T14:02:48Z</time>
      </trkpt>
      <trkpt lat="45.28799" lon="4.6019">
        <ele>511.08</ele>
        <time>2011-09-10T14:02:49Z</time>
      </trkpt>
      <trkpt lat="45.288" lon="4.60187">
        <ele>510.6</ele>
        <time>2011-09-10T14:02:50Z</time>
      </trkpt>
      <trkpt lat="45.28801" lon="4.60184">
        <ele>511.08</ele>
        <time>2011-09-10T14:02:51Z</time>
      </trkpt>
      <trkpt lat="45.28803" lon="4.60181">
        <ele>510.6</ele>
        <time>2011-09-10T14:02:52Z</time>
      </trkpt>
      <trkpt lat="45.28805" lon="4.60179">
        <ele>511.08</ele>
        <time>2011-09-10T14:02:53Z</time>
      </trkpt>
      <trkpt lat="45.28806" lon="4.60177">
        <ele>510.6</ele>
        <time>2011-09-10T14:02:54Z</time>
      </trkpt>
      <trkpt lat="45.28808" lon="4.60177">
        <ele>511.08</ele>
        <time>2011-09-10T14:02:55Z</time>
      </trkpt>
      <trkpt lat="45.28832" lon="4.6017">
        <ele>509.64</ele>
        <time>2011-09-10T14:03:02Z</time>
      </trkpt>
      <trkpt lat="45.28846" lon="4.60164">
        <ele>508.19</ele>
        <time>2011-09-10T14:03:05Z</time>
      </trkpt>
      <trkpt lat="45.2885" lon="4.60163">
        <ele>508.19</ele>
        <time>2011-09-10T14:03:06Z</time>
      </trkpt>
      <trkpt lat="45.28881" lon="4.60154">
        <ele>505.31</ele>
        <time>2011-09-10T14:03:12Z</time>
      </trkpt>
      <trkpt lat="45.28886" lon="4.60152">
        <ele>504.83</ele>
        <time>2011-09-10T14:03:13Z</time>
      </trkpt>
      <trkpt lat="45.2889" lon="4.60149">
        <ele>503.39</ele>
        <time>2011-09-10T14:03:14Z</time>
      </trkpt>
      <trkpt lat="45.28894" lon="4.60144">
        <ele>502.91</ele>
        <time>2011-09-10T14:03:15Z</time>
      </trkpt>
      <trkpt lat="45.28898" lon="4.60139">
        <ele>502.91</ele>
        <time>2011-09-10T14:03:16Z</time>
      </trkpt>
      <trkpt lat="45.289" lon="4.60134">
        <ele>502.43</ele>
        <time>2011-09-10T14:03:17Z</time>
      </trkpt>
      <trkpt lat="45.28902" lon="4.6013">
        <ele>502.43</ele>
        <time>2011-09-10T14:03:18Z</time>
      </trkpt>
      <trkpt lat="45.28902" lon="4.60126">
        <ele>502.43</ele>
        <time>2011-09-10T14:03:19Z</time>
      </trkpt>
      <trkpt lat="45.28901" lon="4.60122">
        <ele>501.95</ele>
        <time>2011-09-10T14:03:20Z</time>
      </trkpt>
      <trkpt lat="45.289" lon="4.60117">
        <ele>501.95</ele>
        <time>2011-09-10T14:03:21Z</time>
      </trkpt>
      <trkpt lat="45.28898" lon="4.60112">
        <ele>501.46</ele>
        <time>2011-09-10T14:03:22Z</time>
      </trkpt>
      <trkpt lat="45.28895" lon="4.60106">
        <ele>500.98</ele>
        <time>2011-09-10T14:03:23Z</time>
      </trkpt>
      <trkpt lat="45.28892" lon="4.60099">
        <ele>500.02</ele>
        <time>2011-09-10T14:03:24Z</time>
      </trkpt>
      <trkpt lat="45.28889" lon="4.60091">
        <ele>499.54</ele>
        <time>2011-09-10T14:03:25Z</time>
      </trkpt>
      <trkpt lat="45.28888" lon="4.60083">
        <ele>499.06</ele>
        <time>2011-09-10T14:03:26Z</time>
      </trkpt>
      <trkpt lat="45.28885" lon="4.60069">
        <ele>498.58</ele>
        <time>2011-09-10T14:03:28Z</time>
      </trkpt>
      <trkpt lat="45.28883" lon="4.60062">
        <ele>498.58</ele>
        <time>2011-09-10T14:03:29Z</time>
      </trkpt>
      <trkpt lat="45.28879" lon="4.60056">
        <ele>497.62</ele>
        <time>2011-09-10T14:03:30Z</time>
      </trkpt>
      <trkpt lat="45.28876" lon="4.6005">
        <ele>497.14</ele>
        <time>2011-09-10T14:03:31Z</time>
      </trkpt>
      <trkpt lat="45.28872" lon="4.60044">
        <ele>496.66</ele>
        <time>2011-09-10T14:03:32Z</time>
      </trkpt>
      <trkpt lat="45.28868" lon="4.60038">
        <ele>496.18</ele>
        <time>2011-09-10T14:03:33Z</time>
      </trkpt>
      <trkpt lat="45.2886" lon="4.60026">
        <ele>495.22</ele>
        <time>2011-09-10T14:03:35Z</time>
      </trkpt>
      <trkpt lat="45.28847" lon="4.6001">
        <ele>494.26</ele>
        <time>2011-09-10T14:03:38Z</time>
      </trkpt>
      <trkpt lat="45.28843" lon="4.60004">
        <ele>493.29</ele>
        <time>2011-09-10T14:03:39Z</time>
      </trkpt>
      <trkpt lat="45.28817" lon="4.59944">
        <ele>489.93</ele>
        <time>2011-09-10T14:03:47Z</time>
      </trkpt>
      <trkpt lat="45.28809" lon="4.59917">
        <ele>489.45</ele>
        <time>2011-09-10T14:03:54Z</time>
      </trkpt>
      <trkpt lat="45.28809" lon="4.59898">
        <ele>488.01</ele>
        <time>2011-09-10T14:03:59Z</time>
      </trkpt>
      <trkpt lat="45.2881" lon="4.59896">
        <ele>487.53</ele>
        <time>2011-09-10T14:04:00Z</time>
      </trkpt>
      <trkpt lat="45.28811" lon="4.59894">
        <ele>487.05</ele>
        <time>2011-09-10T14:04:01Z</time>
      </trkpt>
      <trkpt lat="45.28819" lon="4.59877">
        <ele>485.12</ele>
        <time>2011-09-10T14:04:08Z</time>
      </trkpt>
      <trkpt lat="45.28819" lon="4.59875">
        <ele>484.64</ele>
        <time>2011-09-10T14:04:09Z</time>
      </trkpt>
      <trkpt lat="45.28815" lon="4.59847">
        <ele>481.28</ele>
        <time>2011-09-10T14:04:17Z</time>
      </trkpt>
      <trkpt lat="45.28812" lon="4.59841">
        <ele>481.76</ele>
        <time>2011-09-10T14:04:19Z</time>
      </trkpt>
      <trkpt lat="45.2881" lon="4.59839">
        <ele>481.28</ele>
        <time>2011-09-10T14:04:20Z</time>
      </trkpt>
      <trkpt lat="45.28807" lon="4.59838">
        <ele>481.28</ele>
        <time>2011-09-10T14:04:21Z</time>
      </trkpt>
      <trkpt lat="45.28805" lon="4.59836">
        <ele>481.76</ele>
        <time>2011-09-10T14:04:22Z</time>
      </trkpt>
      <trkpt lat="45.28802" lon="4.59833">
        <ele>481.28</ele>
        <time>2011-09-10T14:04:23Z</time>
      </trkpt>
      <trkpt lat="45.28801" lon="4.5983">
        <ele>481.28</ele>
        <time>2011-09-10T14:04:24Z</time>
      </trkpt>
      <trkpt lat="45.28801" lon="4.59827">
        <ele>481.76</ele>
        <time>2011-09-10T14:04:33Z</time>
      </trkpt>
      <trkpt lat="45.288" lon="4.59825">
        <ele>481.28</ele>
        <time>2011-09-10T14:04:34Z</time>
      </trkpt>
      <trkpt lat="45.28799" lon="4.59823">
        <ele>481.28</ele>
        <time>2011-09-10T14:04:35Z</time>
      </trkpt>
      <trkpt lat="45.28799" lon="4.5982">
        <ele>480.8</ele>
        <time>2011-09-10T14:04:36Z</time>
      </trkpt>
      <trkpt lat="45.28798" lon="4.59817">
        <ele>481.28</ele>
        <time>2011-09-10T14:04:37Z</time>
      </trkpt>
      <trkpt lat="45.28797" lon="4.59813">
        <ele>481.28</ele>
        <time>2011-09-10T14:04:38Z</time>
      </trkpt>
      <trkpt lat="45.28794" lon="4.59768">
        <ele>482.24</ele>
        <time>2011-09-10T14:04:50Z</time>
      </trkpt>
      <trkpt lat="45.28794" lon="4.59722">
        <ele>482.72</ele>
        <time>2011-09-10T14:05:01Z</time>
      </trkpt>
      <trkpt lat="45.28797" lon="4.59673">
        <ele>483.68</ele>
        <time>2011-09-10T14:05:12Z</time>
      </trkpt>
      <trkpt lat="45.28815" lon="4.59602">
        <ele>484.16</ele>
        <time>2011-09-10T14:05:28Z</time>
      </trkpt>
      <trkpt lat="45.28828" lon="4.59534">
        <ele>485.12</ele>
        <time>2011-09-10T14:05:43Z</time>
      </trkpt>
      <trkpt lat="45.28841" lon="4.59497">
        <ele>486.08</ele>
        <time>2011-09-10T14:05:53Z</time>
      </trkpt>
      <trkpt lat="45.2885" lon="4.59441">
        <ele>487.05</ele>
        <time>2011-09-10T14:06:06Z</time>
      </trkpt>
      <trkpt lat="45.28861" lon="4.59388">
        <ele>488.01</ele>
        <time>2011-09-10T14:06:18Z</time>
      </trkpt>
      <trkpt lat="45.28864" lon="4.59353">
        <ele>488.97</ele>
        <time>2011-09-10T14:06:29Z</time>
      </trkpt>
      <trkpt lat="45.28876" lon="4.59304">
        <ele>488.49</ele>
        <time>2011-09-10T14:06:42Z</time>
      </trkpt>
      <trkpt lat="45.28894" lon="4.59248">
        <ele>490.41</ele>
        <time>2011-09-10T14:06:55Z</time>
      </trkpt>
      <trkpt lat="45.2892" lon="4.59178">
        <ele>491.85</ele>
        <time>2011-09-10T14:07:12Z</time>
      </trkpt>
      <trkpt lat="45.2895" lon="4.59119">
        <ele>493.29</ele>
        <time>2011-09-10T14:07:28Z</time>
      </trkpt>
      <trkpt lat="45.28977" lon="4.59082">
        <ele>493.77</ele>
        <time>2011-09-10T14:07:41Z</time>
      </trkpt>
      <trkpt lat="45.29003" lon="4.59029">
        <ele>493.77</ele>
        <time>2011-09-10T14:07:56Z</time>
      </trkpt>
      <trkpt lat="45.29035" lon="4.5899">
        <ele>491.85</ele>
        <time>2011-09-10T14:08:08Z</time>
      </trkpt>
      <trkpt lat="45.29066" lon="4.58964">
        <ele>488.97</ele>
        <time>2011-09-10T14:08:13Z</time>
      </trkpt>
      <trkpt lat="45.29074" lon="4.58955">
        <ele>488.01</ele>
        <time>2011-09-10T14:08:14Z</time>
      </trkpt>
      <trkpt lat="45.29081" lon="4.58946">
        <ele>487.05</ele>
        <time>2011-09-10T14:08:15Z</time>
      </trkpt>
      <trkpt lat="45.29087" lon="4.58937">
        <ele>485.6</ele>
        <time>2011-09-10T14:08:16Z</time>
      </trkpt>
      <trkpt lat="45.29093" lon="4.58933">
        <ele>485.12</ele>
        <time>2011-09-10T14:08:17Z</time>
      </trkpt>
      <trkpt lat="45.291" lon="4.58932">
        <ele>485.12</ele>
        <time>2011-09-10T14:08:18Z</time>
      </trkpt>
      <trkpt lat="45.29106" lon="4.58935">
        <ele>485.12</ele>
        <time>2011-09-10T14:08:19Z</time>
      </trkpt>
      <trkpt lat="45.29111" lon="4.58941">
        <ele>485.12</ele>
        <time>2011-09-10T14:08:20Z</time>
      </trkpt>
      <trkpt lat="45.29114" lon="4.58947">
        <ele>484.64</ele>
        <time>2011-09-10T14:08:21Z</time>
      </trkpt>
      <trkpt lat="45.29116" lon="4.58953">
        <ele>485.6</ele>
        <time>2011-09-10T14:08:22Z</time>
      </trkpt>
      <trkpt lat="45.29118" lon="4.58958">
        <ele>486.56</ele>
        <time>2011-09-10T14:08:23Z</time>
      </trkpt>
      <trkpt lat="45.29119" lon="4.58962">
        <ele>486.08</ele>
        <time>2011-09-10T14:08:24Z</time>
      </trkpt>
      <trkpt lat="45.29153" lon="4.59015">
        <ele>487.05</ele>
        <time>2011-09-10T14:08:39Z</time>
      </trkpt>
      <trkpt lat="45.29196" lon="4.5904">
        <ele>489.45</ele>
        <time>2011-09-10T14:08:54Z</time>
      </trkpt>
      <trkpt lat="45.29207" lon="4.59043">
        <ele>489.93</ele>
        <time>2011-09-10T14:08:58Z</time>
      </trkpt>
      <trkpt lat="45.29209" lon="4.59044">
        <ele>489.45</ele>
        <time>2011-09-10T14:08:59Z</time>
      </trkpt>
      <trkpt lat="45.2921" lon="4.59044">
        <ele>490.41</ele>
        <time>2011-09-10T14:09:00Z</time>
      </trkpt>
      <trkpt lat="45.29212" lon="4.59045">
        <ele>489.93</ele>
        <time>2011-09-10T14:09:01Z</time>
      </trkpt>
      <trkpt lat="45.29214" lon="4.59045">
        <ele>489.93</ele>
        <time>2011-09-10T14:09:02Z</time>
      </trkpt>
      <trkpt lat="45.2925" lon="4.59046">
        <ele>491.37</ele>
        <time>2011-09-10T14:09:15Z</time>
      </trkpt>
      <trkpt lat="45.29278" lon="4.5904">
        <ele>493.77</ele>
        <time>2011-09-10T14:09:28Z</time>
      </trkpt>
      <trkpt lat="45.29315" lon="4.59032">
        <ele>494.74</ele>
        <time>2011-09-10T14:09:39Z</time>
      </trkpt>
      <trkpt lat="45.29354" lon="4.59047">
        <ele>496.66</ele>
        <time>2011-09-10T14:09:51Z</time>
      </trkpt>
      <trkpt lat="45.29365" lon="4.59053">
        <ele>498.1</ele>
        <time>2011-09-10T14:09:56Z</time>
      </trkpt>
      <trkpt lat="45.29391" lon="4.59057">
        <ele>500.02</ele>
        <time>2011-09-10T14:10:08Z</time>
      </trkpt>
      <trkpt lat="45.29408" lon="4.59056">
        <ele>500.5</ele>
        <time>2011-09-10T14:10:16Z</time>
      </trkpt>
      <trkpt lat="45.29436" lon="4.59046">
        <ele>501.95</ele>
        <time>2011-09-10T14:10:29Z</time>
      </trkpt>
      <trkpt lat="45.29479" lon="4.5903">
        <ele>503.87</ele>
        <time>2011-09-10T14:10:46Z</time>
      </trkpt>
      <trkpt lat="45.2952" lon="4.59003">
        <ele>505.79</ele>
        <time>2011-09-10T14:11:03Z</time>
      </trkpt>
      <trkpt lat="45.29548" lon="4.58967">
        <ele>504.83</ele>
        <time>2011-09-10T14:11:16Z</time>
      </trkpt>
      <trkpt lat="45.29567" lon="4.58938">
        <ele>504.35</ele>
        <time>2011-09-10T14:11:23Z</time>
      </trkpt>
      <trkpt lat="45.29573" lon="4.58929">
        <ele>504.35</ele>
        <time>2011-09-10T14:11:25Z</time>
      </trkpt>
      <trkpt lat="45.29576" lon="4.58926">
        <ele>505.31</ele>
        <time>2011-09-10T14:11:26Z</time>
      </trkpt>
      <trkpt lat="45.2958" lon="4.58923">
        <ele>504.35</ele>
        <time>2011-09-10T14:11:27Z</time>
      </trkpt>
      <trkpt lat="45.2962" lon="4.58895">
        <ele>503.87</ele>
        <time>2011-09-10T14:11:38Z</time>
      </trkpt>
      <trkpt lat="45.29632" lon="4.58885">
        <ele>503.39</ele>
        <time>2011-09-10T14:11:41Z</time>
      </trkpt>
      <trkpt lat="45.29636" lon="4.58883">
        <ele>503.39</ele>
        <time>2011-09-10T14:11:42Z</time>
      </trkpt>
      <trkpt lat="45.29674" lon="4.5886">
        <ele>502.91</ele>
        <time>2011-09-10T14:11:55Z</time>
      </trkpt>
      <trkpt lat="45.29709" lon="4.58838">
        <ele>502.91</ele>
        <time>2011-09-10T14:12:08Z</time>
      </trkpt>
      <trkpt lat="45.29709" lon="4.58833">
        <ele>502.43</ele>
        <time>2011-09-10T14:12:16Z</time>
      </trkpt>
      <trkpt lat="45.29713" lon="4.58832">
        <ele>502.43</ele>
        <time>2011-09-10T14:12:22Z</time>
      </trkpt>
      <trkpt lat="45.29715" lon="4.58831">
        <ele>501.95</ele>
        <time>2011-09-10T14:12:23Z</time>
      </trkpt>
      <trkpt lat="45.29717" lon="4.58831">
        <ele>501.95</ele>
        <time>2011-09-10T14:12:24Z</time>
      </trkpt>
      <trkpt lat="45.2972" lon="4.5883">
        <ele>501.95</ele>
        <time>2011-09-10T14:12:25Z</time>
      </trkpt>
      <trkpt lat="45.29722" lon="4.5883">
        <ele>501.95</ele>
        <time>2011-09-10T14:12:26Z</time>
      </trkpt>
      <trkpt lat="45.29725" lon="4.58829">
        <ele>501.46</ele>
        <time>2011-09-10T14:12:27Z</time>
      </trkpt>
      <trkpt lat="45.29752" lon="4.58818">
        <ele>500.02</ele>
        <time>2011-09-10T14:12:33Z</time>
      </trkpt>
      <trkpt lat="45.29757" lon="4.58814">
        <ele>499.54</ele>
        <time>2011-09-10T14:12:34Z</time>
      </trkpt>
      <trkpt lat="45.29772" lon="4.58803">
        <ele>499.54</ele>
        <time>2011-09-10T14:12:37Z</time>
      </trkpt>
      <trkpt lat="45.29793" lon="4.58775">
        <ele>500.5</ele>
        <time>2011-09-10T14:12:43Z</time>
      </trkpt>
      <trkpt lat="45.29811" lon="4.58742">
        <ele>501.95</ele>
        <time>2011-09-10T14:12:54Z</time>
      </trkpt>
      <trkpt lat="45.2982" lon="4.58718">
        <ele>501.46</ele>
        <time>2011-09-10T14:13:01Z</time>
      </trkpt>
      <trkpt lat="45.29821" lon="4.58712">
        <ele>501.46</ele>
        <time>2011-09-10T14:13:02Z</time>
      </trkpt>
      <trkpt lat="45.29821" lon="4.58704">
        <ele>500.5</ele>
        <time>2011-09-10T14:13:03Z</time>
      </trkpt>
      <trkpt lat="45.29822" lon="4.58696">
        <ele>500.5</ele>
        <time>2011-09-10T14:13:04Z</time>
      </trkpt>
      <trkpt lat="45.29821" lon="4.58686">
        <ele>499.54</ele>
        <time>2011-09-10T14:13:05Z</time>
      </trkpt>
      <trkpt lat="45.29816" lon="4.5856">
        <ele>498.1</ele>
        <time>2011-09-10T14:13:19Z</time>
      </trkpt>
      <trkpt lat="45.2982" lon="4.58526">
        <ele>497.62</ele>
        <time>2011-09-10T14:13:24Z</time>
      </trkpt>
      <trkpt lat="45.29824" lon="4.58466">
        <ele>498.1</ele>
        <time>2011-09-10T14:13:35Z</time>
      </trkpt>
      <trkpt lat="45.29828" lon="4.58449">
        <ele>498.1</ele>
        <time>2011-09-10T14:13:38Z</time>
      </trkpt>
      <trkpt lat="45.29838" lon="4.584">
        <ele>497.14</ele>
        <time>2011-09-10T14:13:47Z</time>
      </trkpt>
      <trkpt lat="45.29841" lon="4.58395">
        <ele>498.1</ele>
        <time>2011-09-10T14:13:48Z</time>
      </trkpt>
      <trkpt lat="45.29843" lon="4.5839">
        <ele>497.62</ele>
        <time>2011-09-10T14:13:49Z</time>
      </trkpt>
      <trkpt lat="45.29849" lon="4.58381">
        <ele>497.62</ele>
        <time>2011-09-10T14:13:51Z</time>
      </trkpt>
      <trkpt lat="45.29855" lon="4.58372">
        <ele>497.62</ele>
        <time>2011-09-10T14:13:53Z</time>
      </trkpt>
      <trkpt lat="45.29859" lon="4.58369">
        <ele>497.62</ele>
        <time>2011-09-10T14:13:54Z</time>
      </trkpt>
      <trkpt lat="45.29893" lon="4.58347">
        <ele>499.06</ele>
        <time>2011-09-10T14:14:04Z</time>
      </trkpt>
      <trkpt lat="45.2992" lon="4.5832">
        <ele>499.06</ele>
        <time>2011-09-10T14:14:14Z</time>
      </trkpt>
      <trkpt lat="45.29919" lon="4.58315">
        <ele>498.58</ele>
        <time>2011-09-10T14:14:15Z</time>
      </trkpt>
      <trkpt lat="45.29909" lon="4.58271">
        <ele>499.06</ele>
        <time>2011-09-10T14:14:26Z</time>
      </trkpt>
      <trkpt lat="45.29907" lon="4.58268">
        <ele>498.58</ele>
        <time>2011-09-10T14:14:27Z</time>
      </trkpt>
      <trkpt lat="45.29906" lon="4.58266">
        <ele>499.06</ele>
        <time>2011-09-10T14:14:28Z</time>
      </trkpt>
      <trkpt lat="45.29906" lon="4.58263">
        <ele>499.06</ele>
        <time>2011-09-10T14:14:29Z</time>
      </trkpt>
      <trkpt lat="45.29906" lon="4.5826">
        <ele>499.06</ele>
        <time>2011-09-10T14:14:30Z</time>
      </trkpt>
      <trkpt lat="45.29906" lon="4.58257">
        <ele>498.1</ele>
        <time>2011-09-10T14:14:31Z</time>
      </trkpt>
      <trkpt lat="45.29906" lon="4.58254">
        <ele>498.58</ele>
        <time>2011-09-10T14:14:32Z</time>
      </trkpt>
      <trkpt lat="45.29905" lon="4.5825">
        <ele>499.06</ele>
        <time>2011-09-10T14:14:33Z</time>
      </trkpt>
      <trkpt lat="45.29902" lon="4.5821">
        <ele>499.54</ele>
        <time>2011-09-10T14:14:46Z</time>
      </trkpt>
      <trkpt lat="45.29906" lon="4.58189">
        <ele>500.5</ele>
        <time>2011-09-10T14:14:56Z</time>
      </trkpt>
      <trkpt lat="45.29904" lon="4.58189">
        <ele>500.02</ele>
        <time>2011-09-10T14:14:57Z</time>
      </trkpt>
      <trkpt lat="45.29903" lon="4.58188">
        <ele>499.54</ele>
        <time>2011-09-10T14:14:58Z</time>
      </trkpt>
      <trkpt lat="45.29901" lon="4.58187">
        <ele>500.02</ele>
        <time>2011-09-10T14:14:59Z</time>
      </trkpt>
      <trkpt lat="45.29899" lon="4.58185">
        <ele>499.54</ele>
        <time>2011-09-10T14:15:00Z</time>
      </trkpt>
      <trkpt lat="45.29898" lon="4.58183">
        <ele>500.02</ele>
        <time>2011-09-10T14:15:01Z</time>
      </trkpt>
      <trkpt lat="45.29897" lon="4.5818">
        <ele>499.06</ele>
        <time>2011-09-10T14:15:02Z</time>
      </trkpt>
      <trkpt lat="45.29897" lon="4.58177">
        <ele>499.54</ele>
        <time>2011-09-10T14:15:03Z</time>
      </trkpt>
      <trkpt lat="45.29896" lon="4.58175">
        <ele>499.06</ele>
        <time>2011-09-10T14:15:04Z</time>
      </trkpt>
      <trkpt lat="45.29895" lon="4.58173">
        <ele>499.54</ele>
        <time>2011-09-10T14:15:16Z</time>
      </trkpt>
      <trkpt lat="45.29894" lon="4.58174">
        <ele>499.54</ele>
        <time>2011-09-10T14:15:17Z</time>
      </trkpt>
      <trkpt lat="45.29894" lon="4.58176">
        <ele>499.54</ele>
        <time>2011-09-10T14:15:18Z</time>
      </trkpt>
      <trkpt lat="45.29895" lon="4.58179">
        <ele>500.02</ele>
        <time>2011-09-10T14:15:19Z</time>
      </trkpt>
      <trkpt lat="45.29918" lon="4.58185">
        <ele>500.98</ele>
        <time>2011-09-10T14:15:30Z</time>
      </trkpt>
      <trkpt lat="45.29938" lon="4.58168">
        <ele>502.43</ele>
        <time>2011-09-10T14:15:41Z</time>
      </trkpt>
      <trkpt lat="45.29964" lon="4.58165">
        <ele>504.83</ele>
        <time>2011-09-10T14:15:54Z</time>
      </trkpt>
      <trkpt lat="45.29965" lon="4.58166">
        <ele>505.31</ele>
        <time>2011-09-10T14:15:55Z</time>
      </trkpt>
      <trkpt lat="45.29971" lon="4.58171">
        <ele>506.27</ele>
        <time>2011-09-10T14:16:00Z</time>
      </trkpt>
      <trkpt lat="45.29975" lon="4.58192">
        <ele>506.27</ele>
        <time>2011-09-10T14:16:08Z</time>
      </trkpt>
      <trkpt lat="45.29985" lon="4.58259">
        <ele>507.23</ele>
        <time>2011-09-10T14:16:27Z</time>
      </trkpt>
      <trkpt lat="45.29996" lon="4.58292">
        <ele>507.23</ele>
        <time>2011-09-10T14:16:40Z</time>
      </trkpt>
      <trkpt lat="45.3" lon="4.58323">
        <ele>509.16</ele>
        <time>2011-09-10T14:16:53Z</time>
      </trkpt>
      <trkpt lat="45.30003" lon="4.5836">
        <ele>512.04</ele>
        <time>2011-09-10T14:17:11Z</time>
      </trkpt>
      <trkpt lat="45.3001" lon="4.58386">
        <ele>515.4</ele>
        <time>2011-09-10T14:17:25Z</time>
      </trkpt>
      <trkpt lat="45.30024" lon="4.58416">
        <ele>518.29</ele>
        <time>2011-09-10T14:17:43Z</time>
      </trkpt>
      <trkpt lat="45.30032" lon="4.5844">
        <ele>521.17</ele>
        <time>2011-09-10T14:17:57Z</time>
      </trkpt>
      <trkpt lat="45.30044" lon="4.58469">
        <ele>523.58</ele>
        <time>2011-09-10T14:18:14Z</time>
      </trkpt>
      <trkpt lat="45.30061" lon="4.58494">
        <ele>526.94</ele>
        <time>2011-09-10T14:18:32Z</time>
      </trkpt>
      <trkpt lat="45.30079" lon="4.58514">
        <ele>528.86</ele>
        <time>2011-09-10T14:18:48Z</time>
      </trkpt>
      <trkpt lat="45.30084" lon="4.58518">
        <ele>529.34</ele>
        <time>2011-09-10T14:18:54Z</time>
      </trkpt>
      <trkpt lat="45.30086" lon="4.58521">
        <ele>528.38</ele>
        <time>2011-09-10T14:19:10Z</time>
      </trkpt>
      <trkpt lat="45.30086" lon="4.58521">
        <ele>528.38</ele>
        <time>2011-09-10T14:19:48Z</time>
      </trkpt>
      <trkpt lat="45.30085" lon="4.58522">
        <ele>529.34</ele>
        <time>2011-09-10T14:20:18Z</time>
      </trkpt>
      <trkpt lat="45.30097" lon="4.58546">
        <ele>529.34</ele>
        <time>2011-09-10T14:20:31Z</time>
      </trkpt>
      <trkpt lat="45.30113" lon="4.58571">
        <ele>531.27</ele>
        <time>2011-09-10T14:20:45Z</time>
      </trkpt>
      <trkpt lat="45.3013" lon="4.58598">
        <ele>532.23</ele>
        <time>2011-09-10T14:21:01Z</time>
      </trkpt>
      <trkpt lat="45.30148" lon="4.58622">
        <ele>533.67</ele>
        <time>2011-09-10T14:21:16Z</time>
      </trkpt>
      <trkpt lat="45.30166" lon="4.58647">
        <ele>535.11</ele>
        <time>2011-09-10T14:21:32Z</time>
      </trkpt>
      <trkpt lat="45.30171" lon="4.58654">
        <ele>536.07</ele>
        <time>2011-09-10T14:21:37Z</time>
      </trkpt>
      <trkpt lat="45.3018" lon="4.58662">
        <ele>537.03</ele>
        <time>2011-09-10T14:21:43Z</time>
      </trkpt>
      <trkpt lat="45.30201" lon="4.58681">
        <ele>538.48</ele>
        <time>2011-09-10T14:21:58Z</time>
      </trkpt>
      <trkpt lat="45.30238" lon="4.58707">
        <ele>536.55</ele>
        <time>2011-09-10T14:22:09Z</time>
      </trkpt>
      <trkpt lat="45.30248" lon="4.58712">
        <ele>535.59</ele>
        <time>2011-09-10T14:22:11Z</time>
      </trkpt>
      <trkpt lat="45.30254" lon="4.58714">
        <ele>535.59</ele>
        <time>2011-09-10T14:22:12Z</time>
      </trkpt>
      <trkpt lat="45.3026" lon="4.58715">
        <ele>535.11</ele>
        <time>2011-09-10T14:22:13Z</time>
      </trkpt>
      <trkpt lat="45.30275" lon="4.58717">
        <ele>535.11</ele>
        <time>2011-09-10T14:22:16Z</time>
      </trkpt>
      <trkpt lat="45.30316" lon="4.58706">
        <ele>536.55</ele>
        <time>2011-09-10T14:22:28Z</time>
      </trkpt>
      <trkpt lat="45.30336" lon="4.587">
        <ele>538.48</ele>
        <time>2011-09-10T14:22:37Z</time>
      </trkpt>
      <trkpt lat="45.30365" lon="4.58702">
        <ele>537.03</ele>
        <time>2011-09-10T14:22:49Z</time>
      </trkpt>
      <trkpt lat="45.30385" lon="4.58697">
        <ele>537.03</ele>
        <time>2011-09-10T14:22:54Z</time>
      </trkpt>
      <trkpt lat="45.30389" lon="4.58695">
        <ele>536.55</ele>
        <time>2011-09-10T14:22:55Z</time>
      </trkpt>
      <trkpt lat="45.30394" lon="4.58693">
        <ele>536.07</ele>
        <time>2011-09-10T14:22:56Z</time>
      </trkpt>
      <trkpt lat="45.304" lon="4.58692">
        <ele>536.07</ele>
        <time>2011-09-10T14:22:57Z</time>
      </trkpt>
      <trkpt lat="45.30405" lon="4.58693">
        <ele>536.07</ele>
        <time>2011-09-10T14:22:58Z</time>
      </trkpt>
      <trkpt lat="45.30409" lon="4.58695">
        <ele>535.11</ele>
        <time>2011-09-10T14:22:59Z</time>
      </trkpt>
      <trkpt lat="45.30413" lon="4.58698">
        <ele>535.59</ele>
        <time>2011-09-10T14:23:00Z</time>
      </trkpt>
      <trkpt lat="45.30416" lon="4.58702">
        <ele>535.11</ele>
        <time>2011-09-10T14:23:01Z</time>
      </trkpt>
      <trkpt lat="45.30418" lon="4.58706">
        <ele>535.11</ele>
        <time>2011-09-10T14:23:02Z</time>
      </trkpt>
      <trkpt lat="45.30421" lon="4.58709">
        <ele>535.11</ele>
        <time>2011-09-10T14:23:03Z</time>
      </trkpt>
      <trkpt lat="45.30441" lon="4.58725">
        <ele>537.51</ele>
        <time>2011-09-10T14:23:15Z</time>
      </trkpt>
      <trkpt lat="45.30464" lon="4.58734">
        <ele>538.96</ele>
        <time>2011-09-10T14:23:29Z</time>
      </trkpt>
      <trkpt lat="45.30465" lon="4.58734">
        <ele>539.44</ele>
        <time>2011-09-10T14:23:30Z</time>
      </trkpt>
      <trkpt lat="45.3048" lon="4.58737">
        <ele>540.88</ele>
        <time>2011-09-10T14:23:42Z</time>
      </trkpt>
      <trkpt lat="45.30501" lon="4.58746">
        <ele>542.32</ele>
        <time>2011-09-10T14:23:54Z</time>
      </trkpt>
      <trkpt lat="45.3052" lon="4.58751">
        <ele>543.76</ele>
        <time>2011-09-10T14:24:06Z</time>
      </trkpt>
      <trkpt lat="45.30525" lon="4.58751">
        <ele>544.24</ele>
        <time>2011-09-10T14:24:10Z</time>
      </trkpt>
      <trkpt lat="45.30526" lon="4.58751">
        <ele>544.72</ele>
        <time>2011-09-10T14:24:11Z</time>
      </trkpt>
      <trkpt lat="45.30543" lon="4.58756">
        <ele>546.17</ele>
        <time>2011-09-10T14:24:23Z</time>
      </trkpt>
      <trkpt lat="45.30551" lon="4.58761">
        <ele>546.17</ele>
        <time>2011-09-10T14:24:28Z</time>
      </trkpt>
      <trkpt lat="45.30552" lon="4.58762">
        <ele>546.65</ele>
        <time>2011-09-10T14:24:29Z</time>
      </trkpt>
      <trkpt lat="45.30554" lon="4.58763">
        <ele>546.17</ele>
        <time>2011-09-10T14:24:30Z</time>
      </trkpt>
      <trkpt lat="45.30555" lon="4.58765">
        <ele>546.65</ele>
        <time>2011-09-10T14:24:31Z</time>
      </trkpt>
      <trkpt lat="45.30557" lon="4.58765">
        <ele>546.65</ele>
        <time>2011-09-10T14:24:32Z</time>
      </trkpt>
      <trkpt lat="45.30558" lon="4.58766">
        <ele>547.13</ele>
        <time>2011-09-10T14:24:33Z</time>
      </trkpt>
      <trkpt lat="45.30575" lon="4.58776">
        <ele>549.05</ele>
        <time>2011-09-10T14:24:46Z</time>
      </trkpt>
      <trkpt lat="45.30585" lon="4.58786">
        <ele>550.49</ele>
        <time>2011-09-10T14:24:57Z</time>
      </trkpt>
      <trkpt lat="45.30589" lon="4.58789">
        <ele>550.97</ele>
        <time>2011-09-10T14:25:01Z</time>
      </trkpt>
      <trkpt lat="45.30603" lon="4.58797">
        <ele>553.38</ele>
        <time>2011-09-10T14:25:13Z</time>
      </trkpt>
      <trkpt lat="45.30613" lon="4.58804">
        <ele>554.34</ele>
        <time>2011-09-10T14:25:26Z</time>
      </trkpt>
      <trkpt lat="45.30612" lon="4.58804">
        <ele>554.34</ele>
        <time>2011-09-10T14:25:38Z</time>
      </trkpt>
      <trkpt lat="45.30612" lon="4.58804">
        <ele>554.34</ele>
        <time>2011-09-10T14:26:04Z</time>
      </trkpt>
      <trkpt lat="45.30612" lon="4.58804">
        <ele>554.82</ele>
        <time>2011-09-10T14:26:29Z</time>
      </trkpt>
      <trkpt lat="45.30612" lon="4.58804">
        <ele>554.82</ele>
        <time>2011-09-10T14:26:54Z</time>
      </trkpt>
      <trkpt lat="45.30612" lon="4.58804">
        <ele>554.34</ele>
        <time>2011-09-10T14:27:21Z</time>
      </trkpt>
      <trkpt lat="45.30612" lon="4.58804">
        <ele>554.82</ele>
        <time>2011-09-10T14:27:47Z</time>
      </trkpt>
      <trkpt lat="45.30617" lon="4.58805">
        <ele>554.34</ele>
        <time>2011-09-10T14:27:58Z</time>
      </trkpt>
      <trkpt lat="45.30621" lon="4.58809">
        <ele>554.82</ele>
        <time>2011-09-10T14:28:02Z</time>
      </trkpt>
      <trkpt lat="45.30622" lon="4.5881">
        <ele>555.3</ele>
        <time>2011-09-10T14:28:03Z</time>
      </trkpt>
      <trkpt lat="45.30623" lon="4.58811">
        <ele>555.78</ele>
        <time>2011-09-10T14:28:04Z</time>
      </trkpt>
      <trkpt lat="45.30624" lon="4.58813">
        <ele>555.78</ele>
        <time>2011-09-10T14:28:05Z</time>
      </trkpt>
      <trkpt lat="45.30625" lon="4.58814">
        <ele>555.78</ele>
        <time>2011-09-10T14:28:06Z</time>
      </trkpt>
      <trkpt lat="45.30627" lon="4.58815">
        <ele>556.26</ele>
        <time>2011-09-10T14:28:07Z</time>
      </trkpt>
      <trkpt lat="45.30628" lon="4.58816">
        <ele>556.26</ele>
        <time>2011-09-10T14:28:08Z</time>
      </trkpt>
      <trkpt lat="45.30629" lon="4.58817">
        <ele>557.22</ele>
        <time>2011-09-10T14:28:09Z</time>
      </trkpt>
      <trkpt lat="45.3063" lon="4.58818">
        <ele>556.74</ele>
        <time>2011-09-10T14:28:10Z</time>
      </trkpt>
      <trkpt lat="45.30631" lon="4.58819">
        <ele>556.74</ele>
        <time>2011-09-10T14:28:11Z</time>
      </trkpt>
      <trkpt lat="45.30645" lon="4.58829">
        <ele>558.66</ele>
        <time>2011-09-10T14:28:23Z</time>
      </trkpt>
      <trkpt lat="45.30655" lon="4.58838">
        <ele>559.62</ele>
        <time>2011-09-10T14:28:34Z</time>
      </trkpt>
      <trkpt lat="45.30657" lon="4.58842">
        <ele>560.59</ele>
        <time>2011-09-10T14:28:37Z</time>
      </trkpt>
      <trkpt lat="45.30673" lon="4.58854">
        <ele>562.99</ele>
        <time>2011-09-10T14:28:51Z</time>
      </trkpt>
      <trkpt lat="45.3069" lon="4.58867">
        <ele>563.95</ele>
        <time>2011-09-10T14:29:07Z</time>
      </trkpt>
      <trkpt lat="45.30702" lon="4.58873">
        <ele>564.91</ele>
        <time>2011-09-10T14:29:18Z</time>
      </trkpt>
      <trkpt lat="45.30703" lon="4.58874">
        <ele>565.87</ele>
        <time>2011-09-10T14:29:19Z</time>
      </trkpt>
      <trkpt lat="45.30704" lon="4.58875">
        <ele>565.39</ele>
        <time>2011-09-10T14:29:20Z</time>
      </trkpt>
      <trkpt lat="45.30705" lon="4.58876">
        <ele>565.39</ele>
        <time>2011-09-10T14:29:21Z</time>
      </trkpt>
      <trkpt lat="45.3071" lon="4.5888">
        <ele>565.87</ele>
        <time>2011-09-10T14:29:26Z</time>
      </trkpt>
      <trkpt lat="45.30711" lon="4.58881">
        <ele>566.35</ele>
        <time>2011-09-10T14:29:27Z</time>
      </trkpt>
      <trkpt lat="45.30712" lon="4.58882">
        <ele>566.35</ele>
        <time>2011-09-10T14:29:28Z</time>
      </trkpt>
      <trkpt lat="45.30712" lon="4.58885">
        <ele>566.83</ele>
        <time>2011-09-10T14:29:30Z</time>
      </trkpt>
      <trkpt lat="45.30712" lon="4.58887">
        <ele>566.83</ele>
        <time>2011-09-10T14:29:31Z</time>
      </trkpt>
      <trkpt lat="45.30712" lon="4.58889">
        <ele>566.83</ele>
        <time>2011-09-10T14:29:32Z</time>
      </trkpt>
      <trkpt lat="45.30712" lon="4.58891">
        <ele>566.83</ele>
        <time>2011-09-10T14:29:33Z</time>
      </trkpt>
      <trkpt lat="45.30712" lon="4.58893">
        <ele>567.32</ele>
        <time>2011-09-10T14:29:34Z</time>
      </trkpt>
      <trkpt lat="45.30711" lon="4.58895">
        <ele>567.32</ele>
        <time>2011-09-10T14:29:35Z</time>
      </trkpt>
      <trkpt lat="45.30711" lon="4.58896">
        <ele>567.32</ele>
        <time>2011-09-10T14:29:36Z</time>
      </trkpt>
      <trkpt lat="45.30709" lon="4.58898">
        <ele>567.32</ele>
        <time>2011-09-10T14:29:37Z</time>
      </trkpt>
      <trkpt lat="45.30708" lon="4.58899">
        <ele>567.8</ele>
        <time>2011-09-10T14:29:38Z</time>
      </trkpt>
      <trkpt lat="45.30707" lon="4.58901">
        <ele>567.32</ele>
        <time>2011-09-10T14:29:39Z</time>
      </trkpt>
      <trkpt lat="45.30706" lon="4.58902">
        <ele>567.32</ele>
        <time>2011-09-10T14:29:40Z</time>
      </trkpt>
      <trkpt lat="45.30702" lon="4.58909">
        <ele>568.28</ele>
        <time>2011-09-10T14:29:45Z</time>
      </trkpt>
      <trkpt lat="45.30701" lon="4.58911">
        <ele>568.28</ele>
        <time>2011-09-10T14:29:46Z</time>
      </trkpt>
      <trkpt lat="45.30701" lon="4.58914">
        <ele>568.28</ele>
        <time>2011-09-10T14:29:47Z</time>
      </trkpt>
      <trkpt lat="45.307" lon="4.58917">
        <ele>568.76</ele>
        <time>2011-09-10T14:29:49Z</time>
      </trkpt>
      <trkpt lat="45.30699" lon="4.58918">
        <ele>569.24</ele>
        <time>2011-09-10T14:29:50Z</time>
      </trkpt>
      <trkpt lat="45.30698" lon="4.58924">
        <ele>569.72</ele>
        <time>2011-09-10T14:29:53Z</time>
      </trkpt>
      <trkpt lat="45.30697" lon="4.58925">
        <ele>569.72</ele>
        <time>2011-09-10T14:29:54Z</time>
      </trkpt>
      <trkpt lat="45.30697" lon="4.58927">
        <ele>570.2</ele>
        <time>2011-09-10T14:29:55Z</time>
      </trkpt>
      <trkpt lat="45.30697" lon="4.58929">
        <ele>569.72</ele>
        <time>2011-09-10T14:29:56Z</time>
      </trkpt>
      <trkpt lat="45.30697" lon="4.58932">
        <ele>569.72</ele>
        <time>2011-09-10T14:29:57Z</time>
      </trkpt>
      <trkpt lat="45.30698" lon="4.58933">
        <ele>570.68</ele>
        <time>2011-09-10T14:29:58Z</time>
      </trkpt>
      <trkpt lat="45.30698" lon="4.58935">
        <ele>570.68</ele>
        <time>2011-09-10T14:29:59Z</time>
      </trkpt>
      <trkpt lat="45.30705" lon="4.58947">
        <ele>571.64</ele>
        <time>2011-09-10T14:30:07Z</time>
      </trkpt>
      <trkpt lat="45.30706" lon="4.58949">
        <ele>571.64</ele>
        <time>2011-09-10T14:30:08Z</time>
      </trkpt>
      <trkpt lat="45.30707" lon="4.5895">
        <ele>572.12</ele>
        <time>2011-09-10T14:30:09Z</time>
      </trkpt>
      <trkpt lat="45.30708" lon="4.58951">
        <ele>571.64</ele>
        <time>2011-09-10T14:30:10Z</time>
      </trkpt>
      <trkpt lat="45.30709" lon="4.58953">
        <ele>572.12</ele>
        <time>2011-09-10T14:30:11Z</time>
      </trkpt>
      <trkpt lat="45.3071" lon="4.58954">
        <ele>572.6</ele>
        <time>2011-09-10T14:30:12Z</time>
      </trkpt>
      <trkpt lat="45.30712" lon="4.58957">
        <ele>572.12</ele>
        <time>2011-09-10T14:30:14Z</time>
      </trkpt>
      <trkpt lat="45.30713" lon="4.58958">
        <ele>572.12</ele>
        <time>2011-09-10T14:30:15Z</time>
      </trkpt>
      <trkpt lat="45.30714" lon="4.5896">
        <ele>572.6</ele>
        <time>2011-09-10T14:30:17Z</time>
      </trkpt>
      <trkpt lat="45.30722" lon="4.58978">
        <ele>574.53</ele>
        <time>2011-09-10T14:30:28Z</time>
      </trkpt>
      <trkpt lat="45.30722" lon="4.58979">
        <ele>575.01</ele>
        <time>2011-09-10T14:30:29Z</time>
      </trkpt>
      <trkpt lat="45.30725" lon="4.58983">
        <ele>574.53</ele>
        <time>2011-09-10T14:30:32Z</time>
      </trkpt>
      <trkpt lat="45.30726" lon="4.58985">
        <ele>575.01</ele>
        <time>2011-09-10T14:30:33Z</time>
      </trkpt>
      <trkpt lat="45.30727" lon="4.58989">
        <ele>576.45</ele>
        <time>2011-09-10T14:30:35Z</time>
      </trkpt>
      <trkpt lat="45.30728" lon="4.58991">
        <ele>575.97</ele>
        <time>2011-09-10T14:30:48Z</time>
      </trkpt>
      <trkpt lat="45.30733" lon="4.59002">
        <ele>577.41</ele>
        <time>2011-09-10T14:31:02Z</time>
      </trkpt>
      <trkpt lat="45.30743" lon="4.59018">
        <ele>579.33</ele>
        <time>2011-09-10T14:31:16Z</time>
      </trkpt>
      <trkpt lat="45.30749" lon="4.59031">
        <ele>580.77</ele>
        <time>2011-09-10T14:31:28Z</time>
      </trkpt>
      <trkpt lat="45.30759" lon="4.59051">
        <ele>582.22</ele>
        <time>2011-09-10T14:31:45Z</time>
      </trkpt>
      <trkpt lat="45.30767" lon="4.59063">
        <ele>584.14</ele>
        <time>2011-09-10T14:31:59Z</time>
      </trkpt>
      <trkpt lat="45.30774" lon="4.59077">
        <ele>585.1</ele>
        <time>2011-09-10T14:32:12Z</time>
      </trkpt>
      <trkpt lat="45.30778" lon="4.59088">
        <ele>586.06</ele>
        <time>2011-09-10T14:32:26Z</time>
      </trkpt>
      <trkpt lat="45.30788" lon="4.59101">
        <ele>588.46</ele>
        <time>2011-09-10T14:32:42Z</time>
      </trkpt>
      <trkpt lat="45.30795" lon="4.5912">
        <ele>589.43</ele>
        <time>2011-09-10T14:32:56Z</time>
      </trkpt>
      <trkpt lat="45.30792" lon="4.59134">
        <ele>590.87</ele>
        <time>2011-09-10T14:33:09Z</time>
      </trkpt>
      <trkpt lat="45.30785" lon="4.59143">
        <ele>592.31</ele>
        <time>2011-09-10T14:33:21Z</time>
      </trkpt>
      <trkpt lat="45.30784" lon="4.59145">
        <ele>592.31</ele>
        <time>2011-09-10T14:33:43Z</time>
      </trkpt>
      <trkpt lat="45.30783" lon="4.59148">
        <ele>592.31</ele>
        <time>2011-09-10T14:33:45Z</time>
      </trkpt>
      <trkpt lat="45.30775" lon="4.5916">
        <ele>594.23</ele>
        <time>2011-09-10T14:33:57Z</time>
      </trkpt>
      <trkpt lat="45.30774" lon="4.59171">
        <ele>595.67</ele>
        <time>2011-09-10T14:34:10Z</time>
      </trkpt>
      <trkpt lat="45.30773" lon="4.59182">
        <ele>596.64</ele>
        <time>2011-09-10T14:34:22Z</time>
      </trkpt>
      <trkpt lat="45.30774" lon="4.59205">
        <ele>598.08</ele>
        <time>2011-09-10T14:34:38Z</time>
      </trkpt>
      <trkpt lat="45.30776" lon="4.59219">
        <ele>600.48</ele>
        <time>2011-09-10T14:34:52Z</time>
      </trkpt>
      <trkpt lat="45.30777" lon="4.59224">
        <ele>600.48</ele>
        <time>2011-09-10T14:35:08Z</time>
      </trkpt>
      <trkpt lat="45.30779" lon="4.5923">
        <ele>600.96</ele>
        <time>2011-09-10T14:35:13Z</time>
      </trkpt>
      <trkpt lat="45.3078" lon="4.59245">
        <ele>602.88</ele>
        <time>2011-09-10T14:35:26Z</time>
      </trkpt>
      <trkpt lat="45.3078" lon="4.59248">
        <ele>603.36</ele>
        <time>2011-09-10T14:35:28Z</time>
      </trkpt>
      <trkpt lat="45.30782" lon="4.59264">
        <ele>604.81</ele>
        <time>2011-09-10T14:35:41Z</time>
      </trkpt>
      <trkpt lat="45.30785" lon="4.59276">
        <ele>605.29</ele>
        <time>2011-09-10T14:35:53Z</time>
      </trkpt>
      <trkpt lat="45.30787" lon="4.59283">
        <ele>606.25</ele>
        <time>2011-09-10T14:35:59Z</time>
      </trkpt>
      <trkpt lat="45.30793" lon="4.59299">
        <ele>609.13</ele>
        <time>2011-09-10T14:36:13Z</time>
      </trkpt>
      <trkpt lat="45.30798" lon="4.5931">
        <ele>609.61</ele>
        <time>2011-09-10T14:36:26Z</time>
      </trkpt>
      <trkpt lat="45.30808" lon="4.59324">
        <ele>611.54</ele>
        <time>2011-09-10T14:36:39Z</time>
      </trkpt>
      <trkpt lat="45.30814" lon="4.59335">
        <ele>612.98</ele>
        <time>2011-09-10T14:36:55Z</time>
      </trkpt>
      <trkpt lat="45.30818" lon="4.59342">
        <ele>613.94</ele>
        <time>2011-09-10T14:37:12Z</time>
      </trkpt>
      <trkpt lat="45.30824" lon="4.59355">
        <ele>614.9</ele>
        <time>2011-09-10T14:37:26Z</time>
      </trkpt>
      <trkpt lat="45.30829" lon="4.59365">
        <ele>616.34</ele>
        <time>2011-09-10T14:37:40Z</time>
      </trkpt>
      <trkpt lat="45.30835" lon="4.59375">
        <ele>617.3</ele>
        <time>2011-09-10T14:37:52Z</time>
      </trkpt>
      <trkpt lat="45.30842" lon="4.59392">
        <ele>619.23</ele>
        <time>2011-09-10T14:38:06Z</time>
      </trkpt>
      <trkpt lat="45.30843" lon="4.59397">
        <ele>620.19</ele>
        <time>2011-09-10T14:38:22Z</time>
      </trkpt>
      <trkpt lat="45.30843" lon="4.59397">
        <ele>621.15</ele>
        <time>2011-09-10T14:38:38Z</time>
      </trkpt>
      <trkpt lat="45.30851" lon="4.59413">
        <ele>622.11</ele>
        <time>2011-09-10T14:38:52Z</time>
      </trkpt>
      <trkpt lat="45.30856" lon="4.59424">
        <ele>623.07</ele>
        <time>2011-09-10T14:39:06Z</time>
      </trkpt>
      <trkpt lat="45.30862" lon="4.59436">
        <ele>624.51</ele>
        <time>2011-09-10T14:39:20Z</time>
      </trkpt>
      <trkpt lat="45.30869" lon="4.59449">
        <ele>626.44</ele>
        <time>2011-09-10T14:39:33Z</time>
      </trkpt>
      <trkpt lat="45.30875" lon="4.59457">
        <ele>627.88</ele>
        <time>2011-09-10T14:39:42Z</time>
      </trkpt>
      <trkpt lat="45.30876" lon="4.59459">
        <ele>626.92</ele>
        <time>2011-09-10T14:39:44Z</time>
      </trkpt>
      <trkpt lat="45.30886" lon="4.59472">
        <ele>629.8</ele>
        <time>2011-09-10T14:39:57Z</time>
      </trkpt>
      <trkpt lat="45.30889" lon="4.59474">
        <ele>630.28</ele>
        <time>2011-09-10T14:40:11Z</time>
      </trkpt>
      <trkpt lat="45.30895" lon="4.59484">
        <ele>631.72</ele>
        <time>2011-09-10T14:40:21Z</time>
      </trkpt>
      <trkpt lat="45.309" lon="4.59494">
        <ele>633.17</ele>
        <time>2011-09-10T14:40:28Z</time>
      </trkpt>
      <trkpt lat="45.30901" lon="4.59498">
        <ele>633.17</ele>
        <time>2011-09-10T14:40:31Z</time>
      </trkpt>
      <trkpt lat="45.30902" lon="4.595">
        <ele>633.17</ele>
        <time>2011-09-10T14:40:32Z</time>
      </trkpt>
      <trkpt lat="45.30903" lon="4.59501">
        <ele>633.17</ele>
        <time>2011-09-10T14:40:33Z</time>
      </trkpt>
      <trkpt lat="45.30904" lon="4.59502">
        <ele>633.65</ele>
        <time>2011-09-10T14:40:34Z</time>
      </trkpt>
      <trkpt lat="45.30905" lon="4.59504">
        <ele>634.13</ele>
        <time>2011-09-10T14:40:35Z</time>
      </trkpt>
      <trkpt lat="45.30906" lon="4.59505">
        <ele>633.65</ele>
        <time>2011-09-10T14:40:36Z</time>
      </trkpt>
      <trkpt lat="45.30907" lon="4.59507">
        <ele>634.13</ele>
        <time>2011-09-10T14:40:37Z</time>
      </trkpt>
      <trkpt lat="45.30908" lon="4.59508">
        <ele>634.13</ele>
        <time>2011-09-10T14:40:38Z</time>
      </trkpt>
      <trkpt lat="45.30909" lon="4.59509">
        <ele>634.13</ele>
        <time>2011-09-10T14:40:39Z</time>
      </trkpt>
      <trkpt lat="45.30909" lon="4.5951">
        <ele>635.09</ele>
        <time>2011-09-10T14:40:40Z</time>
      </trkpt>
      <trkpt lat="45.30911" lon="4.59512">
        <ele>634.61</ele>
        <time>2011-09-10T14:40:41Z</time>
      </trkpt>
      <trkpt lat="45.30912" lon="4.59512">
        <ele>635.57</ele>
        <time>2011-09-10T14:40:42Z</time>
      </trkpt>
      <trkpt lat="45.30913" lon="4.59513">
        <ele>635.57</ele>
        <time>2011-09-10T14:40:43Z</time>
      </trkpt>
      <trkpt lat="45.30915" lon="4.59514">
        <ele>635.57</ele>
        <time>2011-09-10T14:40:44Z</time>
      </trkpt>
      <trkpt lat="45.30916" lon="4.59515">
        <ele>635.57</ele>
        <time>2011-09-10T14:40:45Z</time>
      </trkpt>
      <trkpt lat="45.30917" lon="4.59516">
        <ele>636.05</ele>
        <time>2011-09-10T14:40:46Z</time>
      </trkpt>
      <trkpt lat="45.30918" lon="4.59517">
        <ele>636.05</ele>
        <time>2011-09-10T14:40:47Z</time>
      </trkpt>
      <trkpt lat="45.30918" lon="4.59518">
        <ele>636.05</ele>
        <time>2011-09-10T14:40:48Z</time>
      </trkpt>
      <trkpt lat="45.30919" lon="4.5952">
        <ele>636.05</ele>
        <time>2011-09-10T14:40:49Z</time>
      </trkpt>
      <trkpt lat="45.3093" lon="4.59539">
        <ele>638.45</ele>
        <time>2011-09-10T14:41:04Z</time>
      </trkpt>
      <trkpt lat="45.30931" lon="4.5954">
        <ele>638.45</ele>
        <time>2011-09-10T14:41:05Z</time>
      </trkpt>
      <trkpt lat="45.30935" lon="4.5955">
        <ele>638.93</ele>
        <time>2011-09-10T14:41:11Z</time>
      </trkpt>
      <trkpt lat="45.30935" lon="4.59553">
        <ele>639.41</ele>
        <time>2011-09-10T14:41:13Z</time>
      </trkpt>
      <trkpt lat="45.30936" lon="4.59555">
        <ele>639.89</ele>
        <time>2011-09-10T14:41:14Z</time>
      </trkpt>
      <trkpt lat="45.3094" lon="4.59569">
        <ele>640.86</ele>
        <time>2011-09-10T14:41:25Z</time>
      </trkpt>
      <trkpt lat="45.30942" lon="4.59574">
        <ele>641.34</ele>
        <time>2011-09-10T14:41:28Z</time>
      </trkpt>
      <trkpt lat="45.30943" lon="4.59582">
        <ele>641.82</ele>
        <time>2011-09-10T14:41:33Z</time>
      </trkpt>
      <trkpt lat="45.30946" lon="4.59591">
        <ele>643.26</ele>
        <time>2011-09-10T14:41:40Z</time>
      </trkpt>
      <trkpt lat="45.30946" lon="4.59592">
        <ele>643.26</ele>
        <time>2011-09-10T14:41:41Z</time>
      </trkpt>
      <trkpt lat="45.30952" lon="4.59609">
        <ele>644.7</ele>
        <time>2011-09-10T14:41:50Z</time>
      </trkpt>
      <trkpt lat="45.30958" lon="4.59625">
        <ele>645.66</ele>
        <time>2011-09-10T14:42:00Z</time>
      </trkpt>
      <trkpt lat="45.30967" lon="4.59644">
        <ele>648.07</ele>
        <time>2011-09-10T14:42:12Z</time>
      </trkpt>
      <trkpt lat="45.30978" lon="4.59665">
        <ele>649.99</ele>
        <time>2011-09-10T14:42:25Z</time>
      </trkpt>
      <trkpt lat="45.3098" lon="4.59677">
        <ele>651.43</ele>
        <time>2011-09-10T14:42:35Z</time>
      </trkpt>
      <trkpt lat="45.30981" lon="4.59683">
        <ele>651.91</ele>
        <time>2011-09-10T14:42:38Z</time>
      </trkpt>
      <trkpt lat="45.30981" lon="4.59685">
        <ele>651.91</ele>
        <time>2011-09-10T14:42:39Z</time>
      </trkpt>
      <trkpt lat="45.30982" lon="4.59687">
        <ele>653.35</ele>
        <time>2011-09-10T14:42:40Z</time>
      </trkpt>
      <trkpt lat="45.30983" lon="4.59693">
        <ele>653.35</ele>
        <time>2011-09-10T14:42:43Z</time>
      </trkpt>
      <trkpt lat="45.30984" lon="4.59696">
        <ele>653.83</ele>
        <time>2011-09-10T14:42:44Z</time>
      </trkpt>
      <trkpt lat="45.30985" lon="4.59698">
        <ele>653.83</ele>
        <time>2011-09-10T14:42:45Z</time>
      </trkpt>
      <trkpt lat="45.30985" lon="4.59701">
        <ele>654.31</ele>
        <time>2011-09-10T14:42:47Z</time>
      </trkpt>
      <trkpt lat="45.30992" lon="4.59726">
        <ele>655.76</ele>
        <time>2011-09-10T14:43:02Z</time>
      </trkpt>
      <trkpt lat="45.30995" lon="4.59737">
        <ele>656.72</ele>
        <time>2011-09-10T14:43:09Z</time>
      </trkpt>
      <trkpt lat="45.30996" lon="4.59739">
        <ele>658.16</ele>
        <time>2011-09-10T14:43:10Z</time>
      </trkpt>
      <trkpt lat="45.30996" lon="4.59741">
        <ele>657.2</ele>
        <time>2011-09-10T14:43:11Z</time>
      </trkpt>
      <trkpt lat="45.30997" lon="4.59743">
        <ele>657.2</ele>
        <time>2011-09-10T14:43:12Z</time>
      </trkpt>
      <trkpt lat="45.30997" lon="4.59744">
        <ele>657.68</ele>
        <time>2011-09-10T14:43:13Z</time>
      </trkpt>
      <trkpt lat="45.30999" lon="4.59766">
        <ele>659.12</ele>
        <time>2011-09-10T14:43:24Z</time>
      </trkpt>
      <trkpt lat="45.31004" lon="4.59795">
        <ele>661.52</ele>
        <time>2011-09-10T14:43:41Z</time>
      </trkpt>
      <trkpt lat="45.3101" lon="4.5982">
        <ele>664.41</ele>
        <time>2011-09-10T14:43:57Z</time>
      </trkpt>
      <trkpt lat="45.3101" lon="4.59827">
        <ele>664.89</ele>
        <time>2011-09-10T14:44:01Z</time>
      </trkpt>
      <trkpt lat="45.3101" lon="4.59829">
        <ele>665.37</ele>
        <time>2011-09-10T14:44:02Z</time>
      </trkpt>
      <trkpt lat="45.3101" lon="4.59831">
        <ele>664.89</ele>
        <time>2011-09-10T14:44:03Z</time>
      </trkpt>
      <trkpt lat="45.31009" lon="4.59844">
        <ele>666.33</ele>
        <time>2011-09-10T14:44:14Z</time>
      </trkpt>
      <trkpt lat="45.31005" lon="4.59846">
        <ele>666.81</ele>
        <time>2011-09-10T14:44:19Z</time>
      </trkpt>
      <trkpt lat="45.31" lon="4.59847">
        <ele>666.81</ele>
        <time>2011-09-10T14:44:23Z</time>
      </trkpt>
      <trkpt lat="45.30999" lon="4.59847">
        <ele>666.33</ele>
        <time>2011-09-10T14:44:27Z</time>
      </trkpt>
      <trkpt lat="45.31" lon="4.59849">
        <ele>666.33</ele>
        <time>2011-09-10T14:44:29Z</time>
      </trkpt>
      <trkpt lat="45.31" lon="4.59849">
        <ele>665.85</ele>
        <time>2011-09-10T14:44:47Z</time>
      </trkpt>
      <trkpt lat="45.31" lon="4.59849">
        <ele>666.81</ele>
        <time>2011-09-10T14:45:29Z</time>
      </trkpt>
      <trkpt lat="45.31" lon="4.59849">
        <ele>667.29</ele>
        <time>2011-09-10T14:46:08Z</time>
      </trkpt>
      <trkpt lat="45.30999" lon="4.59849">
        <ele>667.29</ele>
        <time>2011-09-10T14:46:52Z</time>
      </trkpt>
      <trkpt lat="45.30999" lon="4.59849">
        <ele>667.77</ele>
        <time>2011-09-10T14:47:31Z</time>
      </trkpt>
      <trkpt lat="45.30999" lon="4.59849">
        <ele>667.29</ele>
        <time>2011-09-10T14:48:04Z</time>
      </trkpt>
      <trkpt lat="45.30999" lon="4.59849">
        <ele>668.25</ele>
        <time>2011-09-10T14:48:44Z</time>
      </trkpt>
      <trkpt lat="45.30999" lon="4.59848">
        <ele>667.29</ele>
        <time>2011-09-10T14:48:58Z</time>
      </trkpt>
      <trkpt lat="45.31" lon="4.59847">
        <ele>667.77</ele>
        <time>2011-09-10T14:48:59Z</time>
      </trkpt>
      <trkpt lat="45.31003" lon="4.59844">
        <ele>667.29</ele>
        <time>2011-09-10T14:49:01Z</time>
      </trkpt>
      <trkpt lat="45.31008" lon="4.59838">
        <ele>667.29</ele>
        <time>2011-09-10T14:49:04Z</time>
      </trkpt>
      <trkpt lat="45.3101" lon="4.59838">
        <ele>666.81</ele>
        <time>2011-09-10T14:49:05Z</time>
      </trkpt>
      <trkpt lat="45.31011" lon="4.5984">
        <ele>667.29</ele>
        <time>2011-09-10T14:49:06Z</time>
      </trkpt>
      <trkpt lat="45.31014" lon="4.59845">
        <ele>667.29</ele>
        <time>2011-09-10T14:49:11Z</time>
      </trkpt>
      <trkpt lat="45.31015" lon="4.59844">
        <ele>667.29</ele>
        <time>2011-09-10T14:49:12Z</time>
      </trkpt>
      <trkpt lat="45.31017" lon="4.59844">
        <ele>667.29</ele>
        <time>2011-09-10T14:49:13Z</time>
      </trkpt>
      <trkpt lat="45.31018" lon="4.59844">
        <ele>667.29</ele>
        <time>2011-09-10T14:49:14Z</time>
      </trkpt>
      <trkpt lat="45.31019" lon="4.59845">
        <ele>667.77</ele>
        <time>2011-09-10T14:49:15Z</time>
      </trkpt>
      <trkpt lat="45.3102" lon="4.59846">
        <ele>667.29</ele>
        <time>2011-09-10T14:49:16Z</time>
      </trkpt>
      <trkpt lat="45.31021" lon="4.59848">
        <ele>667.29</ele>
        <time>2011-09-10T14:49:17Z</time>
      </trkpt>
      <trkpt lat="45.31022" lon="4.5985">
        <ele>667.29</ele>
        <time>2011-09-10T14:49:18Z</time>
      </trkpt>
      <trkpt lat="45.31046" lon="4.59873">
        <ele>667.29</ele>
        <time>2011-09-10T14:49:31Z</time>
      </trkpt>
      <trkpt lat="45.31048" lon="4.59878">
        <ele>666.81</ele>
        <time>2011-09-10T14:49:43Z</time>
      </trkpt>
      <trkpt lat="45.3105" lon="4.59883">
        <ele>666.81</ele>
        <time>2011-09-10T14:49:45Z</time>
      </trkpt>
      <trkpt lat="45.31052" lon="4.59886">
        <ele>665.85</ele>
        <time>2011-09-10T14:49:46Z</time>
      </trkpt>
      <trkpt lat="45.31055" lon="4.5989">
        <ele>665.37</ele>
        <time>2011-09-10T14:49:47Z</time>
      </trkpt>
      <trkpt lat="45.31058" lon="4.59895">
        <ele>664.41</ele>
        <time>2011-09-10T14:49:48Z</time>
      </trkpt>
      <trkpt lat="45.31062" lon="4.599">
        <ele>663.93</ele>
        <time>2011-09-10T14:49:49Z</time>
      </trkpt>
      <trkpt lat="45.31069" lon="4.59911">
        <ele>662.49</ele>
        <time>2011-09-10T14:49:51Z</time>
      </trkpt>
      <trkpt lat="45.3108" lon="4.59929">
        <ele>659.12</ele>
        <time>2011-09-10T14:49:54Z</time>
      </trkpt>
      <trkpt lat="45.3109" lon="4.59946">
        <ele>657.68</ele>
        <time>2011-09-10T14:49:57Z</time>
      </trkpt>
      <trkpt lat="45.31096" lon="4.59957">
        <ele>656.24</ele>
        <time>2011-09-10T14:49:59Z</time>
      </trkpt>
      <trkpt lat="45.31103" lon="4.59967">
        <ele>655.28</ele>
        <time>2011-09-10T14:50:01Z</time>
      </trkpt>
      <trkpt lat="45.31108" lon="4.59976">
        <ele>653.83</ele>
        <time>2011-09-10T14:50:03Z</time>
      </trkpt>
      <trkpt lat="45.31118" lon="4.59997">
        <ele>650.47</ele>
        <time>2011-09-10T14:50:07Z</time>
      </trkpt>
      <trkpt lat="45.31137" lon="4.60039">
        <ele>647.1</ele>
        <time>2011-09-10T14:50:13Z</time>
      </trkpt>
      <trkpt lat="45.31164" lon="4.6009">
        <ele>643.74</ele>
        <time>2011-09-10T14:50:21Z</time>
      </trkpt>
      <trkpt lat="45.31198" lon="4.60156">
        <ele>640.86</ele>
        <time>2011-09-10T14:50:31Z</time>
      </trkpt>
      <trkpt lat="45.31212" lon="4.60192">
        <ele>637.49</ele>
        <time>2011-09-10T14:50:35Z</time>
      </trkpt>
      <trkpt lat="45.31225" lon="4.60229">
        <ele>634.13</ele>
        <time>2011-09-10T14:50:40Z</time>
      </trkpt>
      <trkpt lat="45.31234" lon="4.60246">
        <ele>631.72</ele>
        <time>2011-09-10T14:50:44Z</time>
      </trkpt>
      <trkpt lat="45.31245" lon="4.60258">
        <ele>629.8</ele>
        <time>2011-09-10T14:50:47Z</time>
      </trkpt>
      <trkpt lat="45.31249" lon="4.60262">
        <ele>628.84</ele>
        <time>2011-09-10T14:50:48Z</time>
      </trkpt>
      <trkpt lat="45.31254" lon="4.60265">
        <ele>628.36</ele>
        <time>2011-09-10T14:50:49Z</time>
      </trkpt>
      <trkpt lat="45.31259" lon="4.60268">
        <ele>627.88</ele>
        <time>2011-09-10T14:50:50Z</time>
      </trkpt>
      <trkpt lat="45.3127" lon="4.60272">
        <ele>626.44</ele>
        <time>2011-09-10T14:50:52Z</time>
      </trkpt>
      <trkpt lat="45.31282" lon="4.60277">
        <ele>624.99</ele>
        <time>2011-09-10T14:50:54Z</time>
      </trkpt>
      <trkpt lat="45.31309" lon="4.60292">
        <ele>621.63</ele>
        <time>2011-09-10T14:50:59Z</time>
      </trkpt>
      <trkpt lat="45.31323" lon="4.60303">
        <ele>618.26</ele>
        <time>2011-09-10T14:51:02Z</time>
      </trkpt>
      <trkpt lat="45.31329" lon="4.60308">
        <ele>618.26</ele>
        <time>2011-09-10T14:51:03Z</time>
      </trkpt>
      <trkpt lat="45.31353" lon="4.60329">
        <ele>620.19</ele>
        <time>2011-09-10T14:51:11Z</time>
      </trkpt>
      <trkpt lat="45.31381" lon="4.60353">
        <ele>622.11</ele>
        <time>2011-09-10T14:51:31Z</time>
      </trkpt>
      <trkpt lat="45.31404" lon="4.60375">
        <ele>622.11</ele>
        <time>2011-09-10T14:51:49Z</time>
      </trkpt>
      <trkpt lat="45.31433" lon="4.60425">
        <ele>620.67</ele>
        <time>2011-09-10T14:52:00Z</time>
      </trkpt>
      <trkpt lat="45.31451" lon="4.60457">
        <ele>619.23</ele>
        <time>2011-09-10T14:52:04Z</time>
      </trkpt>
      <trkpt lat="45.31506" lon="4.60552">
        <ele>616.34</ele>
        <time>2011-09-10T14:52:14Z</time>
      </trkpt>
      <trkpt lat="45.31516" lon="4.60573">
        <ele>614.9</ele>
        <time>2011-09-10T14:52:16Z</time>
      </trkpt>
      <trkpt lat="45.31578" lon="4.60735">
        <ele>614.42</ele>
        <time>2011-09-10T14:52:33Z</time>
      </trkpt>
      <trkpt lat="45.31642" lon="4.60859">
        <ele>614.9</ele>
        <time>2011-09-10T14:52:48Z</time>
      </trkpt>
      <trkpt lat="45.31691" lon="4.60943">
        <ele>612.02</ele>
        <time>2011-09-10T14:52:58Z</time>
      </trkpt>
      <trkpt lat="45.31748" lon="4.61044">
        <ele>608.65</ele>
        <time>2011-09-10T14:53:10Z</time>
      </trkpt>
      <trkpt lat="45.31783" lon="4.61102">
        <ele>605.77</ele>
        <time>2011-09-10T14:53:17Z</time>
      </trkpt>
      <trkpt lat="45.31812" lon="4.61157">
        <ele>603.85</ele>
        <time>2011-09-10T14:53:23Z</time>
      </trkpt>
      <trkpt lat="45.3185" lon="4.61283">
        <ele>600.48</ele>
        <time>2011-09-10T14:53:34Z</time>
      </trkpt>
      <trkpt lat="45.31891" lon="4.61412">
        <ele>599.04</ele>
        <time>2011-09-10T14:53:47Z</time>
      </trkpt>
      <trkpt lat="45.31909" lon="4.61453">
        <ele>598.08</ele>
        <time>2011-09-10T14:53:57Z</time>
      </trkpt>
      <trkpt lat="45.31941" lon="4.61487">
        <ele>598.56</ele>
        <time>2011-09-10T14:54:07Z</time>
      </trkpt>
      <trkpt lat="45.31952" lon="4.61495">
        <ele>599.52</ele>
        <time>2011-09-10T14:54:10Z</time>
      </trkpt>
      <trkpt lat="45.31987" lon="4.61516">
        <ele>597.12</ele>
        <time>2011-09-10T14:54:21Z</time>
      </trkpt>
      <trkpt lat="45.32014" lon="4.61525">
        <ele>594.71</ele>
        <time>2011-09-10T14:54:31Z</time>
      </trkpt>
      <trkpt lat="45.32014" lon="4.61526">
        <ele>594.23</ele>
        <time>2011-09-10T14:54:32Z</time>
      </trkpt>
      <trkpt lat="45.32014" lon="4.61529">
        <ele>594.23</ele>
        <time>2011-09-10T14:54:33Z</time>
      </trkpt>
      <trkpt lat="45.32014" lon="4.61532">
        <ele>594.71</ele>
        <time>2011-09-10T14:54:34Z</time>
      </trkpt>
      <trkpt lat="45.32013" lon="4.61536">
        <ele>594.23</ele>
        <time>2011-09-10T14:54:35Z</time>
      </trkpt>
      <trkpt lat="45.31996" lon="4.61582">
        <ele>590.87</ele>
        <time>2011-09-10T14:54:45Z</time>
      </trkpt>
      <trkpt lat="45.3199" lon="4.61598">
        <ele>589.43</ele>
        <time>2011-09-10T14:54:48Z</time>
      </trkpt>
      <trkpt lat="45.31982" lon="4.61626">
        <ele>586.54</ele>
        <time>2011-09-10T14:54:53Z</time>
      </trkpt>
      <trkpt lat="45.3198" lon="4.61651">
        <ele>583.66</ele>
        <time>2011-09-10T14:54:57Z</time>
      </trkpt>
      <trkpt lat="45.31981" lon="4.61658">
        <ele>582.7</ele>
        <time>2011-09-10T14:54:58Z</time>
      </trkpt>
      <trkpt lat="45.31985" lon="4.61669">
        <ele>580.29</ele>
        <time>2011-09-10T14:55:01Z</time>
      </trkpt>
      <trkpt lat="45.31985" lon="4.61672">
        <ele>579.33</ele>
        <time>2011-09-10T14:55:02Z</time>
      </trkpt>
      <trkpt lat="45.31984" lon="4.61675">
        <ele>579.33</ele>
        <time>2011-09-10T14:55:03Z</time>
      </trkpt>
      <trkpt lat="45.31982" lon="4.61678">
        <ele>579.33</ele>
        <time>2011-09-10T14:55:04Z</time>
      </trkpt>
      <trkpt lat="45.31979" lon="4.61682">
        <ele>578.85</ele>
        <time>2011-09-10T14:55:05Z</time>
      </trkpt>
      <trkpt lat="45.31976" lon="4.61685">
        <ele>579.33</ele>
        <time>2011-09-10T14:55:06Z</time>
      </trkpt>
      <trkpt lat="45.31972" lon="4.61688">
        <ele>578.85</ele>
        <time>2011-09-10T14:55:07Z</time>
      </trkpt>
      <trkpt lat="45.31969" lon="4.61692">
        <ele>578.37</ele>
        <time>2011-09-10T14:55:08Z</time>
      </trkpt>
      <trkpt lat="45.31966" lon="4.61696">
        <ele>577.89</ele>
        <time>2011-09-10T14:55:09Z</time>
      </trkpt>
      <trkpt lat="45.31964" lon="4.61699">
        <ele>577.41</ele>
        <time>2011-09-10T14:55:10Z</time>
      </trkpt>
      <trkpt lat="45.31961" lon="4.61701">
        <ele>576.45</ele>
        <time>2011-09-10T14:55:11Z</time>
      </trkpt>
      <trkpt lat="45.31959" lon="4.61702">
        <ele>576.93</ele>
        <time>2011-09-10T14:55:12Z</time>
      </trkpt>
      <trkpt lat="45.31957" lon="4.61703">
        <ele>576.45</ele>
        <time>2011-09-10T14:55:13Z</time>
      </trkpt>
      <trkpt lat="45.31957" lon="4.61704">
        <ele>576.93</ele>
        <time>2011-09-10T14:55:16Z</time>
      </trkpt>
      <trkpt lat="45.31958" lon="4.61706">
        <ele>575.97</ele>
        <time>2011-09-10T14:55:17Z</time>
      </trkpt>
      <trkpt lat="45.3196" lon="4.61706">
        <ele>576.45</ele>
        <time>2011-09-10T14:55:18Z</time>
      </trkpt>
      <trkpt lat="45.31962" lon="4.61707">
        <ele>576.45</ele>
        <time>2011-09-10T14:55:30Z</time>
      </trkpt>
      <trkpt lat="45.31962" lon="4.61707">
        <ele>575.97</ele>
        <time>2011-09-10T14:55:55Z</time>
      </trkpt>
      <trkpt lat="45.31962" lon="4.61707">
        <ele>575.97</ele>
        <time>2011-09-10T14:56:18Z</time>
      </trkpt>
      <trkpt lat="45.31962" lon="4.61707">
        <ele>572.6</ele>
        <time>2011-09-10T14:56:30Z</time>
      </trkpt>
      <trkpt lat="45.31962" lon="4.61707">
        <ele>575.97</ele>
        <time>2011-09-10T14:56:31Z</time>
      </trkpt>
      <trkpt lat="45.31962" lon="4.61707">
        <ele>575.49</ele>
        <time>2011-09-10T14:56:50Z</time>
      </trkpt>
      <trkpt lat="45.31962" lon="4.61707">
        <ele>575.49</ele>
        <time>2011-09-10T14:57:19Z</time>
      </trkpt>
      <trkpt lat="45.31962" lon="4.61707">
        <ele>575.97</ele>
        <time>2011-09-10T14:57:34Z</time>
      </trkpt>
      <trkpt lat="45.31962" lon="4.61707">
        <ele>575.97</ele>
        <time>2011-09-10T14:57:52Z</time>
      </trkpt>
      <trkpt lat="45.31962" lon="4.61708">
        <ele>575.01</ele>
        <time>2011-09-10T14:58:02Z</time>
      </trkpt>
      <trkpt lat="45.31963" lon="4.61709">
        <ele>575.01</ele>
        <time>2011-09-10T14:58:03Z</time>
      </trkpt>
      <trkpt lat="45.31965" lon="4.61708">
        <ele>574.53</ele>
        <time>2011-09-10T14:58:04Z</time>
      </trkpt>
      <trkpt lat="45.31968" lon="4.61704">
        <ele>575.01</ele>
        <time>2011-09-10T14:58:06Z</time>
      </trkpt>
      <trkpt lat="45.31969" lon="4.61702">
        <ele>575.49</ele>
        <time>2011-09-10T14:58:07Z</time>
      </trkpt>
      <trkpt lat="45.3197" lon="4.617">
        <ele>575.01</ele>
        <time>2011-09-10T14:58:08Z</time>
      </trkpt>
      <trkpt lat="45.31972" lon="4.61698">
        <ele>575.49</ele>
        <time>2011-09-10T14:58:09Z</time>
      </trkpt>
      <trkpt lat="45.31974" lon="4.61695">
        <ele>575.49</ele>
        <time>2011-09-10T14:58:10Z</time>
      </trkpt>
      <trkpt lat="45.31988" lon="4.61683">
        <ele>575.97</ele>
        <time>2011-09-10T14:58:23Z</time>
      </trkpt>
      <trkpt lat="45.3199" lon="4.61683">
        <ele>575.49</ele>
        <time>2011-09-10T14:58:35Z</time>
      </trkpt>
      <trkpt lat="45.3199" lon="4.61683">
        <ele>576.93</ele>
        <time>2011-09-10T14:58:39Z</time>
      </trkpt>
      <trkpt lat="45.31989" lon="4.61682">
        <ele>575.01</ele>
        <time>2011-09-10T14:58:41Z</time>
      </trkpt>
      <trkpt lat="45.31991" lon="4.61683">
        <ele>574.53</ele>
        <time>2011-09-10T14:58:50Z</time>
      </trkpt>
    </trkseg>
  </trk>
</gpx>